<?xml version='1.0' encoding='UTF-8'?><gpx version="1.1" creator="JPX - https://github.com/jenetics/jpx" xmlns="http://www.topografix.com/GPX/1/1"><trk><trkseg><trkpt lat="45.6099797" lon="9.4271717"><ele>200.2857142857143</ele><time>2026-05-02T11:16:20.855Z</time></trkpt><trkpt lat="45.6099886" lon="9.4270801"><ele>200.57142857142858</ele><time>2026-05-02T11:18:29.854Z</time></trkpt><trkpt lat="45.6100025" lon="9.4269886"><ele>200.85714285714286</ele><time>2026-05-02T11:18:33.855Z</time></trkpt><trkpt lat="45.6100063" lon="9.42688"><ele>201.14285714285717</ele><time>2026-05-02T11:18:36.855Z</time></trkpt><trkpt lat="45.6100012" lon="9.4267562"><ele>201.42857142857142</ele><time>2026-05-02T11:18:39.854Z</time></trkpt><trkpt lat="45.6099724" lon="9.4266709"><ele>201.71428571428572</ele><time>2026-05-02T11:18:41.854Z</time></trkpt><trkpt lat="45.6099095" lon="9.4266549"><ele>202.0</ele><time>2026-05-02T11:18:43.855Z</time></trkpt><trkpt lat="45.6098375" lon="9.4266359"><ele>202.0</ele><time>2026-05-02T11:18:45.855Z</time></trkpt><trkpt lat="45.6097773" lon="9.4266022"><ele>202.0</ele><time>2026-05-02T11:18:47.854Z</time></trkpt><trkpt lat="45.609776" lon="9.426511"><ele>202.0</ele><time>2026-05-02T11:18:49.854Z</time></trkpt><trkpt lat="45.609778" lon="9.4264189"><ele>202.0</ele><time>2026-05-02T11:18:51.855Z</time></trkpt><trkpt lat="45.6097868" lon="9.4263181"><ele>202.0</ele><time>2026-05-02T11:18:53.854Z</time></trkpt><trkpt lat="45.6097849" lon="9.4262262"><ele>202.0</ele><time>2026-05-02T11:18:55.855Z</time></trkpt><trkpt lat="45.6097617" lon="9.4261104"><ele>202.0</ele><time>2026-05-02T11:18:58.854Z</time></trkpt><trkpt lat="45.6097081" lon="9.42605"><ele>201.99999999999997</ele><time>2026-05-02T11:19:09.855Z</time></trkpt><trkpt lat="45.6096194" lon="9.426031"><ele>202.0</ele><time>2026-05-02T11:19:12.855Z</time></trkpt><trkpt lat="45.609543" lon="9.4260215"><ele>202.0</ele><time>2026-05-02T11:19:14.855Z</time></trkpt><trkpt lat="45.6094611" lon="9.4260184"><ele>202.0</ele><time>2026-05-02T11:19:16.855Z</time></trkpt><trkpt lat="45.6093781" lon="9.4260161"><ele>201.99999999999997</ele><time>2026-05-02T11:19:18.855Z</time></trkpt><trkpt lat="45.6092926" lon="9.4260232"><ele>202.0</ele><time>2026-05-02T11:19:20.855Z</time></trkpt><trkpt lat="45.6092091" lon="9.4260298"><ele>201.49999999999997</ele><time>2026-05-02T11:19:22.854Z</time></trkpt><trkpt lat="45.6091199" lon="9.4260302"><ele>201.0</ele><time>2026-05-02T11:19:24.854Z</time></trkpt><trkpt lat="45.6090289" lon="9.4260283"><ele>200.5</ele><time>2026-05-02T11:19:26.854Z</time></trkpt><trkpt lat="45.6089399" lon="9.4260335"><ele>200.0</ele><time>2026-05-02T11:19:28.854Z</time></trkpt><trkpt lat="45.6088551" lon="9.4260323"><ele>199.49999999999997</ele><time>2026-05-02T11:19:30.854Z</time></trkpt><trkpt lat="45.6087639" lon="9.4260278"><ele>199.0</ele><time>2026-05-02T11:19:32.855Z</time></trkpt><trkpt lat="45.6086716" lon="9.4260215"><ele>198.39999999999998</ele><time>2026-05-02T11:19:34.855Z</time></trkpt><trkpt lat="45.6085746" lon="9.4260054"><ele>197.8</ele><time>2026-05-02T11:19:36.855Z</time></trkpt><trkpt lat="45.6084822" lon="9.4260028"><ele>197.2</ele><time>2026-05-02T11:19:38.854Z</time></trkpt><trkpt lat="45.6083867" lon="9.4260058"><ele>196.60000000000002</ele><time>2026-05-02T11:19:40.855Z</time></trkpt><trkpt lat="45.6082902" lon="9.4259961"><ele>196.0</ele><time>2026-05-02T11:19:42.854Z</time></trkpt><trkpt lat="45.6081827" lon="9.4259899"><ele>196.0</ele><time>2026-05-02T11:19:44.855Z</time></trkpt><trkpt lat="45.6080858" lon="9.4259779"><ele>196.0</ele><time>2026-05-02T11:19:46.854Z</time></trkpt><trkpt lat="45.607981" lon="9.4259755"><ele>196.0</ele><time>2026-05-02T11:19:48.855Z</time></trkpt><trkpt lat="45.607882" lon="9.4259623"><ele>196.0</ele><time>2026-05-02T11:19:50.855Z</time></trkpt><trkpt lat="45.6077793" lon="9.4259631"><ele>196.0</ele><time>2026-05-02T11:19:52.855Z</time></trkpt><trkpt lat="45.6076878" lon="9.4259575"><ele>195.83333333333331</ele><time>2026-05-02T11:19:54.855Z</time></trkpt><trkpt lat="45.6076013" lon="9.4259577"><ele>195.66666666666666</ele><time>2026-05-02T11:19:56.854Z</time></trkpt><trkpt lat="45.6075145" lon="9.4259784"><ele>195.5</ele><time>2026-05-02T11:19:58.855Z</time></trkpt><trkpt lat="45.6074635" lon="9.4260628"><ele>195.33333333333331</ele><time>2026-05-02T11:20:00.854Z</time></trkpt><trkpt lat="45.6074497" lon="9.4261832"><ele>195.16666666666666</ele><time>2026-05-02T11:20:02.855Z</time></trkpt><trkpt lat="45.607452" lon="9.4263071"><ele>195.0</ele><time>2026-05-02T11:20:04.854Z</time></trkpt><trkpt lat="45.6074457" lon="9.426436"><ele>195.0</ele><time>2026-05-02T11:20:06.854Z</time></trkpt><trkpt lat="45.6074407" lon="9.4265664"><ele>195.0</ele><time>2026-05-02T11:20:08.854Z</time></trkpt><trkpt lat="45.6074319" lon="9.4266943"><ele>195.0</ele><time>2026-05-02T11:20:10.854Z</time></trkpt><trkpt lat="45.6074184" lon="9.4268367"><ele>195.0</ele><time>2026-05-02T11:20:12.855Z</time></trkpt><trkpt lat="45.607411" lon="9.4269728"><ele>195.0</ele><time>2026-05-02T11:20:14.854Z</time></trkpt><trkpt lat="45.6074118" lon="9.4271241"><ele>195.0</ele><time>2026-05-02T11:20:16.854Z</time></trkpt><trkpt lat="45.6073955" lon="9.4272346"><ele>195.0</ele><time>2026-05-02T11:20:18.854Z</time></trkpt><trkpt lat="45.6073773" lon="9.4273747"><ele>195.0</ele><time>2026-05-02T11:20:20.855Z</time></trkpt><trkpt lat="45.6073444" lon="9.4275313"><ele>195.0</ele><time>2026-05-02T11:20:22.854Z</time></trkpt><trkpt lat="45.6073266" lon="9.427661"><ele>195.0</ele><time>2026-05-02T11:20:24.854Z</time></trkpt><trkpt lat="45.6073255" lon="9.427811"><ele>195.0</ele><time>2026-05-02T11:20:26.855Z</time></trkpt><trkpt lat="45.6073253" lon="9.4279515"><ele>195.0</ele><time>2026-05-02T11:20:28.854Z</time></trkpt><trkpt lat="45.6073178" lon="9.4281003"><ele>195.0</ele><time>2026-05-02T11:20:30.855Z</time></trkpt><trkpt lat="45.6073047" lon="9.4282429"><ele>195.0</ele><time>2026-05-02T11:20:32.855Z</time></trkpt><trkpt lat="45.6073085" lon="9.4283759"><ele>195.0</ele><time>2026-05-02T11:20:34.854Z</time></trkpt><trkpt lat="45.6073015" lon="9.4285111"><ele>195.0</ele><time>2026-05-02T11:20:36.854Z</time></trkpt><trkpt lat="45.6073001" lon="9.4286536"><ele>195.0</ele><time>2026-05-02T11:20:38.854Z</time></trkpt><trkpt lat="45.6072996" lon="9.428782"><ele>195.0</ele><time>2026-05-02T11:20:40.855Z</time></trkpt><trkpt lat="45.60729" lon="9.4289238"><ele>195.0</ele><time>2026-05-02T11:20:42.854Z</time></trkpt><trkpt lat="45.6072878" lon="9.4290747"><ele>195.0</ele><time>2026-05-02T11:20:44.854Z</time></trkpt><trkpt lat="45.6072958" lon="9.4292118"><ele>195.0</ele><time>2026-05-02T11:20:46.854Z</time></trkpt><trkpt lat="45.607307" lon="9.429357"><ele>195.0</ele><time>2026-05-02T11:20:48.854Z</time></trkpt><trkpt lat="45.6073074" lon="9.4295182"><ele>195.0</ele><time>2026-05-02T11:20:50.855Z</time></trkpt><trkpt lat="45.6073005" lon="9.4296612"><ele>195.0</ele><time>2026-05-02T11:20:52.854Z</time></trkpt><trkpt lat="45.6072987" lon="9.4298066"><ele>195.0</ele><time>2026-05-02T11:20:54.854Z</time></trkpt><trkpt lat="45.6072685" lon="9.4299434"><ele>195.16666666666666</ele><time>2026-05-02T11:20:56.855Z</time></trkpt><trkpt lat="45.6072274" lon="9.4300843"><ele>195.33333333333331</ele><time>2026-05-02T11:20:58.854Z</time></trkpt><trkpt lat="45.6071577" lon="9.4301727"><ele>195.5</ele><time>2026-05-02T11:21:00.855Z</time></trkpt><trkpt lat="45.6070972" lon="9.4302381"><ele>195.66666666666666</ele><time>2026-05-02T11:21:02.855Z</time></trkpt><trkpt lat="45.6070765" lon="9.4303386"><ele>195.83333333333331</ele><time>2026-05-02T11:21:03.854Z</time></trkpt><trkpt lat="45.6070458" lon="9.4304273"><ele>196.0</ele><time>2026-05-02T11:21:04.855Z</time></trkpt><trkpt lat="45.6070372" lon="9.4305311"><ele>196.16666666666666</ele><time>2026-05-02T11:21:05.854Z</time></trkpt><trkpt lat="45.6070414" lon="9.4306263"><ele>196.33333333333331</ele><time>2026-05-02T11:21:06.855Z</time></trkpt><trkpt lat="45.6070254" lon="9.4307182"><ele>196.5</ele><time>2026-05-02T11:21:07.855Z</time></trkpt><trkpt lat="45.6070095" lon="9.4308066"><ele>196.66666666666669</ele><time>2026-05-02T11:21:08.855Z</time></trkpt><trkpt lat="45.6069816" lon="9.4309564"><ele>196.83333333333334</ele><time>2026-05-02T11:21:10.855Z</time></trkpt><trkpt lat="45.6069666" lon="9.4310884"><ele>197.0</ele><time>2026-05-02T11:21:12.855Z</time></trkpt><trkpt lat="45.6070207" lon="9.4311588"><ele>197.00000000000003</ele><time>2026-05-02T11:21:14.855Z</time></trkpt><trkpt lat="45.6070741" lon="9.4312188"><ele>197.0</ele><time>2026-05-02T11:21:16.855Z</time></trkpt><trkpt lat="45.6071671" lon="9.4312632"><ele>197.0</ele><time>2026-05-02T11:21:18.854Z</time></trkpt><trkpt lat="45.6072474" lon="9.4313166"><ele>197.0</ele><time>2026-05-02T11:21:20.854Z</time></trkpt><trkpt lat="45.6073168" lon="9.4314001"><ele>197.00000000000003</ele><time>2026-05-02T11:21:22.854Z</time></trkpt><trkpt lat="45.6073386" lon="9.4315147"><ele>197.0</ele><time>2026-05-02T11:21:24.854Z</time></trkpt><trkpt lat="45.6073231" lon="9.4316074"><ele>197.0</ele><time>2026-05-02T11:21:26.854Z</time></trkpt><trkpt lat="45.607332" lon="9.4317209"><ele>197.0</ele><time>2026-05-02T11:21:28.854Z</time></trkpt><trkpt lat="45.6073931" lon="9.431787"><ele>197.0</ele><time>2026-05-02T11:21:30.854Z</time></trkpt><trkpt lat="45.6074959" lon="9.4318261"><ele>197.0</ele><time>2026-05-02T11:21:32.854Z</time></trkpt><trkpt lat="45.6076019" lon="9.4318545"><ele>197.0</ele><time>2026-05-02T11:21:34.854Z</time></trkpt><trkpt lat="45.6077551" lon="9.4319096"><ele>197.2</ele><time>2026-05-02T11:21:37.854Z</time></trkpt><trkpt lat="45.6078604" lon="9.4319447"><ele>197.39999999999998</ele><time>2026-05-02T11:21:39.854Z</time></trkpt><trkpt lat="45.6079563" lon="9.4319643"><ele>197.60000000000002</ele><time>2026-05-02T11:21:41.855Z</time></trkpt><trkpt lat="45.6080653" lon="9.4319458"><ele>197.8</ele><time>2026-05-02T11:21:43.854Z</time></trkpt><trkpt lat="45.6081613" lon="9.4318847"><ele>198.0</ele><time>2026-05-02T11:21:45.855Z</time></trkpt><trkpt lat="45.6082659" lon="9.4318139"><ele>198.0</ele><time>2026-05-02T11:21:47.855Z</time></trkpt><trkpt lat="45.6083803" lon="9.4317859"><ele>198.0</ele><time>2026-05-02T11:21:49.854Z</time></trkpt><trkpt lat="45.608456" lon="9.4317921"><ele>198.0</ele><time>2026-05-02T11:21:50.855Z</time></trkpt><trkpt lat="45.6085789" lon="9.4318077"><ele>198.0</ele><time>2026-05-02T11:21:52.854Z</time></trkpt><trkpt lat="45.6086736" lon="9.4318284"><ele>198.0</ele><time>2026-05-02T11:21:54.854Z</time></trkpt><trkpt lat="45.608786" lon="9.431876"><ele>197.4</ele><time>2026-05-02T11:21:56.854Z</time></trkpt><trkpt lat="45.608891" lon="9.4319213"><ele>196.8</ele><time>2026-05-02T11:21:58.854Z</time></trkpt><trkpt lat="45.6089905" lon="9.4319717"><ele>196.2</ele><time>2026-05-02T11:22:00.855Z</time></trkpt><trkpt lat="45.6090895" lon="9.4320167"><ele>195.6</ele><time>2026-05-02T11:22:02.854Z</time></trkpt><trkpt lat="45.6091939" lon="9.4320603"><ele>195.0</ele><time>2026-05-02T11:22:04.855Z</time></trkpt><trkpt lat="45.6092859" lon="9.4320855"><ele>195.0</ele><time>2026-05-02T11:22:06.855Z</time></trkpt><trkpt lat="45.6093463" lon="9.4321168"><ele>195.0</ele><time>2026-05-02T11:22:07.855Z</time></trkpt><trkpt lat="45.6094517" lon="9.4321546"><ele>195.0</ele><time>2026-05-02T11:22:09.854Z</time></trkpt><trkpt lat="45.6095442" lon="9.4321957"><ele>195.0</ele><time>2026-05-02T11:22:11.854Z</time></trkpt><trkpt lat="45.6096485" lon="9.4322253"><ele>195.0</ele><time>2026-05-02T11:22:13.854Z</time></trkpt><trkpt lat="45.6097547" lon="9.4322582"><ele>195.2</ele><time>2026-05-02T11:22:15.855Z</time></trkpt><trkpt lat="45.6098691" lon="9.4322681"><ele>195.4</ele><time>2026-05-02T11:22:17.854Z</time></trkpt><trkpt lat="45.6099324" lon="9.4322644"><ele>195.60000000000002</ele><time>2026-05-02T11:22:18.855Z</time></trkpt><trkpt lat="45.6100324" lon="9.4322425"><ele>195.8</ele><time>2026-05-02T11:22:20.855Z</time></trkpt><trkpt lat="45.610143" lon="9.4322527"><ele>196.0</ele><time>2026-05-02T11:22:22.854Z</time></trkpt><trkpt lat="45.6102452" lon="9.43228"><ele>196.20000000000002</ele><time>2026-05-02T11:22:24.855Z</time></trkpt><trkpt lat="45.6103395" lon="9.4322443"><ele>196.4</ele><time>2026-05-02T11:22:26.855Z</time></trkpt><trkpt lat="45.6104303" lon="9.4321873"><ele>196.6</ele><time>2026-05-02T11:22:28.854Z</time></trkpt><trkpt lat="45.610516" lon="9.4320989"><ele>196.8</ele><time>2026-05-02T11:22:30.855Z</time></trkpt><trkpt lat="45.6106031" lon="9.4320244"><ele>197.0</ele><time>2026-05-02T11:22:32.854Z</time></trkpt><trkpt lat="45.6106869" lon="9.4319668"><ele>197.39999999999998</ele><time>2026-05-02T11:22:34.854Z</time></trkpt><trkpt lat="45.610776" lon="9.4319331"><ele>197.79999999999998</ele><time>2026-05-02T11:22:36.854Z</time></trkpt><trkpt lat="45.6108806" lon="9.4319343"><ele>198.2</ele><time>2026-05-02T11:22:38.855Z</time></trkpt><trkpt lat="45.6109822" lon="9.4319616"><ele>198.6</ele><time>2026-05-02T11:22:40.855Z</time></trkpt><trkpt lat="45.6110714" lon="9.4319845"><ele>199.0</ele><time>2026-05-02T11:22:42.855Z</time></trkpt><trkpt lat="45.6111644" lon="9.4319838"><ele>199.6</ele><time>2026-05-02T11:22:44.855Z</time></trkpt><trkpt lat="45.6112553" lon="9.4319714"><ele>200.2</ele><time>2026-05-02T11:22:46.855Z</time></trkpt><trkpt lat="45.6114101" lon="9.4319645"><ele>200.79999999999998</ele><time>2026-05-02T11:22:49.855Z</time></trkpt><trkpt lat="45.6115105" lon="9.4319765"><ele>201.39999999999998</ele><time>2026-05-02T11:22:51.854Z</time></trkpt><trkpt lat="45.6115791" lon="9.4320116"><ele>202.0</ele><time>2026-05-02T11:22:53.855Z</time></trkpt><trkpt lat="45.6116559" lon="9.4320327"><ele>202.0</ele><time>2026-05-02T11:22:55.854Z</time></trkpt><trkpt lat="45.6117303" lon="9.4321457"><ele>202.0</ele><time>2026-05-02T11:22:57.855Z</time></trkpt><trkpt lat="45.611828" lon="9.4322249"><ele>202.0</ele><time>2026-05-02T11:22:59.855Z</time></trkpt><trkpt lat="45.6119374" lon="9.4322627"><ele>202.0</ele><time>2026-05-02T11:23:01.855Z</time></trkpt><trkpt lat="45.6120499" lon="9.4322881"><ele>202.0</ele><time>2026-05-02T11:23:03.854Z</time></trkpt><trkpt lat="45.6121561" lon="9.4323012"><ele>202.2</ele><time>2026-05-02T11:23:05.855Z</time></trkpt><trkpt lat="45.6122647" lon="9.4323155"><ele>202.39999999999998</ele><time>2026-05-02T11:23:07.854Z</time></trkpt><trkpt lat="45.6123757" lon="9.4323221"><ele>202.60000000000002</ele><time>2026-05-02T11:23:09.855Z</time></trkpt><trkpt lat="45.6124866" lon="9.4323344"><ele>202.8</ele><time>2026-05-02T11:23:11.855Z</time></trkpt><trkpt lat="45.6125992" lon="9.432356"><ele>203.0</ele><time>2026-05-02T11:23:13.855Z</time></trkpt><trkpt lat="45.612707" lon="9.4323885"><ele>203.0</ele><time>2026-05-02T11:23:15.855Z</time></trkpt><trkpt lat="45.6128129" lon="9.4324209"><ele>203.0</ele><time>2026-05-02T11:23:17.855Z</time></trkpt><trkpt lat="45.6129177" lon="9.4324635"><ele>203.0</ele><time>2026-05-02T11:23:19.855Z</time></trkpt><trkpt lat="45.613023" lon="9.4325306"><ele>203.0</ele><time>2026-05-02T11:23:21.855Z</time></trkpt><trkpt lat="45.6131224" lon="9.4325839"><ele>203.0</ele><time>2026-05-02T11:23:23.854Z</time></trkpt><trkpt lat="45.6132027" lon="9.4326117"><ele>203.0</ele><time>2026-05-02T11:23:25.854Z</time></trkpt><trkpt lat="45.6132932" lon="9.4326577"><ele>203.0</ele><time>2026-05-02T11:23:27.854Z</time></trkpt><trkpt lat="45.6134006" lon="9.4326955"><ele>203.0</ele><time>2026-05-02T11:23:29.855Z</time></trkpt><trkpt lat="45.6134981" lon="9.432741"><ele>203.0</ele><time>2026-05-02T11:23:31.855Z</time></trkpt><trkpt lat="45.6136117" lon="9.4328056"><ele>203.0</ele><time>2026-05-02T11:23:33.854Z</time></trkpt><trkpt lat="45.6137204" lon="9.43284"><ele>203.0</ele><time>2026-05-02T11:23:35.855Z</time></trkpt><trkpt lat="45.6138222" lon="9.4328047"><ele>203.0</ele><time>2026-05-02T11:23:37.855Z</time></trkpt><trkpt lat="45.6139213" lon="9.4327511"><ele>203.0</ele><time>2026-05-02T11:23:39.854Z</time></trkpt><trkpt lat="45.6140235" lon="9.4327628"><ele>203.0</ele><time>2026-05-02T11:23:41.854Z</time></trkpt><trkpt lat="45.6141243" lon="9.4328172"><ele>203.0</ele><time>2026-05-02T11:23:43.855Z</time></trkpt><trkpt lat="45.6142246" lon="9.4328652"><ele>203.0</ele><time>2026-05-02T11:23:45.855Z</time></trkpt><trkpt lat="45.6143208" lon="9.4329163"><ele>203.0</ele><time>2026-05-02T11:23:47.854Z</time></trkpt><trkpt lat="45.6144308" lon="9.4329679"><ele>203.0</ele><time>2026-05-02T11:23:49.854Z</time></trkpt><trkpt lat="45.6145326" lon="9.4330158"><ele>203.0</ele><time>2026-05-02T11:23:51.855Z</time></trkpt><trkpt lat="45.6146303" lon="9.4330567"><ele>203.0</ele><time>2026-05-02T11:23:53.855Z</time></trkpt><trkpt lat="45.614731" lon="9.4331101"><ele>203.4</ele><time>2026-05-02T11:23:55.854Z</time></trkpt><trkpt lat="45.6148278" lon="9.4331623"><ele>203.8</ele><time>2026-05-02T11:23:57.855Z</time></trkpt><trkpt lat="45.6149323" lon="9.4332103"><ele>204.2</ele><time>2026-05-02T11:23:59.854Z</time></trkpt><trkpt lat="45.6150202" lon="9.4332519"><ele>204.6</ele><time>2026-05-02T11:24:01.854Z</time></trkpt><trkpt lat="45.6151269" lon="9.4333098"><ele>205.0</ele><time>2026-05-02T11:24:03.854Z</time></trkpt><trkpt lat="45.6152274" lon="9.4333531"><ele>204.8</ele><time>2026-05-02T11:24:05.854Z</time></trkpt><trkpt lat="45.6153354" lon="9.4334048"><ele>204.6</ele><time>2026-05-02T11:24:07.854Z</time></trkpt><trkpt lat="45.6154417" lon="9.4334487"><ele>204.39999999999998</ele><time>2026-05-02T11:24:09.854Z</time></trkpt><trkpt lat="45.6155339" lon="9.4334915"><ele>204.2</ele><time>2026-05-02T11:24:11.855Z</time></trkpt><trkpt lat="45.6155971" lon="9.4334725"><ele>204.0</ele><time>2026-05-02T11:24:13.855Z</time></trkpt><trkpt lat="45.6156043" lon="9.4333647"><ele>204.0</ele><time>2026-05-02T11:24:15.854Z</time></trkpt><trkpt lat="45.6156044" lon="9.4332488"><ele>204.0</ele><time>2026-05-02T11:24:17.855Z</time></trkpt><trkpt lat="45.6156007" lon="9.4331198"><ele>204.0</ele><time>2026-05-02T11:24:19.855Z</time></trkpt><trkpt lat="45.6156337" lon="9.4330172"><ele>204.0</ele><time>2026-05-02T11:24:21.855Z</time></trkpt><trkpt lat="45.6156822" lon="9.4329435"><ele>204.0</ele><time>2026-05-02T11:24:23.855Z</time></trkpt><trkpt lat="45.6157547" lon="9.4328616"><ele>204.0</ele><time>2026-05-02T11:24:26.855Z</time></trkpt><trkpt lat="45.6158268" lon="9.4327274"><ele>204.0</ele><time>2026-05-02T11:24:28.854Z</time></trkpt><trkpt lat="45.6158907" lon="9.4325962"><ele>204.0</ele><time>2026-05-02T11:24:30.855Z</time></trkpt><trkpt lat="45.6159109" lon="9.4324732"><ele>204.0</ele><time>2026-05-02T11:24:33.855Z</time></trkpt><trkpt lat="45.6159261" lon="9.4323504"><ele>204.0</ele><time>2026-05-02T11:24:35.855Z</time></trkpt><trkpt lat="45.6159626" lon="9.432206"><ele>204.0</ele><time>2026-05-02T11:24:37.854Z</time></trkpt><trkpt lat="45.6159669" lon="9.432102"><ele>204.16666666666666</ele><time>2026-05-02T11:24:39.854Z</time></trkpt><trkpt lat="45.6160253" lon="9.4320179"><ele>204.33333333333331</ele><time>2026-05-02T11:24:42.854Z</time></trkpt><trkpt lat="45.6160999" lon="9.4320241"><ele>204.5</ele><time>2026-05-02T11:24:44.855Z</time></trkpt><trkpt lat="45.6161546" lon="9.4321221"><ele>204.66666666666666</ele><time>2026-05-02T11:24:47.855Z</time></trkpt><trkpt lat="45.6161551" lon="9.4322274"><ele>204.83333333333331</ele><time>2026-05-02T11:24:49.855Z</time></trkpt><trkpt lat="45.6161595" lon="9.4323497"><ele>205.0</ele><time>2026-05-02T11:24:51.854Z</time></trkpt><trkpt lat="45.616164" lon="9.4324788"><ele>205.0</ele><time>2026-05-02T11:24:53.855Z</time></trkpt><trkpt lat="45.6161695" lon="9.4326146"><ele>205.0</ele><time>2026-05-02T11:24:55.854Z</time></trkpt><trkpt lat="45.6161886" lon="9.4327567"><ele>205.0</ele><time>2026-05-02T11:24:57.855Z</time></trkpt><trkpt lat="45.6162101" lon="9.4328998"><ele>205.0</ele><time>2026-05-02T11:24:59.854Z</time></trkpt><trkpt lat="45.6162331" lon="9.4330485"><ele>205.0</ele><time>2026-05-02T11:25:01.855Z</time></trkpt><trkpt lat="45.6162488" lon="9.4332097"><ele>205.0</ele><time>2026-05-02T11:25:03.855Z</time></trkpt><trkpt lat="45.6162803" lon="9.4333699"><ele>205.0</ele><time>2026-05-02T11:25:05.854Z</time></trkpt><trkpt lat="45.6163228" lon="9.4335201"><ele>205.0</ele><time>2026-05-02T11:25:07.855Z</time></trkpt><trkpt lat="45.6163813" lon="9.4336647"><ele>205.0</ele><time>2026-05-02T11:25:09.854Z</time></trkpt><trkpt lat="45.6164419" lon="9.4338042"><ele>205.0</ele><time>2026-05-02T11:25:11.855Z</time></trkpt><trkpt lat="45.6165311" lon="9.4338969"><ele>205.0</ele><time>2026-05-02T11:25:13.855Z</time></trkpt><trkpt lat="45.6166369" lon="9.4339187"><ele>205.0</ele><time>2026-05-02T11:25:15.854Z</time></trkpt><trkpt lat="45.6167381" lon="9.4338617"><ele>205.0</ele><time>2026-05-02T11:25:17.855Z</time></trkpt><trkpt lat="45.6168193" lon="9.4337567"><ele>205.0</ele><time>2026-05-02T11:25:19.854Z</time></trkpt><trkpt lat="45.6168932" lon="9.4336485"><ele>204.99999999999997</ele><time>2026-05-02T11:25:21.854Z</time></trkpt><trkpt lat="45.6169683" lon="9.4335248"><ele>205.0</ele><time>2026-05-02T11:25:23.855Z</time></trkpt><trkpt lat="45.6170168" lon="9.4334579"><ele>205.0</ele><time>2026-05-02T11:25:24.855Z</time></trkpt><trkpt lat="45.6170635" lon="9.4333881"><ele>205.0</ele><time>2026-05-02T11:25:25.855Z</time></trkpt><trkpt lat="45.6171433" lon="9.4332774"><ele>204.99999999999997</ele><time>2026-05-02T11:25:27.855Z</time></trkpt><trkpt lat="45.6171873" lon="9.4332076"><ele>205.0</ele><time>2026-05-02T11:25:28.854Z</time></trkpt><trkpt lat="45.6172584" lon="9.4330949"><ele>205.2</ele><time>2026-05-02T11:25:30.855Z</time></trkpt><trkpt lat="45.6173383" lon="9.4329826"><ele>205.4</ele><time>2026-05-02T11:25:32.855Z</time></trkpt><trkpt lat="45.6174165" lon="9.4328541"><ele>205.60000000000002</ele><time>2026-05-02T11:25:34.854Z</time></trkpt><trkpt lat="45.617458" lon="9.4327849"><ele>205.8</ele><time>2026-05-02T11:25:35.855Z</time></trkpt><trkpt lat="45.6175265" lon="9.432666"><ele>206.0</ele><time>2026-05-02T11:25:37.855Z</time></trkpt><trkpt lat="45.6175957" lon="9.4325295"><ele>206.0</ele><time>2026-05-02T11:25:39.855Z</time></trkpt><trkpt lat="45.6176545" lon="9.4323903"><ele>206.0</ele><time>2026-05-02T11:25:41.855Z</time></trkpt><trkpt lat="45.6177067" lon="9.4322731"><ele>206.0</ele><time>2026-05-02T11:25:43.854Z</time></trkpt><trkpt lat="45.6177365" lon="9.432179"><ele>206.0</ele><time>2026-05-02T11:25:44.854Z</time></trkpt><trkpt lat="45.6177785" lon="9.4320484"><ele>206.0</ele><time>2026-05-02T11:25:46.855Z</time></trkpt><trkpt lat="45.6178354" lon="9.4318959"><ele>206.25</ele><time>2026-05-02T11:25:48.854Z</time></trkpt><trkpt lat="45.6178862" lon="9.4317471"><ele>206.5</ele><time>2026-05-02T11:25:50.854Z</time></trkpt><trkpt lat="45.6179304" lon="9.4316025"><ele>206.75</ele><time>2026-05-02T11:25:52.855Z</time></trkpt><trkpt lat="45.6179803" lon="9.4314536"><ele>207.0</ele><time>2026-05-02T11:25:54.855Z</time></trkpt><trkpt lat="45.6180311" lon="9.4313049"><ele>207.2</ele><time>2026-05-02T11:25:56.855Z</time></trkpt><trkpt lat="45.6180648" lon="9.4312253"><ele>207.39999999999998</ele><time>2026-05-02T11:25:57.854Z</time></trkpt><trkpt lat="45.6181204" lon="9.431079"><ele>207.60000000000002</ele><time>2026-05-02T11:25:59.854Z</time></trkpt><trkpt lat="45.6181817" lon="9.4309476"><ele>207.8</ele><time>2026-05-02T11:26:01.854Z</time></trkpt><trkpt lat="45.6182523" lon="9.4308156"><ele>208.0</ele><time>2026-05-02T11:26:03.854Z</time></trkpt><trkpt lat="45.6183325" lon="9.4307102"><ele>208.0</ele><time>2026-05-02T11:26:05.854Z</time></trkpt><trkpt lat="45.6184449" lon="9.4306113"><ele>208.0</ele><time>2026-05-02T11:26:07.854Z</time></trkpt><trkpt lat="45.6185534" lon="9.4305842"><ele>208.0</ele><time>2026-05-02T11:26:09.854Z</time></trkpt><trkpt lat="45.6186573" lon="9.4305468"><ele>208.0</ele><time>2026-05-02T11:26:11.854Z</time></trkpt><trkpt lat="45.6187585" lon="9.4305056"><ele>208.0</ele><time>2026-05-02T11:26:13.855Z</time></trkpt><trkpt lat="45.6188583" lon="9.4304669"><ele>208.0</ele><time>2026-05-02T11:26:15.854Z</time></trkpt><trkpt lat="45.6189733" lon="9.4304132"><ele>208.0</ele><time>2026-05-02T11:26:17.854Z</time></trkpt><trkpt lat="45.6190784" lon="9.4303645"><ele>208.0</ele><time>2026-05-02T11:26:19.855Z</time></trkpt><trkpt lat="45.619182" lon="9.4303104"><ele>208.0</ele><time>2026-05-02T11:26:21.854Z</time></trkpt><trkpt lat="45.6192794" lon="9.4302494"><ele>208.0</ele><time>2026-05-02T11:26:23.855Z</time></trkpt><trkpt lat="45.619376" lon="9.4301789"><ele>208.0</ele><time>2026-05-02T11:26:25.854Z</time></trkpt><trkpt lat="45.6194732" lon="9.4301074"><ele>208.0</ele><time>2026-05-02T11:26:27.854Z</time></trkpt><trkpt lat="45.6195674" lon="9.4300303"><ele>208.0</ele><time>2026-05-02T11:26:29.854Z</time></trkpt><trkpt lat="45.6196219" lon="9.4299785"><ele>208.0</ele><time>2026-05-02T11:26:30.855Z</time></trkpt><trkpt lat="45.619684" lon="9.42992"><ele>208.0</ele><time>2026-05-02T11:26:31.854Z</time></trkpt><trkpt lat="45.619741" lon="9.4297896"><ele>208.0</ele><time>2026-05-02T11:26:33.855Z</time></trkpt><trkpt lat="45.6197728" lon="9.429636"><ele>208.0</ele><time>2026-05-02T11:26:35.854Z</time></trkpt><trkpt lat="45.6198092" lon="9.429474"><ele>208.0</ele><time>2026-05-02T11:26:37.854Z</time></trkpt><trkpt lat="45.6198482" lon="9.4293187"><ele>208.0</ele><time>2026-05-02T11:26:39.854Z</time></trkpt><trkpt lat="45.6198847" lon="9.4291598"><ele>208.0</ele><time>2026-05-02T11:26:41.854Z</time></trkpt><trkpt lat="45.6199107" lon="9.4290014"><ele>208.0</ele><time>2026-05-02T11:26:43.855Z</time></trkpt><trkpt lat="45.6199441" lon="9.4288476"><ele>208.0</ele><time>2026-05-02T11:26:45.854Z</time></trkpt><trkpt lat="45.6199722" lon="9.4286916"><ele>208.0</ele><time>2026-05-02T11:26:47.855Z</time></trkpt><trkpt lat="45.6199917" lon="9.4285311"><ele>208.0</ele><time>2026-05-02T11:26:49.854Z</time></trkpt><trkpt lat="45.6199753" lon="9.4283769"><ele>208.0</ele><time>2026-05-02T11:26:51.855Z</time></trkpt><trkpt lat="45.6199248" lon="9.4282418"><ele>208.0</ele><time>2026-05-02T11:26:53.855Z</time></trkpt><trkpt lat="45.6198533" lon="9.4281108"><ele>208.0</ele><time>2026-05-02T11:26:55.855Z</time></trkpt><trkpt lat="45.6197718" lon="9.4279827"><ele>208.0</ele><time>2026-05-02T11:26:57.854Z</time></trkpt><trkpt lat="45.6196963" lon="9.4278582"><ele>208.0</ele><time>2026-05-02T11:26:59.855Z</time></trkpt><trkpt lat="45.6196204" lon="9.4277387"><ele>208.0</ele><time>2026-05-02T11:27:01.854Z</time></trkpt><trkpt lat="45.6195479" lon="9.4276312"><ele>208.0</ele><time>2026-05-02T11:27:03.854Z</time></trkpt><trkpt lat="45.6194794" lon="9.4275291"><ele>208.0</ele><time>2026-05-02T11:27:05.855Z</time></trkpt><trkpt lat="45.6194402" lon="9.4273913"><ele>208.25</ele><time>2026-05-02T11:27:07.855Z</time></trkpt><trkpt lat="45.6194204" lon="9.4272331"><ele>208.5</ele><time>2026-05-02T11:27:09.855Z</time></trkpt><trkpt lat="45.6194197" lon="9.4270694"><ele>208.75</ele><time>2026-05-02T11:27:11.854Z</time></trkpt><trkpt lat="45.6194244" lon="9.4269085"><ele>209.0</ele><time>2026-05-02T11:27:13.854Z</time></trkpt><trkpt lat="45.6194336" lon="9.426728"><ele>209.0</ele><time>2026-05-02T11:27:15.855Z</time></trkpt><trkpt lat="45.6194412" lon="9.4265653"><ele>209.0</ele><time>2026-05-02T11:27:17.855Z</time></trkpt><trkpt lat="45.6194436" lon="9.4264726"><ele>209.0</ele><time>2026-05-02T11:27:18.854Z</time></trkpt><trkpt lat="45.6194464" lon="9.4263237"><ele>209.0</ele><time>2026-05-02T11:27:20.854Z</time></trkpt><trkpt lat="45.6194586" lon="9.4261713"><ele>209.0</ele><time>2026-05-02T11:27:22.855Z</time></trkpt><trkpt lat="45.6194642" lon="9.4260101"><ele>209.0</ele><time>2026-05-02T11:27:24.854Z</time></trkpt><trkpt lat="45.6194614" lon="9.4258502"><ele>209.0</ele><time>2026-05-02T11:27:26.854Z</time></trkpt><trkpt lat="45.6194779" lon="9.4257148"><ele>209.0</ele><time>2026-05-02T11:27:28.854Z</time></trkpt><trkpt lat="45.6194913" lon="9.4255635"><ele>209.0</ele><time>2026-05-02T11:27:30.855Z</time></trkpt><trkpt lat="45.6194969" lon="9.4254166"><ele>209.0</ele><time>2026-05-02T11:27:32.854Z</time></trkpt><trkpt lat="45.6195009" lon="9.4252591"><ele>209.0</ele><time>2026-05-02T11:27:34.854Z</time></trkpt><trkpt lat="45.6195076" lon="9.4250994"><ele>209.0</ele><time>2026-05-02T11:27:36.855Z</time></trkpt><trkpt lat="45.6195156" lon="9.4249399"><ele>209.0</ele><time>2026-05-02T11:27:38.854Z</time></trkpt><trkpt lat="45.619523" lon="9.4247778"><ele>209.0</ele><time>2026-05-02T11:27:40.855Z</time></trkpt><trkpt lat="45.619529" lon="9.424618"><ele>209.0</ele><time>2026-05-02T11:27:42.854Z</time></trkpt><trkpt lat="45.61953" lon="9.4244537"><ele>209.0</ele><time>2026-05-02T11:27:44.854Z</time></trkpt><trkpt lat="45.6195292" lon="9.42429"><ele>209.0</ele><time>2026-05-02T11:27:46.854Z</time></trkpt><trkpt lat="45.6195405" lon="9.4241267"><ele>209.0</ele><time>2026-05-02T11:27:48.855Z</time></trkpt><trkpt lat="45.6195494" lon="9.4239628"><ele>209.0</ele><time>2026-05-02T11:27:50.855Z</time></trkpt><trkpt lat="45.6195543" lon="9.4238084"><ele>209.16666666666669</ele><time>2026-05-02T11:27:52.855Z</time></trkpt><trkpt lat="45.6195607" lon="9.4236784"><ele>209.33333333333334</ele><time>2026-05-02T11:27:54.855Z</time></trkpt><trkpt lat="45.6195666" lon="9.4235675"><ele>209.5</ele><time>2026-05-02T11:27:56.855Z</time></trkpt><trkpt lat="45.6195831" lon="9.4234734"><ele>209.66666666666669</ele><time>2026-05-02T11:27:59.855Z</time></trkpt><trkpt lat="45.6196493" lon="9.4233966"><ele>209.83333333333334</ele><time>2026-05-02T11:28:03.855Z</time></trkpt><trkpt lat="45.6197281" lon="9.4233753"><ele>210.0</ele><time>2026-05-02T11:28:05.855Z</time></trkpt><trkpt lat="45.6198254" lon="9.4233488"><ele>210.0</ele><time>2026-05-02T11:28:07.854Z</time></trkpt><trkpt lat="45.6199275" lon="9.4233283"><ele>210.0</ele><time>2026-05-02T11:28:09.855Z</time></trkpt><trkpt lat="45.6200315" lon="9.4232908"><ele>210.0</ele><time>2026-05-02T11:28:11.855Z</time></trkpt><trkpt lat="45.6201328" lon="9.4232591"><ele>210.0</ele><time>2026-05-02T11:28:13.854Z</time></trkpt><trkpt lat="45.6202298" lon="9.4232195"><ele>210.0</ele><time>2026-05-02T11:28:15.855Z</time></trkpt><trkpt lat="45.6203318" lon="9.4231719"><ele>210.25</ele><time>2026-05-02T11:28:17.854Z</time></trkpt><trkpt lat="45.6204345" lon="9.423144"><ele>210.5</ele><time>2026-05-02T11:28:19.855Z</time></trkpt><trkpt lat="45.620548" lon="9.4231059"><ele>210.75</ele><time>2026-05-02T11:28:21.854Z</time></trkpt><trkpt lat="45.6206614" lon="9.4230589"><ele>211.0</ele><time>2026-05-02T11:28:23.854Z</time></trkpt><trkpt lat="45.6207717" lon="9.423019"><ele>211.0</ele><time>2026-05-02T11:28:25.854Z</time></trkpt><trkpt lat="45.6208815" lon="9.422972"><ele>211.0</ele><time>2026-05-02T11:28:27.854Z</time></trkpt><trkpt lat="45.620987" lon="9.4229017"><ele>211.0</ele><time>2026-05-02T11:28:29.855Z</time></trkpt><trkpt lat="45.6210951" lon="9.4228247"><ele>211.0</ele><time>2026-05-02T11:28:31.855Z</time></trkpt><trkpt lat="45.6211938" lon="9.4227456"><ele>211.0</ele><time>2026-05-02T11:28:33.854Z</time></trkpt><trkpt lat="45.6212909" lon="9.4226553"><ele>211.0</ele><time>2026-05-02T11:28:35.854Z</time></trkpt><trkpt lat="45.6213876" lon="9.4225813"><ele>211.0</ele><time>2026-05-02T11:28:37.855Z</time></trkpt><trkpt lat="45.621497" lon="9.4224857"><ele>211.0</ele><time>2026-05-02T11:28:39.854Z</time></trkpt><trkpt lat="45.6215517" lon="9.4224356"><ele>211.0</ele><time>2026-05-02T11:28:40.854Z</time></trkpt><trkpt lat="45.62165" lon="9.4223379"><ele>210.99999999999997</ele><time>2026-05-02T11:28:42.854Z</time></trkpt><trkpt lat="45.6217515" lon="9.4222529"><ele>211.0</ele><time>2026-05-02T11:28:44.855Z</time></trkpt><trkpt lat="45.6218068" lon="9.4221982"><ele>211.0</ele><time>2026-05-02T11:28:45.854Z</time></trkpt><trkpt lat="45.6218606" lon="9.4221478"><ele>211.0</ele><time>2026-05-02T11:28:46.855Z</time></trkpt><trkpt lat="45.6219206" lon="9.4221014"><ele>210.99999999999997</ele><time>2026-05-02T11:28:47.854Z</time></trkpt><trkpt lat="45.6220197" lon="9.4220182"><ele>211.0</ele><time>2026-05-02T11:28:49.854Z</time></trkpt><trkpt lat="45.622112" lon="9.4219242"><ele>211.0</ele><time>2026-05-02T11:28:51.855Z</time></trkpt><trkpt lat="45.6222066" lon="9.4218164"><ele>211.0</ele><time>2026-05-02T11:28:53.854Z</time></trkpt><trkpt lat="45.6222881" lon="9.4217045"><ele>211.0</ele><time>2026-05-02T11:28:55.855Z</time></trkpt><trkpt lat="45.6223732" lon="9.4215773"><ele>211.0</ele><time>2026-05-02T11:28:57.855Z</time></trkpt><trkpt lat="45.622422" lon="9.4215078"><ele>211.0</ele><time>2026-05-02T11:28:58.854Z</time></trkpt><trkpt lat="45.6224682" lon="9.4214465"><ele>211.0</ele><time>2026-05-02T11:28:59.854Z</time></trkpt><trkpt lat="45.6225578" lon="9.4213162"><ele>211.0</ele><time>2026-05-02T11:29:01.854Z</time></trkpt><trkpt lat="45.6226059" lon="9.4212379"><ele>211.0</ele><time>2026-05-02T11:29:02.855Z</time></trkpt><trkpt lat="45.6227068" lon="9.4211028"><ele>211.0</ele><time>2026-05-02T11:29:04.855Z</time></trkpt><trkpt lat="45.6227529" lon="9.4210359"><ele>211.0</ele><time>2026-05-02T11:29:05.855Z</time></trkpt><trkpt lat="45.622798" lon="9.4209702"><ele>210.8</ele><time>2026-05-02T11:29:06.855Z</time></trkpt><trkpt lat="45.6228848" lon="9.420843"><ele>210.60000000000002</ele><time>2026-05-02T11:29:08.854Z</time></trkpt><trkpt lat="45.6229364" lon="9.4207687"><ele>210.4</ele><time>2026-05-02T11:29:09.855Z</time></trkpt><trkpt lat="45.6229836" lon="9.4207026"><ele>210.2</ele><time>2026-05-02T11:29:10.855Z</time></trkpt><trkpt lat="45.6230323" lon="9.4206325"><ele>210.0</ele><time>2026-05-02T11:29:11.855Z</time></trkpt><trkpt lat="45.6231266" lon="9.4204925"><ele>210.6</ele><time>2026-05-02T11:29:13.854Z</time></trkpt><trkpt lat="45.6232102" lon="9.4203669"><ele>211.2</ele><time>2026-05-02T11:29:15.855Z</time></trkpt><trkpt lat="45.623301" lon="9.4202186"><ele>211.8</ele><time>2026-05-02T11:29:17.855Z</time></trkpt><trkpt lat="45.6233467" lon="9.4201504"><ele>212.4</ele><time>2026-05-02T11:29:18.854Z</time></trkpt><trkpt lat="45.623393" lon="9.4200826"><ele>213.0</ele><time>2026-05-02T11:29:19.855Z</time></trkpt><trkpt lat="45.6234357" lon="9.4200014"><ele>213.0</ele><time>2026-05-02T11:29:20.854Z</time></trkpt><trkpt lat="45.6234993" lon="9.4199329"><ele>213.0</ele><time>2026-05-02T11:29:21.855Z</time></trkpt><trkpt lat="45.6235407" lon="9.4198468"><ele>213.0</ele><time>2026-05-02T11:29:22.854Z</time></trkpt><trkpt lat="45.6236226" lon="9.4197215"><ele>213.0</ele><time>2026-05-02T11:29:24.854Z</time></trkpt><trkpt lat="45.6237178" lon="9.419614"><ele>213.0</ele><time>2026-05-02T11:29:26.855Z</time></trkpt><trkpt lat="45.6237614" lon="9.4195464"><ele>214.2</ele><time>2026-05-02T11:29:27.854Z</time></trkpt><trkpt lat="45.6238477" lon="9.4194182"><ele>215.4</ele><time>2026-05-02T11:29:29.855Z</time></trkpt><trkpt lat="45.6238921" lon="9.4193432"><ele>216.59999999999997</ele><time>2026-05-02T11:29:30.854Z</time></trkpt><trkpt lat="45.6239376" lon="9.4192775"><ele>217.79999999999998</ele><time>2026-05-02T11:29:31.855Z</time></trkpt><trkpt lat="45.6240376" lon="9.4191363"><ele>219.0</ele><time>2026-05-02T11:29:33.854Z</time></trkpt><trkpt lat="45.6240899" lon="9.4190573"><ele>219.0</ele><time>2026-05-02T11:29:34.854Z</time></trkpt><trkpt lat="45.6241649" lon="9.4189393"><ele>218.99999999999997</ele><time>2026-05-02T11:29:36.855Z</time></trkpt><trkpt lat="45.6242127" lon="9.4188683"><ele>218.99999999999997</ele><time>2026-05-02T11:29:37.855Z</time></trkpt><trkpt lat="45.624303" lon="9.4187498"><ele>219.0</ele><time>2026-05-02T11:29:39.854Z</time></trkpt><trkpt lat="45.6243943" lon="9.4186216"><ele>219.0</ele><time>2026-05-02T11:29:41.854Z</time></trkpt><trkpt lat="45.6244448" lon="9.4185648"><ele>218.5</ele><time>2026-05-02T11:29:42.855Z</time></trkpt><trkpt lat="45.624531" lon="9.418459"><ele>218.0</ele><time>2026-05-02T11:29:44.854Z</time></trkpt><trkpt lat="45.624573" lon="9.4183917"><ele>217.5</ele><time>2026-05-02T11:29:45.855Z</time></trkpt><trkpt lat="45.6246176" lon="9.4183211"><ele>217.0</ele><time>2026-05-02T11:29:46.855Z</time></trkpt><trkpt lat="45.624702" lon="9.4181912"><ele>216.5</ele><time>2026-05-02T11:29:48.854Z</time></trkpt><trkpt lat="45.6247488" lon="9.4181238"><ele>216.0</ele><time>2026-05-02T11:29:49.855Z</time></trkpt><trkpt lat="45.6248344" lon="9.4179961"><ele>216.0</ele><time>2026-05-02T11:29:51.854Z</time></trkpt><trkpt lat="45.6249312" lon="9.4179184"><ele>216.0</ele><time>2026-05-02T11:29:53.854Z</time></trkpt><trkpt lat="45.6250438" lon="9.4178793"><ele>216.0</ele><time>2026-05-02T11:29:55.855Z</time></trkpt><trkpt lat="45.6251519" lon="9.4179238"><ele>216.0</ele><time>2026-05-02T11:29:57.855Z</time></trkpt><trkpt lat="45.625248" lon="9.4180118"><ele>215.60000000000002</ele><time>2026-05-02T11:29:59.854Z</time></trkpt><trkpt lat="45.6253581" lon="9.4180762"><ele>215.20000000000002</ele><time>2026-05-02T11:30:01.854Z</time></trkpt><trkpt lat="45.6254762" lon="9.4181186"><ele>214.79999999999998</ele><time>2026-05-02T11:30:03.855Z</time></trkpt><trkpt lat="45.6255388" lon="9.4181325"><ele>214.39999999999998</ele><time>2026-05-02T11:30:04.854Z</time></trkpt><trkpt lat="45.625661" lon="9.4181648"><ele>214.0</ele><time>2026-05-02T11:30:06.855Z</time></trkpt><trkpt lat="45.6257284" lon="9.4181822"><ele>213.99999999999997</ele><time>2026-05-02T11:30:07.855Z</time></trkpt><trkpt lat="45.6257914" lon="9.4181947"><ele>214.0</ele><time>2026-05-02T11:30:08.855Z</time></trkpt><trkpt lat="45.6258554" lon="9.4182202"><ele>214.0</ele><time>2026-05-02T11:30:09.854Z</time></trkpt><trkpt lat="45.6259186" lon="9.4182326"><ele>214.0</ele><time>2026-05-02T11:30:10.855Z</time></trkpt><trkpt lat="45.6259864" lon="9.4182397"><ele>213.99999999999997</ele><time>2026-05-02T11:30:11.854Z</time></trkpt><trkpt lat="45.6261079" lon="9.4182619"><ele>214.0</ele><time>2026-05-02T11:30:13.854Z</time></trkpt><trkpt lat="45.6262304" lon="9.4182689"><ele>214.33333333333331</ele><time>2026-05-02T11:30:15.855Z</time></trkpt><trkpt lat="45.6262933" lon="9.4182729"><ele>214.66666666666666</ele><time>2026-05-02T11:30:16.854Z</time></trkpt><trkpt lat="45.6263593" lon="9.4182776"><ele>215.0</ele><time>2026-05-02T11:30:17.855Z</time></trkpt><trkpt lat="45.6264232" lon="9.4182903"><ele>215.33333333333331</ele><time>2026-05-02T11:30:18.854Z</time></trkpt><trkpt lat="45.6265433" lon="9.4183056"><ele>215.66666666666666</ele><time>2026-05-02T11:30:20.855Z</time></trkpt><trkpt lat="45.6266565" lon="9.4183158"><ele>216.0</ele><time>2026-05-02T11:30:22.854Z</time></trkpt><trkpt lat="45.6267753" lon="9.4183243"><ele>216.0</ele><time>2026-05-02T11:30:24.855Z</time></trkpt><trkpt lat="45.6268946" lon="9.4183298"><ele>216.0</ele><time>2026-05-02T11:30:26.855Z</time></trkpt><trkpt lat="45.6270146" lon="9.4183252"><ele>216.0</ele><time>2026-05-02T11:30:28.854Z</time></trkpt><trkpt lat="45.627139" lon="9.4183391"><ele>216.0</ele><time>2026-05-02T11:30:30.854Z</time></trkpt><trkpt lat="45.6272555" lon="9.4183496"><ele>215.8</ele><time>2026-05-02T11:30:32.854Z</time></trkpt><trkpt lat="45.6273841" lon="9.4183583"><ele>215.60000000000002</ele><time>2026-05-02T11:30:34.855Z</time></trkpt><trkpt lat="45.627506" lon="9.4183707"><ele>215.4</ele><time>2026-05-02T11:30:36.854Z</time></trkpt><trkpt lat="45.627626" lon="9.418371"><ele>215.2</ele><time>2026-05-02T11:30:38.855Z</time></trkpt><trkpt lat="45.62769" lon="9.4183704"><ele>215.0</ele><time>2026-05-02T11:30:39.855Z</time></trkpt><trkpt lat="45.6278094" lon="9.4183839"><ele>215.0</ele><time>2026-05-02T11:30:41.855Z</time></trkpt><trkpt lat="45.6279325" lon="9.4183914"><ele>215.0</ele><time>2026-05-02T11:30:43.854Z</time></trkpt><trkpt lat="45.627998" lon="9.4184047"><ele>215.0</ele><time>2026-05-02T11:30:44.855Z</time></trkpt><trkpt lat="45.628119" lon="9.4184166"><ele>215.0</ele><time>2026-05-02T11:30:46.854Z</time></trkpt><trkpt lat="45.6281828" lon="9.4184173"><ele>215.0</ele><time>2026-05-02T11:30:47.855Z</time></trkpt><trkpt lat="45.6282977" lon="9.4184222"><ele>215.0</ele><time>2026-05-02T11:30:49.855Z</time></trkpt><trkpt lat="45.6284166" lon="9.418419"><ele>215.0</ele><time>2026-05-02T11:30:51.855Z</time></trkpt><trkpt lat="45.6285228" lon="9.4184034"><ele>215.0</ele><time>2026-05-02T11:30:53.854Z</time></trkpt><trkpt lat="45.6286504" lon="9.4184029"><ele>215.0</ele><time>2026-05-02T11:30:55.854Z</time></trkpt><trkpt lat="45.6287799" lon="9.4183973"><ele>215.8</ele><time>2026-05-02T11:30:57.855Z</time></trkpt><trkpt lat="45.6288985" lon="9.4183885"><ele>216.6</ele><time>2026-05-02T11:30:59.854Z</time></trkpt><trkpt lat="45.6289645" lon="9.4183782"><ele>217.39999999999998</ele><time>2026-05-02T11:31:00.854Z</time></trkpt><trkpt lat="45.6290846" lon="9.418356"><ele>218.2</ele><time>2026-05-02T11:31:02.855Z</time></trkpt><trkpt lat="45.6291485" lon="9.418348"><ele>219.0</ele><time>2026-05-02T11:31:03.855Z</time></trkpt><trkpt lat="45.6292728" lon="9.4183269"><ele>219.0</ele><time>2026-05-02T11:31:05.855Z</time></trkpt><trkpt lat="45.6293382" lon="9.4183103"><ele>218.99999999999997</ele><time>2026-05-02T11:31:06.854Z</time></trkpt><trkpt lat="45.6294604" lon="9.418286"><ele>218.99999999999997</ele><time>2026-05-02T11:31:08.854Z</time></trkpt><trkpt lat="45.6295836" lon="9.4182937"><ele>219.0</ele><time>2026-05-02T11:31:10.855Z</time></trkpt><trkpt lat="45.629705" lon="9.4183228"><ele>219.0</ele><time>2026-05-02T11:31:12.855Z</time></trkpt><trkpt lat="45.6298165" lon="9.418325"><ele>219.39999999999998</ele><time>2026-05-02T11:31:14.855Z</time></trkpt><trkpt lat="45.6298771" lon="9.4182906"><ele>219.79999999999998</ele><time>2026-05-02T11:31:15.855Z</time></trkpt><trkpt lat="45.6299932" lon="9.4182133"><ele>220.20000000000002</ele><time>2026-05-02T11:31:17.854Z</time></trkpt><trkpt lat="45.6301165" lon="9.4181765"><ele>220.60000000000002</ele><time>2026-05-02T11:31:19.854Z</time></trkpt><trkpt lat="45.6302343" lon="9.4181551"><ele>221.0</ele><time>2026-05-02T11:31:21.855Z</time></trkpt><trkpt lat="45.6303506" lon="9.4181377"><ele>221.66666666666669</ele><time>2026-05-02T11:31:23.854Z</time></trkpt><trkpt lat="45.6304681" lon="9.4180966"><ele>222.33333333333334</ele><time>2026-05-02T11:31:25.855Z</time></trkpt><trkpt lat="45.6305308" lon="9.4180834"><ele>223.0</ele><time>2026-05-02T11:31:26.854Z</time></trkpt><trkpt lat="45.6306005" lon="9.4180643"><ele>223.66666666666669</ele><time>2026-05-02T11:31:27.854Z</time></trkpt><trkpt lat="45.6307177" lon="9.4180522"><ele>224.33333333333334</ele><time>2026-05-02T11:31:29.854Z</time></trkpt><trkpt lat="45.6307831" lon="9.418041"><ele>225.0</ele><time>2026-05-02T11:31:30.854Z</time></trkpt><trkpt lat="45.6309059" lon="9.4180341"><ele>225.0</ele><time>2026-05-02T11:31:32.854Z</time></trkpt><trkpt lat="45.6309736" lon="9.4180381"><ele>225.0</ele><time>2026-05-02T11:31:33.854Z</time></trkpt><trkpt lat="45.6310912" lon="9.4180512"><ele>225.0</ele><time>2026-05-02T11:31:35.854Z</time></trkpt><trkpt lat="45.6312126" lon="9.4180649"><ele>225.0</ele><time>2026-05-02T11:31:37.855Z</time></trkpt><trkpt lat="45.6312762" lon="9.4180708"><ele>225.0</ele><time>2026-05-02T11:31:38.854Z</time></trkpt><trkpt lat="45.631355" lon="9.4181001"><ele>224.6</ele><time>2026-05-02T11:31:39.854Z</time></trkpt><trkpt lat="45.6314219" lon="9.4181061"><ele>224.2</ele><time>2026-05-02T11:31:40.854Z</time></trkpt><trkpt lat="45.6314862" lon="9.4181285"><ele>223.8</ele><time>2026-05-02T11:31:41.855Z</time></trkpt><trkpt lat="45.631595" lon="9.4181383"><ele>223.4</ele><time>2026-05-02T11:31:43.854Z</time></trkpt><trkpt lat="45.6317081" lon="9.4181618"><ele>223.0</ele><time>2026-05-02T11:31:45.854Z</time></trkpt><trkpt lat="45.631827" lon="9.4181857"><ele>223.0</ele><time>2026-05-02T11:31:47.854Z</time></trkpt><trkpt lat="45.6318913" lon="9.4181913"><ele>223.0</ele><time>2026-05-02T11:31:48.854Z</time></trkpt><trkpt lat="45.6320027" lon="9.418199"><ele>223.0</ele><time>2026-05-02T11:31:50.854Z</time></trkpt><trkpt lat="45.6321174" lon="9.4182249"><ele>223.0</ele><time>2026-05-02T11:31:52.854Z</time></trkpt><trkpt lat="45.6322312" lon="9.4182437"><ele>223.0</ele><time>2026-05-02T11:31:54.854Z</time></trkpt><trkpt lat="45.6322963" lon="9.4182605"><ele>223.2</ele><time>2026-05-02T11:31:55.854Z</time></trkpt><trkpt lat="45.6324086" lon="9.4182876"><ele>223.4</ele><time>2026-05-02T11:31:57.855Z</time></trkpt><trkpt lat="45.6324735" lon="9.4183021"><ele>223.59999999999997</ele><time>2026-05-02T11:31:58.854Z</time></trkpt><trkpt lat="45.6325894" lon="9.4183338"><ele>223.79999999999998</ele><time>2026-05-02T11:32:00.855Z</time></trkpt><trkpt lat="45.6326586" lon="9.4183443"><ele>224.0</ele><time>2026-05-02T11:32:01.855Z</time></trkpt><trkpt lat="45.6327802" lon="9.4183526"><ele>223.75</ele><time>2026-05-02T11:32:03.855Z</time></trkpt><trkpt lat="45.6328936" lon="9.4183765"><ele>223.5</ele><time>2026-05-02T11:32:05.854Z</time></trkpt><trkpt lat="45.633005" lon="9.4184013"><ele>223.25</ele><time>2026-05-02T11:32:07.854Z</time></trkpt><trkpt lat="45.6331294" lon="9.4184198"><ele>223.0</ele><time>2026-05-02T11:32:09.854Z</time></trkpt><trkpt lat="45.6332488" lon="9.4184434"><ele>223.0</ele><time>2026-05-02T11:32:11.854Z</time></trkpt><trkpt lat="45.6333121" lon="9.4184707"><ele>223.0</ele><time>2026-05-02T11:32:12.855Z</time></trkpt><trkpt lat="45.6334091" lon="9.4184908"><ele>223.0</ele><time>2026-05-02T11:32:14.855Z</time></trkpt><trkpt lat="45.6335095" lon="9.4185124"><ele>223.0</ele><time>2026-05-02T11:32:16.855Z</time></trkpt><trkpt lat="45.6336197" lon="9.4185452"><ele>223.0</ele><time>2026-05-02T11:32:18.855Z</time></trkpt><trkpt lat="45.6337269" lon="9.4185699"><ele>223.2</ele><time>2026-05-02T11:32:20.854Z</time></trkpt><trkpt lat="45.6338277" lon="9.4186021"><ele>223.4</ele><time>2026-05-02T11:32:22.855Z</time></trkpt><trkpt lat="45.6339343" lon="9.4186387"><ele>223.59999999999997</ele><time>2026-05-02T11:32:24.854Z</time></trkpt><trkpt lat="45.6340359" lon="9.4186686"><ele>223.79999999999998</ele><time>2026-05-02T11:32:26.854Z</time></trkpt><trkpt lat="45.63414" lon="9.4187045"><ele>224.0</ele><time>2026-05-02T11:32:28.854Z</time></trkpt><trkpt lat="45.6342603" lon="9.4187349"><ele>224.0</ele><time>2026-05-02T11:32:30.854Z</time></trkpt><trkpt lat="45.6343692" lon="9.4187846"><ele>223.99999999999997</ele><time>2026-05-02T11:32:32.855Z</time></trkpt><trkpt lat="45.6344701" lon="9.4188393"><ele>223.99999999999997</ele><time>2026-05-02T11:32:34.854Z</time></trkpt><trkpt lat="45.6345711" lon="9.4188869"><ele>224.0</ele><time>2026-05-02T11:32:36.854Z</time></trkpt><trkpt lat="45.6346721" lon="9.4189497"><ele>224.0</ele><time>2026-05-02T11:32:38.854Z</time></trkpt><trkpt lat="45.6347778" lon="9.4190105"><ele>225.0</ele><time>2026-05-02T11:32:40.855Z</time></trkpt><trkpt lat="45.6348781" lon="9.4190774"><ele>225.99999999999997</ele><time>2026-05-02T11:32:42.855Z</time></trkpt><trkpt lat="45.6349691" lon="9.4191461"><ele>226.99999999999997</ele><time>2026-05-02T11:32:44.855Z</time></trkpt><trkpt lat="45.6350672" lon="9.4192218"><ele>228.0</ele><time>2026-05-02T11:32:46.855Z</time></trkpt><trkpt lat="45.6351645" lon="9.4192775"><ele>229.0</ele><time>2026-05-02T11:32:48.855Z</time></trkpt><trkpt lat="45.6352586" lon="9.419337"><ele>228.66666666666666</ele><time>2026-05-02T11:32:50.855Z</time></trkpt><trkpt lat="45.6353455" lon="9.41939"><ele>228.33333333333331</ele><time>2026-05-02T11:32:52.855Z</time></trkpt><trkpt lat="45.6354217" lon="9.4194312"><ele>228.0</ele><time>2026-05-02T11:32:54.854Z</time></trkpt><trkpt lat="45.6354889" lon="9.419373"><ele>227.66666666666669</ele><time>2026-05-02T11:32:57.854Z</time></trkpt><trkpt lat="45.6355469" lon="9.4192567"><ele>227.33333333333334</ele><time>2026-05-02T11:33:00.855Z</time></trkpt><trkpt lat="45.6355931" lon="9.4191499"><ele>227.0</ele><time>2026-05-02T11:33:02.855Z</time></trkpt><trkpt lat="45.6356556" lon="9.4190458"><ele>227.0</ele><time>2026-05-02T11:33:04.854Z</time></trkpt><trkpt lat="45.6357045" lon="9.4189296"><ele>227.0</ele><time>2026-05-02T11:33:06.855Z</time></trkpt><trkpt lat="45.6357466" lon="9.4188147"><ele>227.0</ele><time>2026-05-02T11:33:08.855Z</time></trkpt><trkpt lat="45.6358171" lon="9.418679"><ele>227.0</ele><time>2026-05-02T11:33:10.855Z</time></trkpt><trkpt lat="45.6358342" lon="9.4185568"><ele>227.0</ele><time>2026-05-02T11:33:11.855Z</time></trkpt><trkpt lat="45.6358719" lon="9.4184747"><ele>226.5</ele><time>2026-05-02T11:33:12.855Z</time></trkpt><trkpt lat="45.6359338" lon="9.4183153"><ele>226.0</ele><time>2026-05-02T11:33:14.854Z</time></trkpt><trkpt lat="45.6360157" lon="9.418191"><ele>225.5</ele><time>2026-05-02T11:33:16.854Z</time></trkpt><trkpt lat="45.6360763" lon="9.4180558"><ele>225.0</ele><time>2026-05-02T11:33:18.855Z</time></trkpt><trkpt lat="45.6361278" lon="9.4179153"><ele>224.6</ele><time>2026-05-02T11:33:20.854Z</time></trkpt><trkpt lat="45.6361996" lon="9.4177866"><ele>224.2</ele><time>2026-05-02T11:33:22.854Z</time></trkpt><trkpt lat="45.636258" lon="9.4176427"><ele>223.8</ele><time>2026-05-02T11:33:24.855Z</time></trkpt><trkpt lat="45.6363005" lon="9.4175529"><ele>223.4</ele><time>2026-05-02T11:33:25.854Z</time></trkpt><trkpt lat="45.6363525" lon="9.4174856"><ele>223.0</ele><time>2026-05-02T11:33:27.854Z</time></trkpt><trkpt lat="45.6364342" lon="9.4175048"><ele>223.0</ele><time>2026-05-02T11:33:29.854Z</time></trkpt><trkpt lat="45.6365272" lon="9.4175698"><ele>223.0</ele><time>2026-05-02T11:33:31.855Z</time></trkpt><trkpt lat="45.636624" lon="9.4176226"><ele>223.0</ele><time>2026-05-02T11:33:33.855Z</time></trkpt><trkpt lat="45.6367197" lon="9.4176908"><ele>223.0</ele><time>2026-05-02T11:33:35.855Z</time></trkpt><trkpt lat="45.6368171" lon="9.417753"><ele>223.0</ele><time>2026-05-02T11:33:37.854Z</time></trkpt><trkpt lat="45.6369142" lon="9.4178085"><ele>223.2</ele><time>2026-05-02T11:33:39.855Z</time></trkpt><trkpt lat="45.6370217" lon="9.4178613"><ele>223.4</ele><time>2026-05-02T11:33:41.855Z</time></trkpt><trkpt lat="45.6371318" lon="9.4179006"><ele>223.59999999999997</ele><time>2026-05-02T11:33:43.855Z</time></trkpt><trkpt lat="45.6372398" lon="9.41793"><ele>223.79999999999998</ele><time>2026-05-02T11:33:45.854Z</time></trkpt><trkpt lat="45.637337" lon="9.4179577"><ele>224.0</ele><time>2026-05-02T11:33:47.855Z</time></trkpt><trkpt lat="45.6374401" lon="9.4179805"><ele>224.0</ele><time>2026-05-02T11:33:49.855Z</time></trkpt><trkpt lat="45.6375447" lon="9.4180095"><ele>224.0</ele><time>2026-05-02T11:33:51.855Z</time></trkpt><trkpt lat="45.6376619" lon="9.4180429"><ele>224.0</ele><time>2026-05-02T11:33:53.854Z</time></trkpt><trkpt lat="45.6377747" lon="9.4180685"><ele>224.0</ele><time>2026-05-02T11:33:55.854Z</time></trkpt><trkpt lat="45.6378858" lon="9.4180953"><ele>223.75</ele><time>2026-05-02T11:33:57.854Z</time></trkpt><trkpt lat="45.6379873" lon="9.4181219"><ele>223.5</ele><time>2026-05-02T11:33:59.855Z</time></trkpt><trkpt lat="45.6381069" lon="9.4181318"><ele>223.25</ele><time>2026-05-02T11:34:01.855Z</time></trkpt><trkpt lat="45.638219" lon="9.4181518"><ele>223.0</ele><time>2026-05-02T11:34:03.855Z</time></trkpt><trkpt lat="45.6383298" lon="9.4181949"><ele>223.0</ele><time>2026-05-02T11:34:05.854Z</time></trkpt><trkpt lat="45.6384328" lon="9.4181683"><ele>223.0</ele><time>2026-05-02T11:34:07.855Z</time></trkpt><trkpt lat="45.638501" lon="9.4180621"><ele>223.0</ele><time>2026-05-02T11:34:09.854Z</time></trkpt><trkpt lat="45.6385834" lon="9.4179758"><ele>223.0</ele><time>2026-05-02T11:34:11.854Z</time></trkpt><trkpt lat="45.6386897" lon="9.4179664"><ele>223.0</ele><time>2026-05-02T11:34:13.855Z</time></trkpt><trkpt lat="45.6387949" lon="9.4179919"><ele>224.0</ele><time>2026-05-02T11:34:15.854Z</time></trkpt><trkpt lat="45.6389121" lon="9.4180219"><ele>225.0</ele><time>2026-05-02T11:34:17.855Z</time></trkpt><trkpt lat="45.639025" lon="9.418055"><ele>226.0</ele><time>2026-05-02T11:34:19.855Z</time></trkpt><trkpt lat="45.6391391" lon="9.4180719"><ele>227.0</ele><time>2026-05-02T11:34:21.855Z</time></trkpt><trkpt lat="45.6392466" lon="9.4180908"><ele>227.0</ele><time>2026-05-02T11:34:23.855Z</time></trkpt><trkpt lat="45.6393472" lon="9.4181172"><ele>227.0</ele><time>2026-05-02T11:34:25.854Z</time></trkpt><trkpt lat="45.6394544" lon="9.4181537"><ele>227.0</ele><time>2026-05-02T11:34:27.854Z</time></trkpt><trkpt lat="45.6395671" lon="9.4181727"><ele>227.0</ele><time>2026-05-02T11:34:29.855Z</time></trkpt><trkpt lat="45.6396866" lon="9.4182073"><ele>227.0</ele><time>2026-05-02T11:34:31.854Z</time></trkpt><trkpt lat="45.639804" lon="9.418238"><ele>227.39999999999998</ele><time>2026-05-02T11:34:33.855Z</time></trkpt><trkpt lat="45.639906" lon="9.4182422"><ele>227.79999999999998</ele><time>2026-05-02T11:34:35.855Z</time></trkpt><trkpt lat="45.6400231" lon="9.418239"><ele>228.2</ele><time>2026-05-02T11:34:37.855Z</time></trkpt><trkpt lat="45.6401342" lon="9.418231"><ele>228.6</ele><time>2026-05-02T11:34:39.855Z</time></trkpt><trkpt lat="45.6402449" lon="9.4182082"><ele>229.0</ele><time>2026-05-02T11:34:41.854Z</time></trkpt><trkpt lat="45.6403507" lon="9.4181548"><ele>229.0</ele><time>2026-05-02T11:34:43.854Z</time></trkpt><trkpt lat="45.640455" lon="9.4180793"><ele>229.0</ele><time>2026-05-02T11:34:45.855Z</time></trkpt><trkpt lat="45.6405551" lon="9.4179825"><ele>229.0</ele><time>2026-05-02T11:34:47.854Z</time></trkpt><trkpt lat="45.6406452" lon="9.4178693"><ele>229.0</ele><time>2026-05-02T11:34:49.855Z</time></trkpt><trkpt lat="45.6407301" lon="9.4177351"><ele>229.0</ele><time>2026-05-02T11:34:51.854Z</time></trkpt><trkpt lat="45.6407939" lon="9.4176059"><ele>228.99999999999997</ele><time>2026-05-02T11:34:53.855Z</time></trkpt><trkpt lat="45.6408515" lon="9.4174507"><ele>228.99999999999997</ele><time>2026-05-02T11:34:55.854Z</time></trkpt><trkpt lat="45.6408834" lon="9.4173727"><ele>229.0</ele><time>2026-05-02T11:34:56.855Z</time></trkpt><trkpt lat="45.6409429" lon="9.4172161"><ele>229.0</ele><time>2026-05-02T11:34:58.855Z</time></trkpt><trkpt lat="45.6409965" lon="9.4170587"><ele>228.99999999999997</ele><time>2026-05-02T11:35:00.854Z</time></trkpt><trkpt lat="45.6410432" lon="9.4169303"><ele>229.0</ele><time>2026-05-02T11:35:02.855Z</time></trkpt><trkpt lat="45.6410793" lon="9.416836"><ele>229.0</ele><time>2026-05-02T11:35:03.855Z</time></trkpt><trkpt lat="45.6411332" lon="9.4166799"><ele>229.0</ele><time>2026-05-02T11:35:05.855Z</time></trkpt><trkpt lat="45.6411595" lon="9.4165917"><ele>228.99999999999997</ele><time>2026-05-02T11:35:06.855Z</time></trkpt><trkpt lat="45.6411929" lon="9.416506"><ele>229.0</ele><time>2026-05-02T11:35:07.854Z</time></trkpt><trkpt lat="45.6412396" lon="9.4163656"><ele>229.0</ele><time>2026-05-02T11:35:09.855Z</time></trkpt><trkpt lat="45.6413259" lon="9.416279"><ele>228.99999999999997</ele><time>2026-05-02T11:35:11.854Z</time></trkpt><trkpt lat="45.6414218" lon="9.4162983"><ele>228.99999999999997</ele><time>2026-05-02T11:35:13.854Z</time></trkpt><trkpt lat="45.6415219" lon="9.4163817"><ele>229.0</ele><time>2026-05-02T11:35:15.854Z</time></trkpt><trkpt lat="45.6416216" lon="9.4164577"><ele>229.0</ele><time>2026-05-02T11:35:17.854Z</time></trkpt><trkpt lat="45.6417269" lon="9.4165274"><ele>229.0</ele><time>2026-05-02T11:35:19.855Z</time></trkpt><trkpt lat="45.6418398" lon="9.416592"><ele>229.0</ele><time>2026-05-02T11:35:21.855Z</time></trkpt><trkpt lat="45.6419486" lon="9.4166634"><ele>229.0</ele><time>2026-05-02T11:35:23.855Z</time></trkpt><trkpt lat="45.6420635" lon="9.4167342"><ele>229.0</ele><time>2026-05-02T11:35:25.855Z</time></trkpt><trkpt lat="45.6421748" lon="9.4168172"><ele>229.0</ele><time>2026-05-02T11:35:27.855Z</time></trkpt><trkpt lat="45.6422827" lon="9.4168942"><ele>229.0</ele><time>2026-05-02T11:35:29.854Z</time></trkpt><trkpt lat="45.6423913" lon="9.4169631"><ele>229.0</ele><time>2026-05-02T11:35:31.854Z</time></trkpt><trkpt lat="45.6425705" lon="9.4170764"><ele>229.0</ele><time>2026-05-02T11:35:34.854Z</time></trkpt><trkpt lat="45.6426739" lon="9.4171565"><ele>229.0</ele><time>2026-05-02T11:35:36.855Z</time></trkpt><trkpt lat="45.642781" lon="9.4172203"><ele>228.99999999999997</ele><time>2026-05-02T11:35:38.854Z</time></trkpt><trkpt lat="45.6428881" lon="9.4172944"><ele>228.99999999999997</ele><time>2026-05-02T11:35:40.854Z</time></trkpt><trkpt lat="45.6429471" lon="9.4173366"><ele>229.0</ele><time>2026-05-02T11:35:41.854Z</time></trkpt><trkpt lat="45.6430539" lon="9.4174089"><ele>229.0</ele><time>2026-05-02T11:35:43.854Z</time></trkpt><trkpt lat="45.6431695" lon="9.4174845"><ele>229.0</ele><time>2026-05-02T11:35:45.855Z</time></trkpt><trkpt lat="45.6432764" lon="9.4175654"><ele>228.99999999999997</ele><time>2026-05-02T11:35:47.854Z</time></trkpt><trkpt lat="45.6433372" lon="9.417615"><ele>228.99999999999997</ele><time>2026-05-02T11:35:48.854Z</time></trkpt><trkpt lat="45.6434312" lon="9.4176793"><ele>229.0</ele><time>2026-05-02T11:35:50.855Z</time></trkpt><trkpt lat="45.6435361" lon="9.4177459"><ele>229.0</ele><time>2026-05-02T11:35:52.854Z</time></trkpt><trkpt lat="45.6436476" lon="9.4178159"><ele>228.79999999999998</ele><time>2026-05-02T11:35:54.854Z</time></trkpt><trkpt lat="45.6437544" lon="9.4178647"><ele>228.59999999999997</ele><time>2026-05-02T11:35:56.855Z</time></trkpt><trkpt lat="45.6438601" lon="9.4179251"><ele>228.4</ele><time>2026-05-02T11:35:58.854Z</time></trkpt><trkpt lat="45.6439192" lon="9.4179659"><ele>228.2</ele><time>2026-05-02T11:35:59.854Z</time></trkpt><trkpt lat="45.6440192" lon="9.4180578"><ele>228.0</ele><time>2026-05-02T11:36:01.855Z</time></trkpt><trkpt lat="45.6441021" lon="9.418178"><ele>228.0</ele><time>2026-05-02T11:36:03.854Z</time></trkpt><trkpt lat="45.6441619" lon="9.4182995"><ele>228.0</ele><time>2026-05-02T11:36:05.854Z</time></trkpt><trkpt lat="45.6442088" lon="9.418445"><ele>228.0</ele><time>2026-05-02T11:36:07.854Z</time></trkpt><trkpt lat="45.6442678" lon="9.4186037"><ele>228.0</ele><time>2026-05-02T11:36:09.854Z</time></trkpt><trkpt lat="45.6443289" lon="9.4187619"><ele>227.75</ele><time>2026-05-02T11:36:11.855Z</time></trkpt><trkpt lat="45.6443776" lon="9.4189081"><ele>227.5</ele><time>2026-05-02T11:36:13.854Z</time></trkpt><trkpt lat="45.6444303" lon="9.4190616"><ele>227.25</ele><time>2026-05-02T11:36:15.854Z</time></trkpt><trkpt lat="45.6444807" lon="9.4192073"><ele>227.0</ele><time>2026-05-02T11:36:17.855Z</time></trkpt><trkpt lat="45.6445218" lon="9.4193464"><ele>227.0</ele><time>2026-05-02T11:36:19.854Z</time></trkpt><trkpt lat="45.6445707" lon="9.4194824"><ele>227.0</ele><time>2026-05-02T11:36:21.854Z</time></trkpt><trkpt lat="45.6446157" lon="9.4196231"><ele>227.0</ele><time>2026-05-02T11:36:23.854Z</time></trkpt><trkpt lat="45.6446642" lon="9.4197509"><ele>227.0</ele><time>2026-05-02T11:36:25.854Z</time></trkpt><trkpt lat="45.6447139" lon="9.4198756"><ele>227.0</ele><time>2026-05-02T11:36:27.854Z</time></trkpt><trkpt lat="45.6447559" lon="9.4199954"><ele>228.00000000000003</ele><time>2026-05-02T11:36:29.854Z</time></trkpt><trkpt lat="45.6447987" lon="9.4201171"><ele>229.0</ele><time>2026-05-02T11:36:31.855Z</time></trkpt><trkpt lat="45.6448324" lon="9.4202185"><ele>230.0</ele><time>2026-05-02T11:36:33.854Z</time></trkpt><trkpt lat="45.6448699" lon="9.4203153"><ele>231.0</ele><time>2026-05-02T11:36:35.854Z</time></trkpt><trkpt lat="45.6449004" lon="9.4204016"><ele>232.00000000000003</ele><time>2026-05-02T11:36:37.854Z</time></trkpt><trkpt lat="45.6449411" lon="9.42049"><ele>233.0</ele><time>2026-05-02T11:36:39.855Z</time></trkpt><trkpt lat="45.6449719" lon="9.420592"><ele>233.66666666666669</ele><time>2026-05-02T11:36:41.854Z</time></trkpt><trkpt lat="45.6450133" lon="9.4207003"><ele>234.33333333333334</ele><time>2026-05-02T11:36:43.855Z</time></trkpt><trkpt lat="45.6450578" lon="9.420812"><ele>235.0</ele><time>2026-05-02T11:36:45.854Z</time></trkpt><trkpt lat="45.6450942" lon="9.4209146"><ele>235.66666666666669</ele><time>2026-05-02T11:36:47.854Z</time></trkpt><trkpt lat="45.6451312" lon="9.421019"><ele>236.33333333333334</ele><time>2026-05-02T11:36:49.855Z</time></trkpt><trkpt lat="45.6451684" lon="9.4211247"><ele>237.0</ele><time>2026-05-02T11:36:51.854Z</time></trkpt><trkpt lat="45.6452015" lon="9.4212203"><ele>237.16666666666666</ele><time>2026-05-02T11:36:53.854Z</time></trkpt><trkpt lat="45.645227" lon="9.4213191"><ele>237.33333333333331</ele><time>2026-05-02T11:36:55.854Z</time></trkpt><trkpt lat="45.6452638" lon="9.4214237"><ele>237.5</ele><time>2026-05-02T11:36:57.854Z</time></trkpt><trkpt lat="45.6453014" lon="9.4215301"><ele>237.66666666666666</ele><time>2026-05-02T11:36:59.854Z</time></trkpt><trkpt lat="45.6453404" lon="9.4216355"><ele>237.83333333333331</ele><time>2026-05-02T11:37:01.855Z</time></trkpt><trkpt lat="45.6453808" lon="9.4217476"><ele>238.0</ele><time>2026-05-02T11:37:03.855Z</time></trkpt><trkpt lat="45.6454285" lon="9.4218579"><ele>238.4</ele><time>2026-05-02T11:37:05.855Z</time></trkpt><trkpt lat="45.6454797" lon="9.4219653"><ele>238.8</ele><time>2026-05-02T11:37:07.854Z</time></trkpt><trkpt lat="45.6455364" lon="9.4220645"><ele>239.2</ele><time>2026-05-02T11:37:09.854Z</time></trkpt><trkpt lat="45.6456026" lon="9.4221539"><ele>239.6</ele><time>2026-05-02T11:37:11.855Z</time></trkpt><trkpt lat="45.6456795" lon="9.4222415"><ele>240.0</ele><time>2026-05-02T11:37:13.855Z</time></trkpt><trkpt lat="45.6457577" lon="9.4223254"><ele>240.0</ele><time>2026-05-02T11:37:15.854Z</time></trkpt><trkpt lat="45.6458432" lon="9.4224024"><ele>240.0</ele><time>2026-05-02T11:37:17.854Z</time></trkpt><trkpt lat="45.6459327" lon="9.4224787"><ele>240.0</ele><time>2026-05-02T11:37:19.854Z</time></trkpt><trkpt lat="45.6460227" lon="9.4225563"><ele>240.0</ele><time>2026-05-02T11:37:21.854Z</time></trkpt><trkpt lat="45.646118" lon="9.4226322"><ele>240.0</ele><time>2026-05-02T11:37:23.855Z</time></trkpt><trkpt lat="45.6462037" lon="9.4227221"><ele>239.8</ele><time>2026-05-02T11:37:25.855Z</time></trkpt><trkpt lat="45.6462946" lon="9.4227885"><ele>239.6</ele><time>2026-05-02T11:37:27.855Z</time></trkpt><trkpt lat="45.646384" lon="9.4228613"><ele>239.39999999999998</ele><time>2026-05-02T11:37:29.855Z</time></trkpt><trkpt lat="45.6464678" lon="9.4229324"><ele>239.2</ele><time>2026-05-02T11:37:31.854Z</time></trkpt><trkpt lat="45.6465547" lon="9.4230042"><ele>239.0</ele><time>2026-05-02T11:37:33.854Z</time></trkpt><trkpt lat="45.6466492" lon="9.4230665"><ele>239.0</ele><time>2026-05-02T11:37:35.854Z</time></trkpt><trkpt lat="45.6467469" lon="9.4231515"><ele>239.0</ele><time>2026-05-02T11:37:37.854Z</time></trkpt><trkpt lat="45.6468441" lon="9.4232331"><ele>239.0</ele><time>2026-05-02T11:37:39.854Z</time></trkpt><trkpt lat="45.646942" lon="9.4233118"><ele>239.0</ele><time>2026-05-02T11:37:41.854Z</time></trkpt><trkpt lat="45.6470447" lon="9.4233935"><ele>238.83333333333334</ele><time>2026-05-02T11:37:43.854Z</time></trkpt><trkpt lat="45.6471434" lon="9.42346"><ele>238.66666666666669</ele><time>2026-05-02T11:37:45.854Z</time></trkpt><trkpt lat="45.6472075" lon="9.4234953"><ele>238.5</ele><time>2026-05-02T11:37:46.854Z</time></trkpt><trkpt lat="45.6473297" lon="9.4235106"><ele>238.33333333333331</ele><time>2026-05-02T11:37:48.854Z</time></trkpt><trkpt lat="45.6473961" lon="9.4235185"><ele>238.16666666666666</ele><time>2026-05-02T11:37:49.855Z</time></trkpt><trkpt lat="45.6474593" lon="9.4235183"><ele>238.0</ele><time>2026-05-02T11:37:50.855Z</time></trkpt><trkpt lat="45.6475224" lon="9.4235046"><ele>238.0</ele><time>2026-05-02T11:37:51.855Z</time></trkpt><trkpt lat="45.6476463" lon="9.4234906"><ele>238.0</ele><time>2026-05-02T11:37:53.855Z</time></trkpt><trkpt lat="45.6477664" lon="9.423467"><ele>238.0</ele><time>2026-05-02T11:37:55.855Z</time></trkpt><trkpt lat="45.6478868" lon="9.4234489"><ele>238.0</ele><time>2026-05-02T11:37:57.854Z</time></trkpt><trkpt lat="45.6479519" lon="9.4234491"><ele>238.0</ele><time>2026-05-02T11:37:58.855Z</time></trkpt><trkpt lat="45.648016" lon="9.4234465"><ele>237.8</ele><time>2026-05-02T11:37:59.855Z</time></trkpt><trkpt lat="45.6480795" lon="9.4234411"><ele>237.60000000000002</ele><time>2026-05-02T11:38:00.855Z</time></trkpt><trkpt lat="45.6481954" lon="9.4234353"><ele>237.39999999999998</ele><time>2026-05-02T11:38:02.855Z</time></trkpt><trkpt lat="45.6482598" lon="9.4234314"><ele>237.2</ele><time>2026-05-02T11:38:03.854Z</time></trkpt><trkpt lat="45.6483763" lon="9.4234224"><ele>237.0</ele><time>2026-05-02T11:38:05.855Z</time></trkpt><trkpt lat="45.6484923" lon="9.4234119"><ele>237.0</ele><time>2026-05-02T11:38:07.855Z</time></trkpt><trkpt lat="45.648612" lon="9.4234062"><ele>237.0</ele><time>2026-05-02T11:38:09.855Z</time></trkpt><trkpt lat="45.6487274" lon="9.4233957"><ele>237.0</ele><time>2026-05-02T11:38:11.854Z</time></trkpt><trkpt lat="45.6488318" lon="9.4233793"><ele>237.0</ele><time>2026-05-02T11:38:13.854Z</time></trkpt><trkpt lat="45.648923" lon="9.4233292"><ele>237.0</ele><time>2026-05-02T11:38:15.854Z</time></trkpt><trkpt lat="45.6489452" lon="9.4231914"><ele>237.0</ele><time>2026-05-02T11:38:17.854Z</time></trkpt><trkpt lat="45.6489365" lon="9.423019"><ele>237.0</ele><time>2026-05-02T11:38:19.854Z</time></trkpt><trkpt lat="45.6489285" lon="9.4228458"><ele>237.0</ele><time>2026-05-02T11:38:21.854Z</time></trkpt><trkpt lat="45.6489179" lon="9.422664"><ele>237.0</ele><time>2026-05-02T11:38:23.854Z</time></trkpt><trkpt lat="45.6489158" lon="9.4225725"><ele>237.0</ele><time>2026-05-02T11:38:24.854Z</time></trkpt><trkpt lat="45.6489218" lon="9.4224061"><ele>236.0</ele><time>2026-05-02T11:38:26.854Z</time></trkpt><trkpt lat="45.6489426" lon="9.4222694"><ele>235.0</ele><time>2026-05-02T11:38:28.855Z</time></trkpt><trkpt lat="45.649023" lon="9.4222184"><ele>234.0</ele><time>2026-05-02T11:38:30.855Z</time></trkpt><trkpt lat="45.6491263" lon="9.4222299"><ele>233.0</ele><time>2026-05-02T11:38:32.855Z</time></trkpt><trkpt lat="45.6492279" lon="9.4222408"><ele>232.0</ele><time>2026-05-02T11:38:34.854Z</time></trkpt><trkpt lat="45.6493285" lon="9.4222483"><ele>232.0</ele><time>2026-05-02T11:38:36.855Z</time></trkpt><trkpt lat="45.6494346" lon="9.4222573"><ele>232.0</ele><time>2026-05-02T11:38:38.854Z</time></trkpt><trkpt lat="45.649538" lon="9.4222616"><ele>232.0</ele><time>2026-05-02T11:38:40.854Z</time></trkpt><trkpt lat="45.6496459" lon="9.4222744"><ele>232.0</ele><time>2026-05-02T11:38:42.854Z</time></trkpt><trkpt lat="45.6497395" lon="9.4223091"><ele>232.0</ele><time>2026-05-02T11:38:44.854Z</time></trkpt><trkpt lat="45.6498294" lon="9.422334"><ele>232.39999999999998</ele><time>2026-05-02T11:38:46.854Z</time></trkpt><trkpt lat="45.6499233" lon="9.422364"><ele>232.79999999999998</ele><time>2026-05-02T11:38:48.855Z</time></trkpt><trkpt lat="45.6500223" lon="9.4223798"><ele>233.2</ele><time>2026-05-02T11:38:50.855Z</time></trkpt><trkpt lat="45.650107" lon="9.4223977"><ele>233.6</ele><time>2026-05-02T11:38:52.855Z</time></trkpt><trkpt lat="45.6501919" lon="9.4224167"><ele>234.0</ele><time>2026-05-02T11:38:54.855Z</time></trkpt><trkpt lat="45.6502839" lon="9.4223445"><ele>233.83333333333334</ele><time>2026-05-02T11:38:56.855Z</time></trkpt><trkpt lat="45.6503543" lon="9.4223247"><ele>233.66666666666669</ele><time>2026-05-02T11:38:57.855Z</time></trkpt><trkpt lat="45.6504258" lon="9.4223325"><ele>233.5</ele><time>2026-05-02T11:38:58.855Z</time></trkpt><trkpt lat="45.6505099" lon="9.422348"><ele>233.33333333333334</ele><time>2026-05-02T11:38:59.855Z</time></trkpt><trkpt lat="45.6505776" lon="9.4223612"><ele>233.16666666666669</ele><time>2026-05-02T11:39:00.855Z</time></trkpt><trkpt lat="45.6506579" lon="9.422378"><ele>233.0</ele><time>2026-05-02T11:39:01.854Z</time></trkpt><trkpt lat="45.6507684" lon="9.4224056"><ele>233.0</ele><time>2026-05-02T11:39:03.854Z</time></trkpt><trkpt lat="45.6508786" lon="9.4224306"><ele>233.0</ele><time>2026-05-02T11:39:05.854Z</time></trkpt><trkpt lat="45.650996" lon="9.4224472"><ele>233.0</ele><time>2026-05-02T11:39:07.854Z</time></trkpt><trkpt lat="45.6511114" lon="9.4224629"><ele>233.0</ele><time>2026-05-02T11:39:09.855Z</time></trkpt><trkpt lat="45.6512168" lon="9.4224889"><ele>232.8</ele><time>2026-05-02T11:39:11.854Z</time></trkpt><trkpt lat="45.6512983" lon="9.4225251"><ele>232.60000000000002</ele><time>2026-05-02T11:39:13.854Z</time></trkpt><trkpt lat="45.6514042" lon="9.4225426"><ele>232.39999999999998</ele><time>2026-05-02T11:39:15.854Z</time></trkpt><trkpt lat="45.6514543" lon="9.422395"><ele>232.2</ele><time>2026-05-02T11:39:18.854Z</time></trkpt><trkpt lat="45.6515119" lon="9.4223543"><ele>232.0</ele><time>2026-05-02T11:39:19.855Z</time></trkpt><trkpt lat="45.6515479" lon="9.4222059"><ele>232.8</ele><time>2026-05-02T11:39:21.855Z</time></trkpt><trkpt lat="45.6515745" lon="9.4220396"><ele>233.6</ele><time>2026-05-02T11:39:23.855Z</time></trkpt><trkpt lat="45.651609" lon="9.4218865"><ele>234.40000000000003</ele><time>2026-05-02T11:39:25.854Z</time></trkpt><trkpt lat="45.6516301" lon="9.4217708"><ele>235.20000000000002</ele><time>2026-05-02T11:39:27.855Z</time></trkpt><trkpt lat="45.6516483" lon="9.4216552"><ele>236.0</ele><time>2026-05-02T11:39:29.855Z</time></trkpt><trkpt lat="45.6516682" lon="9.4215176"><ele>236.00000000000003</ele><time>2026-05-02T11:39:31.854Z</time></trkpt><trkpt lat="45.6517386" lon="9.4214865"><ele>236.0</ele><time>2026-05-02T11:39:33.854Z</time></trkpt><trkpt lat="45.6518233" lon="9.4215283"><ele>236.0</ele><time>2026-05-02T11:39:36.854Z</time></trkpt><trkpt lat="45.6518904" lon="9.4215739"><ele>236.0</ele><time>2026-05-02T11:39:39.855Z</time></trkpt><trkpt lat="45.6519498" lon="9.4216201"><ele>236.00000000000003</ele><time>2026-05-02T11:39:41.855Z</time></trkpt><trkpt lat="45.6520262" lon="9.421674"><ele>236.0</ele><time>2026-05-02T11:39:43.854Z</time></trkpt><trkpt lat="45.652113" lon="9.4217105"><ele>236.4</ele><time>2026-05-02T11:39:45.855Z</time></trkpt><trkpt lat="45.6521919" lon="9.421731"><ele>236.8</ele><time>2026-05-02T11:39:47.854Z</time></trkpt><trkpt lat="45.6523032" lon="9.4217858"><ele>237.20000000000002</ele><time>2026-05-02T11:39:49.855Z</time></trkpt><trkpt lat="45.6523945" lon="9.4218074"><ele>237.60000000000002</ele><time>2026-05-02T11:39:51.854Z</time></trkpt><trkpt lat="45.652472" lon="9.421824"><ele>238.0</ele><time>2026-05-02T11:39:53.855Z</time></trkpt><trkpt lat="45.6525615" lon="9.4218437"><ele>238.0</ele><time>2026-05-02T11:39:55.855Z</time></trkpt><trkpt lat="45.6526364" lon="9.4218609"><ele>238.0</ele><time>2026-05-02T11:39:57.854Z</time></trkpt><trkpt lat="45.6527197" lon="9.4218716"><ele>238.0</ele><time>2026-05-02T11:39:59.855Z</time></trkpt><trkpt lat="45.6528229" lon="9.4218583"><ele>238.0</ele><time>2026-05-02T11:40:01.854Z</time></trkpt><trkpt lat="45.6529411" lon="9.4218782"><ele>238.0</ele><time>2026-05-02T11:40:03.855Z</time></trkpt><trkpt lat="45.6530428" lon="9.4218743"><ele>237.8</ele><time>2026-05-02T11:40:05.854Z</time></trkpt><trkpt lat="45.6531437" lon="9.4218936"><ele>237.60000000000002</ele><time>2026-05-02T11:40:07.855Z</time></trkpt><trkpt lat="45.6532453" lon="9.4218741"><ele>237.39999999999998</ele><time>2026-05-02T11:40:09.855Z</time></trkpt><trkpt lat="45.6533504" lon="9.4218808"><ele>237.2</ele><time>2026-05-02T11:40:11.854Z</time></trkpt><trkpt lat="45.6534251" lon="9.4219144"><ele>237.0</ele><time>2026-05-02T11:40:12.854Z</time></trkpt><trkpt lat="45.6534901" lon="9.4219288"><ele>237.0</ele><time>2026-05-02T11:40:13.855Z</time></trkpt><trkpt lat="45.6535861" lon="9.4219184"><ele>237.0</ele><time>2026-05-02T11:40:15.854Z</time></trkpt><trkpt lat="45.6536784" lon="9.4218819"><ele>237.0</ele><time>2026-05-02T11:40:17.855Z</time></trkpt><trkpt lat="45.6538006" lon="9.4218319"><ele>237.0</ele><time>2026-05-02T11:40:20.854Z</time></trkpt><trkpt lat="45.6538636" lon="9.421824"><ele>237.0</ele><time>2026-05-02T11:40:21.855Z</time></trkpt><trkpt lat="45.6539367" lon="9.4218061"><ele>236.75</ele><time>2026-05-02T11:40:22.854Z</time></trkpt><trkpt lat="45.6540285" lon="9.421761"><ele>236.5</ele><time>2026-05-02T11:40:24.855Z</time></trkpt><trkpt lat="45.6541426" lon="9.4217704"><ele>236.25</ele><time>2026-05-02T11:40:26.854Z</time></trkpt><trkpt lat="45.6542325" lon="9.4217312"><ele>236.0</ele><time>2026-05-02T11:40:28.854Z</time></trkpt><trkpt lat="45.6544701" lon="9.4217391"><ele>236.00000000000003</ele><time>2026-05-02T11:40:33.854Z</time></trkpt><trkpt lat="45.6545271" lon="9.4216898"><ele>236.0</ele><time>2026-05-02T11:40:34.854Z</time></trkpt><trkpt lat="45.6545855" lon="9.4216475"><ele>236.0</ele><time>2026-05-02T11:40:35.855Z</time></trkpt><trkpt lat="45.6547323" lon="9.4216825"><ele>236.0</ele><time>2026-05-02T11:40:38.854Z</time></trkpt><trkpt lat="45.6547981" lon="9.4217098"><ele>236.00000000000003</ele><time>2026-05-02T11:40:39.855Z</time></trkpt><trkpt lat="45.6548792" lon="9.421716"><ele>236.0</ele><time>2026-05-02T11:40:40.855Z</time></trkpt><trkpt lat="45.6549982" lon="9.4217359"><ele>236.00000000000003</ele><time>2026-05-02T11:40:42.855Z</time></trkpt><trkpt lat="45.6551056" lon="9.421761"><ele>236.0</ele><time>2026-05-02T11:40:44.854Z</time></trkpt><trkpt lat="45.6551854" lon="9.4217988"><ele>236.0</ele><time>2026-05-02T11:40:46.855Z</time></trkpt><trkpt lat="45.6552596" lon="9.421859"><ele>236.0</ele><time>2026-05-02T11:40:48.854Z</time></trkpt><trkpt lat="45.6553477" lon="9.4219225"><ele>236.00000000000003</ele><time>2026-05-02T11:40:50.854Z</time></trkpt><trkpt lat="45.6554087" lon="9.42196"><ele>236.0</ele><time>2026-05-02T11:40:51.854Z</time></trkpt><trkpt lat="45.6555341" lon="9.422044"><ele>235.8</ele><time>2026-05-02T11:40:53.855Z</time></trkpt><trkpt lat="45.6556402" lon="9.4221153"><ele>235.60000000000002</ele><time>2026-05-02T11:40:55.855Z</time></trkpt><trkpt lat="45.6557409" lon="9.4221959"><ele>235.4</ele><time>2026-05-02T11:40:57.855Z</time></trkpt><trkpt lat="45.6558651" lon="9.4222489"><ele>235.2</ele><time>2026-05-02T11:40:59.854Z</time></trkpt><trkpt lat="45.6559246" lon="9.42228"><ele>235.0</ele><time>2026-05-02T11:41:00.855Z</time></trkpt><trkpt lat="45.6560001" lon="9.4223204"><ele>234.99999999999997</ele><time>2026-05-02T11:41:01.854Z</time></trkpt><trkpt lat="45.6560683" lon="9.4223634"><ele>235.0</ele><time>2026-05-02T11:41:02.855Z</time></trkpt><trkpt lat="45.6561343" lon="9.4223964"><ele>235.0</ele><time>2026-05-02T11:41:03.855Z</time></trkpt><trkpt lat="45.6562436" lon="9.4224526"><ele>235.0</ele><time>2026-05-02T11:41:05.855Z</time></trkpt><trkpt lat="45.6563517" lon="9.4224969"><ele>234.99999999999997</ele><time>2026-05-02T11:41:07.855Z</time></trkpt><trkpt lat="45.6564177" lon="9.4225232"><ele>235.0</ele><time>2026-05-02T11:41:08.854Z</time></trkpt><trkpt lat="45.6565291" lon="9.4225747"><ele>235.2</ele><time>2026-05-02T11:41:10.854Z</time></trkpt><trkpt lat="45.6566316" lon="9.4226219"><ele>235.4</ele><time>2026-05-02T11:41:12.854Z</time></trkpt><trkpt lat="45.6567287" lon="9.4226641"><ele>235.60000000000002</ele><time>2026-05-02T11:41:14.854Z</time></trkpt><trkpt lat="45.6567959" lon="9.4226939"><ele>235.8</ele><time>2026-05-02T11:41:15.855Z</time></trkpt><trkpt lat="45.6569143" lon="9.422736"><ele>236.0</ele><time>2026-05-02T11:41:17.854Z</time></trkpt><trkpt lat="45.6569799" lon="9.4227629"><ele>236.20000000000002</ele><time>2026-05-02T11:41:18.855Z</time></trkpt><trkpt lat="45.6570942" lon="9.4227749"><ele>236.40000000000003</ele><time>2026-05-02T11:41:21.854Z</time></trkpt><trkpt lat="45.6572087" lon="9.4228345"><ele>236.6</ele><time>2026-05-02T11:41:23.855Z</time></trkpt><trkpt lat="45.6573164" lon="9.4228575"><ele>236.8</ele><time>2026-05-02T11:41:25.855Z</time></trkpt><trkpt lat="45.65738" lon="9.4228727"><ele>237.0</ele><time>2026-05-02T11:41:26.855Z</time></trkpt><trkpt lat="45.6574533" lon="9.4228976"><ele>237.0</ele><time>2026-05-02T11:41:27.855Z</time></trkpt><trkpt lat="45.6575771" lon="9.4229109"><ele>237.0</ele><time>2026-05-02T11:41:29.855Z</time></trkpt><trkpt lat="45.657693" lon="9.4229236"><ele>237.0</ele><time>2026-05-02T11:41:31.854Z</time></trkpt><trkpt lat="45.6578108" lon="9.422961"><ele>237.0</ele><time>2026-05-02T11:41:33.854Z</time></trkpt><trkpt lat="45.657929" lon="9.4230245"><ele>236.66666666666666</ele><time>2026-05-02T11:41:35.854Z</time></trkpt><trkpt lat="45.6580304" lon="9.4230893"><ele>236.33333333333331</ele><time>2026-05-02T11:41:37.854Z</time></trkpt><trkpt lat="45.6581414" lon="9.4231629"><ele>236.0</ele><time>2026-05-02T11:41:39.854Z</time></trkpt><trkpt lat="45.6581982" lon="9.4232117"><ele>235.66666666666666</ele><time>2026-05-02T11:41:40.854Z</time></trkpt><trkpt lat="45.6582554" lon="9.423264"><ele>235.33333333333331</ele><time>2026-05-02T11:41:41.855Z</time></trkpt><trkpt lat="45.6583106" lon="9.4233096"><ele>235.0</ele><time>2026-05-02T11:41:42.854Z</time></trkpt><trkpt lat="45.6583695" lon="9.4233654"><ele>235.0</ele><time>2026-05-02T11:41:43.855Z</time></trkpt><trkpt lat="45.6584757" lon="9.4234474"><ele>235.0</ele><time>2026-05-02T11:41:45.854Z</time></trkpt><trkpt lat="45.6585836" lon="9.4235233"><ele>235.0</ele><time>2026-05-02T11:41:47.855Z</time></trkpt><trkpt lat="45.6586925" lon="9.4236252"><ele>235.0</ele><time>2026-05-02T11:41:49.854Z</time></trkpt><trkpt lat="45.6587865" lon="9.4236938"><ele>235.0</ele><time>2026-05-02T11:41:51.854Z</time></trkpt><trkpt lat="45.6588843" lon="9.4237884"><ele>235.0</ele><time>2026-05-02T11:41:53.854Z</time></trkpt><trkpt lat="45.6589719" lon="9.4238855"><ele>235.0</ele><time>2026-05-02T11:41:55.854Z</time></trkpt><trkpt lat="45.6590377" lon="9.4239856"><ele>235.0</ele><time>2026-05-02T11:41:57.855Z</time></trkpt><trkpt lat="45.6590694" lon="9.424099"><ele>235.0</ele><time>2026-05-02T11:41:59.855Z</time></trkpt><trkpt lat="45.6590416" lon="9.4241956"><ele>235.0</ele><time>2026-05-02T11:42:01.855Z</time></trkpt><trkpt lat="45.6590211" lon="9.4243392"><ele>235.0</ele><time>2026-05-02T11:42:03.854Z</time></trkpt><trkpt lat="45.6590358" lon="9.4244668"><ele>235.0</ele><time>2026-05-02T11:42:05.855Z</time></trkpt><trkpt lat="45.6591083" lon="9.4245687"><ele>235.0</ele><time>2026-05-02T11:42:07.855Z</time></trkpt><trkpt lat="45.6591857" lon="9.4246501"><ele>235.0</ele><time>2026-05-02T11:42:09.855Z</time></trkpt><trkpt lat="45.6592651" lon="9.4247477"><ele>234.75</ele><time>2026-05-02T11:42:11.854Z</time></trkpt><trkpt lat="45.6593524" lon="9.4248466"><ele>234.5</ele><time>2026-05-02T11:42:13.854Z</time></trkpt><trkpt lat="45.659444" lon="9.4249378"><ele>234.25</ele><time>2026-05-02T11:42:15.854Z</time></trkpt><trkpt lat="45.6595373" lon="9.4250293"><ele>234.0</ele><time>2026-05-02T11:42:17.854Z</time></trkpt><trkpt lat="45.6596366" lon="9.4251196"><ele>234.39999999999998</ele><time>2026-05-02T11:42:19.855Z</time></trkpt><trkpt lat="45.6597175" lon="9.425189"><ele>234.79999999999998</ele><time>2026-05-02T11:42:21.855Z</time></trkpt><trkpt lat="45.6598137" lon="9.4252843"><ele>235.20000000000002</ele><time>2026-05-02T11:42:23.854Z</time></trkpt><trkpt lat="45.6599136" lon="9.4253623"><ele>235.60000000000002</ele><time>2026-05-02T11:42:25.854Z</time></trkpt><trkpt lat="45.6600116" lon="9.4254538"><ele>236.0</ele><time>2026-05-02T11:42:27.854Z</time></trkpt><trkpt lat="45.6600635" lon="9.4255077"><ele>236.0</ele><time>2026-05-02T11:42:28.855Z</time></trkpt><trkpt lat="45.660169" lon="9.4255835"><ele>236.0</ele><time>2026-05-02T11:42:30.855Z</time></trkpt><trkpt lat="45.6602683" lon="9.4256812"><ele>236.0</ele><time>2026-05-02T11:42:32.854Z</time></trkpt><trkpt lat="45.6603687" lon="9.4257683"><ele>236.0</ele><time>2026-05-02T11:42:34.855Z</time></trkpt><trkpt lat="45.6604634" lon="9.4258568"><ele>236.0</ele><time>2026-05-02T11:42:36.854Z</time></trkpt><trkpt lat="45.6605606" lon="9.4259724"><ele>236.0</ele><time>2026-05-02T11:42:38.854Z</time></trkpt><trkpt lat="45.6606552" lon="9.4260763"><ele>236.0</ele><time>2026-05-02T11:42:40.855Z</time></trkpt><trkpt lat="45.6607424" lon="9.4261714"><ele>236.0</ele><time>2026-05-02T11:42:42.855Z</time></trkpt><trkpt lat="45.6608282" lon="9.426269"><ele>236.0</ele><time>2026-05-02T11:42:44.854Z</time></trkpt><trkpt lat="45.6609181" lon="9.4263565"><ele>236.00000000000003</ele><time>2026-05-02T11:42:46.855Z</time></trkpt><trkpt lat="45.661006" lon="9.4264539"><ele>236.00000000000003</ele><time>2026-05-02T11:42:48.854Z</time></trkpt><trkpt lat="45.6610892" lon="9.4265487"><ele>236.0</ele><time>2026-05-02T11:42:50.855Z</time></trkpt><trkpt lat="45.6611841" lon="9.4266359"><ele>236.0</ele><time>2026-05-02T11:42:52.855Z</time></trkpt><trkpt lat="45.6612747" lon="9.4267237"><ele>236.4</ele><time>2026-05-02T11:42:54.854Z</time></trkpt><trkpt lat="45.6613631" lon="9.4268005"><ele>236.8</ele><time>2026-05-02T11:42:56.854Z</time></trkpt><trkpt lat="45.661458" lon="9.4268719"><ele>237.20000000000002</ele><time>2026-05-02T11:42:58.855Z</time></trkpt><trkpt lat="45.6615529" lon="9.4269374"><ele>237.60000000000002</ele><time>2026-05-02T11:43:00.854Z</time></trkpt><trkpt lat="45.6616441" lon="9.4270039"><ele>238.0</ele><time>2026-05-02T11:43:02.855Z</time></trkpt><trkpt lat="45.6617495" lon="9.427063"><ele>237.8</ele><time>2026-05-02T11:43:04.854Z</time></trkpt><trkpt lat="45.6618461" lon="9.4271696"><ele>237.60000000000002</ele><time>2026-05-02T11:43:06.855Z</time></trkpt><trkpt lat="45.6619005" lon="9.4272371"><ele>237.39999999999998</ele><time>2026-05-02T11:43:07.855Z</time></trkpt><trkpt lat="45.6619798" lon="9.4273279"><ele>237.2</ele><time>2026-05-02T11:43:09.854Z</time></trkpt><trkpt lat="45.6620631" lon="9.4274151"><ele>237.0</ele><time>2026-05-02T11:43:11.855Z</time></trkpt><trkpt lat="45.6621567" lon="9.4275184"><ele>237.0</ele><time>2026-05-02T11:43:13.854Z</time></trkpt><trkpt lat="45.6622133" lon="9.427579"><ele>237.0</ele><time>2026-05-02T11:43:14.855Z</time></trkpt><trkpt lat="45.662287" lon="9.4276538"><ele>237.0</ele><time>2026-05-02T11:43:16.855Z</time></trkpt><trkpt lat="45.6623347" lon="9.4277187"><ele>237.0</ele><time>2026-05-02T11:43:17.854Z</time></trkpt><trkpt lat="45.6624237" lon="9.4278204"><ele>237.0</ele><time>2026-05-02T11:43:19.855Z</time></trkpt><trkpt lat="45.6625041" lon="9.4279051"><ele>237.0</ele><time>2026-05-02T11:43:21.854Z</time></trkpt><trkpt lat="45.6625847" lon="9.4279804"><ele>237.39999999999998</ele><time>2026-05-02T11:43:23.854Z</time></trkpt><trkpt lat="45.6626722" lon="9.4280502"><ele>237.79999999999998</ele><time>2026-05-02T11:43:25.855Z</time></trkpt><trkpt lat="45.6627283" lon="9.4281056"><ele>238.2</ele><time>2026-05-02T11:43:26.855Z</time></trkpt><trkpt lat="45.6628144" lon="9.4281727"><ele>238.6</ele><time>2026-05-02T11:43:28.855Z</time></trkpt><trkpt lat="45.662897" lon="9.4282541"><ele>239.0</ele><time>2026-05-02T11:43:30.854Z</time></trkpt><trkpt lat="45.6629704" lon="9.4283802"><ele>239.0</ele><time>2026-05-02T11:43:32.854Z</time></trkpt><trkpt lat="45.6630137" lon="9.4285301"><ele>238.99999999999997</ele><time>2026-05-02T11:43:34.854Z</time></trkpt><trkpt lat="45.6630462" lon="9.4286206"><ele>238.99999999999997</ele><time>2026-05-02T11:43:36.854Z</time></trkpt><trkpt lat="45.6631201" lon="9.4286668"><ele>239.0</ele><time>2026-05-02T11:43:38.855Z</time></trkpt><trkpt lat="45.6632111" lon="9.428685"><ele>239.0</ele><time>2026-05-02T11:43:40.854Z</time></trkpt><trkpt lat="45.6633165" lon="9.428739"><ele>239.0</ele><time>2026-05-02T11:43:42.855Z</time></trkpt><trkpt lat="45.6634223" lon="9.4287963"><ele>238.99999999999997</ele><time>2026-05-02T11:43:44.855Z</time></trkpt><trkpt lat="45.663518" lon="9.4288679"><ele>238.99999999999997</ele><time>2026-05-02T11:43:46.855Z</time></trkpt><trkpt lat="45.6636077" lon="9.4289523"><ele>239.0</ele><time>2026-05-02T11:43:48.854Z</time></trkpt><trkpt lat="45.6636999" lon="9.4290478"><ele>239.0</ele><time>2026-05-02T11:43:50.855Z</time></trkpt><trkpt lat="45.6638104" lon="9.4291567"><ele>238.79999999999998</ele><time>2026-05-02T11:43:52.855Z</time></trkpt><trkpt lat="45.6639111" lon="9.4292483"><ele>238.59999999999997</ele><time>2026-05-02T11:43:54.855Z</time></trkpt><trkpt lat="45.6639661" lon="9.4293095"><ele>238.4</ele><time>2026-05-02T11:43:55.854Z</time></trkpt><trkpt lat="45.6640207" lon="9.4293628"><ele>238.2</ele><time>2026-05-02T11:43:56.855Z</time></trkpt><trkpt lat="45.6641197" lon="9.4294571"><ele>238.0</ele><time>2026-05-02T11:43:58.855Z</time></trkpt><trkpt lat="45.6642206" lon="9.4295393"><ele>237.99999999999997</ele><time>2026-05-02T11:44:00.854Z</time></trkpt><trkpt lat="45.6642753" lon="9.4295948"><ele>238.0</ele><time>2026-05-02T11:44:01.854Z</time></trkpt><trkpt lat="45.6643316" lon="9.4296417"><ele>238.0</ele><time>2026-05-02T11:44:02.854Z</time></trkpt><trkpt lat="45.6643912" lon="9.4297031"><ele>238.0</ele><time>2026-05-02T11:44:03.854Z</time></trkpt><trkpt lat="45.6644983" lon="9.4297994"><ele>237.99999999999997</ele><time>2026-05-02T11:44:05.854Z</time></trkpt><trkpt lat="45.6645527" lon="9.4298556"><ele>238.0</ele><time>2026-05-02T11:44:06.854Z</time></trkpt><trkpt lat="45.6646059" lon="9.4299059"><ele>238.60000000000002</ele><time>2026-05-02T11:44:07.855Z</time></trkpt><trkpt lat="45.6646614" lon="9.4299596"><ele>239.20000000000002</ele><time>2026-05-02T11:44:08.854Z</time></trkpt><trkpt lat="45.6647655" lon="9.430067"><ele>239.8</ele><time>2026-05-02T11:44:10.854Z</time></trkpt><trkpt lat="45.6648747" lon="9.4301807"><ele>240.4</ele><time>2026-05-02T11:44:12.854Z</time></trkpt><trkpt lat="45.6649284" lon="9.4302393"><ele>241.0</ele><time>2026-05-02T11:44:13.854Z</time></trkpt><trkpt lat="45.664982" lon="9.4302986"><ele>241.0</ele><time>2026-05-02T11:44:14.855Z</time></trkpt><trkpt lat="45.6650953" lon="9.4303998"><ele>241.00000000000003</ele><time>2026-05-02T11:44:16.855Z</time></trkpt><trkpt lat="45.6651995" lon="9.430485"><ele>241.00000000000003</ele><time>2026-05-02T11:44:18.855Z</time></trkpt><trkpt lat="45.6652569" lon="9.4305448"><ele>241.0</ele><time>2026-05-02T11:44:19.854Z</time></trkpt><trkpt lat="45.6653108" lon="9.4306005"><ele>241.0</ele><time>2026-05-02T11:44:20.855Z</time></trkpt><trkpt lat="45.6653636" lon="9.4306512"><ele>241.20000000000002</ele><time>2026-05-02T11:44:21.855Z</time></trkpt><trkpt lat="45.6654141" lon="9.4307076"><ele>241.40000000000003</ele><time>2026-05-02T11:44:22.855Z</time></trkpt><trkpt lat="45.66551" lon="9.4307996"><ele>241.6</ele><time>2026-05-02T11:44:24.855Z</time></trkpt><trkpt lat="45.665565" lon="9.4308439"><ele>241.8</ele><time>2026-05-02T11:44:25.855Z</time></trkpt><trkpt lat="45.6656579" lon="9.4309342"><ele>242.0</ele><time>2026-05-02T11:44:27.854Z</time></trkpt><trkpt lat="45.6657474" lon="9.4310171"><ele>242.0</ele><time>2026-05-02T11:44:29.854Z</time></trkpt><trkpt lat="45.6658505" lon="9.4311332"><ele>242.0</ele><time>2026-05-02T11:44:31.855Z</time></trkpt><trkpt lat="45.6659444" lon="9.4312387"><ele>242.0</ele><time>2026-05-02T11:44:33.854Z</time></trkpt><trkpt lat="45.6660333" lon="9.4313509"><ele>242.0</ele><time>2026-05-02T11:44:35.855Z</time></trkpt><trkpt lat="45.6661419" lon="9.4314281"><ele>241.8</ele><time>2026-05-02T11:44:37.855Z</time></trkpt><trkpt lat="45.6662379" lon="9.4315203"><ele>241.6</ele><time>2026-05-02T11:44:39.855Z</time></trkpt><trkpt lat="45.6662912" lon="9.4315786"><ele>241.40000000000003</ele><time>2026-05-02T11:44:40.854Z</time></trkpt><trkpt lat="45.6663996" lon="9.4316857"><ele>241.20000000000002</ele><time>2026-05-02T11:44:42.855Z</time></trkpt><trkpt lat="45.6664532" lon="9.4317519"><ele>241.0</ele><time>2026-05-02T11:44:43.854Z</time></trkpt><trkpt lat="45.6665463" lon="9.4318298"><ele>241.0</ele><time>2026-05-02T11:44:45.854Z</time></trkpt><trkpt lat="45.6666255" lon="9.4319236"><ele>241.00000000000003</ele><time>2026-05-02T11:44:48.233Z</time></trkpt><trkpt lat="45.6667383" lon="9.4320431"><ele>241.00000000000003</ele><time>2026-05-02T11:44:49.86Z</time></trkpt><trkpt lat="45.6667945" lon="9.4321063"><ele>241.0</ele><time>2026-05-02T11:44:50.863Z</time></trkpt><trkpt lat="45.6668894" lon="9.4322039"><ele>241.0</ele><time>2026-05-02T11:44:52.918Z</time></trkpt><trkpt lat="45.6669429" lon="9.4322547"><ele>241.4</ele><time>2026-05-02T11:44:53.94Z</time></trkpt><trkpt lat="45.6670463" lon="9.4323638"><ele>241.8</ele><time>2026-05-02T11:44:55.895Z</time></trkpt><trkpt lat="45.6671473" lon="9.4324472"><ele>242.20000000000002</ele><time>2026-05-02T11:44:57.898Z</time></trkpt><trkpt lat="45.667203" lon="9.4325017"><ele>242.60000000000002</ele><time>2026-05-02T11:44:58.891Z</time></trkpt><trkpt lat="45.6672534" lon="9.4325611"><ele>243.0</ele><time>2026-05-02T11:44:59.893Z</time></trkpt><trkpt lat="45.6673561" lon="9.4326564"><ele>243.0</ele><time>2026-05-02T11:45:01.891Z</time></trkpt><trkpt lat="45.6674635" lon="9.4327548"><ele>243.0</ele><time>2026-05-02T11:45:03.894Z</time></trkpt><trkpt lat="45.6675189" lon="9.432811"><ele>243.0</ele><time>2026-05-02T11:45:04.891Z</time></trkpt><trkpt lat="45.6676143" lon="9.4329149"><ele>243.0</ele><time>2026-05-02T11:45:06.892Z</time></trkpt><trkpt lat="45.6676673" lon="9.4329643"><ele>243.0</ele><time>2026-05-02T11:45:07.894Z</time></trkpt><trkpt lat="45.6677213" lon="9.4330173"><ele>243.0</ele><time>2026-05-02T11:45:08.885Z</time></trkpt><trkpt lat="45.6678252" lon="9.4331099"><ele>243.60000000000002</ele><time>2026-05-02T11:45:10.89Z</time></trkpt><trkpt lat="45.6679213" lon="9.4332253"><ele>244.20000000000002</ele><time>2026-05-02T11:45:12.892Z</time></trkpt><trkpt lat="45.6679736" lon="9.4332897"><ele>244.8</ele><time>2026-05-02T11:45:13.896Z</time></trkpt><trkpt lat="45.6680672" lon="9.4333833"><ele>245.4</ele><time>2026-05-02T11:45:15.893Z</time></trkpt><trkpt lat="45.6681809" lon="9.4334867"><ele>246.0</ele><time>2026-05-02T11:45:17.897Z</time></trkpt><trkpt lat="45.6682905" lon="9.4335829"><ele>246.0</ele><time>2026-05-02T11:45:19.891Z</time></trkpt><trkpt lat="45.6683402" lon="9.4336408"><ele>246.0</ele><time>2026-05-02T11:45:20.894Z</time></trkpt><trkpt lat="45.6683919" lon="9.433693"><ele>246.0</ele><time>2026-05-02T11:45:21.894Z</time></trkpt><trkpt lat="45.6684944" lon="9.4337924"><ele>246.0</ele><time>2026-05-02T11:45:23.894Z</time></trkpt><trkpt lat="45.6685509" lon="9.4338436"><ele>246.0</ele><time>2026-05-02T11:45:24.894Z</time></trkpt><trkpt lat="45.6686561" lon="9.4339319"><ele>246.0</ele><time>2026-05-02T11:45:26.893Z</time></trkpt><trkpt lat="45.6687093" lon="9.433995"><ele>245.71428571428575</ele><time>2026-05-02T11:45:27.897Z</time></trkpt><trkpt lat="45.6687658" lon="9.434046"><ele>245.42857142857144</ele><time>2026-05-02T11:45:28.895Z</time></trkpt><trkpt lat="45.6688197" lon="9.434093"><ele>245.14285714285714</ele><time>2026-05-02T11:45:29.894Z</time></trkpt><trkpt lat="45.6688803" lon="9.4341179"><ele>244.85714285714286</ele><time>2026-05-02T11:45:30.893Z</time></trkpt><trkpt lat="45.6689334" lon="9.4341844"><ele>244.57142857142856</ele><time>2026-05-02T11:45:31.9Z</time></trkpt><trkpt lat="45.6689894" lon="9.4342348"><ele>244.28571428571425</ele><time>2026-05-02T11:45:32.897Z</time></trkpt><trkpt lat="45.6690434" lon="9.4342876"><ele>243.99999999999997</ele><time>2026-05-02T11:45:33.896Z</time></trkpt><trkpt lat="45.6690979" lon="9.4343499"><ele>243.99999999999997</ele><time>2026-05-02T11:45:34.894Z</time></trkpt><trkpt lat="45.6692157" lon="9.4344567"><ele>244.0</ele><time>2026-05-02T11:45:36.896Z</time></trkpt><trkpt lat="45.6692697" lon="9.4345091"><ele>244.0</ele><time>2026-05-02T11:45:37.891Z</time></trkpt><trkpt lat="45.6693228" lon="9.4345641"><ele>244.0</ele><time>2026-05-02T11:45:38.895Z</time></trkpt><trkpt lat="45.6693722" lon="9.4346206"><ele>243.99999999999997</ele><time>2026-05-02T11:45:39.896Z</time></trkpt><trkpt lat="45.6694257" lon="9.4346807"><ele>244.0</ele><time>2026-05-02T11:45:40.891Z</time></trkpt><trkpt lat="45.6694763" lon="9.4347385"><ele>244.33333333333331</ele><time>2026-05-02T11:45:41.891Z</time></trkpt><trkpt lat="45.6695296" lon="9.4347954"><ele>244.66666666666666</ele><time>2026-05-02T11:45:42.895Z</time></trkpt><trkpt lat="45.6695813" lon="9.434851"><ele>245.0</ele><time>2026-05-02T11:45:43.892Z</time></trkpt><trkpt lat="45.6696795" lon="9.4349579"><ele>245.33333333333331</ele><time>2026-05-02T11:45:45.893Z</time></trkpt><trkpt lat="45.6697297" lon="9.4350167"><ele>245.66666666666666</ele><time>2026-05-02T11:45:46.895Z</time></trkpt><trkpt lat="45.6697874" lon="9.4350782"><ele>246.0</ele><time>2026-05-02T11:45:47.888Z</time></trkpt><trkpt lat="45.669834" lon="9.4351399"><ele>246.00000000000003</ele><time>2026-05-02T11:45:48.895Z</time></trkpt><trkpt lat="45.6698803" lon="9.4352099"><ele>246.0</ele><time>2026-05-02T11:45:49.893Z</time></trkpt><trkpt lat="45.6699776" lon="9.4352956"><ele>246.00000000000003</ele><time>2026-05-02T11:45:51.893Z</time></trkpt><trkpt lat="45.670027" lon="9.435358"><ele>246.00000000000003</ele><time>2026-05-02T11:45:52.883Z</time></trkpt><trkpt lat="45.6700759" lon="9.435416"><ele>246.0</ele><time>2026-05-02T11:45:53.89Z</time></trkpt><trkpt lat="45.6701267" lon="9.4354718"><ele>246.00000000000003</ele><time>2026-05-02T11:45:54.886Z</time></trkpt><trkpt lat="45.6701809" lon="9.4355268"><ele>246.00000000000003</ele><time>2026-05-02T11:45:55.888Z</time></trkpt><trkpt lat="45.6702329" lon="9.4355893"><ele>246.60000000000002</ele><time>2026-05-02T11:45:56.89Z</time></trkpt><trkpt lat="45.6702848" lon="9.4356495"><ele>247.20000000000002</ele><time>2026-05-02T11:45:57.883Z</time></trkpt><trkpt lat="45.6703663" lon="9.435744"><ele>247.79999999999998</ele><time>2026-05-02T11:45:59.886Z</time></trkpt><trkpt lat="45.6704381" lon="9.4358486"><ele>248.39999999999998</ele><time>2026-05-02T11:46:01.892Z</time></trkpt><trkpt lat="45.6705064" lon="9.435953"><ele>249.0</ele><time>2026-05-02T11:46:03.895Z</time></trkpt><trkpt lat="45.67048" lon="9.4360635"><ele>249.0</ele><time>2026-05-02T11:46:05.891Z</time></trkpt><trkpt lat="45.670437" lon="9.4361568"><ele>248.99999999999997</ele><time>2026-05-02T11:46:07.898Z</time></trkpt><trkpt lat="45.6703843" lon="9.4362838"><ele>248.99999999999997</ele><time>2026-05-02T11:46:09.893Z</time></trkpt><trkpt lat="45.670335" lon="9.4364138"><ele>249.0</ele><time>2026-05-02T11:46:11.892Z</time></trkpt><trkpt lat="45.6702806" lon="9.4365249"><ele>249.0</ele><time>2026-05-02T11:46:13.894Z</time></trkpt><trkpt lat="45.6702196" lon="9.436657"><ele>248.79999999999998</ele><time>2026-05-02T11:46:15.89Z</time></trkpt><trkpt lat="45.6701863" lon="9.4367369"><ele>248.59999999999997</ele><time>2026-05-02T11:46:16.895Z</time></trkpt><trkpt lat="45.6701103" lon="9.4368594"><ele>248.4</ele><time>2026-05-02T11:46:18.892Z</time></trkpt><trkpt lat="45.670075" lon="9.436935"><ele>248.2</ele><time>2026-05-02T11:46:19.894Z</time></trkpt><trkpt lat="45.6700184" lon="9.4370624"><ele>248.0</ele><time>2026-05-02T11:46:21.892Z</time></trkpt><trkpt lat="45.6699459" lon="9.4372051"><ele>248.0</ele><time>2026-05-02T11:46:23.896Z</time></trkpt><trkpt lat="45.669879" lon="9.4373394"><ele>248.0</ele><time>2026-05-02T11:46:25.898Z</time></trkpt><trkpt lat="45.6698119" lon="9.4374798"><ele>248.0</ele><time>2026-05-02T11:46:27.89Z</time></trkpt><trkpt lat="45.6697832" lon="9.4375601"><ele>248.0</ele><time>2026-05-02T11:46:28.899Z</time></trkpt><trkpt lat="45.6697558" lon="9.4376482"><ele>248.0</ele><time>2026-05-02T11:46:29.891Z</time></trkpt><trkpt lat="45.6696918" lon="9.4377886"><ele>248.0</ele><time>2026-05-02T11:46:31.892Z</time></trkpt><trkpt lat="45.6696247" lon="9.437899"><ele>248.0</ele><time>2026-05-02T11:46:33.893Z</time></trkpt><trkpt lat="45.6696144" lon="9.4379879"><ele>248.0</ele><time>2026-05-02T11:46:34.899Z</time></trkpt><trkpt lat="45.6696476" lon="9.4380802"><ele>248.0</ele><time>2026-05-02T11:46:36.892Z</time></trkpt><trkpt lat="45.669721" lon="9.438187"><ele>248.0</ele><time>2026-05-02T11:46:38.893Z</time></trkpt><trkpt lat="45.669802" lon="9.4383214"><ele>248.33333333333334</ele><time>2026-05-02T11:46:40.901Z</time></trkpt><trkpt lat="45.6699043" lon="9.4384237"><ele>248.66666666666669</ele><time>2026-05-02T11:46:42.897Z</time></trkpt><trkpt lat="45.6699987" lon="9.4385095"><ele>249.0</ele><time>2026-05-02T11:46:44.893Z</time></trkpt><trkpt lat="45.6700513" lon="9.4385613"><ele>249.33333333333331</ele><time>2026-05-02T11:46:45.895Z</time></trkpt><trkpt lat="45.6701212" lon="9.4386151"><ele>249.66666666666666</ele><time>2026-05-02T11:46:46.897Z</time></trkpt><trkpt lat="45.6701638" lon="9.438682"><ele>250.0</ele><time>2026-05-02T11:46:47.896Z</time></trkpt><trkpt lat="45.6702164" lon="9.4387417"><ele>250.49999999999997</ele><time>2026-05-02T11:46:48.896Z</time></trkpt><trkpt lat="45.6702751" lon="9.4388047"><ele>251.0</ele><time>2026-05-02T11:46:49.892Z</time></trkpt><trkpt lat="45.670336" lon="9.4388513"><ele>251.5</ele><time>2026-05-02T11:46:50.885Z</time></trkpt><trkpt lat="45.6704339" lon="9.4389573"><ele>252.0</ele><time>2026-05-02T11:46:52.885Z</time></trkpt><trkpt lat="45.6704945" lon="9.4390061"><ele>252.49999999999997</ele><time>2026-05-02T11:46:53.895Z</time></trkpt><trkpt lat="45.6705347" lon="9.4390783"><ele>253.0</ele><time>2026-05-02T11:46:54.891Z</time></trkpt><trkpt lat="45.6705969" lon="9.4391211"><ele>253.0</ele><time>2026-05-02T11:46:55.891Z</time></trkpt><trkpt lat="45.6706577" lon="9.4391833"><ele>253.0</ele><time>2026-05-02T11:46:56.89Z</time></trkpt><trkpt lat="45.6707627" lon="9.4392766"><ele>253.0</ele><time>2026-05-02T11:46:58.893Z</time></trkpt><trkpt lat="45.6708129" lon="9.4393426"><ele>253.0</ele><time>2026-05-02T11:46:59.895Z</time></trkpt><trkpt lat="45.6709207" lon="9.4394218"><ele>253.0</ele><time>2026-05-02T11:47:01.894Z</time></trkpt><trkpt lat="45.6710212" lon="9.4395295"><ele>253.33333333333331</ele><time>2026-05-02T11:47:03.899Z</time></trkpt><trkpt lat="45.6711464" lon="9.4396199"><ele>253.66666666666666</ele><time>2026-05-02T11:47:05.895Z</time></trkpt><trkpt lat="45.671203" lon="9.4396707"><ele>254.0</ele><time>2026-05-02T11:47:06.89Z</time></trkpt><trkpt lat="45.6712628" lon="9.4397213"><ele>254.33333333333331</ele><time>2026-05-02T11:47:07.892Z</time></trkpt><trkpt lat="45.6713179" lon="9.4397797"><ele>254.66666666666666</ele><time>2026-05-02T11:47:08.892Z</time></trkpt><trkpt lat="45.6713763" lon="9.4398416"><ele>255.0</ele><time>2026-05-02T11:47:09.895Z</time></trkpt><trkpt lat="45.6714377" lon="9.4399083"><ele>255.0</ele><time>2026-05-02T11:47:10.899Z</time></trkpt><trkpt lat="45.6714888" lon="9.4399695"><ele>255.0</ele><time>2026-05-02T11:47:11.894Z</time></trkpt><trkpt lat="45.671543" lon="9.4400247"><ele>255.0</ele><time>2026-05-02T11:47:12.892Z</time></trkpt><trkpt lat="45.6716045" lon="9.4400632"><ele>255.0</ele><time>2026-05-02T11:47:13.897Z</time></trkpt><trkpt lat="45.6716623" lon="9.440115"><ele>255.0</ele><time>2026-05-02T11:47:14.89Z</time></trkpt><trkpt lat="45.6717621" lon="9.4402082"><ele>255.0</ele><time>2026-05-02T11:47:16.893Z</time></trkpt><trkpt lat="45.6718209" lon="9.4402602"><ele>255.0</ele><time>2026-05-02T11:47:17.892Z</time></trkpt><trkpt lat="45.6718709" lon="9.4403209"><ele>255.0</ele><time>2026-05-02T11:47:18.893Z</time></trkpt><trkpt lat="45.6719331" lon="9.4403689"><ele>255.0</ele><time>2026-05-02T11:47:19.896Z</time></trkpt><trkpt lat="45.6720281" lon="9.4404797"><ele>255.0</ele><time>2026-05-02T11:47:21.895Z</time></trkpt><trkpt lat="45.6720863" lon="9.440534"><ele>255.0</ele><time>2026-05-02T11:47:22.893Z</time></trkpt><trkpt lat="45.6721875" lon="9.4406363"><ele>255.33333333333334</ele><time>2026-05-02T11:47:24.892Z</time></trkpt><trkpt lat="45.672248" lon="9.4406697"><ele>255.66666666666669</ele><time>2026-05-02T11:47:25.892Z</time></trkpt><trkpt lat="45.6723474" lon="9.4407486"><ele>256.0</ele><time>2026-05-02T11:47:27.894Z</time></trkpt><trkpt lat="45.6724047" lon="9.4407937"><ele>256.33333333333337</ele><time>2026-05-02T11:47:28.893Z</time></trkpt><trkpt lat="45.6724607" lon="9.4408545"><ele>256.6666666666667</ele><time>2026-05-02T11:47:29.896Z</time></trkpt><trkpt lat="45.672517" lon="9.4408952"><ele>257.0</ele><time>2026-05-02T11:47:30.892Z</time></trkpt><trkpt lat="45.6725833" lon="9.4409982"><ele>257.0</ele><time>2026-05-02T11:47:32.895Z</time></trkpt><trkpt lat="45.6726911" lon="9.4411018"><ele>257.0</ele><time>2026-05-02T11:47:34.894Z</time></trkpt><trkpt lat="45.6727699" lon="9.4411608"><ele>257.0</ele><time>2026-05-02T11:47:36.896Z</time></trkpt><trkpt lat="45.6728278" lon="9.4412486"><ele>257.0</ele><time>2026-05-02T11:47:38.894Z</time></trkpt><trkpt lat="45.6729081" lon="9.4413643"><ele>257.0</ele><time>2026-05-02T11:47:40.893Z</time></trkpt><trkpt lat="45.6729786" lon="9.4414789"><ele>257.6</ele><time>2026-05-02T11:47:42.941Z</time></trkpt><trkpt lat="45.6730264" lon="9.4415716"><ele>258.2</ele><time>2026-05-02T11:47:44.941Z</time></trkpt><trkpt lat="45.6730855" lon="9.4416601"><ele>258.8</ele><time>2026-05-02T11:47:46.883Z</time></trkpt><trkpt lat="45.6731573" lon="9.4417632"><ele>259.4</ele><time>2026-05-02T11:47:48.897Z</time></trkpt><trkpt lat="45.6732324" lon="9.4418805"><ele>260.0</ele><time>2026-05-02T11:47:50.894Z</time></trkpt><trkpt lat="45.6733206" lon="9.4420272"><ele>260.0</ele><time>2026-05-02T11:47:53.94Z</time></trkpt><trkpt lat="45.6733953" lon="9.4421313"><ele>260.0</ele><time>2026-05-02T11:47:55.884Z</time></trkpt><trkpt lat="45.6734757" lon="9.4422306"><ele>260.0</ele><time>2026-05-02T11:47:57.891Z</time></trkpt><trkpt lat="45.6735428" lon="9.4423515"><ele>260.0</ele><time>2026-05-02T11:47:59.903Z</time></trkpt><trkpt lat="45.6736088" lon="9.4424411"><ele>260.0</ele><time>2026-05-02T11:48:01.885Z</time></trkpt><trkpt lat="45.6736785" lon="9.4425075"><ele>260.2</ele><time>2026-05-02T11:48:03.896Z</time></trkpt><trkpt lat="45.6737452" lon="9.4426216"><ele>260.4</ele><time>2026-05-02T11:48:05.893Z</time></trkpt><trkpt lat="45.673825" lon="9.4427213"><ele>260.6</ele><time>2026-05-02T11:48:07.921Z</time></trkpt><trkpt lat="45.673884" lon="9.4428234"><ele>260.8</ele><time>2026-05-02T11:48:09.897Z</time></trkpt><trkpt lat="45.6739482" lon="9.4429599"><ele>261.0</ele><time>2026-05-02T11:48:11.897Z</time></trkpt><trkpt lat="45.6739871" lon="9.4430313"><ele>261.0</ele><time>2026-05-02T11:48:12.887Z</time></trkpt><trkpt lat="45.6740552" lon="9.4431598"><ele>261.0</ele><time>2026-05-02T11:48:14.885Z</time></trkpt><trkpt lat="45.6741244" lon="9.4432949"><ele>261.0</ele><time>2026-05-02T11:48:16.94Z</time></trkpt><trkpt lat="45.6741914" lon="9.4434405"><ele>261.0</ele><time>2026-05-02T11:48:18.941Z</time></trkpt><trkpt lat="45.6742587" lon="9.4435841"><ele>261.0</ele><time>2026-05-02T11:48:20.891Z</time></trkpt><trkpt lat="45.6743242" lon="9.4437102"><ele>261.0</ele><time>2026-05-02T11:48:22.892Z</time></trkpt><trkpt lat="45.674356" lon="9.4437917"><ele>261.0</ele><time>2026-05-02T11:48:23.894Z</time></trkpt><trkpt lat="45.674426" lon="9.4439306"><ele>261.0</ele><time>2026-05-02T11:48:25.941Z</time></trkpt><trkpt lat="45.6744935" lon="9.4440715"><ele>261.0</ele><time>2026-05-02T11:48:27.892Z</time></trkpt><trkpt lat="45.6745572" lon="9.4441974"><ele>261.2</ele><time>2026-05-02T11:48:29.94Z</time></trkpt><trkpt lat="45.6746167" lon="9.4443349"><ele>261.40000000000003</ele><time>2026-05-02T11:48:31.885Z</time></trkpt><trkpt lat="45.6746751" lon="9.4444546"><ele>261.6</ele><time>2026-05-02T11:48:33.888Z</time></trkpt><trkpt lat="45.6747237" lon="9.4445254"><ele>261.8</ele><time>2026-05-02T11:48:34.896Z</time></trkpt><trkpt lat="45.6747798" lon="9.4446596"><ele>262.0</ele><time>2026-05-02T11:48:36.895Z</time></trkpt><trkpt lat="45.6748254" lon="9.4447228"><ele>262.0</ele><time>2026-05-02T11:48:37.881Z</time></trkpt><trkpt lat="45.67486" lon="9.4448021"><ele>262.0</ele><time>2026-05-02T11:48:38.884Z</time></trkpt><trkpt lat="45.6749414" lon="9.4449401"><ele>262.0</ele><time>2026-05-02T11:48:40.896Z</time></trkpt><trkpt lat="45.6750112" lon="9.4450808"><ele>262.0</ele><time>2026-05-02T11:48:42.895Z</time></trkpt><trkpt lat="45.6750879" lon="9.4452199"><ele>262.0</ele><time>2026-05-02T11:48:44.891Z</time></trkpt><trkpt lat="45.6751633" lon="9.4453518"><ele>262.0</ele><time>2026-05-02T11:48:46.896Z</time></trkpt><trkpt lat="45.6752355" lon="9.4454892"><ele>262.0</ele><time>2026-05-02T11:48:48.892Z</time></trkpt><trkpt lat="45.6753109" lon="9.4456383"><ele>262.0</ele><time>2026-05-02T11:48:50.893Z</time></trkpt><trkpt lat="45.675367" lon="9.4457789"><ele>262.0</ele><time>2026-05-02T11:48:52.892Z</time></trkpt><trkpt lat="45.675441" lon="9.4459246"><ele>262.0</ele><time>2026-05-02T11:48:54.891Z</time></trkpt><trkpt lat="45.6754975" lon="9.4460519"><ele>262.0</ele><time>2026-05-02T11:48:56.892Z</time></trkpt><trkpt lat="45.6755549" lon="9.4461699"><ele>262.0</ele><time>2026-05-02T11:48:58.893Z</time></trkpt><trkpt lat="45.6755972" lon="9.4462825"><ele>262.0</ele><time>2026-05-02T11:49:00.89Z</time></trkpt><trkpt lat="45.6756389" lon="9.4463859"><ele>262.0</ele><time>2026-05-02T11:49:02.883Z</time></trkpt><trkpt lat="45.6756926" lon="9.4464503"><ele>262.0</ele><time>2026-05-02T11:49:13.89Z</time></trkpt><trkpt lat="45.6757438" lon="9.4465803"><ele>262.2</ele><time>2026-05-02T11:49:16.89Z</time></trkpt><trkpt lat="45.6758051" lon="9.4467069"><ele>262.4</ele><time>2026-05-02T11:49:18.911Z</time></trkpt><trkpt lat="45.6758626" lon="9.4468163"><ele>262.6</ele><time>2026-05-02T11:49:20.895Z</time></trkpt><trkpt lat="45.6759313" lon="9.4469413"><ele>262.8</ele><time>2026-05-02T11:49:22.887Z</time></trkpt><trkpt lat="45.6759982" lon="9.4470774"><ele>263.0</ele><time>2026-05-02T11:49:24.893Z</time></trkpt><trkpt lat="45.6760752" lon="9.4472103"><ele>263.25</ele><time>2026-05-02T11:49:26.888Z</time></trkpt><trkpt lat="45.6761365" lon="9.4473505"><ele>263.5</ele><time>2026-05-02T11:49:28.892Z</time></trkpt><trkpt lat="45.6762012" lon="9.4474908"><ele>263.75</ele><time>2026-05-02T11:49:30.894Z</time></trkpt><trkpt lat="45.6762811" lon="9.4476352"><ele>264.0</ele><time>2026-05-02T11:49:32.897Z</time></trkpt><trkpt lat="45.676349" lon="9.4477829"><ele>264.0</ele><time>2026-05-02T11:49:34.94Z</time></trkpt><trkpt lat="45.6764281" lon="9.4479121"><ele>264.0</ele><time>2026-05-02T11:49:36.893Z</time></trkpt><trkpt lat="45.6764648" lon="9.4480008"><ele>264.0</ele><time>2026-05-02T11:49:37.895Z</time></trkpt><trkpt lat="45.6765014" lon="9.4480814"><ele>264.0</ele><time>2026-05-02T11:49:38.888Z</time></trkpt><trkpt lat="45.6765408" lon="9.4481532"><ele>264.0</ele><time>2026-05-02T11:49:39.89Z</time></trkpt><trkpt lat="45.6766184" lon="9.4483043"><ele>264.0</ele><time>2026-05-02T11:49:41.891Z</time></trkpt><trkpt lat="45.6766591" lon="9.4483858"><ele>264.0</ele><time>2026-05-02T11:49:42.89Z</time></trkpt><trkpt lat="45.6766987" lon="9.4484635"><ele>264.0</ele><time>2026-05-02T11:49:43.891Z</time></trkpt><trkpt lat="45.6767394" lon="9.4485431"><ele>264.0</ele><time>2026-05-02T11:49:44.888Z</time></trkpt><trkpt lat="45.6767791" lon="9.4486193"><ele>264.0</ele><time>2026-05-02T11:49:45.891Z</time></trkpt><trkpt lat="45.6768565" lon="9.4487719"><ele>264.0</ele><time>2026-05-02T11:49:47.889Z</time></trkpt><trkpt lat="45.6769019" lon="9.4488516"><ele>263.5</ele><time>2026-05-02T11:49:48.894Z</time></trkpt><trkpt lat="45.6769449" lon="9.4489348"><ele>263.0</ele><time>2026-05-02T11:49:49.891Z</time></trkpt><trkpt lat="45.6769886" lon="9.4490182"><ele>262.5</ele><time>2026-05-02T11:49:50.89Z</time></trkpt><trkpt lat="45.6770275" lon="9.4490977"><ele>262.0</ele><time>2026-05-02T11:49:51.891Z</time></trkpt><trkpt lat="45.6770873" lon="9.4492229"><ele>261.5</ele><time>2026-05-02T11:49:53.891Z</time></trkpt><trkpt lat="45.67713" lon="9.449325"><ele>261.0</ele><time>2026-05-02T11:49:55.893Z</time></trkpt><trkpt lat="45.6772349" lon="9.4495365"><ele>260.8333333333333</ele><time>2026-05-02T11:50:20.884Z</time></trkpt><trkpt lat="45.6773012" lon="9.4496656"><ele>260.6666666666667</ele><time>2026-05-02T11:50:22.887Z</time></trkpt><trkpt lat="45.6773388" lon="9.4497394"><ele>260.5</ele><time>2026-05-02T11:50:23.884Z</time></trkpt><trkpt lat="45.6774155" lon="9.4498956"><ele>260.33333333333337</ele><time>2026-05-02T11:50:25.892Z</time></trkpt><trkpt lat="45.6774464" lon="9.4499757"><ele>260.1666666666667</ele><time>2026-05-02T11:50:26.893Z</time></trkpt><trkpt lat="45.6774826" lon="9.4500526"><ele>260.0</ele><time>2026-05-02T11:50:27.893Z</time></trkpt><trkpt lat="45.6775243" lon="9.4501313"><ele>260.0</ele><time>2026-05-02T11:50:28.892Z</time></trkpt><trkpt lat="45.6776039" lon="9.4502838"><ele>260.0</ele><time>2026-05-02T11:50:30.894Z</time></trkpt><trkpt lat="45.6776448" lon="9.4503558"><ele>260.0</ele><time>2026-05-02T11:50:31.893Z</time></trkpt><trkpt lat="45.677728" lon="9.4504989"><ele>260.0</ele><time>2026-05-02T11:50:33.893Z</time></trkpt><trkpt lat="45.6777748" lon="9.4505712"><ele>260.0</ele><time>2026-05-02T11:50:34.889Z</time></trkpt><trkpt lat="45.6778212" lon="9.4506452"><ele>260.0</ele><time>2026-05-02T11:50:35.89Z</time></trkpt><trkpt lat="45.677881" lon="9.4507139"><ele>260.0</ele><time>2026-05-02T11:50:36.899Z</time></trkpt><trkpt lat="45.6779319" lon="9.4507771"><ele>260.0</ele><time>2026-05-02T11:50:37.894Z</time></trkpt><trkpt lat="45.6779837" lon="9.4508422"><ele>260.0</ele><time>2026-05-02T11:50:38.896Z</time></trkpt><trkpt lat="45.6780446" lon="9.4509096"><ele>260.0</ele><time>2026-05-02T11:50:39.89Z</time></trkpt><trkpt lat="45.6781079" lon="9.4509778"><ele>260.0</ele><time>2026-05-02T11:50:40.895Z</time></trkpt><trkpt lat="45.6781689" lon="9.4510552"><ele>260.0</ele><time>2026-05-02T11:50:41.892Z</time></trkpt><trkpt lat="45.6782247" lon="9.4511044"><ele>260.0</ele><time>2026-05-02T11:50:42.893Z</time></trkpt><trkpt lat="45.6782875" lon="9.4511554"><ele>260.0</ele><time>2026-05-02T11:50:43.895Z</time></trkpt><trkpt lat="45.6784063" lon="9.4512344"><ele>260.0</ele><time>2026-05-02T11:50:45.894Z</time></trkpt><trkpt lat="45.6784749" lon="9.4512711"><ele>260.0</ele><time>2026-05-02T11:50:46.895Z</time></trkpt><trkpt lat="45.6785373" lon="9.4513054"><ele>260.0</ele><time>2026-05-02T11:50:47.896Z</time></trkpt><trkpt lat="45.6786022" lon="9.4513408"><ele>259.7142857142857</ele><time>2026-05-02T11:50:48.89Z</time></trkpt><trkpt lat="45.6786743" lon="9.4513616"><ele>259.42857142857144</ele><time>2026-05-02T11:50:49.893Z</time></trkpt><trkpt lat="45.6787379" lon="9.4513822"><ele>259.1428571428571</ele><time>2026-05-02T11:50:50.893Z</time></trkpt><trkpt lat="45.6788046" lon="9.451401"><ele>258.8571428571429</ele><time>2026-05-02T11:50:51.892Z</time></trkpt><trkpt lat="45.6788781" lon="9.4514181"><ele>258.57142857142856</ele><time>2026-05-02T11:50:52.898Z</time></trkpt><trkpt lat="45.6789508" lon="9.4514386"><ele>258.2857142857143</ele><time>2026-05-02T11:50:53.895Z</time></trkpt><trkpt lat="45.6790174" lon="9.4514516"><ele>258.0</ele><time>2026-05-02T11:50:54.893Z</time></trkpt><trkpt lat="45.679081" lon="9.451457"><ele>258.0</ele><time>2026-05-02T11:50:55.885Z</time></trkpt><trkpt lat="45.6791488" lon="9.4514659"><ele>258.0</ele><time>2026-05-02T11:50:56.893Z</time></trkpt><trkpt lat="45.6792158" lon="9.4514728"><ele>258.0</ele><time>2026-05-02T11:50:57.895Z</time></trkpt><trkpt lat="45.6792859" lon="9.4514725"><ele>258.0</ele><time>2026-05-02T11:50:58.892Z</time></trkpt><trkpt lat="45.6793549" lon="9.4514789"><ele>258.0</ele><time>2026-05-02T11:50:59.892Z</time></trkpt><trkpt lat="45.6794256" lon="9.4514773"><ele>258.0</ele><time>2026-05-02T11:51:00.9Z</time></trkpt><trkpt lat="45.679553" lon="9.4514794"><ele>258.5</ele><time>2026-05-02T11:51:02.894Z</time></trkpt><trkpt lat="45.6796832" lon="9.4514704"><ele>259.0</ele><time>2026-05-02T11:51:04.887Z</time></trkpt><trkpt lat="45.6797596" lon="9.4514766"><ele>259.5</ele><time>2026-05-02T11:51:05.891Z</time></trkpt><trkpt lat="45.6798283" lon="9.4514896"><ele>260.0</ele><time>2026-05-02T11:51:06.889Z</time></trkpt><trkpt lat="45.679902" lon="9.451496"><ele>260.5</ele><time>2026-05-02T11:51:07.89Z</time></trkpt><trkpt lat="45.6799693" lon="9.4514953"><ele>261.0</ele><time>2026-05-02T11:51:08.893Z</time></trkpt><trkpt lat="45.6801123" lon="9.4515078"><ele>261.0</ele><time>2026-05-02T11:51:10.89Z</time></trkpt><trkpt lat="45.6801803" lon="9.4515044"><ele>261.0</ele><time>2026-05-02T11:51:11.89Z</time></trkpt><trkpt lat="45.6802492" lon="9.4515039"><ele>261.0</ele><time>2026-05-02T11:51:12.891Z</time></trkpt><trkpt lat="45.6803172" lon="9.4514965"><ele>261.0</ele><time>2026-05-02T11:51:13.891Z</time></trkpt><trkpt lat="45.6803835" lon="9.4515013"><ele>261.0</ele><time>2026-05-02T11:51:14.899Z</time></trkpt><trkpt lat="45.6804579" lon="9.451517"><ele>261.0</ele><time>2026-05-02T11:51:15.89Z</time></trkpt><trkpt lat="45.6805255" lon="9.451511"><ele>261.0</ele><time>2026-05-02T11:51:16.893Z</time></trkpt><trkpt lat="45.6805925" lon="9.4515083"><ele>261.3333333333333</ele><time>2026-05-02T11:51:17.893Z</time></trkpt><trkpt lat="45.6806552" lon="9.451522"><ele>261.6666666666667</ele><time>2026-05-02T11:51:18.891Z</time></trkpt><trkpt lat="45.6807316" lon="9.451507"><ele>262.0</ele><time>2026-05-02T11:51:19.895Z</time></trkpt><trkpt lat="45.6808524" lon="9.451505"><ele>262.33333333333337</ele><time>2026-05-02T11:51:21.896Z</time></trkpt><trkpt lat="45.6809266" lon="9.4515251"><ele>262.6666666666667</ele><time>2026-05-02T11:51:22.89Z</time></trkpt><trkpt lat="45.6809927" lon="9.4515286"><ele>263.0</ele><time>2026-05-02T11:51:23.892Z</time></trkpt><trkpt lat="45.6811156" lon="9.4515141"><ele>262.0</ele><time>2026-05-02T11:51:25.893Z</time></trkpt><trkpt lat="45.6812245" lon="9.451458"><ele>261.0</ele><time>2026-05-02T11:51:27.89Z</time></trkpt><trkpt lat="45.68134" lon="9.4514374"><ele>260.0</ele><time>2026-05-02T11:51:29.893Z</time></trkpt><trkpt lat="45.6814228" lon="9.4513693"><ele>259.0</ele><time>2026-05-02T11:51:31.892Z</time></trkpt><trkpt lat="45.6814799" lon="9.451325"><ele>258.0</ele><time>2026-05-02T11:51:33.898Z</time></trkpt><trkpt lat="45.6815453" lon="9.4512721"><ele>258.0</ele><time>2026-05-02T11:51:35.888Z</time></trkpt><trkpt lat="45.6816148" lon="9.4511638"><ele>258.0</ele><time>2026-05-02T11:51:37.893Z</time></trkpt><trkpt lat="45.6816903" lon="9.451048"><ele>258.0</ele><time>2026-05-02T11:51:39.894Z</time></trkpt><trkpt lat="45.681763" lon="9.4509193"><ele>258.0</ele><time>2026-05-02T11:51:41.891Z</time></trkpt><trkpt lat="45.6818427" lon="9.4507771"><ele>258.0</ele><time>2026-05-02T11:51:43.888Z</time></trkpt><trkpt lat="45.6818884" lon="9.4507047"><ele>258.0</ele><time>2026-05-02T11:51:44.895Z</time></trkpt><trkpt lat="45.6819326" lon="9.450625"><ele>258.0</ele><time>2026-05-02T11:51:45.941Z</time></trkpt><trkpt lat="45.6819667" lon="9.4505457"><ele>258.0</ele><time>2026-05-02T11:51:46.94Z</time></trkpt><trkpt lat="45.6819983" lon="9.4504661"><ele>258.0</ele><time>2026-05-02T11:51:47.941Z</time></trkpt><trkpt lat="45.6820346" lon="9.4503859"><ele>258.0</ele><time>2026-05-02T11:51:48.894Z</time></trkpt><trkpt lat="45.6821164" lon="9.4502465"><ele>256.8</ele><time>2026-05-02T11:51:50.891Z</time></trkpt><trkpt lat="45.682218" lon="9.4501776"><ele>255.60000000000002</ele><time>2026-05-02T11:51:52.891Z</time></trkpt><trkpt lat="45.6823099" lon="9.4500929"><ele>254.39999999999998</ele><time>2026-05-02T11:51:54.892Z</time></trkpt><trkpt lat="45.6823747" lon="9.4500253"><ele>253.2</ele><time>2026-05-02T11:51:55.897Z</time></trkpt><trkpt lat="45.6824422" lon="9.4499893"><ele>252.0</ele><time>2026-05-02T11:51:56.888Z</time></trkpt><trkpt lat="45.6825364" lon="9.4499262"><ele>252.0</ele><time>2026-05-02T11:51:58.894Z</time></trkpt><trkpt lat="45.6826315" lon="9.4498669"><ele>252.0</ele><time>2026-05-02T11:52:00.893Z</time></trkpt><trkpt lat="45.6826983" lon="9.4498452"><ele>252.0</ele><time>2026-05-02T11:52:01.895Z</time></trkpt><trkpt lat="45.6827616" lon="9.4498181"><ele>252.0</ele><time>2026-05-02T11:52:02.891Z</time></trkpt><trkpt lat="45.6828224" lon="9.4497933"><ele>252.0</ele><time>2026-05-02T11:52:03.897Z</time></trkpt><trkpt lat="45.682935" lon="9.4497563"><ele>252.0</ele><time>2026-05-02T11:52:05.89Z</time></trkpt><trkpt lat="45.6830469" lon="9.4496937"><ele>253.16666666666666</ele><time>2026-05-02T11:52:07.893Z</time></trkpt><trkpt lat="45.6831325" lon="9.4496877"><ele>254.33333333333331</ele><time>2026-05-02T11:52:09.891Z</time></trkpt><trkpt lat="45.6832473" lon="9.449641"><ele>255.5</ele><time>2026-05-02T11:52:11.891Z</time></trkpt><trkpt lat="45.683318" lon="9.4496175"><ele>256.66666666666663</ele><time>2026-05-02T11:52:12.894Z</time></trkpt><trkpt lat="45.6833851" lon="9.449549"><ele>257.8333333333333</ele><time>2026-05-02T11:52:13.889Z</time></trkpt><trkpt lat="45.6834509" lon="9.4495216"><ele>259.0</ele><time>2026-05-02T11:52:14.892Z</time></trkpt><trkpt lat="45.6835532" lon="9.4495009"><ele>256.8</ele><time>2026-05-02T11:52:16.89Z</time></trkpt><trkpt lat="45.6836163" lon="9.4494918"><ele>254.59999999999997</ele><time>2026-05-02T11:52:17.89Z</time></trkpt><trkpt lat="45.68368" lon="9.4494787"><ele>252.4</ele><time>2026-05-02T11:52:18.89Z</time></trkpt><trkpt lat="45.6837433" lon="9.4494855"><ele>250.2</ele><time>2026-05-02T11:52:19.894Z</time></trkpt><trkpt lat="45.6838734" lon="9.4495053"><ele>248.0</ele><time>2026-05-02T11:52:21.892Z</time></trkpt><trkpt lat="45.6840042" lon="9.4495567"><ele>248.0</ele><time>2026-05-02T11:52:23.893Z</time></trkpt><trkpt lat="45.6840741" lon="9.4495681"><ele>248.00000000000003</ele><time>2026-05-02T11:52:24.892Z</time></trkpt><trkpt lat="45.6841435" lon="9.4495835"><ele>248.0</ele><time>2026-05-02T11:52:25.891Z</time></trkpt><trkpt lat="45.6842097" lon="9.4495949"><ele>248.0</ele><time>2026-05-02T11:52:26.892Z</time></trkpt><trkpt lat="45.6842868" lon="9.4496023"><ele>248.00000000000003</ele><time>2026-05-02T11:52:27.895Z</time></trkpt><trkpt lat="45.6843513" lon="9.449599"><ele>248.0</ele><time>2026-05-02T11:52:28.895Z</time></trkpt><trkpt lat="45.6844291" lon="9.4495957"><ele>248.0</ele><time>2026-05-02T11:52:29.893Z</time></trkpt><trkpt lat="45.6845094" lon="9.4495865"><ele>247.71428571428572</ele><time>2026-05-02T11:52:30.889Z</time></trkpt><trkpt lat="45.6845732" lon="9.4495716"><ele>247.42857142857144</ele><time>2026-05-02T11:52:31.896Z</time></trkpt><trkpt lat="45.6846461" lon="9.4495625"><ele>247.14285714285717</ele><time>2026-05-02T11:52:32.892Z</time></trkpt><trkpt lat="45.6847226" lon="9.4495497"><ele>246.8571428571429</ele><time>2026-05-02T11:52:33.891Z</time></trkpt><trkpt lat="45.684795" lon="9.4495595"><ele>246.57142857142858</ele><time>2026-05-02T11:52:34.886Z</time></trkpt><trkpt lat="45.6848662" lon="9.4495862"><ele>246.28571428571433</ele><time>2026-05-02T11:52:35.893Z</time></trkpt><trkpt lat="45.6849342" lon="9.449617"><ele>246.00000000000003</ele><time>2026-05-02T11:52:36.884Z</time></trkpt><trkpt lat="45.6849923" lon="9.4496665"><ele>240.16666666666666</ele><time>2026-05-02T11:52:37.892Z</time></trkpt><trkpt lat="45.6850581" lon="9.4497187"><ele>234.33333333333331</ele><time>2026-05-02T11:52:38.89Z</time></trkpt><trkpt lat="45.6851217" lon="9.4497694"><ele>228.5</ele><time>2026-05-02T11:52:39.893Z</time></trkpt><trkpt lat="45.6851833" lon="9.4498158"><ele>222.66666666666666</ele><time>2026-05-02T11:52:40.89Z</time></trkpt><trkpt lat="45.6852506" lon="9.4498493"><ele>216.83333333333331</ele><time>2026-05-02T11:52:41.891Z</time></trkpt><trkpt lat="45.6853752" lon="9.4499073"><ele>211.0</ele><time>2026-05-02T11:52:43.894Z</time></trkpt><trkpt lat="45.6854545" lon="9.4499519"><ele>210.99999999999997</ele><time>2026-05-02T11:52:44.887Z</time></trkpt><trkpt lat="45.6855419" lon="9.4499742"><ele>211.0</ele><time>2026-05-02T11:52:45.94Z</time></trkpt><trkpt lat="45.6856256" lon="9.4499877"><ele>211.0</ele><time>2026-05-02T11:52:46.893Z</time></trkpt><trkpt lat="45.6857134" lon="9.4500124"><ele>211.0</ele><time>2026-05-02T11:52:47.892Z</time></trkpt><trkpt lat="45.6857918" lon="9.4500741"><ele>210.99999999999997</ele><time>2026-05-02T11:52:48.884Z</time></trkpt><trkpt lat="45.6858661" lon="9.4501312"><ele>211.0</ele><time>2026-05-02T11:52:49.899Z</time></trkpt><trkpt lat="45.6859282" lon="9.4501759"><ele>210.99999999999997</ele><time>2026-05-02T11:52:50.892Z</time></trkpt><trkpt lat="45.686009" lon="9.4502463"><ele>211.0</ele><time>2026-05-02T11:52:51.896Z</time></trkpt><trkpt lat="45.6860792" lon="9.4503002"><ele>211.0</ele><time>2026-05-02T11:52:52.892Z</time></trkpt><trkpt lat="45.6861608" lon="9.4503572"><ele>211.0</ele><time>2026-05-02T11:52:53.891Z</time></trkpt><trkpt lat="45.6862271" lon="9.4504243"><ele>210.99999999999997</ele><time>2026-05-02T11:52:54.893Z</time></trkpt><trkpt lat="45.6862881" lon="9.4504697"><ele>211.0</ele><time>2026-05-02T11:52:55.885Z</time></trkpt><trkpt lat="45.6863456" lon="9.4505115"><ele>207.8</ele><time>2026-05-02T11:52:56.891Z</time></trkpt><trkpt lat="45.6864016" lon="9.4505528"><ele>204.60000000000002</ele><time>2026-05-02T11:52:57.896Z</time></trkpt><trkpt lat="45.6864581" lon="9.4506011"><ele>201.4</ele><time>2026-05-02T11:52:58.892Z</time></trkpt><trkpt lat="45.686566" lon="9.4506964"><ele>198.2</ele><time>2026-05-02T11:53:00.891Z</time></trkpt><trkpt lat="45.6866286" lon="9.4507438"><ele>195.0</ele><time>2026-05-02T11:53:01.892Z</time></trkpt><trkpt lat="45.6867445" lon="9.4508319"><ele>195.0</ele><time>2026-05-02T11:53:03.891Z</time></trkpt><trkpt lat="45.6868094" lon="9.4508584"><ele>195.0</ele><time>2026-05-02T11:53:04.897Z</time></trkpt><trkpt lat="45.6869236" lon="9.4509017"><ele>195.0</ele><time>2026-05-02T11:53:06.891Z</time></trkpt><trkpt lat="45.6870408" lon="9.4509586"><ele>195.0</ele><time>2026-05-02T11:53:08.895Z</time></trkpt><trkpt lat="45.6871053" lon="9.4509738"><ele>195.0</ele><time>2026-05-02T11:53:09.89Z</time></trkpt><trkpt lat="45.6871734" lon="9.4509905"><ele>195.0</ele><time>2026-05-02T11:53:10.89Z</time></trkpt><trkpt lat="45.6873061" lon="9.4510182"><ele>197.8</ele><time>2026-05-02T11:53:12.892Z</time></trkpt><trkpt lat="45.6873702" lon="9.4510204"><ele>200.6</ele><time>2026-05-02T11:53:13.893Z</time></trkpt><trkpt lat="45.68744" lon="9.4510307"><ele>203.39999999999998</ele><time>2026-05-02T11:53:14.889Z</time></trkpt><trkpt lat="45.687562" lon="9.451043"><ele>206.2</ele><time>2026-05-02T11:53:16.891Z</time></trkpt><trkpt lat="45.6876317" lon="9.4510459"><ele>209.0</ele><time>2026-05-02T11:53:17.89Z</time></trkpt><trkpt lat="45.6877629" lon="9.451038"><ele>210.2</ele><time>2026-05-02T11:53:19.892Z</time></trkpt><trkpt lat="45.6878909" lon="9.4510176"><ele>211.39999999999998</ele><time>2026-05-02T11:53:21.893Z</time></trkpt><trkpt lat="45.6879554" lon="9.4510055"><ele>212.6</ele><time>2026-05-02T11:53:22.888Z</time></trkpt><trkpt lat="45.6880261" lon="9.4509929"><ele>213.8</ele><time>2026-05-02T11:53:23.891Z</time></trkpt><trkpt lat="45.6880908" lon="9.4509799"><ele>215.0</ele><time>2026-05-02T11:53:24.892Z</time></trkpt><trkpt lat="45.6882133" lon="9.4509543"><ele>215.0</ele><time>2026-05-02T11:53:26.89Z</time></trkpt><trkpt lat="45.688323" lon="9.4509311"><ele>215.0</ele><time>2026-05-02T11:53:28.89Z</time></trkpt><trkpt lat="45.6884296" lon="9.4509164"><ele>215.0</ele><time>2026-05-02T11:53:30.893Z</time></trkpt><trkpt lat="45.6885266" lon="9.4508906"><ele>215.0</ele><time>2026-05-02T11:53:32.896Z</time></trkpt><trkpt lat="45.6886235" lon="9.4508653"><ele>215.0</ele><time>2026-05-02T11:53:34.891Z</time></trkpt><trkpt lat="45.6887383" lon="9.4508343"><ele>214.8</ele><time>2026-05-02T11:53:36.891Z</time></trkpt><trkpt lat="45.6888466" lon="9.4508057"><ele>214.6</ele><time>2026-05-02T11:53:38.895Z</time></trkpt><trkpt lat="45.6889532" lon="9.4507895"><ele>214.39999999999998</ele><time>2026-05-02T11:53:40.891Z</time></trkpt><trkpt lat="45.6890453" lon="9.4508119"><ele>214.2</ele><time>2026-05-02T11:53:42.892Z</time></trkpt><trkpt lat="45.6891402" lon="9.4508384"><ele>214.0</ele><time>2026-05-02T11:53:44.893Z</time></trkpt><trkpt lat="45.6892404" lon="9.4508826"><ele>213.99999999999997</ele><time>2026-05-02T11:53:46.889Z</time></trkpt><trkpt lat="45.6893593" lon="9.4509425"><ele>214.0</ele><time>2026-05-02T11:53:48.891Z</time></trkpt><trkpt lat="45.6894628" lon="9.4510283"><ele>214.0</ele><time>2026-05-02T11:53:50.89Z</time></trkpt><trkpt lat="45.6895212" lon="9.4510778"><ele>214.0</ele><time>2026-05-02T11:53:51.892Z</time></trkpt><trkpt lat="45.6895735" lon="9.4511323"><ele>213.99999999999997</ele><time>2026-05-02T11:53:52.9Z</time></trkpt><trkpt lat="45.6896293" lon="9.4511863"><ele>214.0</ele><time>2026-05-02T11:53:53.895Z</time></trkpt><trkpt lat="45.6897191" lon="9.4513081"><ele>213.0</ele><time>2026-05-02T11:53:55.889Z</time></trkpt><trkpt lat="45.6897901" lon="9.4514438"><ele>211.99999999999997</ele><time>2026-05-02T11:53:57.896Z</time></trkpt><trkpt lat="45.6898447" lon="9.4514957"><ele>211.0</ele><time>2026-05-02T11:53:58.891Z</time></trkpt><trkpt lat="45.68991" lon="9.4515785"><ele>210.0</ele><time>2026-05-02T11:54:00.892Z</time></trkpt><trkpt lat="45.6899897" lon="9.4516535"><ele>209.0</ele><time>2026-05-02T11:54:02.892Z</time></trkpt><trkpt lat="45.6900673" lon="9.4517224"><ele>209.0</ele><time>2026-05-02T11:54:04.894Z</time></trkpt><trkpt lat="45.690145" lon="9.4518371"><ele>209.0</ele><time>2026-05-02T11:54:06.892Z</time></trkpt><trkpt lat="45.6902231" lon="9.4519049"><ele>209.0</ele><time>2026-05-02T11:54:08.895Z</time></trkpt><trkpt lat="45.6903157" lon="9.4520066"><ele>209.0</ele><time>2026-05-02T11:54:10.892Z</time></trkpt><trkpt lat="45.6903576" lon="9.4520948"><ele>209.0</ele><time>2026-05-02T11:54:11.892Z</time></trkpt><trkpt lat="45.6904735" lon="9.4520959"><ele>208.66666666666669</ele><time>2026-05-02T11:54:13.892Z</time></trkpt><trkpt lat="45.6905306" lon="9.4521376"><ele>208.33333333333334</ele><time>2026-05-02T11:54:14.896Z</time></trkpt><trkpt lat="45.6906348" lon="9.4521017"><ele>208.0</ele><time>2026-05-02T11:54:15.89Z</time></trkpt><trkpt lat="45.6906962" lon="9.4521403"><ele>207.66666666666669</ele><time>2026-05-02T11:54:16.892Z</time></trkpt><trkpt lat="45.6907632" lon="9.4521355"><ele>207.33333333333334</ele><time>2026-05-02T11:54:17.894Z</time></trkpt><trkpt lat="45.6908668" lon="9.4522418"><ele>207.0</ele><time>2026-05-02T11:54:19.893Z</time></trkpt><trkpt lat="45.6909675" lon="9.4523457"><ele>207.0</ele><time>2026-05-02T11:54:21.89Z</time></trkpt><trkpt lat="45.6910384" lon="9.4523573"><ele>207.0</ele><time>2026-05-02T11:54:22.891Z</time></trkpt><trkpt lat="45.6911692" lon="9.4524068"><ele>207.0</ele><time>2026-05-02T11:54:24.892Z</time></trkpt><trkpt lat="45.691286" lon="9.4523967"><ele>207.0</ele><time>2026-05-02T11:54:26.888Z</time></trkpt><trkpt lat="45.6913837" lon="9.4524477"><ele>207.0</ele><time>2026-05-02T11:54:28.895Z</time></trkpt><trkpt lat="45.6914386" lon="9.4524982"><ele>208.8</ele><time>2026-05-02T11:54:29.891Z</time></trkpt><trkpt lat="45.6915298" lon="9.4525732"><ele>210.6</ele><time>2026-05-02T11:54:31.893Z</time></trkpt><trkpt lat="45.6916042" lon="9.4526241"><ele>212.40000000000003</ele><time>2026-05-02T11:54:33.883Z</time></trkpt><trkpt lat="45.6916664" lon="9.4526588"><ele>214.20000000000002</ele><time>2026-05-02T11:54:34.897Z</time></trkpt><trkpt lat="45.6917819" lon="9.4527283"><ele>216.0</ele><time>2026-05-02T11:54:36.893Z</time></trkpt><trkpt lat="45.6918443" lon="9.4527815"><ele>216.0</ele><time>2026-05-02T11:54:37.887Z</time></trkpt><trkpt lat="45.691914" lon="9.452805"><ele>216.0</ele><time>2026-05-02T11:54:38.891Z</time></trkpt><trkpt lat="45.6919789" lon="9.4528444"><ele>216.0</ele><time>2026-05-02T11:54:39.894Z</time></trkpt><trkpt lat="45.6920836" lon="9.4529166"><ele>216.0</ele><time>2026-05-02T11:54:41.891Z</time></trkpt><trkpt lat="45.6921423" lon="9.4529571"><ele>216.0</ele><time>2026-05-02T11:54:42.893Z</time></trkpt><trkpt lat="45.6922533" lon="9.4530362"><ele>216.0</ele><time>2026-05-02T11:54:44.893Z</time></trkpt><trkpt lat="45.6923807" lon="9.4531394"><ele>213.5</ele><time>2026-05-02T11:54:46.89Z</time></trkpt><trkpt lat="45.6924421" lon="9.4531846"><ele>211.0</ele><time>2026-05-02T11:54:47.892Z</time></trkpt><trkpt lat="45.6925425" lon="9.453288"><ele>208.5</ele><time>2026-05-02T11:54:49.89Z</time></trkpt><trkpt lat="45.6926699" lon="9.4533597"><ele>206.0</ele><time>2026-05-02T11:54:51.881Z</time></trkpt><trkpt lat="45.6927788" lon="9.4534416"><ele>210.20000000000002</ele><time>2026-05-02T11:54:53.893Z</time></trkpt><trkpt lat="45.6928665" lon="9.4535046"><ele>214.4</ele><time>2026-05-02T11:54:55.891Z</time></trkpt><trkpt lat="45.6929733" lon="9.4535715"><ele>218.6</ele><time>2026-05-02T11:54:57.891Z</time></trkpt><trkpt lat="45.693071" lon="9.4536437"><ele>222.8</ele><time>2026-05-02T11:54:59.893Z</time></trkpt><trkpt lat="45.6931406" lon="9.4537006"><ele>227.0</ele><time>2026-05-02T11:55:01.892Z</time></trkpt><trkpt lat="45.6932056" lon="9.4537423"><ele>225.75</ele><time>2026-05-02T11:55:03.894Z</time></trkpt><trkpt lat="45.6932751" lon="9.4538141"><ele>224.5</ele><time>2026-05-02T11:55:05.89Z</time></trkpt><trkpt lat="45.6934603" lon="9.4539068"><ele>223.25</ele><time>2026-05-02T11:55:09.883Z</time></trkpt><trkpt lat="45.6935623" lon="9.453935"><ele>222.0</ele><time>2026-05-02T11:55:11.892Z</time></trkpt><trkpt lat="45.6936258" lon="9.4539582"><ele>222.0</ele><time>2026-05-02T11:55:12.881Z</time></trkpt><trkpt lat="45.6937301" lon="9.4540124"><ele>222.0</ele><time>2026-05-02T11:55:14.896Z</time></trkpt><trkpt lat="45.6938563" lon="9.4540943"><ele>222.0</ele><time>2026-05-02T11:55:16.894Z</time></trkpt><trkpt lat="45.6939121" lon="9.4541541"><ele>222.0</ele><time>2026-05-02T11:55:17.89Z</time></trkpt><trkpt lat="45.6939744" lon="9.4542178"><ele>222.0</ele><time>2026-05-02T11:55:18.891Z</time></trkpt><trkpt lat="45.6940328" lon="9.4542703"><ele>222.0</ele><time>2026-05-02T11:55:19.89Z</time></trkpt><trkpt lat="45.6941518" lon="9.4543613"><ele>222.0</ele><time>2026-05-02T11:55:21.888Z</time></trkpt><trkpt lat="45.6942509" lon="9.4544392"><ele>222.0</ele><time>2026-05-02T11:55:23.893Z</time></trkpt><trkpt lat="45.6943232" lon="9.4544657"><ele>222.0</ele><time>2026-05-02T11:55:24.886Z</time></trkpt><trkpt lat="45.6943868" lon="9.4545103"><ele>222.0</ele><time>2026-05-02T11:55:25.884Z</time></trkpt><trkpt lat="45.6944489" lon="9.4545727"><ele>219.66666666666666</ele><time>2026-05-02T11:55:26.892Z</time></trkpt><trkpt lat="45.6945208" lon="9.4546372"><ele>217.33333333333331</ele><time>2026-05-02T11:55:27.891Z</time></trkpt><trkpt lat="45.6945808" lon="9.4546913"><ele>215.0</ele><time>2026-05-02T11:55:28.886Z</time></trkpt><trkpt lat="45.6946432" lon="9.4547128"><ele>212.66666666666666</ele><time>2026-05-02T11:55:29.891Z</time></trkpt><trkpt lat="45.6947076" lon="9.4547637"><ele>210.33333333333331</ele><time>2026-05-02T11:55:30.889Z</time></trkpt><trkpt lat="45.6947671" lon="9.4548056"><ele>208.0</ele><time>2026-05-02T11:55:31.89Z</time></trkpt><trkpt lat="45.694895" lon="9.4548345"><ele>208.0</ele><time>2026-05-02T11:55:33.891Z</time></trkpt><trkpt lat="45.6949599" lon="9.4548509"><ele>208.0</ele><time>2026-05-02T11:55:34.888Z</time></trkpt><trkpt lat="45.695024" lon="9.4548485"><ele>208.0</ele><time>2026-05-02T11:55:35.893Z</time></trkpt><trkpt lat="45.6951391" lon="9.454896"><ele>208.0</ele><time>2026-05-02T11:55:37.894Z</time></trkpt><trkpt lat="45.6952071" lon="9.4548876"><ele>208.0</ele><time>2026-05-02T11:55:38.892Z</time></trkpt><trkpt lat="45.6953364" lon="9.4549297"><ele>208.66666666666666</ele><time>2026-05-02T11:55:40.89Z</time></trkpt><trkpt lat="45.6954088" lon="9.4549621"><ele>209.33333333333331</ele><time>2026-05-02T11:55:41.896Z</time></trkpt><trkpt lat="45.6954752" lon="9.4549862"><ele>210.0</ele><time>2026-05-02T11:55:42.896Z</time></trkpt><trkpt lat="45.6955539" lon="9.4549735"><ele>210.66666666666669</ele><time>2026-05-02T11:55:43.884Z</time></trkpt><trkpt lat="45.6956308" lon="9.4549649"><ele>211.33333333333334</ele><time>2026-05-02T11:55:44.892Z</time></trkpt><trkpt lat="45.6957395" lon="9.4550364"><ele>212.0</ele><time>2026-05-02T11:55:46.894Z</time></trkpt><trkpt lat="45.695846" lon="9.4550912"><ele>212.00000000000003</ele><time>2026-05-02T11:55:48.892Z</time></trkpt><trkpt lat="45.6959243" lon="9.455082"><ele>212.0</ele><time>2026-05-02T11:55:49.895Z</time></trkpt><trkpt lat="45.6959875" lon="9.455111"><ele>212.0</ele><time>2026-05-02T11:55:50.892Z</time></trkpt><trkpt lat="45.6960743" lon="9.4551556"><ele>212.0</ele><time>2026-05-02T11:55:52.891Z</time></trkpt><trkpt lat="45.6961421" lon="9.4551843"><ele>212.00000000000003</ele><time>2026-05-02T11:55:53.891Z</time></trkpt><trkpt lat="45.6962646" lon="9.4552231"><ele>212.0</ele><time>2026-05-02T11:55:55.884Z</time></trkpt><trkpt lat="45.696375" lon="9.4552268"><ele>212.0</ele><time>2026-05-02T11:55:57.892Z</time></trkpt><trkpt lat="45.6964931" lon="9.4552372"><ele>212.0</ele><time>2026-05-02T11:55:59.89Z</time></trkpt><trkpt lat="45.6965572" lon="9.455233"><ele>212.0</ele><time>2026-05-02T11:56:00.896Z</time></trkpt><trkpt lat="45.696689" lon="9.4551882"><ele>212.0</ele><time>2026-05-02T11:56:02.893Z</time></trkpt><trkpt lat="45.6967561" lon="9.4551834"><ele>212.0</ele><time>2026-05-02T11:56:03.886Z</time></trkpt><trkpt lat="45.6968536" lon="9.4551669"><ele>212.00000000000003</ele><time>2026-05-02T11:56:05.898Z</time></trkpt><trkpt lat="45.696917" lon="9.4551524"><ele>212.0</ele><time>2026-05-02T11:56:06.891Z</time></trkpt><trkpt lat="45.6970167" lon="9.4551748"><ele>212.0</ele><time>2026-05-02T11:56:08.887Z</time></trkpt><trkpt lat="45.6970955" lon="9.455164"><ele>212.0</ele><time>2026-05-02T11:56:10.89Z</time></trkpt><trkpt lat="45.6971815" lon="9.4551353"><ele>212.00000000000003</ele><time>2026-05-02T11:56:12.894Z</time></trkpt><trkpt lat="45.6972524" lon="9.4551014"><ele>212.0</ele><time>2026-05-02T11:56:13.89Z</time></trkpt><trkpt lat="45.6973281" lon="9.4550552"><ele>212.00000000000003</ele><time>2026-05-02T11:56:15.884Z</time></trkpt><trkpt lat="45.6974416" lon="9.4550496"><ele>212.0</ele><time>2026-05-02T11:56:17.89Z</time></trkpt><trkpt lat="45.6975259" lon="9.4550238"><ele>212.0</ele><time>2026-05-02T11:56:18.89Z</time></trkpt><trkpt lat="45.6975977" lon="9.4550138"><ele>212.0</ele><time>2026-05-02T11:56:19.89Z</time></trkpt><trkpt lat="45.6976761" lon="9.4550055"><ele>212.00000000000003</ele><time>2026-05-02T11:56:20.89Z</time></trkpt><trkpt lat="45.697758" lon="9.454947"><ele>212.0</ele><time>2026-05-02T11:56:21.893Z</time></trkpt><trkpt lat="45.6978435" lon="9.4549402"><ele>211.0</ele><time>2026-05-02T11:56:22.887Z</time></trkpt><trkpt lat="45.6979258" lon="9.4549629"><ele>210.0</ele><time>2026-05-02T11:56:23.887Z</time></trkpt><trkpt lat="45.6980476" lon="9.4549588"><ele>209.0</ele><time>2026-05-02T11:56:25.884Z</time></trkpt><trkpt lat="45.6981666" lon="9.4549525"><ele>208.0</ele><time>2026-05-02T11:56:27.894Z</time></trkpt><trkpt lat="45.698274" lon="9.4549879"><ele>207.0</ele><time>2026-05-02T11:56:29.894Z</time></trkpt><trkpt lat="45.6983992" lon="9.4550236"><ele>207.0</ele><time>2026-05-02T11:56:31.885Z</time></trkpt><trkpt lat="45.69852" lon="9.4550379"><ele>207.0</ele><time>2026-05-02T11:56:33.893Z</time></trkpt><trkpt lat="45.6986392" lon="9.4550875"><ele>207.0</ele><time>2026-05-02T11:56:35.892Z</time></trkpt><trkpt lat="45.6987487" lon="9.455091"><ele>207.0</ele><time>2026-05-02T11:56:37.89Z</time></trkpt><trkpt lat="45.6988115" lon="9.4551081"><ele>207.0</ele><time>2026-05-02T11:56:38.94Z</time></trkpt><trkpt lat="45.6988777" lon="9.4551562"><ele>206.0</ele><time>2026-05-02T11:56:39.94Z</time></trkpt><trkpt lat="45.698945" lon="9.4551715"><ele>205.0</ele><time>2026-05-02T11:56:40.941Z</time></trkpt><trkpt lat="45.6990421" lon="9.4552494"><ele>204.0</ele><time>2026-05-02T11:56:42.893Z</time></trkpt><trkpt lat="45.6991101" lon="9.4552654"><ele>203.0</ele><time>2026-05-02T11:56:43.893Z</time></trkpt><trkpt lat="45.6991863" lon="9.4552779"><ele>202.0</ele><time>2026-05-02T11:56:44.895Z</time></trkpt><trkpt lat="45.6992604" lon="9.4552788"><ele>201.0</ele><time>2026-05-02T11:56:45.893Z</time></trkpt><trkpt lat="45.6993259" lon="9.4553063"><ele>201.0</ele><time>2026-05-02T11:56:46.892Z</time></trkpt><trkpt lat="45.6993922" lon="9.455318"><ele>201.0</ele><time>2026-05-02T11:56:47.892Z</time></trkpt><trkpt lat="45.6994722" lon="9.4552953"><ele>201.0</ele><time>2026-05-02T11:56:48.893Z</time></trkpt><trkpt lat="45.6995366" lon="9.4552924"><ele>201.0</ele><time>2026-05-02T11:56:49.892Z</time></trkpt><trkpt lat="45.6996752" lon="9.4553079"><ele>201.0</ele><time>2026-05-02T11:56:51.893Z</time></trkpt><trkpt lat="45.6997394" lon="9.4553238"><ele>201.0</ele><time>2026-05-02T11:56:52.89Z</time></trkpt><trkpt lat="45.6998054" lon="9.4553571"><ele>200.8</ele><time>2026-05-02T11:56:53.892Z</time></trkpt><trkpt lat="45.6998771" lon="9.4554383"><ele>200.60000000000002</ele><time>2026-05-02T11:56:55.894Z</time></trkpt><trkpt lat="45.6999627" lon="9.4555363"><ele>200.4</ele><time>2026-05-02T11:56:57.892Z</time></trkpt><trkpt lat="45.700004" lon="9.4556244"><ele>200.2</ele><time>2026-05-02T11:56:58.896Z</time></trkpt><trkpt lat="45.7000744" lon="9.4557626"><ele>200.0</ele><time>2026-05-02T11:57:00.895Z</time></trkpt><trkpt lat="45.7001448" lon="9.4558723"><ele>200.0</ele><time>2026-05-02T11:57:02.885Z</time></trkpt><trkpt lat="45.7002148" lon="9.4559594"><ele>200.0</ele><time>2026-05-02T11:57:04.882Z</time></trkpt><trkpt lat="45.7003035" lon="9.4560857"><ele>200.0</ele><time>2026-05-02T11:57:06.89Z</time></trkpt><trkpt lat="45.7003623" lon="9.4561532"><ele>200.0</ele><time>2026-05-02T11:57:07.891Z</time></trkpt><trkpt lat="45.7004103" lon="9.4562125"><ele>200.0</ele><time>2026-05-02T11:57:08.889Z</time></trkpt><trkpt lat="45.7004865" lon="9.4562995"><ele>199.0</ele><time>2026-05-02T11:57:09.893Z</time></trkpt><trkpt lat="45.7005443" lon="9.4563674"><ele>198.0</ele><time>2026-05-02T11:57:10.89Z</time></trkpt><trkpt lat="45.7005953" lon="9.4564385"><ele>197.0</ele><time>2026-05-02T11:57:11.893Z</time></trkpt><trkpt lat="45.7006859" lon="9.4565514"><ele>196.0</ele><time>2026-05-02T11:57:13.893Z</time></trkpt><trkpt lat="45.7007671" lon="9.4566562"><ele>195.0</ele><time>2026-05-02T11:57:15.892Z</time></trkpt><trkpt lat="45.7008616" lon="9.456771"><ele>195.0</ele><time>2026-05-02T11:57:17.901Z</time></trkpt><trkpt lat="45.7009496" lon="9.4568807"><ele>195.0</ele><time>2026-05-02T11:57:19.889Z</time></trkpt><trkpt lat="45.7010073" lon="9.4569476"><ele>195.0</ele><time>2026-05-02T11:57:20.888Z</time></trkpt><trkpt lat="45.7010671" lon="9.457003"><ele>195.0</ele><time>2026-05-02T11:57:21.892Z</time></trkpt><trkpt lat="45.7011525" lon="9.4571203"><ele>195.0</ele><time>2026-05-02T11:57:23.893Z</time></trkpt><trkpt lat="45.7012418" lon="9.4572203"><ele>195.8</ele><time>2026-05-02T11:57:25.89Z</time></trkpt><trkpt lat="45.7013064" lon="9.4572995"><ele>196.6</ele><time>2026-05-02T11:57:26.889Z</time></trkpt><trkpt lat="45.7013881" lon="9.4573884"><ele>197.39999999999998</ele><time>2026-05-02T11:57:28.891Z</time></trkpt><trkpt lat="45.7014417" lon="9.457478"><ele>198.2</ele><time>2026-05-02T11:57:30.884Z</time></trkpt><trkpt lat="45.7015427" lon="9.4575965"><ele>199.0</ele><time>2026-05-02T11:57:32.886Z</time></trkpt><trkpt lat="45.7016268" lon="9.4576354"><ele>199.0</ele><time>2026-05-02T11:57:33.94Z</time></trkpt><trkpt lat="45.7017604" lon="9.4577025"><ele>199.0</ele><time>2026-05-02T11:57:35.89Z</time></trkpt><trkpt lat="45.7018367" lon="9.457729"><ele>199.0</ele><time>2026-05-02T11:57:36.898Z</time></trkpt><trkpt lat="45.7019078" lon="9.4577606"><ele>199.0</ele><time>2026-05-02T11:57:38.883Z</time></trkpt><trkpt lat="45.7020237" lon="9.4578417"><ele>199.0</ele><time>2026-05-02T11:57:41.897Z</time></trkpt><trkpt lat="45.7021406" lon="9.4579142"><ele>199.33333333333331</ele><time>2026-05-02T11:57:43.889Z</time></trkpt><trkpt lat="45.7022501" lon="9.4579731"><ele>199.66666666666666</ele><time>2026-05-02T11:57:45.889Z</time></trkpt><trkpt lat="45.7023284" lon="9.4580079"><ele>200.0</ele><time>2026-05-02T11:57:46.887Z</time></trkpt><trkpt lat="45.7023927" lon="9.4580222"><ele>200.33333333333331</ele><time>2026-05-02T11:57:47.886Z</time></trkpt><trkpt lat="45.7024755" lon="9.458042"><ele>200.66666666666666</ele><time>2026-05-02T11:57:48.885Z</time></trkpt><trkpt lat="45.7025668" lon="9.4580538"><ele>201.0</ele><time>2026-05-02T11:57:49.887Z</time></trkpt><trkpt lat="45.7026345" lon="9.4580377"><ele>201.0</ele><time>2026-05-02T11:57:50.891Z</time></trkpt><trkpt lat="45.7026977" lon="9.4580476"><ele>201.0</ele><time>2026-05-02T11:57:51.89Z</time></trkpt><trkpt lat="45.7027669" lon="9.4580484"><ele>201.0</ele><time>2026-05-02T11:57:52.885Z</time></trkpt><trkpt lat="45.7028491" lon="9.4580418"><ele>201.0</ele><time>2026-05-02T11:57:53.886Z</time></trkpt><trkpt lat="45.7030026" lon="9.4580177"><ele>201.0</ele><time>2026-05-02T11:57:55.888Z</time></trkpt><trkpt lat="45.7030653" lon="9.4580007"><ele>201.0</ele><time>2026-05-02T11:57:56.883Z</time></trkpt><trkpt lat="45.7031866" lon="9.4579569"><ele>202.5</ele><time>2026-05-02T11:57:58.886Z</time></trkpt><trkpt lat="45.7032685" lon="9.4579263"><ele>204.0</ele><time>2026-05-02T11:57:59.893Z</time></trkpt><trkpt lat="45.7033827" lon="9.4578612"><ele>205.5</ele><time>2026-05-02T11:58:01.892Z</time></trkpt><trkpt lat="45.7034969" lon="9.4577951"><ele>207.0</ele><time>2026-05-02T11:58:03.888Z</time></trkpt><trkpt lat="45.7036186" lon="9.4576948"><ele>207.0</ele><time>2026-05-02T11:58:05.886Z</time></trkpt><trkpt lat="45.7037226" lon="9.4575954"><ele>207.0</ele><time>2026-05-02T11:58:07.89Z</time></trkpt><trkpt lat="45.7037701" lon="9.4575322"><ele>207.0</ele><time>2026-05-02T11:58:08.891Z</time></trkpt><trkpt lat="45.7038803" lon="9.4574103"><ele>207.0</ele><time>2026-05-02T11:58:10.892Z</time></trkpt><trkpt lat="45.7039291" lon="9.4573269"><ele>207.0</ele><time>2026-05-02T11:58:11.891Z</time></trkpt><trkpt lat="45.7039819" lon="9.4572579"><ele>207.0</ele><time>2026-05-02T11:58:12.889Z</time></trkpt><trkpt lat="45.7040859" lon="9.4571569"><ele>207.0</ele><time>2026-05-02T11:58:14.888Z</time></trkpt><trkpt lat="45.7041809" lon="9.4571015"><ele>207.0</ele><time>2026-05-02T11:58:16.889Z</time></trkpt><trkpt lat="45.7042737" lon="9.4570415"><ele>207.0</ele><time>2026-05-02T11:58:18.885Z</time></trkpt><trkpt lat="45.704359" lon="9.456982"><ele>207.0</ele><time>2026-05-02T11:58:20.896Z</time></trkpt><trkpt lat="45.7044183" lon="9.4568934"><ele>206.83333333333334</ele><time>2026-05-02T11:58:21.89Z</time></trkpt><trkpt lat="45.70448" lon="9.4568523"><ele>206.66666666666669</ele><time>2026-05-02T11:58:22.89Z</time></trkpt><trkpt lat="45.7045362" lon="9.4568112"><ele>206.5</ele><time>2026-05-02T11:58:23.894Z</time></trkpt><trkpt lat="45.7046493" lon="9.4567466"><ele>206.33333333333334</ele><time>2026-05-02T11:58:25.893Z</time></trkpt><trkpt lat="45.7047256" lon="9.4567559"><ele>206.16666666666669</ele><time>2026-05-02T11:58:27.892Z</time></trkpt><trkpt lat="45.7048261" lon="9.4567987"><ele>206.0</ele><time>2026-05-02T11:58:29.884Z</time></trkpt><trkpt lat="45.7049259" lon="9.4568281"><ele>206.0</ele><time>2026-05-02T11:58:31.895Z</time></trkpt><trkpt lat="45.7050486" lon="9.4568663"><ele>206.0</ele><time>2026-05-02T11:58:33.891Z</time></trkpt><trkpt lat="45.7051638" lon="9.4569372"><ele>206.0</ele><time>2026-05-02T11:58:35.892Z</time></trkpt><trkpt lat="45.7053345" lon="9.4569175"><ele>206.0</ele><time>2026-05-02T11:58:38.891Z</time></trkpt><trkpt lat="45.7054025" lon="9.4569004"><ele>205.8</ele><time>2026-05-02T11:58:39.892Z</time></trkpt><trkpt lat="45.7055457" lon="9.4568912"><ele>205.60000000000002</ele><time>2026-05-02T11:58:42.884Z</time></trkpt><trkpt lat="45.7056476" lon="9.4568139"><ele>205.4</ele><time>2026-05-02T11:58:44.891Z</time></trkpt><trkpt lat="45.7057241" lon="9.4567834"><ele>205.2</ele><time>2026-05-02T11:58:45.894Z</time></trkpt><trkpt lat="45.7057915" lon="9.4567621"><ele>205.0</ele><time>2026-05-02T11:58:46.892Z</time></trkpt><trkpt lat="45.7058573" lon="9.4567859"><ele>205.0</ele><time>2026-05-02T11:58:47.894Z</time></trkpt><trkpt lat="45.7059292" lon="9.4567683"><ele>205.0</ele><time>2026-05-02T11:58:48.893Z</time></trkpt><trkpt lat="45.7060558" lon="9.4568168"><ele>205.0</ele><time>2026-05-02T11:58:51.893Z</time></trkpt><trkpt lat="45.7061513" lon="9.4568312"><ele>205.0</ele><time>2026-05-02T11:58:53.884Z</time></trkpt><trkpt lat="45.7062132" lon="9.4568644"><ele>205.0</ele><time>2026-05-02T11:58:54.882Z</time></trkpt><trkpt lat="45.7063226" lon="9.4568961"><ele>204.33333333333331</ele><time>2026-05-02T11:58:56.894Z</time></trkpt><trkpt lat="45.7063973" lon="9.4568859"><ele>203.66666666666666</ele><time>2026-05-02T11:58:57.893Z</time></trkpt><trkpt lat="45.7064718" lon="9.4568692"><ele>203.0</ele><time>2026-05-02T11:58:58.895Z</time></trkpt><trkpt lat="45.7066001" lon="9.4568484"><ele>202.33333333333331</ele><time>2026-05-02T11:59:00.887Z</time></trkpt><trkpt lat="45.7066754" lon="9.456837"><ele>201.66666666666666</ele><time>2026-05-02T11:59:01.894Z</time></trkpt><trkpt lat="45.706736" lon="9.4568063"><ele>201.0</ele><time>2026-05-02T11:59:02.889Z</time></trkpt><trkpt lat="45.7069014" lon="9.4567688"><ele>200.0</ele><time>2026-05-02T11:59:05.896Z</time></trkpt><trkpt lat="45.707007" lon="9.4567107"><ele>199.0</ele><time>2026-05-02T11:59:07.893Z</time></trkpt><trkpt lat="45.7070887" lon="9.4566517"><ele>198.0</ele><time>2026-05-02T11:59:09.889Z</time></trkpt><trkpt lat="45.7071441" lon="9.4565835"><ele>197.0</ele><time>2026-05-02T11:59:11.884Z</time></trkpt><trkpt lat="45.7072369" lon="9.456578"><ele>196.0</ele><time>2026-05-02T11:59:14.891Z</time></trkpt><trkpt lat="45.7073128" lon="9.4565313"><ele>196.0</ele><time>2026-05-02T11:59:16.885Z</time></trkpt><trkpt lat="45.7073927" lon="9.4564703"><ele>196.0</ele><time>2026-05-02T11:59:18.889Z</time></trkpt><trkpt lat="45.707459" lon="9.4563801"><ele>196.0</ele><time>2026-05-02T11:59:20.89Z</time></trkpt><trkpt lat="45.7075011" lon="9.4562527"><ele>196.0</ele><time>2026-05-02T11:59:22.889Z</time></trkpt><trkpt lat="45.7075072" lon="9.4561191"><ele>196.0</ele><time>2026-05-02T11:59:24.892Z</time></trkpt><trkpt lat="45.707486" lon="9.4559955"><ele>196.85714285714286</ele><time>2026-05-02T11:59:27.884Z</time></trkpt><trkpt lat="45.7074612" lon="9.4559124"><ele>197.71428571428572</ele><time>2026-05-02T11:59:30.883Z</time></trkpt><trkpt lat="45.7074188" lon="9.4558228"><ele>198.57142857142856</ele><time>2026-05-02T11:59:34.883Z</time></trkpt><trkpt lat="45.7073919" lon="9.4557252"><ele>199.42857142857144</ele><time>2026-05-02T11:59:37.889Z</time></trkpt><trkpt lat="45.7073643" lon="9.455644"><ele>200.28571428571428</ele><time>2026-05-02T11:59:40.887Z</time></trkpt><trkpt lat="45.7073311" lon="9.4555629"><ele>201.14285714285714</ele><time>2026-05-02T11:59:43.881Z</time></trkpt><trkpt lat="45.7072752" lon="9.4554765"><ele>202.0</ele><time>2026-05-02T11:59:47.895Z</time></trkpt><trkpt lat="45.7072427" lon="9.4553744"><ele>203.14285714285714</ele><time>2026-05-02T11:59:51.883Z</time></trkpt><trkpt lat="45.7072247" lon="9.4552609"><ele>204.28571428571428</ele><time>2026-05-02T11:59:55.884Z</time></trkpt><trkpt lat="45.7072033" lon="9.4551534"><ele>205.42857142857144</ele><time>2026-05-02T11:59:59.888Z</time></trkpt><trkpt lat="45.7071831" lon="9.4550627"><ele>206.57142857142856</ele><time>2026-05-02T12:00:02.891Z</time></trkpt><trkpt lat="45.7071548" lon="9.4549503"><ele>207.71428571428572</ele><time>2026-05-02T12:00:06.888Z</time></trkpt><trkpt lat="45.7071305" lon="9.4548543"><ele>208.85714285714286</ele><time>2026-05-02T12:00:09.885Z</time></trkpt><trkpt lat="45.7070982" lon="9.4547737"><ele>210.0</ele><time>2026-05-02T12:00:12.891Z</time></trkpt><trkpt lat="45.7070474" lon="9.454695"><ele>210.0</ele><time>2026-05-02T12:00:15.889Z</time></trkpt><trkpt lat="45.7070054" lon="9.4546222"><ele>210.0</ele><time>2026-05-02T12:00:18.884Z</time></trkpt><trkpt lat="45.706962" lon="9.454544"><ele>210.0</ele><time>2026-05-02T12:00:21.892Z</time></trkpt><trkpt lat="45.7069334" lon="9.4544614"><ele>210.0</ele><time>2026-05-02T12:00:24.881Z</time></trkpt><trkpt lat="45.7069017" lon="9.4543506"><ele>210.0</ele><time>2026-05-02T12:00:28.895Z</time></trkpt><trkpt lat="45.7068763" lon="9.4542538"><ele>210.0</ele><time>2026-05-02T12:00:31.894Z</time></trkpt><trkpt lat="45.7068489" lon="9.4541454"><ele>210.0</ele><time>2026-05-02T12:00:35.895Z</time></trkpt><trkpt lat="45.7068278" lon="9.454052"><ele>212.28571428571428</ele><time>2026-05-02T12:00:38.891Z</time></trkpt><trkpt lat="45.7068116" lon="9.4539575"><ele>214.57142857142856</ele><time>2026-05-02T12:00:41.895Z</time></trkpt><trkpt lat="45.7067843" lon="9.4538709"><ele>216.85714285714286</ele><time>2026-05-02T12:00:45.893Z</time></trkpt><trkpt lat="45.7067501" lon="9.453779"><ele>219.14285714285714</ele><time>2026-05-02T12:00:49.891Z</time></trkpt><trkpt lat="45.7067334" lon="9.4536865"><ele>221.42857142857142</ele><time>2026-05-02T12:00:52.898Z</time></trkpt><trkpt lat="45.7067212" lon="9.4535815"><ele>223.71428571428572</ele><time>2026-05-02T12:00:56.888Z</time></trkpt><trkpt lat="45.7067183" lon="9.4534832"><ele>226.0</ele><time>2026-05-02T12:00:59.886Z</time></trkpt><trkpt lat="45.7067239" lon="9.4533818"><ele>227.0</ele><time>2026-05-02T12:01:02.894Z</time></trkpt><trkpt lat="45.7067409" lon="9.4532934"><ele>228.0</ele><time>2026-05-02T12:01:05.899Z</time></trkpt><trkpt lat="45.7067559" lon="9.4531875"><ele>229.0</ele><time>2026-05-02T12:01:09.893Z</time></trkpt><trkpt lat="45.7067757" lon="9.4530822"><ele>230.0</ele><time>2026-05-02T12:01:12.891Z</time></trkpt><trkpt lat="45.7067948" lon="9.4529703"><ele>231.0</ele><time>2026-05-02T12:01:16.884Z</time></trkpt><trkpt lat="45.7068119" lon="9.4528637"><ele>232.0</ele><time>2026-05-02T12:01:20.896Z</time></trkpt><trkpt lat="45.7068302" lon="9.452764"><ele>233.0</ele><time>2026-05-02T12:01:24.889Z</time></trkpt><trkpt lat="45.7068493" lon="9.4526433"><ele>233.28571428571428</ele><time>2026-05-02T12:01:27.895Z</time></trkpt><trkpt lat="45.7068661" lon="9.4525447"><ele>233.57142857142856</ele><time>2026-05-02T12:01:30.888Z</time></trkpt><trkpt lat="45.7068771" lon="9.4524531"><ele>233.85714285714283</ele><time>2026-05-02T12:01:33.894Z</time></trkpt><trkpt lat="45.7068787" lon="9.4523571"><ele>234.14285714285714</ele><time>2026-05-02T12:01:36.898Z</time></trkpt><trkpt lat="45.7068862" lon="9.4522631"><ele>234.4285714285714</ele><time>2026-05-02T12:01:39.892Z</time></trkpt><trkpt lat="45.7069077" lon="9.4521456"><ele>234.7142857142857</ele><time>2026-05-02T12:01:42.896Z</time></trkpt><trkpt lat="45.7069298" lon="9.4520291"><ele>235.0</ele><time>2026-05-02T12:01:45.894Z</time></trkpt><trkpt lat="45.7069398" lon="9.4519134"><ele>234.99999999999997</ele><time>2026-05-02T12:01:48.89Z</time></trkpt><trkpt lat="45.7069431" lon="9.451798"><ele>235.0</ele><time>2026-05-02T12:01:51.892Z</time></trkpt><trkpt lat="45.7069393" lon="9.4516769"><ele>235.0</ele><time>2026-05-02T12:01:54.895Z</time></trkpt><trkpt lat="45.706925" lon="9.4515788"><ele>235.0</ele><time>2026-05-02T12:01:58.892Z</time></trkpt><trkpt lat="45.7069127" lon="9.451487"><ele>234.99999999999997</ele><time>2026-05-02T12:02:01.892Z</time></trkpt><trkpt lat="45.7068929" lon="9.4513681"><ele>235.0</ele><time>2026-05-02T12:02:04.893Z</time></trkpt><trkpt lat="45.706879" lon="9.4512515"><ele>235.83333333333331</ele><time>2026-05-02T12:02:07.893Z</time></trkpt><trkpt lat="45.7068678" lon="9.4511321"><ele>236.66666666666666</ele><time>2026-05-02T12:02:10.907Z</time></trkpt><trkpt lat="45.7068495" lon="9.4510016"><ele>237.5</ele><time>2026-05-02T12:02:13.894Z</time></trkpt><trkpt lat="45.7068326" lon="9.45087"><ele>238.33333333333331</ele><time>2026-05-02T12:02:16.896Z</time></trkpt><trkpt lat="45.7068152" lon="9.4507403"><ele>239.16666666666666</ele><time>2026-05-02T12:02:19.887Z</time></trkpt><trkpt lat="45.7068032" lon="9.4506441"><ele>240.0</ele><time>2026-05-02T12:02:21.895Z</time></trkpt><trkpt lat="45.7067911" lon="9.4505482"><ele>240.42857142857144</ele><time>2026-05-02T12:02:23.887Z</time></trkpt><trkpt lat="45.7067829" lon="9.4504544"><ele>240.85714285714283</ele><time>2026-05-02T12:02:25.894Z</time></trkpt><trkpt lat="45.7067743" lon="9.4503585"><ele>241.28571428571428</ele><time>2026-05-02T12:02:27.887Z</time></trkpt><trkpt lat="45.7067712" lon="9.4502585"><ele>241.71428571428572</ele><time>2026-05-02T12:02:29.893Z</time></trkpt><trkpt lat="45.7067696" lon="9.4501639"><ele>242.14285714285717</ele><time>2026-05-02T12:02:31.896Z</time></trkpt><trkpt lat="45.7067664" lon="9.4500667"><ele>242.57142857142856</ele><time>2026-05-02T12:02:33.889Z</time></trkpt><trkpt lat="45.7067638" lon="9.4499686"><ele>243.0</ele><time>2026-05-02T12:02:35.893Z</time></trkpt><trkpt lat="45.7067654" lon="9.4498686"><ele>243.0</ele><time>2026-05-02T12:02:37.892Z</time></trkpt><trkpt lat="45.70677" lon="9.449768"><ele>243.0</ele><time>2026-05-02T12:02:39.888Z</time></trkpt><trkpt lat="45.7067829" lon="9.4496572"><ele>243.0</ele><time>2026-05-02T12:02:41.893Z</time></trkpt><trkpt lat="45.7068139" lon="9.4495669"><ele>243.0</ele><time>2026-05-02T12:02:43.898Z</time></trkpt><trkpt lat="45.7068678" lon="9.4494846"><ele>243.0</ele><time>2026-05-02T12:02:45.896Z</time></trkpt><trkpt lat="45.706947" lon="9.4494518"><ele>243.0</ele><time>2026-05-02T12:02:47.894Z</time></trkpt><trkpt lat="45.7070215" lon="9.4494456"><ele>243.33333333333334</ele><time>2026-05-02T12:02:49.899Z</time></trkpt><trkpt lat="45.7071015" lon="9.4494207"><ele>243.66666666666669</ele><time>2026-05-02T12:02:51.89Z</time></trkpt><trkpt lat="45.7071808" lon="9.4493909"><ele>244.0</ele><time>2026-05-02T12:02:53.894Z</time></trkpt><trkpt lat="45.707259" lon="9.4493711"><ele>244.33333333333334</ele><time>2026-05-02T12:02:55.887Z</time></trkpt><trkpt lat="45.707338" lon="9.4493351"><ele>244.66666666666669</ele><time>2026-05-02T12:02:57.895Z</time></trkpt><trkpt lat="45.7074223" lon="9.4493007"><ele>245.0</ele><time>2026-05-02T12:02:59.892Z</time></trkpt><trkpt lat="45.7075079" lon="9.4492755"><ele>245.0</ele><time>2026-05-02T12:03:01.898Z</time></trkpt><trkpt lat="45.7076021" lon="9.4492424"><ele>245.0</ele><time>2026-05-02T12:03:03.891Z</time></trkpt><trkpt lat="45.7077005" lon="9.449221"><ele>245.0</ele><time>2026-05-02T12:03:05.892Z</time></trkpt><trkpt lat="45.7078005" lon="9.4491854"><ele>245.0</ele><time>2026-05-02T12:03:07.888Z</time></trkpt><trkpt lat="45.7078997" lon="9.4491579"><ele>245.0</ele><time>2026-05-02T12:03:09.892Z</time></trkpt><trkpt lat="45.7081761" lon="9.4491744"><ele>244.8</ele><time>2026-05-02T12:03:10.882Z</time></trkpt><trkpt lat="45.7082716" lon="9.4491427"><ele>244.6</ele><time>2026-05-02T12:03:12.894Z</time></trkpt><trkpt lat="45.7083918" lon="9.4491084"><ele>244.39999999999998</ele><time>2026-05-02T12:03:14.891Z</time></trkpt><trkpt lat="45.7084562" lon="9.4490966"><ele>244.2</ele><time>2026-05-02T12:03:15.89Z</time></trkpt><trkpt lat="45.7085704" lon="9.4490632"><ele>244.0</ele><time>2026-05-02T12:03:17.893Z</time></trkpt><trkpt lat="45.7086345" lon="9.4490457"><ele>243.75</ele><time>2026-05-02T12:03:18.889Z</time></trkpt><trkpt lat="45.7087449" lon="9.4490245"><ele>243.5</ele><time>2026-05-02T12:03:20.889Z</time></trkpt><trkpt lat="45.7088554" lon="9.4490063"><ele>243.25</ele><time>2026-05-02T12:03:22.891Z</time></trkpt><trkpt lat="45.7089775" lon="9.448992"><ele>243.0</ele><time>2026-05-02T12:03:24.888Z</time></trkpt><trkpt lat="45.7090978" lon="9.4489648"><ele>243.0</ele><time>2026-05-02T12:03:26.892Z</time></trkpt><trkpt lat="45.7092207" lon="9.4489438"><ele>243.0</ele><time>2026-05-02T12:03:28.891Z</time></trkpt><trkpt lat="45.7092846" lon="9.448936"><ele>243.0</ele><time>2026-05-02T12:03:29.892Z</time></trkpt><trkpt lat="45.7094102" lon="9.4489224"><ele>243.0</ele><time>2026-05-02T12:03:31.891Z</time></trkpt><trkpt lat="45.7095375" lon="9.4488995"><ele>243.0</ele><time>2026-05-02T12:03:33.893Z</time></trkpt><trkpt lat="45.7096043" lon="9.4488878"><ele>243.4</ele><time>2026-05-02T12:03:34.883Z</time></trkpt><trkpt lat="45.7097322" lon="9.4488632"><ele>243.8</ele><time>2026-05-02T12:03:36.891Z</time></trkpt><trkpt lat="45.7097952" lon="9.4488462"><ele>244.2</ele><time>2026-05-02T12:03:37.892Z</time></trkpt><trkpt lat="45.709858" lon="9.4488251"><ele>244.6</ele><time>2026-05-02T12:03:38.889Z</time></trkpt><trkpt lat="45.7099209" lon="9.4488035"><ele>245.0</ele><time>2026-05-02T12:03:39.894Z</time></trkpt><trkpt lat="45.7100463" lon="9.4487694"><ele>245.4</ele><time>2026-05-02T12:03:41.895Z</time></trkpt><trkpt lat="45.710163" lon="9.4487275"><ele>245.8</ele><time>2026-05-02T12:03:43.892Z</time></trkpt><trkpt lat="45.7102244" lon="9.4487016"><ele>246.2</ele><time>2026-05-02T12:03:44.89Z</time></trkpt><trkpt lat="45.710337" lon="9.4486272"><ele>246.6</ele><time>2026-05-02T12:03:46.89Z</time></trkpt><trkpt lat="45.7104472" lon="9.4485313"><ele>247.0</ele><time>2026-05-02T12:03:48.893Z</time></trkpt><trkpt lat="45.7105473" lon="9.4484409"><ele>247.0</ele><time>2026-05-02T12:03:50.889Z</time></trkpt><trkpt lat="45.7106001" lon="9.4483849"><ele>247.0</ele><time>2026-05-02T12:03:51.893Z</time></trkpt><trkpt lat="45.7106984" lon="9.448305"><ele>247.0</ele><time>2026-05-02T12:03:53.894Z</time></trkpt><trkpt lat="45.7107946" lon="9.4482318"><ele>247.0</ele><time>2026-05-02T12:03:55.889Z</time></trkpt><trkpt lat="45.7108504" lon="9.4481358"><ele>247.0</ele><time>2026-05-02T12:03:57.893Z</time></trkpt><trkpt lat="45.7108264" lon="9.44801"><ele>248.85714285714286</ele><time>2026-05-02T12:03:59.89Z</time></trkpt><trkpt lat="45.7108084" lon="9.4478724"><ele>250.71428571428572</ele><time>2026-05-02T12:04:01.891Z</time></trkpt><trkpt lat="45.7108137" lon="9.4477816"><ele>252.57142857142858</ele><time>2026-05-02T12:04:03.879Z</time></trkpt><trkpt lat="45.7108357" lon="9.447697"><ele>254.42857142857144</ele><time>2026-05-02T12:04:06.895Z</time></trkpt><trkpt lat="45.7108772" lon="9.4476154"><ele>256.2857142857143</ele><time>2026-05-02T12:04:10.89Z</time></trkpt><trkpt lat="45.7109158" lon="9.4475438"><ele>258.14285714285717</ele><time>2026-05-02T12:04:13.892Z</time></trkpt><trkpt lat="45.7109821" lon="9.4474863"><ele>260.0</ele><time>2026-05-02T12:04:17.881Z</time></trkpt><trkpt lat="45.7110207" lon="9.447404"><ele>260.00000000000006</ele><time>2026-05-02T12:04:20.895Z</time></trkpt><trkpt lat="45.7110645" lon="9.447314"><ele>260.0</ele><time>2026-05-02T12:04:25.889Z</time></trkpt><trkpt lat="45.7111201" lon="9.4472505"><ele>260.0</ele><time>2026-05-02T12:04:29.893Z</time></trkpt><trkpt lat="45.711168" lon="9.447186"><ele>260.0</ele><time>2026-05-02T12:04:32.892Z</time></trkpt><trkpt lat="45.7112316" lon="9.4471113"><ele>260.0</ele><time>2026-05-02T12:04:36.892Z</time></trkpt><trkpt lat="45.7112793" lon="9.447049"><ele>260.00000000000006</ele><time>2026-05-02T12:04:39.9Z</time></trkpt><trkpt lat="45.7113291" lon="9.4469818"><ele>260.0</ele><time>2026-05-02T12:04:42.895Z</time></trkpt><trkpt lat="45.7113881" lon="9.4469018"><ele>260.8571428571429</ele><time>2026-05-02T12:04:46.894Z</time></trkpt><trkpt lat="45.7114438" lon="9.4468211"><ele>261.7142857142857</ele><time>2026-05-02T12:04:50.892Z</time></trkpt><trkpt lat="45.7114945" lon="9.4467592"><ele>262.57142857142856</ele><time>2026-05-02T12:04:53.895Z</time></trkpt><trkpt lat="45.7115572" lon="9.4466884"><ele>263.42857142857144</ele><time>2026-05-02T12:04:57.896Z</time></trkpt><trkpt lat="45.7116077" lon="9.4466316"><ele>264.2857142857143</ele><time>2026-05-02T12:05:00.882Z</time></trkpt><trkpt lat="45.7116628" lon="9.4465592"><ele>265.14285714285717</ele><time>2026-05-02T12:05:03.9Z</time></trkpt><trkpt lat="45.711718" lon="9.4464999"><ele>266.0</ele><time>2026-05-02T12:05:06.896Z</time></trkpt><trkpt lat="45.7117688" lon="9.4464429"><ele>266.0</ele><time>2026-05-02T12:05:09.894Z</time></trkpt><trkpt lat="45.7118174" lon="9.4463838"><ele>266.0</ele><time>2026-05-02T12:05:12.887Z</time></trkpt><trkpt lat="45.7118668" lon="9.4463207"><ele>266.0</ele><time>2026-05-02T12:05:15.896Z</time></trkpt><trkpt lat="45.7119326" lon="9.446244"><ele>266.0</ele><time>2026-05-02T12:05:19.895Z</time></trkpt><trkpt lat="45.7119864" lon="9.4461765"><ele>266.0</ele><time>2026-05-02T12:05:23.897Z</time></trkpt><trkpt lat="45.7120433" lon="9.4460985"><ele>266.0</ele><time>2026-05-02T12:05:27.893Z</time></trkpt><trkpt lat="45.7120993" lon="9.4460247"><ele>266.0</ele><time>2026-05-02T12:05:31.885Z</time></trkpt><trkpt lat="45.7121557" lon="9.4459381"><ele>266.42857142857144</ele><time>2026-05-02T12:05:35.896Z</time></trkpt><trkpt lat="45.7122151" lon="9.4458752"><ele>266.8571428571429</ele><time>2026-05-02T12:05:39.895Z</time></trkpt><trkpt lat="45.7122696" lon="9.4458066"><ele>267.2857142857143</ele><time>2026-05-02T12:05:43.89Z</time></trkpt><trkpt lat="45.7123172" lon="9.4457466"><ele>267.7142857142857</ele><time>2026-05-02T12:05:46.896Z</time></trkpt><trkpt lat="45.7123756" lon="9.4456753"><ele>268.14285714285717</ele><time>2026-05-02T12:05:49.893Z</time></trkpt><trkpt lat="45.7124252" lon="9.4456072"><ele>268.57142857142856</ele><time>2026-05-02T12:05:52.888Z</time></trkpt><trkpt lat="45.7124727" lon="9.4455412"><ele>269.0</ele><time>2026-05-02T12:05:55.892Z</time></trkpt><trkpt lat="45.7125222" lon="9.4454761"><ele>268.7142857142857</ele><time>2026-05-02T12:05:58.9Z</time></trkpt><trkpt lat="45.7125726" lon="9.4454011"><ele>268.42857142857144</ele><time>2026-05-02T12:06:01.887Z</time></trkpt><trkpt lat="45.7126233" lon="9.4453376"><ele>268.14285714285717</ele><time>2026-05-02T12:06:04.893Z</time></trkpt><trkpt lat="45.7126751" lon="9.4452751"><ele>267.8571428571429</ele><time>2026-05-02T12:06:07.891Z</time></trkpt><trkpt lat="45.7127254" lon="9.4452128"><ele>267.57142857142856</ele><time>2026-05-02T12:06:10.897Z</time></trkpt><trkpt lat="45.7127724" lon="9.4451444"><ele>267.28571428571433</ele><time>2026-05-02T12:06:13.896Z</time></trkpt><trkpt lat="45.7128219" lon="9.4450855"><ele>267.0</ele><time>2026-05-02T12:06:16.886Z</time></trkpt><trkpt lat="45.7128869" lon="9.4450065"><ele>267.00000000000006</ele><time>2026-05-02T12:06:20.893Z</time></trkpt><trkpt lat="45.712933" lon="9.444935"><ele>267.0</ele><time>2026-05-02T12:06:23.895Z</time></trkpt><trkpt lat="45.7129833" lon="9.4448658"><ele>267.0</ele><time>2026-05-02T12:06:26.895Z</time></trkpt><trkpt lat="45.7130345" lon="9.4447912"><ele>267.0</ele><time>2026-05-02T12:06:29.894Z</time></trkpt><trkpt lat="45.7130814" lon="9.4447163"><ele>267.0</ele><time>2026-05-02T12:06:32.895Z</time></trkpt><trkpt lat="45.7131213" lon="9.4446127"><ele>267.00000000000006</ele><time>2026-05-02T12:06:36.891Z</time></trkpt><trkpt lat="45.713161" lon="9.4445073"><ele>267.0</ele><time>2026-05-02T12:06:40.896Z</time></trkpt><trkpt lat="45.7131906" lon="9.4444266"><ele>271.5714285714286</ele><time>2026-05-02T12:06:43.886Z</time></trkpt><trkpt lat="45.7132151" lon="9.444336"><ele>276.14285714285717</ele><time>2026-05-02T12:06:46.895Z</time></trkpt><trkpt lat="45.7132421" lon="9.4442383"><ele>280.7142857142857</ele><time>2026-05-02T12:06:49.896Z</time></trkpt><trkpt lat="45.7132779" lon="9.4441558"><ele>285.28571428571433</ele><time>2026-05-02T12:06:52.891Z</time></trkpt><trkpt lat="45.7133136" lon="9.4440705"><ele>289.8571428571429</ele><time>2026-05-02T12:06:55.896Z</time></trkpt><trkpt lat="45.7133576" lon="9.4439876"><ele>294.42857142857144</ele><time>2026-05-02T12:06:58.893Z</time></trkpt><trkpt lat="45.7134083" lon="9.4438947"><ele>299.0</ele><time>2026-05-02T12:07:01.892Z</time></trkpt><trkpt lat="45.7134627" lon="9.4438044"><ele>297.5</ele><time>2026-05-02T12:07:04.899Z</time></trkpt><trkpt lat="45.7135036" lon="9.4437216"><ele>296.0</ele><time>2026-05-02T12:07:07.89Z</time></trkpt><trkpt lat="45.7135445" lon="9.4436482"><ele>294.5</ele><time>2026-05-02T12:07:10.889Z</time></trkpt><trkpt lat="45.7135935" lon="9.4435595"><ele>293.0</ele><time>2026-05-02T12:07:13.893Z</time></trkpt><trkpt lat="45.7136408" lon="9.4434776"><ele>291.5</ele><time>2026-05-02T12:07:16.892Z</time></trkpt><trkpt lat="45.7136901" lon="9.4433808"><ele>290.0</ele><time>2026-05-02T12:07:19.891Z</time></trkpt><trkpt lat="45.7137406" lon="9.4432977"><ele>290.0</ele><time>2026-05-02T12:07:22.899Z</time></trkpt><trkpt lat="45.7137849" lon="9.443204"><ele>290.0</ele><time>2026-05-02T12:07:25.899Z</time></trkpt><trkpt lat="45.7138164" lon="9.443084"><ele>290.0</ele><time>2026-05-02T12:07:28.9Z</time></trkpt><trkpt lat="45.7138369" lon="9.4429814"><ele>290.0</ele><time>2026-05-02T12:07:30.941Z</time></trkpt><trkpt lat="45.7138606" lon="9.4428607"><ele>290.0</ele><time>2026-05-02T12:07:33.896Z</time></trkpt><trkpt lat="45.7138761" lon="9.4427604"><ele>290.0</ele><time>2026-05-02T12:07:35.89Z</time></trkpt><trkpt lat="45.7138909" lon="9.442664"><ele>293.0</ele><time>2026-05-02T12:07:37.889Z</time></trkpt><trkpt lat="45.7139308" lon="9.4425398"><ele>296.0</ele><time>2026-05-02T12:07:40.895Z</time></trkpt><trkpt lat="45.7139956" lon="9.4424611"><ele>299.0</ele><time>2026-05-02T12:07:42.889Z</time></trkpt><trkpt lat="45.7140623" lon="9.4424469"><ele>302.0</ele><time>2026-05-02T12:07:44.894Z</time></trkpt><trkpt lat="45.7141254" lon="9.4424584"><ele>305.0</ele><time>2026-05-02T12:07:46.894Z</time></trkpt><trkpt lat="45.714199" lon="9.4424657"><ele>308.0</ele><time>2026-05-02T12:07:49.896Z</time></trkpt><trkpt lat="45.7142788" lon="9.4424379"><ele>308.0</ele><time>2026-05-02T12:07:53.888Z</time></trkpt><trkpt lat="45.7143496" lon="9.4424013"><ele>308.0</ele><time>2026-05-02T12:07:56.893Z</time></trkpt><trkpt lat="45.7144133" lon="9.4423398"><ele>308.0</ele><time>2026-05-02T12:08:00.891Z</time></trkpt><trkpt lat="45.7144741" lon="9.4423097"><ele>308.0</ele><time>2026-05-02T12:08:03.892Z</time></trkpt><trkpt lat="45.7145307" lon="9.4422555"><ele>308.0</ele><time>2026-05-02T12:08:06.889Z</time></trkpt><trkpt lat="45.7145819" lon="9.4422025"><ele>308.0</ele><time>2026-05-02T12:08:08.893Z</time></trkpt><trkpt lat="45.7146388" lon="9.442154"><ele>308.0</ele><time>2026-05-02T12:08:10.895Z</time></trkpt><trkpt lat="45.7147099" lon="9.4420758"><ele>308.6666666666667</ele><time>2026-05-02T12:08:12.898Z</time></trkpt><trkpt lat="45.7147799" lon="9.4420035"><ele>309.33333333333337</ele><time>2026-05-02T12:08:14.889Z</time></trkpt><trkpt lat="45.7148539" lon="9.4419385"><ele>310.0</ele><time>2026-05-02T12:08:16.896Z</time></trkpt><trkpt lat="45.7149258" lon="9.4418821"><ele>310.6666666666667</ele><time>2026-05-02T12:08:18.893Z</time></trkpt><trkpt lat="45.7149897" lon="9.4418407"><ele>311.3333333333333</ele><time>2026-05-02T12:08:20.889Z</time></trkpt><trkpt lat="45.715062" lon="9.4417949"><ele>312.0</ele><time>2026-05-02T12:08:22.89Z</time></trkpt><trkpt lat="45.7151248" lon="9.4417476"><ele>312.0</ele><time>2026-05-02T12:08:24.892Z</time></trkpt><trkpt lat="45.7151967" lon="9.4416793"><ele>312.0</ele><time>2026-05-02T12:08:26.896Z</time></trkpt><trkpt lat="45.7152781" lon="9.4416282"><ele>312.0</ele><time>2026-05-02T12:08:29.894Z</time></trkpt><trkpt lat="45.7153578" lon="9.441563"><ele>312.0</ele><time>2026-05-02T12:08:32.893Z</time></trkpt><trkpt lat="45.7154259" lon="9.4415147"><ele>312.0</ele><time>2026-05-02T12:08:35.885Z</time></trkpt><trkpt lat="45.715485" lon="9.441469"><ele>312.0</ele><time>2026-05-02T12:08:37.895Z</time></trkpt><trkpt lat="45.7155443" lon="9.4414342"><ele>311.0</ele><time>2026-05-02T12:08:39.892Z</time></trkpt><trkpt lat="45.7156239" lon="9.4413705"><ele>310.0</ele><time>2026-05-02T12:08:42.894Z</time></trkpt><trkpt lat="45.715704" lon="9.441307"><ele>309.0</ele><time>2026-05-02T12:08:45.89Z</time></trkpt><trkpt lat="45.7157861" lon="9.4412521"><ele>308.0</ele><time>2026-05-02T12:08:48.893Z</time></trkpt><trkpt lat="45.7158607" lon="9.4411857"><ele>307.0</ele><time>2026-05-02T12:08:51.893Z</time></trkpt><trkpt lat="45.7159405" lon="9.4411141"><ele>308.16666666666663</ele><time>2026-05-02T12:08:54.893Z</time></trkpt><trkpt lat="45.7160193" lon="9.4410584"><ele>309.3333333333333</ele><time>2026-05-02T12:08:57.892Z</time></trkpt><trkpt lat="45.716077" lon="9.4410059"><ele>310.5</ele><time>2026-05-02T12:08:59.893Z</time></trkpt><trkpt lat="45.7161513" lon="9.4409386"><ele>311.6666666666667</ele><time>2026-05-02T12:09:02.889Z</time></trkpt><trkpt lat="45.7162168" lon="9.4408785"><ele>312.83333333333337</ele><time>2026-05-02T12:09:05.888Z</time></trkpt><trkpt lat="45.7162669" lon="9.4408225"><ele>314.0</ele><time>2026-05-02T12:09:07.886Z</time></trkpt><trkpt lat="45.7163453" lon="9.4407518"><ele>314.0</ele><time>2026-05-02T12:09:10.896Z</time></trkpt><trkpt lat="45.7164284" lon="9.4406788"><ele>314.0</ele><time>2026-05-02T12:09:13.899Z</time></trkpt><trkpt lat="45.7165144" lon="9.440623"><ele>314.0</ele><time>2026-05-02T12:09:16.889Z</time></trkpt><trkpt lat="45.7165707" lon="9.4405702"><ele>314.0</ele><time>2026-05-02T12:09:18.898Z</time></trkpt><trkpt lat="45.7166444" lon="9.440486"><ele>314.0</ele><time>2026-05-02T12:09:21.891Z</time></trkpt><trkpt lat="45.7167281" lon="9.4404147"><ele>315.25</ele><time>2026-05-02T12:09:24.888Z</time></trkpt><trkpt lat="45.7169119" lon="9.44025"><ele>316.5</ele><time>2026-05-02T12:09:26.884Z</time></trkpt><trkpt lat="45.7169705" lon="9.4401708"><ele>317.75</ele><time>2026-05-02T12:09:29.896Z</time></trkpt><trkpt lat="45.7170275" lon="9.4400821"><ele>319.0</ele><time>2026-05-02T12:09:32.892Z</time></trkpt><trkpt lat="45.7170857" lon="9.4399869"><ele>319.0</ele><time>2026-05-02T12:09:35.893Z</time></trkpt><trkpt lat="45.7171192" lon="9.4399103"><ele>319.0</ele><time>2026-05-02T12:09:41.885Z</time></trkpt><trkpt lat="45.7171765" lon="9.4398354"><ele>319.0</ele><time>2026-05-02T12:09:44.885Z</time></trkpt><trkpt lat="45.7172268" lon="9.4397591"><ele>319.0</ele><time>2026-05-02T12:09:47.862Z</time></trkpt><trkpt lat="45.7172771" lon="9.4396828"><ele>319.0</ele><time>2026-05-02T12:09:50.641Z</time></trkpt><trkpt lat="45.7173316" lon="9.4395962"><ele>319.0</ele><time>2026-05-02T12:09:53.861Z</time></trkpt><trkpt lat="45.7173872" lon="9.4394975"><ele>320.2</ele><time>2026-05-02T12:09:56.638Z</time></trkpt><trkpt lat="45.7174302" lon="9.4394267"><ele>321.4</ele><time>2026-05-02T12:09:58.886Z</time></trkpt><trkpt lat="45.7174959" lon="9.4393251"><ele>322.6</ele><time>2026-05-02T12:10:01.897Z</time></trkpt><trkpt lat="45.717544" lon="9.4392253"><ele>323.8</ele><time>2026-05-02T12:10:03.899Z</time></trkpt><trkpt lat="45.7176753" lon="9.4390935"><ele>325.0</ele><time>2026-05-02T12:10:05.894Z</time></trkpt><trkpt lat="45.7177375" lon="9.4389971"><ele>325.0</ele><time>2026-05-02T12:10:08.898Z</time></trkpt><trkpt lat="45.7177967" lon="9.4388935"><ele>325.0</ele><time>2026-05-02T12:10:11.896Z</time></trkpt><trkpt lat="45.7178391" lon="9.4388213"><ele>325.0</ele><time>2026-05-02T12:10:13.895Z</time></trkpt><trkpt lat="45.7178782" lon="9.4387386"><ele>325.0</ele><time>2026-05-02T12:10:15.883Z</time></trkpt><trkpt lat="45.7179209" lon="9.4386648"><ele>325.0</ele><time>2026-05-02T12:10:17.892Z</time></trkpt><trkpt lat="45.7179461" lon="9.4385615"><ele>325.0</ele><time>2026-05-02T12:10:19.899Z</time></trkpt><trkpt lat="45.7179639" lon="9.438457"><ele>325.0</ele><time>2026-05-02T12:10:21.893Z</time></trkpt><trkpt lat="45.7179683" lon="9.4383597"><ele>325.3333333333333</ele><time>2026-05-02T12:10:23.896Z</time></trkpt><trkpt lat="45.7179682" lon="9.4382687"><ele>325.66666666666663</ele><time>2026-05-02T12:10:25.887Z</time></trkpt><trkpt lat="45.717957" lon="9.43814"><ele>326.0</ele><time>2026-05-02T12:10:28.886Z</time></trkpt><trkpt lat="45.7179581" lon="9.4380395"><ele>326.3333333333333</ele><time>2026-05-02T12:10:30.884Z</time></trkpt><trkpt lat="45.717978" lon="9.4379208"><ele>326.6666666666667</ele><time>2026-05-02T12:10:32.877Z</time></trkpt><trkpt lat="45.7179983" lon="9.437798"><ele>327.0</ele><time>2026-05-02T12:10:34.885Z</time></trkpt><trkpt lat="45.7180118" lon="9.4376639"><ele>327.1666666666667</ele><time>2026-05-02T12:10:36.879Z</time></trkpt><trkpt lat="45.7180203" lon="9.4375403"><ele>327.3333333333333</ele><time>2026-05-02T12:10:38.884Z</time></trkpt><trkpt lat="45.7180218" lon="9.4374197"><ele>327.5</ele><time>2026-05-02T12:10:40.882Z</time></trkpt><trkpt lat="45.7180266" lon="9.4372958"><ele>327.66666666666663</ele><time>2026-05-02T12:10:42.903Z</time></trkpt><trkpt lat="45.7180214" lon="9.437171"><ele>327.8333333333333</ele><time>2026-05-02T12:10:44.893Z</time></trkpt><trkpt lat="45.7180058" lon="9.4370588"><ele>328.0</ele><time>2026-05-02T12:10:46.892Z</time></trkpt><trkpt lat="45.7179579" lon="9.4369544"><ele>327.5</ele><time>2026-05-02T12:10:48.895Z</time></trkpt><trkpt lat="45.7178908" lon="9.4367643"><ele>327.0</ele><time>2026-05-02T12:10:49.894Z</time></trkpt><trkpt lat="45.7178254" lon="9.4366827"><ele>326.5</ele><time>2026-05-02T12:10:51.888Z</time></trkpt><trkpt lat="45.7177387" lon="9.4365599"><ele>326.0</ele><time>2026-05-02T12:10:53.893Z</time></trkpt><trkpt lat="45.7176581" lon="9.4364329"><ele>327.20000000000005</ele><time>2026-05-02T12:10:55.887Z</time></trkpt><trkpt lat="45.717579" lon="9.4363114"><ele>328.40000000000003</ele><time>2026-05-02T12:10:57.889Z</time></trkpt><trkpt lat="45.7175102" lon="9.436226"><ele>329.6</ele><time>2026-05-02T12:10:59.882Z</time></trkpt><trkpt lat="45.7174435" lon="9.4361116"><ele>330.8</ele><time>2026-05-02T12:11:01.886Z</time></trkpt><trkpt lat="45.7173781" lon="9.435992"><ele>332.0</ele><time>2026-05-02T12:11:03.887Z</time></trkpt><trkpt lat="45.7173814" lon="9.435885"><ele>332.0</ele><time>2026-05-02T12:11:05.888Z</time></trkpt><trkpt lat="45.7173699" lon="9.435746"><ele>332.0</ele><time>2026-05-02T12:11:07.89Z</time></trkpt><trkpt lat="45.7173799" lon="9.4356009"><ele>332.0</ele><time>2026-05-02T12:11:09.889Z</time></trkpt><trkpt lat="45.717393" lon="9.4354511"><ele>332.0</ele><time>2026-05-02T12:11:11.895Z</time></trkpt><trkpt lat="45.7174162" lon="9.4353032"><ele>332.0</ele><time>2026-05-02T12:11:13.885Z</time></trkpt><trkpt lat="45.7174432" lon="9.4351729"><ele>331.83333333333337</ele><time>2026-05-02T12:11:15.89Z</time></trkpt><trkpt lat="45.7174489" lon="9.4350563"><ele>331.6666666666667</ele><time>2026-05-02T12:11:17.884Z</time></trkpt><trkpt lat="45.7174289" lon="9.434923"><ele>331.5</ele><time>2026-05-02T12:11:19.888Z</time></trkpt><trkpt lat="45.717391" lon="9.4348366"><ele>331.3333333333333</ele><time>2026-05-02T12:11:21.891Z</time></trkpt><trkpt lat="45.7173479" lon="9.4347616"><ele>331.16666666666663</ele><time>2026-05-02T12:11:25.89Z</time></trkpt><trkpt lat="45.7172816" lon="9.4347573"><ele>331.0</ele><time>2026-05-02T12:11:34.886Z</time></trkpt><trkpt lat="45.7172345" lon="9.4348342"><ele>331.0</ele><time>2026-05-02T12:11:39.893Z</time></trkpt><trkpt lat="45.7171829" lon="9.4349108"><ele>331.0</ele><time>2026-05-02T12:11:43.895Z</time></trkpt><trkpt lat="45.7171351" lon="9.4349784"><ele>331.0</ele><time>2026-05-02T12:11:46.895Z</time></trkpt><trkpt lat="45.717083" lon="9.4350482"><ele>331.0</ele><time>2026-05-02T12:11:49.894Z</time></trkpt><trkpt lat="45.7170533" lon="9.4351535"><ele>331.0</ele><time>2026-05-02T12:11:53.893Z</time></trkpt><trkpt lat="45.7169854" lon="9.4351782"><ele>331.0</ele><time>2026-05-02T12:11:56.891Z</time></trkpt><trkpt lat="45.7169578" lon="9.4352876"><ele>331.0</ele><time>2026-05-02T12:11:59.886Z</time></trkpt><trkpt lat="45.7169344" lon="9.4353847"><ele>331.14285714285717</ele><time>2026-05-02T12:12:02.89Z</time></trkpt><trkpt lat="45.716892" lon="9.4355043"><ele>331.2857142857143</ele><time>2026-05-02T12:12:05.887Z</time></trkpt><trkpt lat="45.716916" lon="9.4355916"><ele>331.42857142857144</ele><time>2026-05-02T12:12:09.892Z</time></trkpt><trkpt lat="45.7168983" lon="9.4357037"><ele>331.57142857142856</ele><time>2026-05-02T12:12:13.897Z</time></trkpt><trkpt lat="45.7168592" lon="9.4357747"><ele>331.7142857142857</ele><time>2026-05-02T12:12:16.886Z</time></trkpt><trkpt lat="45.7168646" lon="9.43587"><ele>331.85714285714283</ele><time>2026-05-02T12:12:23.893Z</time></trkpt><trkpt lat="45.7168422" lon="9.4359702"><ele>332.0</ele><time>2026-05-02T12:12:26.887Z</time></trkpt><trkpt lat="45.7168409" lon="9.4360705"><ele>334.6666666666667</ele><time>2026-05-02T12:12:31.89Z</time></trkpt><trkpt lat="45.7168466" lon="9.4361758"><ele>337.33333333333337</ele><time>2026-05-02T12:12:34.884Z</time></trkpt><trkpt lat="45.7168341" lon="9.4362945"><ele>340.0</ele><time>2026-05-02T12:12:37.886Z</time></trkpt><trkpt lat="45.7167703" lon="9.4363536"><ele>342.6666666666667</ele><time>2026-05-02T12:12:40.886Z</time></trkpt><trkpt lat="45.7168063" lon="9.4364425"><ele>345.3333333333333</ele><time>2026-05-02T12:12:43.889Z</time></trkpt><trkpt lat="45.7167773" lon="9.436552"><ele>348.0</ele><time>2026-05-02T12:12:46.884Z</time></trkpt><trkpt lat="45.7167787" lon="9.4366501"><ele>348.5</ele><time>2026-05-02T12:12:50.897Z</time></trkpt><trkpt lat="45.7167718" lon="9.4367582"><ele>349.0</ele><time>2026-05-02T12:12:53.882Z</time></trkpt><trkpt lat="45.7167225" lon="9.4368433"><ele>349.5</ele><time>2026-05-02T12:12:56.885Z</time></trkpt><trkpt lat="45.7166502" lon="9.4369239"><ele>350.0</ele><time>2026-05-02T12:12:58.89Z</time></trkpt><trkpt lat="45.716605" lon="9.4370395"><ele>350.5</ele><time>2026-05-02T12:13:00.887Z</time></trkpt><trkpt lat="45.7165779" lon="9.437139"><ele>351.0</ele><time>2026-05-02T12:13:02.893Z</time></trkpt><trkpt lat="45.7165375" lon="9.4372384"><ele>351.42857142857144</ele><time>2026-05-02T12:13:04.881Z</time></trkpt><trkpt lat="45.7165077" lon="9.4373251"><ele>351.8571428571429</ele><time>2026-05-02T12:13:07.889Z</time></trkpt><trkpt lat="45.7164887" lon="9.4374334"><ele>352.28571428571433</ele><time>2026-05-02T12:13:11.893Z</time></trkpt><trkpt lat="45.716492" lon="9.4375296"><ele>352.7142857142857</ele><time>2026-05-02T12:13:13.891Z</time></trkpt><trkpt lat="45.7165162" lon="9.4376326"><ele>353.1428571428571</ele><time>2026-05-02T12:13:15.889Z</time></trkpt><trkpt lat="45.7165602" lon="9.4377228"><ele>353.5714285714286</ele><time>2026-05-02T12:13:17.88Z</time></trkpt><trkpt lat="45.7166145" lon="9.4377759"><ele>354.0</ele><time>2026-05-02T12:13:19.888Z</time></trkpt><trkpt lat="45.7166699" lon="9.4378753"><ele>354.0</ele><time>2026-05-02T12:13:21.887Z</time></trkpt><trkpt lat="45.7167372" lon="9.4379275"><ele>354.0</ele><time>2026-05-02T12:13:24.889Z</time></trkpt><trkpt lat="45.7167909" lon="9.4380082"><ele>354.0</ele><time>2026-05-02T12:13:27.895Z</time></trkpt><trkpt lat="45.7168387" lon="9.4380779"><ele>354.0</ele><time>2026-05-02T12:13:30.891Z</time></trkpt><trkpt lat="45.7168811" lon="9.4381802"><ele>354.0</ele><time>2026-05-02T12:13:34.889Z</time></trkpt><trkpt lat="45.7168881" lon="9.4382779"><ele>354.0</ele><time>2026-05-02T12:13:38.881Z</time></trkpt><trkpt lat="45.7168706" lon="9.4383929"><ele>354.6</ele><time>2026-05-02T12:13:41.889Z</time></trkpt><trkpt lat="45.7168541" lon="9.4384902"><ele>355.2</ele><time>2026-05-02T12:13:45.887Z</time></trkpt><trkpt lat="45.7168296" lon="9.4385788"><ele>355.8</ele><time>2026-05-02T12:13:48.884Z</time></trkpt><trkpt lat="45.7166327" lon="9.4387632"><ele>356.40000000000003</ele><time>2026-05-02T12:13:51.888Z</time></trkpt><trkpt lat="45.7166206" lon="9.4388523"><ele>357.0</ele><time>2026-05-02T12:13:55.888Z</time></trkpt><trkpt lat="45.7165632" lon="9.4389037"><ele>354.25</ele><time>2026-05-02T12:13:57.887Z</time></trkpt><trkpt lat="45.7163514" lon="9.4389765"><ele>351.5</ele><time>2026-05-02T12:13:59.884Z</time></trkpt><trkpt lat="45.7162532" lon="9.4390535"><ele>348.75</ele><time>2026-05-02T12:14:02.889Z</time></trkpt><trkpt lat="45.716172" lon="9.439124"><ele>346.0</ele><time>2026-05-02T12:14:04.886Z</time></trkpt><trkpt lat="45.7160986" lon="9.4391989"><ele>345.6</ele><time>2026-05-02T12:14:06.891Z</time></trkpt><trkpt lat="45.7160282" lon="9.4392807"><ele>345.20000000000005</ele><time>2026-05-02T12:14:08.883Z</time></trkpt><trkpt lat="45.7158953" lon="9.4394268"><ele>344.79999999999995</ele><time>2026-05-02T12:14:10.886Z</time></trkpt><trkpt lat="45.7158509" lon="9.4394935"><ele>344.4</ele><time>2026-05-02T12:14:11.884Z</time></trkpt><trkpt lat="45.7157752" lon="9.4395944"><ele>344.0</ele><time>2026-05-02T12:14:13.892Z</time></trkpt><trkpt lat="45.7156887" lon="9.439713"><ele>344.0</ele><time>2026-05-02T12:14:15.881Z</time></trkpt><trkpt lat="45.7156255" lon="9.4397475"><ele>344.0</ele><time>2026-05-02T12:14:16.885Z</time></trkpt><trkpt lat="45.7155243" lon="9.4398215"><ele>344.0</ele><time>2026-05-02T12:14:18.879Z</time></trkpt><trkpt lat="45.7154449" lon="9.4398816"><ele>344.0</ele><time>2026-05-02T12:14:19.887Z</time></trkpt><trkpt lat="45.7154001" lon="9.4399786"><ele>344.0</ele><time>2026-05-02T12:14:22.892Z</time></trkpt><trkpt lat="45.7153402" lon="9.4400285"><ele>344.0</ele><time>2026-05-02T12:14:24.894Z</time></trkpt><trkpt lat="45.7152666" lon="9.4400664"><ele>345.1666666666667</ele><time>2026-05-02T12:14:26.878Z</time></trkpt><trkpt lat="45.7151852" lon="9.4401156"><ele>346.33333333333337</ele><time>2026-05-02T12:14:28.889Z</time></trkpt><trkpt lat="45.7151136" lon="9.4401869"><ele>347.5</ele><time>2026-05-02T12:14:31.882Z</time></trkpt><trkpt lat="45.7150558" lon="9.4402718"><ele>348.6666666666667</ele><time>2026-05-02T12:14:34.895Z</time></trkpt><trkpt lat="45.7149941" lon="9.4403274"><ele>349.8333333333333</ele><time>2026-05-02T12:14:36.881Z</time></trkpt><trkpt lat="45.7149268" lon="9.4403853"><ele>351.0</ele><time>2026-05-02T12:14:38.881Z</time></trkpt><trkpt lat="45.7148415" lon="9.4404402"><ele>350.8333333333333</ele><time>2026-05-02T12:14:40.888Z</time></trkpt><trkpt lat="45.7147433" lon="9.4405115"><ele>350.6666666666667</ele><time>2026-05-02T12:14:42.888Z</time></trkpt><trkpt lat="45.7146331" lon="9.4405875"><ele>350.5</ele><time>2026-05-02T12:14:44.877Z</time></trkpt><trkpt lat="45.7145733" lon="9.4406184"><ele>350.33333333333337</ele><time>2026-05-02T12:14:45.88Z</time></trkpt><trkpt lat="45.7145121" lon="9.4406506"><ele>350.1666666666667</ele><time>2026-05-02T12:14:46.88Z</time></trkpt><trkpt lat="45.7144487" lon="9.440689"><ele>350.0</ele><time>2026-05-02T12:14:47.881Z</time></trkpt><trkpt lat="45.7143587" lon="9.4407505"><ele>350.0</ele><time>2026-05-02T12:14:49.889Z</time></trkpt><trkpt lat="45.7142704" lon="9.4407905"><ele>350.0</ele><time>2026-05-02T12:14:51.888Z</time></trkpt><trkpt lat="45.7141963" lon="9.4408008"><ele>350.0</ele><time>2026-05-02T12:14:53.88Z</time></trkpt><trkpt lat="45.7140928" lon="9.4408305"><ele>350.0</ele><time>2026-05-02T12:14:55.886Z</time></trkpt><trkpt lat="45.7139761" lon="9.4408599"><ele>350.0</ele><time>2026-05-02T12:14:57.888Z</time></trkpt><trkpt lat="45.7138361" lon="9.4409178"><ele>350.0</ele><time>2026-05-02T12:14:58.884Z</time></trkpt><trkpt lat="45.7137485" lon="9.4409423"><ele>350.0</ele><time>2026-05-02T12:14:59.895Z</time></trkpt><trkpt lat="45.7136809" lon="9.4409504"><ele>350.0</ele><time>2026-05-02T12:15:00.886Z</time></trkpt><trkpt lat="45.71361" lon="9.4409725"><ele>350.0</ele><time>2026-05-02T12:15:02.892Z</time></trkpt><trkpt lat="45.7134778" lon="9.4409717"><ele>350.0</ele><time>2026-05-02T12:15:04.891Z</time></trkpt><trkpt lat="45.713406" lon="9.4409841"><ele>350.0</ele><time>2026-05-02T12:15:05.889Z</time></trkpt><trkpt lat="45.7132778" lon="9.4409665"><ele>348.6</ele><time>2026-05-02T12:15:07.884Z</time></trkpt><trkpt lat="45.7131739" lon="9.440955"><ele>347.2</ele><time>2026-05-02T12:15:08.882Z</time></trkpt><trkpt lat="45.7130875" lon="9.4409606"><ele>345.79999999999995</ele><time>2026-05-02T12:15:09.886Z</time></trkpt><trkpt lat="45.7130066" lon="9.4409362"><ele>344.4</ele><time>2026-05-02T12:15:10.89Z</time></trkpt><trkpt lat="45.7129378" lon="9.4409129"><ele>343.0</ele><time>2026-05-02T12:15:11.889Z</time></trkpt><trkpt lat="45.7128233" lon="9.4408514"><ele>341.16666666666663</ele><time>2026-05-02T12:15:13.888Z</time></trkpt><trkpt lat="45.712718" lon="9.4408016"><ele>339.3333333333333</ele><time>2026-05-02T12:15:15.889Z</time></trkpt><trkpt lat="45.7126326" lon="9.4407264"><ele>337.5</ele><time>2026-05-02T12:15:17.884Z</time></trkpt><trkpt lat="45.712564" lon="9.4407066"><ele>335.6666666666667</ele><time>2026-05-02T12:15:20.888Z</time></trkpt><trkpt lat="45.7125023" lon="9.4407826"><ele>333.83333333333337</ele><time>2026-05-02T12:15:22.886Z</time></trkpt><trkpt lat="45.7124531" lon="9.4408699"><ele>332.0</ele><time>2026-05-02T12:15:24.881Z</time></trkpt><trkpt lat="45.7123657" lon="9.4410013"><ele>332.0</ele><time>2026-05-02T12:15:26.89Z</time></trkpt><trkpt lat="45.7123147" lon="9.4410658"><ele>332.0</ele><time>2026-05-02T12:15:27.886Z</time></trkpt><trkpt lat="45.7122691" lon="9.441137"><ele>332.0</ele><time>2026-05-02T12:15:28.886Z</time></trkpt><trkpt lat="45.7122352" lon="9.4412327"><ele>332.0</ele><time>2026-05-02T12:15:29.887Z</time></trkpt><trkpt lat="45.7121953" lon="9.4413224"><ele>332.0</ele><time>2026-05-02T12:15:30.886Z</time></trkpt><trkpt lat="45.7121102" lon="9.4414569"><ele>332.0</ele><time>2026-05-02T12:15:32.891Z</time></trkpt><trkpt lat="45.7120276" lon="9.4415997"><ele>333.40000000000003</ele><time>2026-05-02T12:15:34.888Z</time></trkpt><trkpt lat="45.7119747" lon="9.4417243"><ele>334.8</ele><time>2026-05-02T12:15:36.89Z</time></trkpt><trkpt lat="45.7119221" lon="9.4417997"><ele>336.2</ele><time>2026-05-02T12:15:38.881Z</time></trkpt><trkpt lat="45.7118509" lon="9.4418572"><ele>337.6</ele><time>2026-05-02T12:15:40.887Z</time></trkpt><trkpt lat="45.7118568" lon="9.441729"><ele>339.0</ele><time>2026-05-02T12:15:42.886Z</time></trkpt><trkpt lat="45.7119104" lon="9.4415543"><ele>339.0</ele><time>2026-05-02T12:15:44.887Z</time></trkpt><trkpt lat="45.7119662" lon="9.4414134"><ele>339.0</ele><time>2026-05-02T12:15:46.877Z</time></trkpt><trkpt lat="45.7120149" lon="9.4412589"><ele>339.0</ele><time>2026-05-02T12:15:48.881Z</time></trkpt><trkpt lat="45.7120393" lon="9.4411558"><ele>339.0</ele><time>2026-05-02T12:15:49.887Z</time></trkpt><trkpt lat="45.7120232" lon="9.4409874"><ele>339.0</ele><time>2026-05-02T12:15:51.888Z</time></trkpt><trkpt lat="45.7119514" lon="9.4408493"><ele>337.0</ele><time>2026-05-02T12:15:53.89Z</time></trkpt><trkpt lat="45.7118772" lon="9.4407268"><ele>335.0</ele><time>2026-05-02T12:15:55.891Z</time></trkpt><trkpt lat="45.7118071" lon="9.4406495"><ele>333.0</ele><time>2026-05-02T12:15:57.89Z</time></trkpt><trkpt lat="45.7117397" lon="9.4405728"><ele>331.0</ele><time>2026-05-02T12:15:59.88Z</time></trkpt><trkpt lat="45.7116817" lon="9.4404975"><ele>329.0</ele><time>2026-05-02T12:16:01.895Z</time></trkpt><trkpt lat="45.7116215" lon="9.4404404"><ele>327.0</ele><time>2026-05-02T12:16:03.891Z</time></trkpt><trkpt lat="45.7115667" lon="9.4403845"><ele>327.0</ele><time>2026-05-02T12:16:05.879Z</time></trkpt><trkpt lat="45.7115139" lon="9.4403218"><ele>327.0</ele><time>2026-05-02T12:16:07.886Z</time></trkpt><trkpt lat="45.7114622" lon="9.4402603"><ele>327.0</ele><time>2026-05-02T12:16:09.887Z</time></trkpt><trkpt lat="45.7113786" lon="9.4401836"><ele>327.0</ele><time>2026-05-02T12:16:12.881Z</time></trkpt><trkpt lat="45.7113197" lon="9.4401161"><ele>327.0</ele><time>2026-05-02T12:16:14.88Z</time></trkpt><trkpt lat="45.7112608" lon="9.4400366"><ele>327.0</ele><time>2026-05-02T12:16:16.894Z</time></trkpt><trkpt lat="45.7112028" lon="9.4399385"><ele>327.0</ele><time>2026-05-02T12:16:18.889Z</time></trkpt><trkpt lat="45.7111375" lon="9.439851"><ele>327.0</ele><time>2026-05-02T12:16:20.885Z</time></trkpt><trkpt lat="45.7110692" lon="9.43973"><ele>327.0</ele><time>2026-05-02T12:16:22.888Z</time></trkpt><trkpt lat="45.7109931" lon="9.4396581"><ele>327.0</ele><time>2026-05-02T12:16:24.888Z</time></trkpt><trkpt lat="45.7109283" lon="9.4395677"><ele>327.0</ele><time>2026-05-02T12:16:26.885Z</time></trkpt><trkpt lat="45.710848" lon="9.4394884"><ele>326.40000000000003</ele><time>2026-05-02T12:16:28.887Z</time></trkpt><trkpt lat="45.7107713" lon="9.4393951"><ele>325.8</ele><time>2026-05-02T12:16:30.886Z</time></trkpt><trkpt lat="45.7106921" lon="9.4393843"><ele>325.2</ele><time>2026-05-02T12:16:32.882Z</time></trkpt><trkpt lat="45.7105877" lon="9.4393705"><ele>324.6</ele><time>2026-05-02T12:16:34.896Z</time></trkpt><trkpt lat="45.7105165" lon="9.4392905"><ele>324.0</ele><time>2026-05-02T12:16:36.887Z</time></trkpt><trkpt lat="45.7104553" lon="9.4391512"><ele>324.0</ele><time>2026-05-02T12:16:38.887Z</time></trkpt><trkpt lat="45.7104089" lon="9.4389946"><ele>324.0</ele><time>2026-05-02T12:16:40.887Z</time></trkpt><trkpt lat="45.7103679" lon="9.4388276"><ele>324.0</ele><time>2026-05-02T12:16:42.887Z</time></trkpt><trkpt lat="45.7103492" lon="9.4387403"><ele>324.0</ele><time>2026-05-02T12:16:43.89Z</time></trkpt><trkpt lat="45.7103327" lon="9.4386384"><ele>324.0</ele><time>2026-05-02T12:16:44.89Z</time></trkpt><trkpt lat="45.7103158" lon="9.4385442"><ele>324.0</ele><time>2026-05-02T12:16:45.889Z</time></trkpt><trkpt lat="45.710303" lon="9.4384536"><ele>323.0</ele><time>2026-05-02T12:16:46.892Z</time></trkpt><trkpt lat="45.7102946" lon="9.4383546"><ele>322.0</ele><time>2026-05-02T12:16:47.89Z</time></trkpt><trkpt lat="45.7102804" lon="9.4381919"><ele>321.0</ele><time>2026-05-02T12:16:49.891Z</time></trkpt><trkpt lat="45.7102761" lon="9.4381011"><ele>320.0</ele><time>2026-05-02T12:16:50.888Z</time></trkpt><trkpt lat="45.7102723" lon="9.4379293"><ele>319.0</ele><time>2026-05-02T12:16:52.889Z</time></trkpt><trkpt lat="45.7102798" lon="9.4377534"><ele>318.8</ele><time>2026-05-02T12:16:54.888Z</time></trkpt><trkpt lat="45.7103084" lon="9.4375748"><ele>318.59999999999997</ele><time>2026-05-02T12:16:56.887Z</time></trkpt><trkpt lat="45.7103154" lon="9.4373988"><ele>318.4</ele><time>2026-05-02T12:16:58.891Z</time></trkpt><trkpt lat="45.7103468" lon="9.4373055"><ele>318.2</ele><time>2026-05-02T12:16:59.887Z</time></trkpt><trkpt lat="45.7103788" lon="9.4371443"><ele>318.0</ele><time>2026-05-02T12:17:01.892Z</time></trkpt><trkpt lat="45.7103934" lon="9.4370554"><ele>318.0</ele><time>2026-05-02T12:17:02.895Z</time></trkpt><trkpt lat="45.7104131" lon="9.4369532"><ele>318.0</ele><time>2026-05-02T12:17:03.889Z</time></trkpt><trkpt lat="45.7104249" lon="9.43686"><ele>318.0</ele><time>2026-05-02T12:17:04.889Z</time></trkpt><trkpt lat="45.7104558" lon="9.4366853"><ele>318.0</ele><time>2026-05-02T12:17:06.891Z</time></trkpt><trkpt lat="45.7104733" lon="9.4365756"><ele>318.0</ele><time>2026-05-02T12:17:07.891Z</time></trkpt><trkpt lat="45.7104905" lon="9.4363848"><ele>317.5</ele><time>2026-05-02T12:17:09.888Z</time></trkpt><trkpt lat="45.7104839" lon="9.4362879"><ele>317.0</ele><time>2026-05-02T12:17:10.888Z</time></trkpt><trkpt lat="45.7104692" lon="9.4361908"><ele>316.5</ele><time>2026-05-02T12:17:11.89Z</time></trkpt><trkpt lat="45.7104423" lon="9.4360828"><ele>316.0</ele><time>2026-05-02T12:17:12.888Z</time></trkpt><trkpt lat="45.7104118" lon="9.4359958"><ele>315.5</ele><time>2026-05-02T12:17:13.889Z</time></trkpt><trkpt lat="45.7103771" lon="9.4359127"><ele>315.0</ele><time>2026-05-02T12:17:14.886Z</time></trkpt><trkpt lat="45.710309" lon="9.4357521"><ele>315.0</ele><time>2026-05-02T12:17:16.887Z</time></trkpt><trkpt lat="45.7102775" lon="9.4356605"><ele>315.0</ele><time>2026-05-02T12:17:17.892Z</time></trkpt><trkpt lat="45.710248" lon="9.4355792"><ele>315.0</ele><time>2026-05-02T12:17:18.893Z</time></trkpt><trkpt lat="45.7101832" lon="9.4354353"><ele>315.0</ele><time>2026-05-02T12:17:20.888Z</time></trkpt><trkpt lat="45.7101151" lon="9.4352992"><ele>315.0</ele><time>2026-05-02T12:17:22.887Z</time></trkpt><trkpt lat="45.7100726" lon="9.4352268"><ele>315.0</ele><time>2026-05-02T12:17:23.888Z</time></trkpt><trkpt lat="45.7100271" lon="9.4351623"><ele>315.8</ele><time>2026-05-02T12:17:24.892Z</time></trkpt><trkpt lat="45.7099394" lon="9.4350179"><ele>316.6</ele><time>2026-05-02T12:17:26.886Z</time></trkpt><trkpt lat="45.7098977" lon="9.4349402"><ele>317.4</ele><time>2026-05-02T12:17:27.885Z</time></trkpt><trkpt lat="45.7098402" lon="9.4348684"><ele>318.2</ele><time>2026-05-02T12:17:28.89Z</time></trkpt><trkpt lat="45.7097891" lon="9.4347861"><ele>319.0</ele><time>2026-05-02T12:17:29.888Z</time></trkpt><trkpt lat="45.7097037" lon="9.4346639"><ele>319.16666666666663</ele><time>2026-05-02T12:17:31.887Z</time></trkpt><trkpt lat="45.7096596" lon="9.4345895"><ele>319.3333333333333</ele><time>2026-05-02T12:17:32.887Z</time></trkpt><trkpt lat="45.7095874" lon="9.4344642"><ele>319.5</ele><time>2026-05-02T12:17:34.884Z</time></trkpt><trkpt lat="45.7095338" lon="9.4343863"><ele>319.6666666666667</ele><time>2026-05-02T12:17:35.89Z</time></trkpt><trkpt lat="45.7094845" lon="9.4343281"><ele>319.83333333333337</ele><time>2026-05-02T12:17:36.886Z</time></trkpt><trkpt lat="45.7094369" lon="9.4342492"><ele>320.0</ele><time>2026-05-02T12:17:37.889Z</time></trkpt><trkpt lat="45.7093848" lon="9.4341676"><ele>320.0</ele><time>2026-05-02T12:17:38.891Z</time></trkpt><trkpt lat="45.7093408" lon="9.4340755"><ele>320.0</ele><time>2026-05-02T12:17:39.888Z</time></trkpt><trkpt lat="45.7092999" lon="9.4339714"><ele>320.0</ele><time>2026-05-02T12:17:40.892Z</time></trkpt><trkpt lat="45.709253" lon="9.4338504"><ele>320.0</ele><time>2026-05-02T12:17:41.889Z</time></trkpt><trkpt lat="45.7092204" lon="9.4337183"><ele>320.0</ele><time>2026-05-02T12:17:42.881Z</time></trkpt><trkpt lat="45.7091826" lon="9.4335912"><ele>318.4</ele><time>2026-05-02T12:17:43.888Z</time></trkpt><trkpt lat="45.7091604" lon="9.4334622"><ele>316.8</ele><time>2026-05-02T12:17:44.877Z</time></trkpt><trkpt lat="45.7091312" lon="9.4333221"><ele>315.2</ele><time>2026-05-02T12:17:45.889Z</time></trkpt><trkpt lat="45.7091102" lon="9.4332004"><ele>313.6</ele><time>2026-05-02T12:17:46.891Z</time></trkpt><trkpt lat="45.7090785" lon="9.4330763"><ele>312.0</ele><time>2026-05-02T12:17:47.885Z</time></trkpt><trkpt lat="45.7090488" lon="9.4329604"><ele>311.6666666666667</ele><time>2026-05-02T12:17:48.889Z</time></trkpt><trkpt lat="45.7090209" lon="9.4328552"><ele>311.3333333333333</ele><time>2026-05-02T12:17:49.889Z</time></trkpt><trkpt lat="45.7089963" lon="9.4327418"><ele>311.0</ele><time>2026-05-02T12:17:50.891Z</time></trkpt><trkpt lat="45.7089636" lon="9.4326445"><ele>310.66666666666663</ele><time>2026-05-02T12:17:51.94Z</time></trkpt><trkpt lat="45.7089349" lon="9.4325408"><ele>310.3333333333333</ele><time>2026-05-02T12:17:52.889Z</time></trkpt><trkpt lat="45.7089156" lon="9.4324258"><ele>310.0</ele><time>2026-05-02T12:17:53.886Z</time></trkpt><trkpt lat="45.708887" lon="9.4323244"><ele>310.0</ele><time>2026-05-02T12:17:54.891Z</time></trkpt><trkpt lat="45.7088574" lon="9.4322263"><ele>310.0</ele><time>2026-05-02T12:17:55.891Z</time></trkpt><trkpt lat="45.7088225" lon="9.432122"><ele>310.0</ele><time>2026-05-02T12:17:56.887Z</time></trkpt><trkpt lat="45.7087656" lon="9.4319548"><ele>310.0</ele><time>2026-05-02T12:17:58.89Z</time></trkpt><trkpt lat="45.7087041" lon="9.4318104"><ele>310.0</ele><time>2026-05-02T12:18:00.889Z</time></trkpt><trkpt lat="45.7086317" lon="9.4316924"><ele>311.16666666666663</ele><time>2026-05-02T12:18:02.892Z</time></trkpt><trkpt lat="45.7085643" lon="9.4315772"><ele>312.3333333333333</ele><time>2026-05-02T12:18:04.89Z</time></trkpt><trkpt lat="45.7085091" lon="9.4314888"><ele>313.5</ele><time>2026-05-02T12:18:06.881Z</time></trkpt><trkpt lat="45.7084622" lon="9.4313805"><ele>314.6666666666667</ele><time>2026-05-02T12:18:08.891Z</time></trkpt><trkpt lat="45.708415" lon="9.4313046"><ele>315.83333333333337</ele><time>2026-05-02T12:18:11.894Z</time></trkpt><trkpt lat="45.7083802" lon="9.4312238"><ele>317.0</ele><time>2026-05-02T12:18:13.881Z</time></trkpt><trkpt lat="45.7083415" lon="9.4311185"><ele>317.5</ele><time>2026-05-02T12:18:15.894Z</time></trkpt><trkpt lat="45.7082949" lon="9.4310245"><ele>318.0</ele><time>2026-05-02T12:18:17.884Z</time></trkpt><trkpt lat="45.7082576" lon="9.4309366"><ele>318.5</ele><time>2026-05-02T12:18:19.894Z</time></trkpt><trkpt lat="45.7082205" lon="9.430836"><ele>319.0</ele><time>2026-05-02T12:18:21.888Z</time></trkpt><trkpt lat="45.70818" lon="9.4307388"><ele>319.5</ele><time>2026-05-02T12:18:23.894Z</time></trkpt><trkpt lat="45.7081553" lon="9.4306219"><ele>320.0</ele><time>2026-05-02T12:18:25.887Z</time></trkpt><trkpt lat="45.7081376" lon="9.4305309"><ele>320.0</ele><time>2026-05-02T12:18:26.893Z</time></trkpt><trkpt lat="45.7081065" lon="9.430443"><ele>320.0</ele><time>2026-05-02T12:18:27.892Z</time></trkpt><trkpt lat="45.7080813" lon="9.4303392"><ele>320.0</ele><time>2026-05-02T12:18:28.888Z</time></trkpt><trkpt lat="45.7080546" lon="9.4302523"><ele>320.0</ele><time>2026-05-02T12:18:29.9Z</time></trkpt><trkpt lat="45.7080344" lon="9.430166"><ele>320.0</ele><time>2026-05-02T12:18:30.889Z</time></trkpt><trkpt lat="45.7080038" lon="9.4300847"><ele>320.0</ele><time>2026-05-02T12:18:31.89Z</time></trkpt><trkpt lat="45.7079727" lon="9.429999"><ele>320.0</ele><time>2026-05-02T12:18:32.896Z</time></trkpt><trkpt lat="45.7079412" lon="9.4298977"><ele>320.0</ele><time>2026-05-02T12:18:33.898Z</time></trkpt><trkpt lat="45.7078695" lon="9.4297683"><ele>320.0</ele><time>2026-05-02T12:18:35.894Z</time></trkpt><trkpt lat="45.7078044" lon="9.4296398"><ele>320.0</ele><time>2026-05-02T12:18:37.894Z</time></trkpt><trkpt lat="45.7077518" lon="9.4295371"><ele>320.0</ele><time>2026-05-02T12:18:39.892Z</time></trkpt><trkpt lat="45.7077288" lon="9.4294295"><ele>320.0</ele><time>2026-05-02T12:18:41.886Z</time></trkpt><trkpt lat="45.7077045" lon="9.4293439"><ele>320.1666666666667</ele><time>2026-05-02T12:18:43.94Z</time></trkpt><trkpt lat="45.7077148" lon="9.4292157"><ele>320.33333333333337</ele><time>2026-05-02T12:18:45.892Z</time></trkpt><trkpt lat="45.70773" lon="9.4290985"><ele>320.5</ele><time>2026-05-02T12:18:47.882Z</time></trkpt><trkpt lat="45.7077457" lon="9.4289725"><ele>320.6666666666667</ele><time>2026-05-02T12:18:49.895Z</time></trkpt><trkpt lat="45.707749" lon="9.428841"><ele>320.8333333333333</ele><time>2026-05-02T12:18:51.888Z</time></trkpt><trkpt lat="45.7077755" lon="9.4287403"><ele>321.0</ele><time>2026-05-02T12:18:53.89Z</time></trkpt><trkpt lat="45.7078091" lon="9.4286275"><ele>320.99999999999994</ele><time>2026-05-02T12:18:55.884Z</time></trkpt><trkpt lat="45.7078259" lon="9.4285367"><ele>321.0</ele><time>2026-05-02T12:18:57.888Z</time></trkpt><trkpt lat="45.7078361" lon="9.4284415"><ele>321.0</ele><time>2026-05-02T12:18:59.898Z</time></trkpt><trkpt lat="45.7078379" lon="9.428313"><ele>321.0</ele><time>2026-05-02T12:19:02.878Z</time></trkpt><trkpt lat="45.7077937" lon="9.4282303"><ele>321.0</ele><time>2026-05-02T12:19:04.887Z</time></trkpt><trkpt lat="45.7077313" lon="9.4281839"><ele>320.99999999999994</ele><time>2026-05-02T12:19:06.881Z</time></trkpt><trkpt lat="45.7076653" lon="9.4281532"><ele>321.0</ele><time>2026-05-02T12:19:08.883Z</time></trkpt><trkpt lat="45.707604" lon="9.4281265"><ele>322.0</ele><time>2026-05-02T12:19:10.88Z</time></trkpt><trkpt lat="45.7075409" lon="9.4281103"><ele>323.0</ele><time>2026-05-02T12:19:12.888Z</time></trkpt><trkpt lat="45.7074729" lon="9.428079"><ele>324.0</ele><time>2026-05-02T12:19:14.893Z</time></trkpt><trkpt lat="45.7073949" lon="9.4280381"><ele>325.0</ele><time>2026-05-02T12:19:16.884Z</time></trkpt><trkpt lat="45.7074261" lon="9.4279312"><ele>326.0</ele><time>2026-05-02T12:19:19.896Z</time></trkpt><trkpt lat="45.7074822" lon="9.4278564"><ele>327.0</ele><time>2026-05-02T12:19:21.885Z</time></trkpt><trkpt lat="45.7075439" lon="9.4277735"><ele>327.0</ele><time>2026-05-02T12:19:23.89Z</time></trkpt><trkpt lat="45.7076004" lon="9.4276522"><ele>327.0</ele><time>2026-05-02T12:19:25.881Z</time></trkpt><trkpt lat="45.7076456" lon="9.4274989"><ele>327.0</ele><time>2026-05-02T12:19:27.89Z</time></trkpt><trkpt lat="45.7076404" lon="9.4273931"><ele>327.0</ele><time>2026-05-02T12:19:28.892Z</time></trkpt><trkpt lat="45.707621" lon="9.4272226"><ele>327.0</ele><time>2026-05-02T12:19:30.89Z</time></trkpt><trkpt lat="45.7075768" lon="9.4270841"><ele>326.5</ele><time>2026-05-02T12:19:32.885Z</time></trkpt><trkpt lat="45.70754" lon="9.4269438"><ele>326.0</ele><time>2026-05-02T12:19:34.892Z</time></trkpt><trkpt lat="45.7074884" lon="9.4268291"><ele>325.5</ele><time>2026-05-02T12:19:36.884Z</time></trkpt><trkpt lat="45.7074806" lon="9.4266098"><ele>325.0</ele><time>2026-05-02T12:19:39.941Z</time></trkpt><trkpt lat="45.7074811" lon="9.4264673"><ele>325.0</ele><time>2026-05-02T12:19:41.889Z</time></trkpt><trkpt lat="45.7075432" lon="9.4262932"><ele>325.0</ele><time>2026-05-02T12:19:43.885Z</time></trkpt><trkpt lat="45.7075565" lon="9.4262021"><ele>325.0</ele><time>2026-05-02T12:19:44.887Z</time></trkpt><trkpt lat="45.7075387" lon="9.4260871"><ele>325.0</ele><time>2026-05-02T12:19:46.941Z</time></trkpt><trkpt lat="45.7074982" lon="9.4259836"><ele>325.0</ele><time>2026-05-02T12:19:48.884Z</time></trkpt><trkpt lat="45.707432" lon="9.4258813"><ele>325.0</ele><time>2026-05-02T12:19:50.887Z</time></trkpt><trkpt lat="45.7073617" lon="9.4257721"><ele>325.0</ele><time>2026-05-02T12:19:52.887Z</time></trkpt><trkpt lat="45.7073065" lon="9.4256905"><ele>325.0</ele><time>2026-05-02T12:19:54.878Z</time></trkpt><trkpt lat="45.7072696" lon="9.4255718"><ele>325.0</ele><time>2026-05-02T12:19:56.879Z</time></trkpt><trkpt lat="45.7072393" lon="9.4254513"><ele>325.0</ele><time>2026-05-02T12:19:58.892Z</time></trkpt><trkpt lat="45.7072221" lon="9.4253495"><ele>325.0</ele><time>2026-05-02T12:20:00.891Z</time></trkpt><trkpt lat="45.7071739" lon="9.4252341"><ele>325.0</ele><time>2026-05-02T12:20:02.893Z</time></trkpt><trkpt lat="45.7071172" lon="9.4251324"><ele>325.0</ele><time>2026-05-02T12:20:04.89Z</time></trkpt><trkpt lat="45.7070491" lon="9.4250626"><ele>325.0</ele><time>2026-05-02T12:20:06.887Z</time></trkpt><trkpt lat="45.7069689" lon="9.4250036"><ele>325.0</ele><time>2026-05-02T12:20:09.882Z</time></trkpt><trkpt lat="45.7069281" lon="9.4248879"><ele>325.0</ele><time>2026-05-02T12:20:11.892Z</time></trkpt><trkpt lat="45.7069198" lon="9.4247607"><ele>325.0</ele><time>2026-05-02T12:20:13.888Z</time></trkpt><trkpt lat="45.7069372" lon="9.4246402"><ele>325.5</ele><time>2026-05-02T12:20:15.887Z</time></trkpt><trkpt lat="45.7069573" lon="9.4245263"><ele>326.0</ele><time>2026-05-02T12:20:17.88Z</time></trkpt><trkpt lat="45.7069797" lon="9.4244061"><ele>326.5</ele><time>2026-05-02T12:20:19.889Z</time></trkpt><trkpt lat="45.7070102" lon="9.4242863"><ele>327.0</ele><time>2026-05-02T12:20:21.892Z</time></trkpt><trkpt lat="45.7070477" lon="9.4241569"><ele>327.5</ele><time>2026-05-02T12:20:23.889Z</time></trkpt><trkpt lat="45.70707" lon="9.4240598"><ele>328.0</ele><time>2026-05-02T12:20:25.888Z</time></trkpt><trkpt lat="45.7070915" lon="9.4239509"><ele>327.99999999999994</ele><time>2026-05-02T12:20:27.884Z</time></trkpt><trkpt lat="45.7070925" lon="9.4238427"><ele>328.0</ele><time>2026-05-02T12:20:29.887Z</time></trkpt><trkpt lat="45.7070273" lon="9.4237671"><ele>328.0</ele><time>2026-05-02T12:20:33.889Z</time></trkpt><trkpt lat="45.7069675" lon="9.4237355"><ele>328.0</ele><time>2026-05-02T12:20:35.888Z</time></trkpt><trkpt lat="45.7069112" lon="9.4236815"><ele>328.0</ele><time>2026-05-02T12:20:37.892Z</time></trkpt><trkpt lat="45.7068441" lon="9.423641"><ele>327.99999999999994</ele><time>2026-05-02T12:20:39.889Z</time></trkpt><trkpt lat="45.7067774" lon="9.4235988"><ele>328.0</ele><time>2026-05-02T12:20:41.888Z</time></trkpt><trkpt lat="45.7067166" lon="9.4235579"><ele>330.5</ele><time>2026-05-02T12:20:43.89Z</time></trkpt><trkpt lat="45.7066498" lon="9.423504"><ele>333.0</ele><time>2026-05-02T12:20:45.888Z</time></trkpt><trkpt lat="45.7065936" lon="9.4234585"><ele>335.5</ele><time>2026-05-02T12:20:47.888Z</time></trkpt><trkpt lat="45.7065374" lon="9.4234004"><ele>338.0</ele><time>2026-05-02T12:20:50.886Z</time></trkpt><trkpt lat="45.7064488" lon="9.4233865"><ele>340.5</ele><time>2026-05-02T12:20:57.886Z</time></trkpt><trkpt lat="45.7063633" lon="9.4234058"><ele>343.0</ele><time>2026-05-02T12:20:59.888Z</time></trkpt><trkpt lat="45.7062846" lon="9.4234028"><ele>343.0</ele><time>2026-05-02T12:21:01.89Z</time></trkpt><trkpt lat="45.70619" lon="9.4233768"><ele>343.0</ele><time>2026-05-02T12:21:03.885Z</time></trkpt><trkpt lat="45.7061201" lon="9.4233279"><ele>343.0</ele><time>2026-05-02T12:21:05.882Z</time></trkpt><trkpt lat="45.706069" lon="9.4232643"><ele>343.0</ele><time>2026-05-02T12:21:08.88Z</time></trkpt><trkpt lat="45.706009" lon="9.4232098"><ele>343.0</ele><time>2026-05-02T12:21:11.888Z</time></trkpt><trkpt lat="45.7059779" lon="9.4231273"><ele>343.0</ele><time>2026-05-02T12:21:14.891Z</time></trkpt><trkpt lat="45.7058939" lon="9.4230865"><ele>343.0</ele><time>2026-05-02T12:21:17.88Z</time></trkpt><trkpt lat="45.7058349" lon="9.4230328"><ele>343.0</ele><time>2026-05-02T12:21:20.883Z</time></trkpt><trkpt lat="45.7057456" lon="9.4229925"><ele>343.0</ele><time>2026-05-02T12:21:23.887Z</time></trkpt><trkpt lat="45.7056811" lon="9.423"><ele>343.0</ele><time>2026-05-02T12:21:25.887Z</time></trkpt><trkpt lat="45.7055809" lon="9.42294"><ele>343.0</ele><time>2026-05-02T12:21:30.891Z</time></trkpt><trkpt lat="45.7054755" lon="9.4229138"><ele>343.0</ele><time>2026-05-02T12:21:32.897Z</time></trkpt><trkpt lat="45.7052784" lon="9.4229364"><ele>344.0</ele><time>2026-05-02T12:21:34.896Z</time></trkpt><trkpt lat="45.7052095" lon="9.4229297"><ele>345.0</ele><time>2026-05-02T12:21:35.889Z</time></trkpt><trkpt lat="45.705134" lon="9.4229252"><ele>346.0</ele><time>2026-05-02T12:21:36.888Z</time></trkpt><trkpt lat="45.7050651" lon="9.4229324"><ele>347.0</ele><time>2026-05-02T12:21:37.888Z</time></trkpt><trkpt lat="45.7049547" lon="9.4229158"><ele>348.0</ele><time>2026-05-02T12:21:39.888Z</time></trkpt><trkpt lat="45.7048551" lon="9.4228916"><ele>349.0</ele><time>2026-05-02T12:21:41.886Z</time></trkpt><trkpt lat="45.7047495" lon="9.4228879"><ele>349.0</ele><time>2026-05-02T12:21:43.877Z</time></trkpt><trkpt lat="45.7046837" lon="9.4228859"><ele>349.0</ele><time>2026-05-02T12:21:44.892Z</time></trkpt><trkpt lat="45.7046092" lon="9.4228887"><ele>349.0</ele><time>2026-05-02T12:21:45.886Z</time></trkpt><trkpt lat="45.7045284" lon="9.4228676"><ele>349.0</ele><time>2026-05-02T12:21:47.887Z</time></trkpt><trkpt lat="45.7044242" lon="9.4228757"><ele>349.0</ele><time>2026-05-02T12:21:49.888Z</time></trkpt><trkpt lat="45.7043173" lon="9.4228716"><ele>349.0</ele><time>2026-05-02T12:21:51.889Z</time></trkpt><trkpt lat="45.7042337" lon="9.4228466"><ele>348.2</ele><time>2026-05-02T12:21:53.888Z</time></trkpt><trkpt lat="45.7041559" lon="9.4227862"><ele>347.4</ele><time>2026-05-02T12:21:56.877Z</time></trkpt><trkpt lat="45.7040939" lon="9.4227108"><ele>346.6</ele><time>2026-05-02T12:22:00.887Z</time></trkpt><trkpt lat="45.7040182" lon="9.4226428"><ele>345.8</ele><time>2026-05-02T12:22:02.888Z</time></trkpt><trkpt lat="45.7038719" lon="9.4225514"><ele>345.0</ele><time>2026-05-02T12:22:03.884Z</time></trkpt><trkpt lat="45.7037845" lon="9.4225107"><ele>345.0</ele><time>2026-05-02T12:22:05.883Z</time></trkpt><trkpt lat="45.7036585" lon="9.4224502"><ele>345.0</ele><time>2026-05-02T12:22:07.888Z</time></trkpt><trkpt lat="45.7035855" lon="9.42243"><ele>345.0</ele><time>2026-05-02T12:22:08.887Z</time></trkpt><trkpt lat="45.703509" lon="9.4223796"><ele>345.0</ele><time>2026-05-02T12:22:10.89Z</time></trkpt><trkpt lat="45.7034493" lon="9.4223242"><ele>345.0</ele><time>2026-05-02T12:22:12.879Z</time></trkpt><trkpt lat="45.703373" lon="9.4222538"><ele>343.2</ele><time>2026-05-02T12:22:14.88Z</time></trkpt><trkpt lat="45.7033114" lon="9.4222143"><ele>341.4</ele><time>2026-05-02T12:22:17.885Z</time></trkpt><trkpt lat="45.7032279" lon="9.4221531"><ele>339.6</ele><time>2026-05-02T12:22:20.882Z</time></trkpt><trkpt lat="45.7031354" lon="9.4220805"><ele>337.8</ele><time>2026-05-02T12:22:22.896Z</time></trkpt><trkpt lat="45.7029949" lon="9.4219276"><ele>336.0</ele><time>2026-05-02T12:22:24.887Z</time></trkpt><trkpt lat="45.7029212" lon="9.4218795"><ele>335.4</ele><time>2026-05-02T12:22:25.888Z</time></trkpt><trkpt lat="45.7028602" lon="9.4218344"><ele>334.8</ele><time>2026-05-02T12:22:26.887Z</time></trkpt><trkpt lat="45.7027444" lon="9.4218014"><ele>334.2</ele><time>2026-05-02T12:22:28.888Z</time></trkpt><trkpt lat="45.7026401" lon="9.4217449"><ele>333.59999999999997</ele><time>2026-05-02T12:22:30.888Z</time></trkpt><trkpt lat="45.7025789" lon="9.4217187"><ele>333.0</ele><time>2026-05-02T12:22:31.89Z</time></trkpt><trkpt lat="45.7024781" lon="9.4216657"><ele>331.3333333333333</ele><time>2026-05-02T12:22:33.895Z</time></trkpt><trkpt lat="45.702382" lon="9.4216095"><ele>329.6666666666667</ele><time>2026-05-02T12:22:35.887Z</time></trkpt><trkpt lat="45.7023321" lon="9.4214937"><ele>328.0</ele><time>2026-05-02T12:22:51.883Z</time></trkpt><trkpt lat="45.7023092" lon="9.4214025"><ele>326.33333333333337</ele><time>2026-05-02T12:22:53.879Z</time></trkpt><trkpt lat="45.7022838" lon="9.4213023"><ele>324.6666666666667</ele><time>2026-05-02T12:22:55.887Z</time></trkpt><trkpt lat="45.7022567" lon="9.4212087"><ele>323.0</ele><time>2026-05-02T12:22:58.89Z</time></trkpt><trkpt lat="45.7022189" lon="9.4211206"><ele>322.59999999999997</ele><time>2026-05-02T12:23:57.887Z</time></trkpt><trkpt lat="45.7021863" lon="9.4209837"><ele>322.2</ele><time>2026-05-02T12:24:00.881Z</time></trkpt><trkpt lat="45.7021688" lon="9.4208925"><ele>321.8</ele><time>2026-05-02T12:24:02.891Z</time></trkpt><trkpt lat="45.7021704" lon="9.4207943"><ele>321.4</ele><time>2026-05-02T12:24:04.893Z</time></trkpt><trkpt lat="45.7022083" lon="9.4205891"><ele>321.0</ele><time>2026-05-02T12:24:06.898Z</time></trkpt><trkpt lat="45.7022204" lon="9.420484"><ele>320.2</ele><time>2026-05-02T12:24:07.887Z</time></trkpt><trkpt lat="45.70221" lon="9.4203095"><ele>319.40000000000003</ele><time>2026-05-02T12:24:09.887Z</time></trkpt><trkpt lat="45.7021725" lon="9.4202363"><ele>318.6</ele><time>2026-05-02T12:24:10.888Z</time></trkpt><trkpt lat="45.7021395" lon="9.4201529"><ele>317.8</ele><time>2026-05-02T12:24:11.888Z</time></trkpt><trkpt lat="45.702091" lon="9.4200704"><ele>317.0</ele><time>2026-05-02T12:24:12.891Z</time></trkpt><trkpt lat="45.7020023" lon="9.4199135"><ele>317.0</ele><time>2026-05-02T12:24:14.89Z</time></trkpt><trkpt lat="45.7019462" lon="9.4198136"><ele>317.0</ele><time>2026-05-02T12:24:15.89Z</time></trkpt><trkpt lat="45.7019051" lon="9.4197105"><ele>317.0</ele><time>2026-05-02T12:24:16.886Z</time></trkpt><trkpt lat="45.7018799" lon="9.4196043"><ele>317.0</ele><time>2026-05-02T12:24:17.888Z</time></trkpt><trkpt lat="45.7018455" lon="9.4195009"><ele>317.0</ele><time>2026-05-02T12:24:18.891Z</time></trkpt><trkpt lat="45.7018057" lon="9.4193944"><ele>317.0</ele><time>2026-05-02T12:24:19.889Z</time></trkpt><trkpt lat="45.7017561" lon="9.4193176"><ele>316.33333333333337</ele><time>2026-05-02T12:24:20.888Z</time></trkpt><trkpt lat="45.7017016" lon="9.4192442"><ele>315.6666666666667</ele><time>2026-05-02T12:24:21.887Z</time></trkpt><trkpt lat="45.7016471" lon="9.419162"><ele>315.0</ele><time>2026-05-02T12:24:22.891Z</time></trkpt><trkpt lat="45.70159" lon="9.419063"><ele>314.3333333333333</ele><time>2026-05-02T12:24:23.887Z</time></trkpt><trkpt lat="45.7015261" lon="9.4190128"><ele>313.66666666666663</ele><time>2026-05-02T12:24:24.894Z</time></trkpt><trkpt lat="45.7014554" lon="9.4189456"><ele>313.0</ele><time>2026-05-02T12:24:25.888Z</time></trkpt><trkpt lat="45.7013875" lon="9.4188925"><ele>313.0</ele><time>2026-05-02T12:24:26.886Z</time></trkpt><trkpt lat="45.7013264" lon="9.4188057"><ele>313.0</ele><time>2026-05-02T12:24:27.887Z</time></trkpt><trkpt lat="45.701269" lon="9.4187454"><ele>313.0</ele><time>2026-05-02T12:24:28.888Z</time></trkpt><trkpt lat="45.7011959" lon="9.4186734"><ele>313.0</ele><time>2026-05-02T12:24:29.901Z</time></trkpt><trkpt lat="45.7011157" lon="9.418601"><ele>313.0</ele><time>2026-05-02T12:24:31.887Z</time></trkpt><trkpt lat="45.701074" lon="9.4185162"><ele>313.0</ele><time>2026-05-02T12:24:33.88Z</time></trkpt><trkpt lat="45.7011459" lon="9.4183951"><ele>313.0</ele><time>2026-05-02T12:24:35.888Z</time></trkpt><trkpt lat="45.7012169" lon="9.4182629"><ele>313.0</ele><time>2026-05-02T12:24:37.886Z</time></trkpt><trkpt lat="45.7012674" lon="9.418103"><ele>313.0</ele><time>2026-05-02T12:24:39.912Z</time></trkpt><trkpt lat="45.7013093" lon="9.4179565"><ele>313.0</ele><time>2026-05-02T12:24:41.888Z</time></trkpt><trkpt lat="45.7013464" lon="9.4178223"><ele>312.6</ele><time>2026-05-02T12:24:43.885Z</time></trkpt><trkpt lat="45.701396" lon="9.4177008"><ele>312.20000000000005</ele><time>2026-05-02T12:24:44.892Z</time></trkpt><trkpt lat="45.7014555" lon="9.4176235"><ele>311.8</ele><time>2026-05-02T12:24:45.888Z</time></trkpt><trkpt lat="45.7014979" lon="9.417539"><ele>311.40000000000003</ele><time>2026-05-02T12:24:46.94Z</time></trkpt><trkpt lat="45.7015365" lon="9.4174644"><ele>311.0</ele><time>2026-05-02T12:24:47.889Z</time></trkpt><trkpt lat="45.7016266" lon="9.4172865"><ele>311.0</ele><time>2026-05-02T12:24:49.889Z</time></trkpt><trkpt lat="45.701662" lon="9.4171935"><ele>311.0</ele><time>2026-05-02T12:24:50.887Z</time></trkpt><trkpt lat="45.7016934" lon="9.4171051"><ele>311.0</ele><time>2026-05-02T12:24:51.885Z</time></trkpt><trkpt lat="45.7017418" lon="9.417017"><ele>311.0</ele><time>2026-05-02T12:24:52.888Z</time></trkpt><trkpt lat="45.7017712" lon="9.416926"><ele>311.0</ele><time>2026-05-02T12:24:53.88Z</time></trkpt><trkpt lat="45.7018098" lon="9.4168149"><ele>311.0</ele><time>2026-05-02T12:24:54.887Z</time></trkpt><trkpt lat="45.7018581" lon="9.4165888"><ele>310.6</ele><time>2026-05-02T12:24:56.94Z</time></trkpt><trkpt lat="45.7018713" lon="9.4164972"><ele>310.20000000000005</ele><time>2026-05-02T12:24:57.886Z</time></trkpt><trkpt lat="45.7018915" lon="9.4163779"><ele>309.79999999999995</ele><time>2026-05-02T12:24:58.887Z</time></trkpt><trkpt lat="45.7019238" lon="9.4161555"><ele>309.4</ele><time>2026-05-02T12:25:00.882Z</time></trkpt><trkpt lat="45.7019484" lon="9.4160457"><ele>309.0</ele><time>2026-05-02T12:25:01.888Z</time></trkpt><trkpt lat="45.7019752" lon="9.4159294"><ele>308.6666666666667</ele><time>2026-05-02T12:25:02.888Z</time></trkpt><trkpt lat="45.7020059" lon="9.4158251"><ele>308.3333333333333</ele><time>2026-05-02T12:25:03.94Z</time></trkpt><trkpt lat="45.7020363" lon="9.4157314"><ele>308.0</ele><time>2026-05-02T12:25:04.941Z</time></trkpt><trkpt lat="45.702067" lon="9.4156389"><ele>307.66666666666663</ele><time>2026-05-02T12:25:05.881Z</time></trkpt><trkpt lat="45.7020945" lon="9.4155418"><ele>307.3333333333333</ele><time>2026-05-02T12:25:06.941Z</time></trkpt><trkpt lat="45.7021223" lon="9.4154456"><ele>307.0</ele><time>2026-05-02T12:25:07.94Z</time></trkpt><trkpt lat="45.7021528" lon="9.4153313"><ele>306.8333333333333</ele><time>2026-05-02T12:25:08.925Z</time></trkpt><trkpt lat="45.7021836" lon="9.4152456"><ele>306.66666666666663</ele><time>2026-05-02T12:25:09.887Z</time></trkpt><trkpt lat="45.702234" lon="9.4151455"><ele>306.5</ele><time>2026-05-02T12:25:11.901Z</time></trkpt><trkpt lat="45.7023201" lon="9.4150564"><ele>306.3333333333333</ele><time>2026-05-02T12:25:13.883Z</time></trkpt><trkpt lat="45.7023857" lon="9.4149959"><ele>306.1666666666667</ele><time>2026-05-02T12:25:14.893Z</time></trkpt><trkpt lat="45.7024292" lon="9.4149048"><ele>306.0</ele><time>2026-05-02T12:25:15.884Z</time></trkpt><trkpt lat="45.7024825" lon="9.4148193"><ele>306.0</ele><time>2026-05-02T12:25:16.883Z</time></trkpt><trkpt lat="45.7025216" lon="9.4147391"><ele>306.0</ele><time>2026-05-02T12:25:17.891Z</time></trkpt><trkpt lat="45.7026069" lon="9.4145934"><ele>306.0</ele><time>2026-05-02T12:25:19.891Z</time></trkpt><trkpt lat="45.7026547" lon="9.414501"><ele>306.0</ele><time>2026-05-02T12:25:20.889Z</time></trkpt><trkpt lat="45.7026952" lon="9.4144283"><ele>306.0</ele><time>2026-05-02T12:25:21.884Z</time></trkpt><trkpt lat="45.7027317" lon="9.4143511"><ele>306.0</ele><time>2026-05-02T12:25:22.884Z</time></trkpt><trkpt lat="45.7027767" lon="9.4142614"><ele>305.0</ele><time>2026-05-02T12:25:23.886Z</time></trkpt><trkpt lat="45.7028221" lon="9.4141802"><ele>304.0</ele><time>2026-05-02T12:25:24.877Z</time></trkpt><trkpt lat="45.702888" lon="9.4140896"><ele>303.0</ele><time>2026-05-02T12:25:25.941Z</time></trkpt><trkpt lat="45.7029554" lon="9.4139917"><ele>302.0</ele><time>2026-05-02T12:25:26.877Z</time></trkpt><trkpt lat="45.7030107" lon="9.4139267"><ele>301.0</ele><time>2026-05-02T12:25:27.888Z</time></trkpt><trkpt lat="45.7030774" lon="9.4138515"><ele>300.0</ele><time>2026-05-02T12:25:28.892Z</time></trkpt><trkpt lat="45.7031447" lon="9.4137901"><ele>299.8333333333333</ele><time>2026-05-02T12:25:29.889Z</time></trkpt><trkpt lat="45.7032089" lon="9.4137343"><ele>299.6666666666667</ele><time>2026-05-02T12:25:30.888Z</time></trkpt><trkpt lat="45.7032808" lon="9.4136709"><ele>299.5</ele><time>2026-05-02T12:25:31.883Z</time></trkpt><trkpt lat="45.7033669" lon="9.4136254"><ele>299.33333333333337</ele><time>2026-05-02T12:25:32.887Z</time></trkpt><trkpt lat="45.7034531" lon="9.4136008"><ele>299.1666666666667</ele><time>2026-05-02T12:25:33.889Z</time></trkpt><trkpt lat="45.7035195" lon="9.4135659"><ele>299.0</ele><time>2026-05-02T12:25:34.884Z</time></trkpt><trkpt lat="45.7035829" lon="9.4135487"><ele>299.0</ele><time>2026-05-02T12:25:35.887Z</time></trkpt><trkpt lat="45.7036501" lon="9.4135174"><ele>299.0</ele><time>2026-05-02T12:25:36.884Z</time></trkpt><trkpt lat="45.7037114" lon="9.4134822"><ele>299.0</ele><time>2026-05-02T12:25:37.887Z</time></trkpt><trkpt lat="45.7037838" lon="9.4134434"><ele>299.0</ele><time>2026-05-02T12:25:38.885Z</time></trkpt><trkpt lat="45.7039052" lon="9.413373"><ele>299.0</ele><time>2026-05-02T12:25:40.881Z</time></trkpt><trkpt lat="45.703974" lon="9.4133453"><ele>299.0</ele><time>2026-05-02T12:25:41.886Z</time></trkpt><trkpt lat="45.7040469" lon="9.413314"><ele>299.0</ele><time>2026-05-02T12:25:42.884Z</time></trkpt><trkpt lat="45.7041311" lon="9.4132944"><ele>299.0</ele><time>2026-05-02T12:25:43.886Z</time></trkpt><trkpt lat="45.7041934" lon="9.4132673"><ele>299.0</ele><time>2026-05-02T12:25:44.888Z</time></trkpt><trkpt lat="45.7042652" lon="9.4132395"><ele>299.0</ele><time>2026-05-02T12:25:45.886Z</time></trkpt><trkpt lat="45.7043359" lon="9.4132097"><ele>299.0</ele><time>2026-05-02T12:25:46.888Z</time></trkpt><trkpt lat="45.7043991" lon="9.4131839"><ele>299.0</ele><time>2026-05-02T12:25:47.888Z</time></trkpt><trkpt lat="45.7044648" lon="9.4131298"><ele>299.0</ele><time>2026-05-02T12:25:48.883Z</time></trkpt><trkpt lat="45.7045263" lon="9.4130856"><ele>299.0</ele><time>2026-05-02T12:25:49.889Z</time></trkpt><trkpt lat="45.7046038" lon="9.4130188"><ele>299.0</ele><time>2026-05-02T12:25:50.889Z</time></trkpt><trkpt lat="45.7046821" lon="9.4129703"><ele>299.0</ele><time>2026-05-02T12:25:51.888Z</time></trkpt><trkpt lat="45.7047328" lon="9.4128862"><ele>299.0</ele><time>2026-05-02T12:25:52.885Z</time></trkpt><trkpt lat="45.704781" lon="9.4128034"><ele>299.0</ele><time>2026-05-02T12:25:53.892Z</time></trkpt><trkpt lat="45.7048187" lon="9.4126749"><ele>299.0</ele><time>2026-05-02T12:25:54.887Z</time></trkpt><trkpt lat="45.704868" lon="9.4125672"><ele>299.0</ele><time>2026-05-02T12:25:55.941Z</time></trkpt><trkpt lat="45.7048976" lon="9.4124675"><ele>299.0</ele><time>2026-05-02T12:25:56.94Z</time></trkpt><trkpt lat="45.7049279" lon="9.4123777"><ele>299.0</ele><time>2026-05-02T12:25:57.884Z</time></trkpt><trkpt lat="45.7049708" lon="9.4123017"><ele>299.0</ele><time>2026-05-02T12:25:58.888Z</time></trkpt><trkpt lat="45.7050226" lon="9.412232"><ele>299.0</ele><time>2026-05-02T12:25:59.883Z</time></trkpt><trkpt lat="45.7050844" lon="9.412182"><ele>299.0</ele><time>2026-05-02T12:26:00.941Z</time></trkpt><trkpt lat="45.7051565" lon="9.4121496"><ele>299.0</ele><time>2026-05-02T12:26:01.887Z</time></trkpt><trkpt lat="45.7052179" lon="9.4121173"><ele>299.0</ele><time>2026-05-02T12:26:02.888Z</time></trkpt><trkpt lat="45.7053263" lon="9.4120549"><ele>299.0</ele><time>2026-05-02T12:26:04.922Z</time></trkpt><trkpt lat="45.705401" lon="9.4120247"><ele>299.0</ele><time>2026-05-02T12:26:05.94Z</time></trkpt><trkpt lat="45.7055195" lon="9.4119613"><ele>299.0</ele><time>2026-05-02T12:26:07.941Z</time></trkpt><trkpt lat="45.7055897" lon="9.4119307"><ele>299.0</ele><time>2026-05-02T12:26:08.94Z</time></trkpt><trkpt lat="45.705666" lon="9.4118917"><ele>299.0</ele><time>2026-05-02T12:26:09.941Z</time></trkpt><trkpt lat="45.7057398" lon="9.4118571"><ele>299.0</ele><time>2026-05-02T12:26:10.94Z</time></trkpt><trkpt lat="45.7058123" lon="9.4118176"><ele>299.0</ele><time>2026-05-02T12:26:11.884Z</time></trkpt><trkpt lat="45.7059546" lon="9.41173"><ele>299.0</ele><time>2026-05-02T12:26:13.88Z</time></trkpt><trkpt lat="45.7060247" lon="9.4116864"><ele>299.0</ele><time>2026-05-02T12:26:14.888Z</time></trkpt><trkpt lat="45.7060769" lon="9.4116253"><ele>299.0</ele><time>2026-05-02T12:26:15.887Z</time></trkpt><trkpt lat="45.7060893" lon="9.4114888"><ele>299.0</ele><time>2026-05-02T12:26:17.885Z</time></trkpt><trkpt lat="45.7060726" lon="9.4113199"><ele>299.0</ele><time>2026-05-02T12:26:19.885Z</time></trkpt><trkpt lat="45.7060781" lon="9.4111863"><ele>299.0</ele><time>2026-05-02T12:26:21.887Z</time></trkpt><trkpt lat="45.706072" lon="9.4110758"><ele>299.0</ele><time>2026-05-02T12:26:22.887Z</time></trkpt><trkpt lat="45.7061074" lon="9.4109353"><ele>299.0</ele><time>2026-05-02T12:26:23.889Z</time></trkpt><trkpt lat="45.7061238" lon="9.4108332"><ele>299.0</ele><time>2026-05-02T12:26:24.888Z</time></trkpt><trkpt lat="45.7061403" lon="9.4107328"><ele>299.0</ele><time>2026-05-02T12:26:25.89Z</time></trkpt><trkpt lat="45.7061574" lon="9.4106396"><ele>299.0</ele><time>2026-05-02T12:26:26.889Z</time></trkpt><trkpt lat="45.7061861" lon="9.4105538"><ele>299.0</ele><time>2026-05-02T12:26:27.888Z</time></trkpt><trkpt lat="45.7062238" lon="9.4104749"><ele>299.0</ele><time>2026-05-02T12:26:28.889Z</time></trkpt><trkpt lat="45.7062999" lon="9.4103792"><ele>299.0</ele><time>2026-05-02T12:26:30.884Z</time></trkpt><trkpt lat="45.7063752" lon="9.4102736"><ele>299.0</ele><time>2026-05-02T12:26:32.888Z</time></trkpt><trkpt lat="45.7064519" lon="9.4102118"><ele>299.0</ele><time>2026-05-02T12:26:34.879Z</time></trkpt><trkpt lat="45.7064948" lon="9.4101198"><ele>299.0</ele><time>2026-05-02T12:26:37.89Z</time></trkpt><trkpt lat="45.7064717" lon="9.4099982"><ele>299.0</ele><time>2026-05-02T12:26:40.887Z</time></trkpt><trkpt lat="45.7064075" lon="9.4099065"><ele>299.0</ele><time>2026-05-02T12:26:42.886Z</time></trkpt><trkpt lat="45.7063494" lon="9.4097775"><ele>299.0</ele><time>2026-05-02T12:26:44.882Z</time></trkpt><trkpt lat="45.7063358" lon="9.4096712"><ele>299.0</ele><time>2026-05-02T12:26:45.89Z</time></trkpt><trkpt lat="45.706317" lon="9.4094868"><ele>299.0</ele><time>2026-05-02T12:26:47.887Z</time></trkpt><trkpt lat="45.7062948" lon="9.4092964"><ele>299.0</ele><time>2026-05-02T12:26:49.89Z</time></trkpt><trkpt lat="45.7062791" lon="9.4091886"><ele>299.0</ele><time>2026-05-02T12:26:50.883Z</time></trkpt><trkpt lat="45.7062672" lon="9.4090813"><ele>298.6666666666667</ele><time>2026-05-02T12:26:51.886Z</time></trkpt><trkpt lat="45.7062584" lon="9.4089721"><ele>298.33333333333337</ele><time>2026-05-02T12:26:52.885Z</time></trkpt><trkpt lat="45.7062503" lon="9.4088698"><ele>298.0</ele><time>2026-05-02T12:26:53.885Z</time></trkpt><trkpt lat="45.7062503" lon="9.4087439"><ele>297.6666666666667</ele><time>2026-05-02T12:26:54.885Z</time></trkpt><trkpt lat="45.70625" lon="9.4086303"><ele>297.3333333333333</ele><time>2026-05-02T12:26:55.89Z</time></trkpt><trkpt lat="45.7062489" lon="9.4085224"><ele>297.0</ele><time>2026-05-02T12:26:56.887Z</time></trkpt><trkpt lat="45.7062582" lon="9.4083511"><ele>297.0</ele><time>2026-05-02T12:26:58.887Z</time></trkpt><trkpt lat="45.7062545" lon="9.4082064"><ele>297.0</ele><time>2026-05-02T12:27:00.885Z</time></trkpt><trkpt lat="45.7062596" lon="9.4080431"><ele>297.0</ele><time>2026-05-02T12:27:02.888Z</time></trkpt><trkpt lat="45.7062647" lon="9.4079088"><ele>297.0</ele><time>2026-05-02T12:27:04.882Z</time></trkpt><trkpt lat="45.7062589" lon="9.4077993"><ele>297.0</ele><time>2026-05-02T12:27:06.883Z</time></trkpt><trkpt lat="45.7062535" lon="9.4077041"><ele>297.6666666666667</ele><time>2026-05-02T12:27:08.887Z</time></trkpt><trkpt lat="45.7062548" lon="9.4075993"><ele>298.3333333333333</ele><time>2026-05-02T12:27:10.879Z</time></trkpt><trkpt lat="45.7062371" lon="9.4074718"><ele>299.0</ele><time>2026-05-02T12:27:13.89Z</time></trkpt><trkpt lat="45.7062319" lon="9.4073581"><ele>299.66666666666663</ele><time>2026-05-02T12:27:15.895Z</time></trkpt><trkpt lat="45.7062334" lon="9.4072357"><ele>300.3333333333333</ele><time>2026-05-02T12:27:17.895Z</time></trkpt><trkpt lat="45.7062371" lon="9.4071064"><ele>301.0</ele><time>2026-05-02T12:27:19.893Z</time></trkpt><trkpt lat="45.7062538" lon="9.4069821"><ele>301.40000000000003</ele><time>2026-05-02T12:27:21.892Z</time></trkpt><trkpt lat="45.7062861" lon="9.4068684"><ele>301.8</ele><time>2026-05-02T12:27:23.89Z</time></trkpt><trkpt lat="45.7063401" lon="9.4070132"><ele>302.20000000000005</ele><time>2026-05-02T12:27:25.903Z</time></trkpt><trkpt lat="45.7063704" lon="9.4069096"><ele>302.6</ele><time>2026-05-02T12:27:27.887Z</time></trkpt><trkpt lat="45.7063852" lon="9.4067974"><ele>303.0</ele><time>2026-05-02T12:27:28.888Z</time></trkpt><trkpt lat="45.7064162" lon="9.4064952"><ele>303.0</ele><time>2026-05-02T12:27:30.884Z</time></trkpt><trkpt lat="45.7064612" lon="9.4063903"><ele>303.0</ele><time>2026-05-02T12:27:32.893Z</time></trkpt><trkpt lat="45.7064995" lon="9.4062836"><ele>303.0</ele><time>2026-05-02T12:27:34.893Z</time></trkpt><trkpt lat="45.7065347" lon="9.4061937"><ele>303.0</ele><time>2026-05-02T12:27:36.892Z</time></trkpt><trkpt lat="45.7065738" lon="9.4060969"><ele>303.0</ele><time>2026-05-02T12:27:38.883Z</time></trkpt><trkpt lat="45.706621" lon="9.4059809"><ele>303.0</ele><time>2026-05-02T12:27:40.89Z</time></trkpt><trkpt lat="45.7066788" lon="9.4058519"><ele>303.2</ele><time>2026-05-02T12:27:42.887Z</time></trkpt><trkpt lat="45.7067236" lon="9.4057507"><ele>303.4</ele><time>2026-05-02T12:27:44.888Z</time></trkpt><trkpt lat="45.7067733" lon="9.4056368"><ele>303.59999999999997</ele><time>2026-05-02T12:27:46.885Z</time></trkpt><trkpt lat="45.7068275" lon="9.4055063"><ele>303.8</ele><time>2026-05-02T12:27:48.893Z</time></trkpt><trkpt lat="45.7068772" lon="9.4053715"><ele>304.0</ele><time>2026-05-02T12:27:50.884Z</time></trkpt><trkpt lat="45.706915" lon="9.4052476"><ele>304.59999999999997</ele><time>2026-05-02T12:27:52.888Z</time></trkpt><trkpt lat="45.7069723" lon="9.4051134"><ele>305.2</ele><time>2026-05-02T12:27:54.885Z</time></trkpt><trkpt lat="45.7070319" lon="9.4049866"><ele>305.79999999999995</ele><time>2026-05-02T12:27:56.887Z</time></trkpt><trkpt lat="45.7070982" lon="9.4048693"><ele>306.4</ele><time>2026-05-02T12:27:58.885Z</time></trkpt><trkpt lat="45.7071749" lon="9.4047636"><ele>307.0</ele><time>2026-05-02T12:28:00.892Z</time></trkpt><trkpt lat="45.7072568" lon="9.4046539"><ele>307.0</ele><time>2026-05-02T12:28:02.888Z</time></trkpt><trkpt lat="45.7073392" lon="9.4045544"><ele>307.0</ele><time>2026-05-02T12:28:04.888Z</time></trkpt><trkpt lat="45.7074198" lon="9.4044644"><ele>307.0</ele><time>2026-05-02T12:28:06.888Z</time></trkpt><trkpt lat="45.7075047" lon="9.4043761"><ele>307.0</ele><time>2026-05-02T12:28:08.885Z</time></trkpt><trkpt lat="45.7075862" lon="9.404282"><ele>307.0</ele><time>2026-05-02T12:28:10.886Z</time></trkpt><trkpt lat="45.7076802" lon="9.4041771"><ele>306.8</ele><time>2026-05-02T12:28:12.886Z</time></trkpt><trkpt lat="45.7077781" lon="9.4040822"><ele>306.6</ele><time>2026-05-02T12:28:14.884Z</time></trkpt><trkpt lat="45.7078773" lon="9.4039843"><ele>306.40000000000003</ele><time>2026-05-02T12:28:16.885Z</time></trkpt><trkpt lat="45.7079407" lon="9.4039324"><ele>306.2</ele><time>2026-05-02T12:28:17.885Z</time></trkpt><trkpt lat="45.7080292" lon="9.4038592"><ele>306.0</ele><time>2026-05-02T12:28:19.886Z</time></trkpt><trkpt lat="45.7081223" lon="9.4037701"><ele>306.0</ele><time>2026-05-02T12:28:21.89Z</time></trkpt><trkpt lat="45.7081753" lon="9.4037068"><ele>306.0</ele><time>2026-05-02T12:28:22.884Z</time></trkpt><trkpt lat="45.7082184" lon="9.40364"><ele>306.0</ele><time>2026-05-02T12:28:23.886Z</time></trkpt><trkpt lat="45.7082836" lon="9.4035698"><ele>306.0</ele><time>2026-05-02T12:28:24.883Z</time></trkpt><trkpt lat="45.7083366" lon="9.4035031"><ele>306.0</ele><time>2026-05-02T12:28:25.887Z</time></trkpt><trkpt lat="45.7084377" lon="9.403361"><ele>306.0</ele><time>2026-05-02T12:28:27.885Z</time></trkpt><trkpt lat="45.7084899" lon="9.4032741"><ele>306.0</ele><time>2026-05-02T12:28:28.886Z</time></trkpt><trkpt lat="45.7085247" lon="9.4031795"><ele>306.0</ele><time>2026-05-02T12:28:29.89Z</time></trkpt><trkpt lat="45.7085675" lon="9.4030721"><ele>306.0</ele><time>2026-05-02T12:28:30.886Z</time></trkpt><trkpt lat="45.7085951" lon="9.4029705"><ele>306.0</ele><time>2026-05-02T12:28:31.886Z</time></trkpt><trkpt lat="45.708615" lon="9.4028622"><ele>306.0</ele><time>2026-05-02T12:28:32.886Z</time></trkpt><trkpt lat="45.7086472" lon="9.4027206"><ele>306.0</ele><time>2026-05-02T12:28:33.884Z</time></trkpt><trkpt lat="45.7086743" lon="9.4026063"><ele>305.1666666666667</ele><time>2026-05-02T12:28:34.887Z</time></trkpt><trkpt lat="45.7087001" lon="9.4024823"><ele>304.3333333333333</ele><time>2026-05-02T12:28:35.887Z</time></trkpt><trkpt lat="45.7087229" lon="9.4023452"><ele>303.5</ele><time>2026-05-02T12:28:36.886Z</time></trkpt><trkpt lat="45.7087391" lon="9.40223"><ele>302.66666666666663</ele><time>2026-05-02T12:28:37.886Z</time></trkpt><trkpt lat="45.708776" lon="9.4021126"><ele>301.8333333333333</ele><time>2026-05-02T12:28:38.884Z</time></trkpt><trkpt lat="45.7088002" lon="9.4019969"><ele>301.0</ele><time>2026-05-02T12:28:39.881Z</time></trkpt><trkpt lat="45.7088306" lon="9.4019023"><ele>299.8333333333333</ele><time>2026-05-02T12:28:40.882Z</time></trkpt><trkpt lat="45.7088512" lon="9.4018083"><ele>298.66666666666663</ele><time>2026-05-02T12:28:41.887Z</time></trkpt><trkpt lat="45.7088825" lon="9.4016981"><ele>297.5</ele><time>2026-05-02T12:28:42.888Z</time></trkpt><trkpt lat="45.708922" lon="9.4015571"><ele>296.3333333333333</ele><time>2026-05-02T12:28:44.887Z</time></trkpt><trkpt lat="45.7089546" lon="9.4014587"><ele>295.1666666666667</ele><time>2026-05-02T12:28:46.885Z</time></trkpt><trkpt lat="45.7090128" lon="9.4013605"><ele>294.0</ele><time>2026-05-02T12:28:48.88Z</time></trkpt><trkpt lat="45.7091008" lon="9.401238"><ele>292.8333333333333</ele><time>2026-05-02T12:28:50.887Z</time></trkpt><trkpt lat="45.7091638" lon="9.401189"><ele>291.6666666666667</ele><time>2026-05-02T12:28:51.886Z</time></trkpt><trkpt lat="45.7092156" lon="9.4011302"><ele>290.5</ele><time>2026-05-02T12:28:52.886Z</time></trkpt><trkpt lat="45.7092814" lon="9.401073"><ele>289.33333333333337</ele><time>2026-05-02T12:28:53.891Z</time></trkpt><trkpt lat="45.7093558" lon="9.4010037"><ele>288.1666666666667</ele><time>2026-05-02T12:28:54.882Z</time></trkpt><trkpt lat="45.7094177" lon="9.4009586"><ele>287.0</ele><time>2026-05-02T12:28:55.885Z</time></trkpt><trkpt lat="45.709501" lon="9.4009097"><ele>287.0</ele><time>2026-05-02T12:28:56.885Z</time></trkpt><trkpt lat="45.7095852" lon="9.4008362"><ele>287.0</ele><time>2026-05-02T12:28:57.887Z</time></trkpt><trkpt lat="45.7096539" lon="9.4007601"><ele>287.0</ele><time>2026-05-02T12:28:58.89Z</time></trkpt><trkpt lat="45.7097194" lon="9.4006577"><ele>287.0</ele><time>2026-05-02T12:28:59.882Z</time></trkpt><trkpt lat="45.7097721" lon="9.4005563"><ele>287.0</ele><time>2026-05-02T12:29:00.886Z</time></trkpt><trkpt lat="45.7098315" lon="9.4004535"><ele>286.4</ele><time>2026-05-02T12:29:01.886Z</time></trkpt><trkpt lat="45.709898" lon="9.4003611"><ele>285.79999999999995</ele><time>2026-05-02T12:29:02.886Z</time></trkpt><trkpt lat="45.7099696" lon="9.400263"><ele>285.2</ele><time>2026-05-02T12:29:03.885Z</time></trkpt><trkpt lat="45.7100333" lon="9.4001676"><ele>284.59999999999997</ele><time>2026-05-02T12:29:04.884Z</time></trkpt><trkpt lat="45.710095" lon="9.4000765"><ele>284.0</ele><time>2026-05-02T12:29:05.886Z</time></trkpt><trkpt lat="45.710156" lon="9.3999927"><ele>284.0</ele><time>2026-05-02T12:29:06.885Z</time></trkpt><trkpt lat="45.7102142" lon="9.3999038"><ele>284.0</ele><time>2026-05-02T12:29:07.88Z</time></trkpt><trkpt lat="45.7102714" lon="9.3998223"><ele>284.0</ele><time>2026-05-02T12:29:08.885Z</time></trkpt><trkpt lat="45.7103215" lon="9.399741"><ele>284.0</ele><time>2026-05-02T12:29:09.888Z</time></trkpt><trkpt lat="45.7103792" lon="9.3996546"><ele>284.0</ele><time>2026-05-02T12:29:10.889Z</time></trkpt><trkpt lat="45.7104222" lon="9.3995719"><ele>284.0</ele><time>2026-05-02T12:29:11.892Z</time></trkpt><trkpt lat="45.7104605" lon="9.3994993"><ele>284.2</ele><time>2026-05-02T12:29:12.887Z</time></trkpt><trkpt lat="45.7104984" lon="9.3994062"><ele>284.4</ele><time>2026-05-02T12:29:13.888Z</time></trkpt><trkpt lat="45.7105678" lon="9.3992448"><ele>284.6</ele><time>2026-05-02T12:29:15.886Z</time></trkpt><trkpt lat="45.7105841" lon="9.3990912"><ele>284.8</ele><time>2026-05-02T12:29:17.888Z</time></trkpt><trkpt lat="45.7105672" lon="9.3989316"><ele>285.0</ele><time>2026-05-02T12:29:19.887Z</time></trkpt><trkpt lat="45.710488" lon="9.3987873"><ele>285.0</ele><time>2026-05-02T12:29:21.888Z</time></trkpt><trkpt lat="45.7104419" lon="9.3986966"><ele>285.0</ele><time>2026-05-02T12:29:22.889Z</time></trkpt><trkpt lat="45.7103916" lon="9.3986267"><ele>285.0</ele><time>2026-05-02T12:29:23.888Z</time></trkpt><trkpt lat="45.7103477" lon="9.3985321"><ele>285.0</ele><time>2026-05-02T12:29:24.887Z</time></trkpt><trkpt lat="45.7103312" lon="9.3984347"><ele>285.0</ele><time>2026-05-02T12:29:25.887Z</time></trkpt><trkpt lat="45.7103544" lon="9.398333"><ele>285.0</ele><time>2026-05-02T12:29:26.89Z</time></trkpt><trkpt lat="45.7103803" lon="9.3982323"><ele>285.0</ele><time>2026-05-02T12:29:27.886Z</time></trkpt><trkpt lat="45.7103991" lon="9.3981109"><ele>283.6</ele><time>2026-05-02T12:29:28.888Z</time></trkpt><trkpt lat="45.7104181" lon="9.3979689"><ele>282.2</ele><time>2026-05-02T12:29:29.889Z</time></trkpt><trkpt lat="45.7104265" lon="9.3978361"><ele>280.8</ele><time>2026-05-02T12:29:30.885Z</time></trkpt><trkpt lat="45.7104303" lon="9.3976908"><ele>279.4</ele><time>2026-05-02T12:29:31.889Z</time></trkpt><trkpt lat="45.7104223" lon="9.3975534"><ele>278.0</ele><time>2026-05-02T12:29:32.888Z</time></trkpt><trkpt lat="45.7104205" lon="9.3974283"><ele>278.0</ele><time>2026-05-02T12:29:33.888Z</time></trkpt><trkpt lat="45.710444" lon="9.3972934"><ele>278.0</ele><time>2026-05-02T12:29:34.888Z</time></trkpt><trkpt lat="45.7104632" lon="9.3971558"><ele>278.0</ele><time>2026-05-02T12:29:35.882Z</time></trkpt><trkpt lat="45.71048" lon="9.3970246"><ele>278.0</ele><time>2026-05-02T12:29:36.885Z</time></trkpt><trkpt lat="45.7104916" lon="9.396922"><ele>278.0</ele><time>2026-05-02T12:29:37.872Z</time></trkpt><trkpt lat="45.7104955" lon="9.3968263"><ele>278.0</ele><time>2026-05-02T12:29:38.884Z</time></trkpt><trkpt lat="45.7104948" lon="9.3967293"><ele>277.0</ele><time>2026-05-02T12:29:39.882Z</time></trkpt><trkpt lat="45.7104614" lon="9.3965549"><ele>276.0</ele><time>2026-05-02T12:29:41.885Z</time></trkpt><trkpt lat="45.710434" lon="9.3964598"><ele>275.0</ele><time>2026-05-02T12:29:42.893Z</time></trkpt><trkpt lat="45.7103805" lon="9.3963126"><ele>274.0</ele><time>2026-05-02T12:29:44.89Z</time></trkpt><trkpt lat="45.7103443" lon="9.396217"><ele>273.0</ele><time>2026-05-02T12:29:45.888Z</time></trkpt><trkpt lat="45.7102883" lon="9.3960649"><ele>272.6</ele><time>2026-05-02T12:29:47.889Z</time></trkpt><trkpt lat="45.71027" lon="9.3959775"><ele>272.20000000000005</ele><time>2026-05-02T12:29:48.886Z</time></trkpt><trkpt lat="45.7102508" lon="9.395872"><ele>271.8</ele><time>2026-05-02T12:29:49.889Z</time></trkpt><trkpt lat="45.7102182" lon="9.395698"><ele>271.40000000000003</ele><time>2026-05-02T12:29:51.884Z</time></trkpt><trkpt lat="45.7101909" lon="9.395538"><ele>271.0</ele><time>2026-05-02T12:29:53.886Z</time></trkpt><trkpt lat="45.710158" lon="9.3953915"><ele>272.8</ele><time>2026-05-02T12:29:55.882Z</time></trkpt><trkpt lat="45.7101189" lon="9.395245"><ele>274.6</ele><time>2026-05-02T12:29:57.887Z</time></trkpt><trkpt lat="45.710081" lon="9.3951384"><ele>276.4</ele><time>2026-05-02T12:29:59.888Z</time></trkpt><trkpt lat="45.7100329" lon="9.3949861"><ele>278.2</ele><time>2026-05-02T12:30:01.889Z</time></trkpt><trkpt lat="45.70999" lon="9.3948765"><ele>280.0</ele><time>2026-05-02T12:30:03.889Z</time></trkpt><trkpt lat="45.7099687" lon="9.3947479"><ele>280.0</ele><time>2026-05-02T12:30:05.886Z</time></trkpt><trkpt lat="45.7099417" lon="9.3946091"><ele>280.0</ele><time>2026-05-02T12:30:07.879Z</time></trkpt><trkpt lat="45.7099202" lon="9.3944836"><ele>280.0</ele><time>2026-05-02T12:30:09.878Z</time></trkpt><trkpt lat="45.7098966" lon="9.394389"><ele>280.0</ele><time>2026-05-02T12:30:11.886Z</time></trkpt><trkpt lat="45.7098743" lon="9.3942899"><ele>280.0</ele><time>2026-05-02T12:30:13.888Z</time></trkpt><trkpt lat="45.7098628" lon="9.3941587"><ele>280.0</ele><time>2026-05-02T12:30:15.888Z</time></trkpt><trkpt lat="45.7098321" lon="9.3940388"><ele>280.0</ele><time>2026-05-02T12:30:17.883Z</time></trkpt><trkpt lat="45.709799" lon="9.393906"><ele>280.0</ele><time>2026-05-02T12:30:19.878Z</time></trkpt><trkpt lat="45.7097699" lon="9.393778"><ele>280.0</ele><time>2026-05-02T12:30:21.884Z</time></trkpt><trkpt lat="45.7097396" lon="9.3936533"><ele>280.0</ele><time>2026-05-02T12:30:23.88Z</time></trkpt><trkpt lat="45.7097094" lon="9.393528"><ele>280.0</ele><time>2026-05-02T12:30:25.888Z</time></trkpt><trkpt lat="45.7096882" lon="9.3933902"><ele>280.16666666666663</ele><time>2026-05-02T12:30:27.884Z</time></trkpt><trkpt lat="45.7096744" lon="9.3932621"><ele>280.3333333333333</ele><time>2026-05-02T12:30:29.878Z</time></trkpt><trkpt lat="45.7096764" lon="9.3931303"><ele>280.5</ele><time>2026-05-02T12:30:31.888Z</time></trkpt><trkpt lat="45.7096852" lon="9.3930115"><ele>280.6666666666667</ele><time>2026-05-02T12:30:33.891Z</time></trkpt><trkpt lat="45.7097077" lon="9.3929014"><ele>280.83333333333337</ele><time>2026-05-02T12:30:35.885Z</time></trkpt><trkpt lat="45.7097241" lon="9.3928068"><ele>281.0</ele><time>2026-05-02T12:30:37.887Z</time></trkpt><trkpt lat="45.7097396" lon="9.392708"><ele>281.83333333333337</ele><time>2026-05-02T12:30:39.879Z</time></trkpt><trkpt lat="45.7097607" lon="9.392596"><ele>282.6666666666667</ele><time>2026-05-02T12:30:42.886Z</time></trkpt><trkpt lat="45.7097858" lon="9.3924985"><ele>283.5</ele><time>2026-05-02T12:30:44.887Z</time></trkpt><trkpt lat="45.7098068" lon="9.3924117"><ele>284.3333333333333</ele><time>2026-05-02T12:30:46.892Z</time></trkpt><trkpt lat="45.709835" lon="9.3923056"><ele>285.16666666666663</ele><time>2026-05-02T12:30:49.886Z</time></trkpt><trkpt lat="45.7098587" lon="9.392214"><ele>286.0</ele><time>2026-05-02T12:30:52.881Z</time></trkpt><trkpt lat="45.7099046" lon="9.3921042"><ele>288.16666666666663</ele><time>2026-05-02T12:30:55.886Z</time></trkpt><trkpt lat="45.7099285" lon="9.3920104"><ele>290.3333333333333</ele><time>2026-05-02T12:30:58.894Z</time></trkpt><trkpt lat="45.7099546" lon="9.3918969"><ele>292.5</ele><time>2026-05-02T12:31:01.889Z</time></trkpt><trkpt lat="45.7099876" lon="9.391813"><ele>294.6666666666667</ele><time>2026-05-02T12:31:04.88Z</time></trkpt><trkpt lat="45.7100234" lon="9.3916794"><ele>296.83333333333337</ele><time>2026-05-02T12:31:09.883Z</time></trkpt><trkpt lat="45.7100869" lon="9.3915929"><ele>299.0</ele><time>2026-05-02T12:31:11.879Z</time></trkpt><trkpt lat="45.7101446" lon="9.3915164"><ele>299.0</ele><time>2026-05-02T12:31:13.883Z</time></trkpt><trkpt lat="45.7101802" lon="9.3914011"><ele>299.0</ele><time>2026-05-02T12:31:16.885Z</time></trkpt><trkpt lat="45.7102247" lon="9.3913237"><ele>299.0</ele><time>2026-05-02T12:31:18.88Z</time></trkpt><trkpt lat="45.7102594" lon="9.3912137"><ele>299.0</ele><time>2026-05-02T12:31:21.883Z</time></trkpt><trkpt lat="45.7103054" lon="9.3910978"><ele>299.0</ele><time>2026-05-02T12:31:24.887Z</time></trkpt><trkpt lat="45.7103582" lon="9.3910033"><ele>299.0</ele><time>2026-05-02T12:31:27.883Z</time></trkpt><trkpt lat="45.7103944" lon="9.3909189"><ele>299.85714285714283</ele><time>2026-05-02T12:31:29.884Z</time></trkpt><trkpt lat="45.7104312" lon="9.3908248"><ele>300.7142857142857</ele><time>2026-05-02T12:31:32.882Z</time></trkpt><trkpt lat="45.7104581" lon="9.3907411"><ele>301.57142857142856</ele><time>2026-05-02T12:31:34.892Z</time></trkpt><trkpt lat="45.7105016" lon="9.3906532"><ele>302.42857142857144</ele><time>2026-05-02T12:31:36.891Z</time></trkpt><trkpt lat="45.7105387" lon="9.3905609"><ele>303.2857142857143</ele><time>2026-05-02T12:31:38.887Z</time></trkpt><trkpt lat="45.7105529" lon="9.3904628"><ele>304.14285714285717</ele><time>2026-05-02T12:31:41.885Z</time></trkpt><trkpt lat="45.7105609" lon="9.3903546"><ele>305.0</ele><time>2026-05-02T12:31:44.886Z</time></trkpt><trkpt lat="45.710594" lon="9.3902454"><ele>305.6666666666667</ele><time>2026-05-02T12:31:47.888Z</time></trkpt><trkpt lat="45.7106229" lon="9.3901349"><ele>306.33333333333337</ele><time>2026-05-02T12:31:50.886Z</time></trkpt><trkpt lat="45.7106719" lon="9.3900224"><ele>307.0</ele><time>2026-05-02T12:31:53.885Z</time></trkpt><trkpt lat="45.7107084" lon="9.3899251"><ele>307.6666666666667</ele><time>2026-05-02T12:31:55.891Z</time></trkpt><trkpt lat="45.710739" lon="9.3898108"><ele>308.3333333333333</ele><time>2026-05-02T12:31:58.881Z</time></trkpt><trkpt lat="45.7107849" lon="9.3896956"><ele>309.0</ele><time>2026-05-02T12:31:59.883Z</time></trkpt><trkpt lat="45.7108235" lon="9.3895826"><ele>309.0</ele><time>2026-05-02T12:32:01.881Z</time></trkpt><trkpt lat="45.7108873" lon="9.3894565"><ele>309.0</ele><time>2026-05-02T12:32:03.885Z</time></trkpt><trkpt lat="45.7109207" lon="9.3893433"><ele>309.0</ele><time>2026-05-02T12:32:05.888Z</time></trkpt><trkpt lat="45.7109485" lon="9.389208"><ele>309.0</ele><time>2026-05-02T12:32:07.887Z</time></trkpt><trkpt lat="45.7109837" lon="9.3891087"><ele>309.0</ele><time>2026-05-02T12:32:08.883Z</time></trkpt><trkpt lat="45.7110001" lon="9.3889526"><ele>308.5</ele><time>2026-05-02T12:32:10.886Z</time></trkpt><trkpt lat="45.7109814" lon="9.3888247"><ele>308.0</ele><time>2026-05-02T12:32:12.89Z</time></trkpt><trkpt lat="45.7109376" lon="9.38872"><ele>307.5</ele><time>2026-05-02T12:32:13.889Z</time></trkpt><trkpt lat="45.7109004" lon="9.3886217"><ele>307.0</ele><time>2026-05-02T12:32:14.885Z</time></trkpt><trkpt lat="45.7108574" lon="9.3885154"><ele>306.5</ele><time>2026-05-02T12:32:15.888Z</time></trkpt><trkpt lat="45.7108168" lon="9.388439"><ele>306.0</ele><time>2026-05-02T12:32:16.889Z</time></trkpt><trkpt lat="45.7107866" lon="9.3883542"><ele>306.0</ele><time>2026-05-02T12:32:17.883Z</time></trkpt><trkpt lat="45.7107337" lon="9.3882927"><ele>306.0</ele><time>2026-05-02T12:32:18.886Z</time></trkpt><trkpt lat="45.7106903" lon="9.3881986"><ele>306.0</ele><time>2026-05-02T12:32:19.885Z</time></trkpt><trkpt lat="45.71064" lon="9.3881026"><ele>306.0</ele><time>2026-05-02T12:32:20.886Z</time></trkpt><trkpt lat="45.7105918" lon="9.3880053"><ele>306.0</ele><time>2026-05-02T12:32:21.887Z</time></trkpt><trkpt lat="45.7105683" lon="9.3878517"><ele>306.0</ele><time>2026-05-02T12:32:22.881Z</time></trkpt><trkpt lat="45.7105494" lon="9.3877573"><ele>304.6</ele><time>2026-05-02T12:32:23.891Z</time></trkpt><trkpt lat="45.7105425" lon="9.3875472"><ele>303.20000000000005</ele><time>2026-05-02T12:32:25.886Z</time></trkpt><trkpt lat="45.7105568" lon="9.3874185"><ele>301.79999999999995</ele><time>2026-05-02T12:32:26.891Z</time></trkpt><trkpt lat="45.7105645" lon="9.3873134"><ele>300.4</ele><time>2026-05-02T12:32:27.89Z</time></trkpt><trkpt lat="45.7105711" lon="9.3871956"><ele>299.0</ele><time>2026-05-02T12:32:28.89Z</time></trkpt><trkpt lat="45.7105666" lon="9.3870854"><ele>298.2</ele><time>2026-05-02T12:32:29.883Z</time></trkpt><trkpt lat="45.7105661" lon="9.3869742"><ele>297.4</ele><time>2026-05-02T12:32:30.888Z</time></trkpt><trkpt lat="45.7105714" lon="9.3868701"><ele>296.6</ele><time>2026-05-02T12:32:31.885Z</time></trkpt><trkpt lat="45.7105563" lon="9.3867435"><ele>295.8</ele><time>2026-05-02T12:32:32.882Z</time></trkpt><trkpt lat="45.7105614" lon="9.3865737"><ele>295.0</ele><time>2026-05-02T12:32:33.889Z</time></trkpt><trkpt lat="45.7105418" lon="9.3864153"><ele>296.0</ele><time>2026-05-02T12:32:34.884Z</time></trkpt><trkpt lat="45.7104984" lon="9.3862823"><ele>297.0</ele><time>2026-05-02T12:32:36.886Z</time></trkpt><trkpt lat="45.7104477" lon="9.3862248"><ele>298.0</ele><time>2026-05-02T12:32:37.894Z</time></trkpt><trkpt lat="45.7103728" lon="9.3861098"><ele>299.0</ele><time>2026-05-02T12:32:39.885Z</time></trkpt><trkpt lat="45.7103154" lon="9.3860205"><ele>300.0</ele><time>2026-05-02T12:32:41.888Z</time></trkpt><trkpt lat="45.7102559" lon="9.3859222"><ele>299.71428571428567</ele><time>2026-05-02T12:32:43.889Z</time></trkpt><trkpt lat="45.71022" lon="9.385845"><ele>299.42857142857144</ele><time>2026-05-02T12:32:45.885Z</time></trkpt><trkpt lat="45.7101926" lon="9.385739"><ele>299.1428571428571</ele><time>2026-05-02T12:32:47.876Z</time></trkpt><trkpt lat="45.7101822" lon="9.3856394"><ele>298.85714285714283</ele><time>2026-05-02T12:32:49.879Z</time></trkpt><trkpt lat="45.7101839" lon="9.385545"><ele>298.57142857142856</ele><time>2026-05-02T12:32:51.894Z</time></trkpt><trkpt lat="45.7101851" lon="9.3854528"><ele>298.2857142857143</ele><time>2026-05-02T12:32:53.888Z</time></trkpt><trkpt lat="45.7102114" lon="9.3853521"><ele>298.0</ele><time>2026-05-02T12:32:55.888Z</time></trkpt><trkpt lat="45.7102498" lon="9.385264"><ele>298.8</ele><time>2026-05-02T12:32:57.885Z</time></trkpt><trkpt lat="45.7103078" lon="9.3851683"><ele>299.6</ele><time>2026-05-02T12:32:59.892Z</time></trkpt><trkpt lat="45.7103624" lon="9.3850832"><ele>300.4</ele><time>2026-05-02T12:33:01.892Z</time></trkpt><trkpt lat="45.7103987" lon="9.3850093"><ele>301.2</ele><time>2026-05-02T12:33:02.889Z</time></trkpt><trkpt lat="45.7104641" lon="9.3848707"><ele>302.0</ele><time>2026-05-02T12:33:04.882Z</time></trkpt><trkpt lat="45.7105254" lon="9.384734"><ele>302.0</ele><time>2026-05-02T12:33:06.887Z</time></trkpt><trkpt lat="45.7105848" lon="9.3845997"><ele>302.0</ele><time>2026-05-02T12:33:08.89Z</time></trkpt><trkpt lat="45.7106522" lon="9.3844631"><ele>302.0</ele><time>2026-05-02T12:33:10.883Z</time></trkpt><trkpt lat="45.7107115" lon="9.3843273"><ele>302.0</ele><time>2026-05-02T12:33:12.883Z</time></trkpt><trkpt lat="45.7107636" lon="9.3841877"><ele>302.0</ele><time>2026-05-02T12:33:14.893Z</time></trkpt><trkpt lat="45.7108157" lon="9.3840541"><ele>302.0</ele><time>2026-05-02T12:33:16.89Z</time></trkpt><trkpt lat="45.7108659" lon="9.3839514"><ele>302.0</ele><time>2026-05-02T12:33:18.889Z</time></trkpt><trkpt lat="45.7109212" lon="9.383863"><ele>302.0</ele><time>2026-05-02T12:33:20.891Z</time></trkpt><trkpt lat="45.7109829" lon="9.3837736"><ele>302.0</ele><time>2026-05-02T12:33:23.892Z</time></trkpt><trkpt lat="45.7110366" lon="9.3836948"><ele>302.0</ele><time>2026-05-02T12:33:25.882Z</time></trkpt><trkpt lat="45.7110959" lon="9.3835726"><ele>301.4</ele><time>2026-05-02T12:33:27.887Z</time></trkpt><trkpt lat="45.7111837" lon="9.3834363"><ele>300.79999999999995</ele><time>2026-05-02T12:33:29.887Z</time></trkpt><trkpt lat="45.7112233" lon="9.3833211"><ele>300.2</ele><time>2026-05-02T12:33:31.887Z</time></trkpt><trkpt lat="45.7112681" lon="9.3832031"><ele>299.59999999999997</ele><time>2026-05-02T12:33:33.893Z</time></trkpt><trkpt lat="45.7113024" lon="9.3830779"><ele>299.0</ele><time>2026-05-02T12:33:35.88Z</time></trkpt><trkpt lat="45.7113807" lon="9.3829472"><ele>299.0</ele><time>2026-05-02T12:33:37.889Z</time></trkpt><trkpt lat="45.7114183" lon="9.3828598"><ele>299.0</ele><time>2026-05-02T12:33:38.888Z</time></trkpt><trkpt lat="45.7114438" lon="9.3827458"><ele>299.0</ele><time>2026-05-02T12:33:39.878Z</time></trkpt><trkpt lat="45.7114968" lon="9.3826526"><ele>299.0</ele><time>2026-05-02T12:33:40.891Z</time></trkpt><trkpt lat="45.7115335" lon="9.3825468"><ele>299.0</ele><time>2026-05-02T12:33:41.887Z</time></trkpt><trkpt lat="45.7115817" lon="9.3824562"><ele>299.0</ele><time>2026-05-02T12:33:43.886Z</time></trkpt><trkpt lat="45.7116292" lon="9.3823921"><ele>299.0</ele><time>2026-05-02T12:33:44.884Z</time></trkpt><trkpt lat="45.7116896" lon="9.3822482"><ele>299.0</ele><time>2026-05-02T12:33:46.893Z</time></trkpt><trkpt lat="45.7117263" lon="9.3821554"><ele>299.0</ele><time>2026-05-02T12:33:47.894Z</time></trkpt><trkpt lat="45.7117917" lon="9.3820105"><ele>299.0</ele><time>2026-05-02T12:33:49.886Z</time></trkpt><trkpt lat="45.7118349" lon="9.3819271"><ele>299.0</ele><time>2026-05-02T12:33:50.888Z</time></trkpt><trkpt lat="45.7118763" lon="9.3818399"><ele>298.8</ele><time>2026-05-02T12:33:51.886Z</time></trkpt><trkpt lat="45.7119258" lon="9.3817257"><ele>298.59999999999997</ele><time>2026-05-02T12:33:53.881Z</time></trkpt><trkpt lat="45.7119966" lon="9.3815964"><ele>298.4</ele><time>2026-05-02T12:33:55.879Z</time></trkpt><trkpt lat="45.712057" lon="9.3815369"><ele>298.2</ele><time>2026-05-02T12:33:56.881Z</time></trkpt><trkpt lat="45.7121528" lon="9.3814646"><ele>298.0</ele><time>2026-05-02T12:33:58.879Z</time></trkpt><trkpt lat="45.712226" lon="9.3814119"><ele>298.0</ele><time>2026-05-02T12:34:00.881Z</time></trkpt><trkpt lat="45.7123262" lon="9.3813876"><ele>298.0</ele><time>2026-05-02T12:34:01.878Z</time></trkpt><trkpt lat="45.712418" lon="9.3813673"><ele>298.0</ele><time>2026-05-02T12:34:02.877Z</time></trkpt><trkpt lat="45.7124862" lon="9.381304"><ele>298.0</ele><time>2026-05-02T12:34:03.879Z</time></trkpt><trkpt lat="45.7125676" lon="9.3812474"><ele>298.0</ele><time>2026-05-02T12:34:04.885Z</time></trkpt><trkpt lat="45.7126512" lon="9.3812125"><ele>297.5</ele><time>2026-05-02T12:34:05.881Z</time></trkpt><trkpt lat="45.7127208" lon="9.3812017"><ele>297.0</ele><time>2026-05-02T12:34:06.88Z</time></trkpt><trkpt lat="45.7128596" lon="9.3811168"><ele>296.5</ele><time>2026-05-02T12:34:08.886Z</time></trkpt><trkpt lat="45.7129282" lon="9.3811032"><ele>296.0</ele><time>2026-05-02T12:34:09.888Z</time></trkpt><trkpt lat="45.713001" lon="9.3810824"><ele>295.5</ele><time>2026-05-02T12:34:10.887Z</time></trkpt><trkpt lat="45.7130748" lon="9.3810428"><ele>295.0</ele><time>2026-05-02T12:34:11.886Z</time></trkpt><trkpt lat="45.7131666" lon="9.381013"><ele>295.0</ele><time>2026-05-02T12:34:13.886Z</time></trkpt><trkpt lat="45.7132296" lon="9.3809919"><ele>295.0</ele><time>2026-05-02T12:34:14.885Z</time></trkpt><trkpt lat="45.7133097" lon="9.380923"><ele>295.0</ele><time>2026-05-02T12:34:16.885Z</time></trkpt><trkpt lat="45.7133275" lon="9.3808357"><ele>295.0</ele><time>2026-05-02T12:34:19.881Z</time></trkpt><trkpt lat="45.7132475" lon="9.3807927"><ele>295.0</ele><time>2026-05-02T12:34:21.89Z</time></trkpt><trkpt lat="45.713168" lon="9.3807636"><ele>295.0</ele><time>2026-05-02T12:34:23.89Z</time></trkpt><trkpt lat="45.7130964" lon="9.3807206"><ele>295.0</ele><time>2026-05-02T12:34:25.893Z</time></trkpt><trkpt lat="45.7130437" lon="9.3806222"><ele>295.0</ele><time>2026-05-02T12:34:27.885Z</time></trkpt><trkpt lat="45.7129597" lon="9.3805381"><ele>295.0</ele><time>2026-05-02T12:34:29.891Z</time></trkpt><trkpt lat="45.7129014" lon="9.3804597"><ele>295.0</ele><time>2026-05-02T12:34:31.886Z</time></trkpt><trkpt lat="45.7128074" lon="9.3803762"><ele>295.0</ele><time>2026-05-02T12:34:33.889Z</time></trkpt><trkpt lat="45.7127471" lon="9.38033"><ele>295.0</ele><time>2026-05-02T12:34:34.889Z</time></trkpt><trkpt lat="45.712676" lon="9.3802968"><ele>295.16666666666663</ele><time>2026-05-02T12:34:36.887Z</time></trkpt><trkpt lat="45.7125997" lon="9.3802252"><ele>295.3333333333333</ele><time>2026-05-02T12:34:39.886Z</time></trkpt><trkpt lat="45.7125309" lon="9.3801678"><ele>295.5</ele><time>2026-05-02T12:34:41.89Z</time></trkpt><trkpt lat="45.7124411" lon="9.3801498"><ele>295.6666666666667</ele><time>2026-05-02T12:34:44.878Z</time></trkpt><trkpt lat="45.7123611" lon="9.3801169"><ele>295.83333333333337</ele><time>2026-05-02T12:34:47.887Z</time></trkpt><trkpt lat="45.712296" lon="9.3800981"><ele>296.0</ele><time>2026-05-02T12:34:49.887Z</time></trkpt><trkpt lat="45.7122228" lon="9.3800869"><ele>296.0</ele><time>2026-05-02T12:34:51.884Z</time></trkpt><trkpt lat="45.7121581" lon="9.3800903"><ele>296.0</ele><time>2026-05-02T12:34:53.884Z</time></trkpt><trkpt lat="45.7120928" lon="9.3800844"><ele>296.0</ele><time>2026-05-02T12:34:57.89Z</time></trkpt><trkpt lat="45.7120034" lon="9.3800779"><ele>296.0</ele><time>2026-05-02T12:35:00.89Z</time></trkpt><trkpt lat="45.711934" lon="9.3800777"><ele>296.0</ele><time>2026-05-02T12:35:03.886Z</time></trkpt><trkpt lat="45.7118729" lon="9.380052"><ele>296.0</ele><time>2026-05-02T12:35:06.878Z</time></trkpt><trkpt lat="45.7117996" lon="9.380057"><ele>296.0</ele><time>2026-05-02T12:35:08.881Z</time></trkpt><trkpt lat="45.7117363" lon="9.3800606"><ele>296.7142857142857</ele><time>2026-05-02T12:35:10.888Z</time></trkpt><trkpt lat="45.7116687" lon="9.3800297"><ele>297.42857142857144</ele><time>2026-05-02T12:35:13.887Z</time></trkpt><trkpt lat="45.7116117" lon="9.3799815"><ele>298.1428571428571</ele><time>2026-05-02T12:35:17.885Z</time></trkpt><trkpt lat="45.7115304" lon="9.37994"><ele>298.8571428571429</ele><time>2026-05-02T12:35:20.877Z</time></trkpt><trkpt lat="45.7114694" lon="9.3798923"><ele>299.57142857142856</ele><time>2026-05-02T12:35:22.884Z</time></trkpt><trkpt lat="45.7114045" lon="9.3798146"><ele>300.2857142857143</ele><time>2026-05-02T12:35:25.89Z</time></trkpt><trkpt lat="45.7113584" lon="9.3797469"><ele>301.0</ele><time>2026-05-02T12:35:27.887Z</time></trkpt><trkpt lat="45.7113126" lon="9.3796816"><ele>301.5</ele><time>2026-05-02T12:35:29.886Z</time></trkpt><trkpt lat="45.7112596" lon="9.3795853"><ele>302.0</ele><time>2026-05-02T12:35:32.885Z</time></trkpt><trkpt lat="45.7112167" lon="9.3794802"><ele>302.5</ele><time>2026-05-02T12:35:36.882Z</time></trkpt><trkpt lat="45.7111838" lon="9.3793996"><ele>303.0</ele><time>2026-05-02T12:35:38.876Z</time></trkpt><trkpt lat="45.7111308" lon="9.3793062"><ele>303.5</ele><time>2026-05-02T12:35:41.886Z</time></trkpt><trkpt lat="45.7110856" lon="9.3792097"><ele>304.0</ele><time>2026-05-02T12:35:44.888Z</time></trkpt><trkpt lat="45.7110533" lon="9.3790927"><ele>304.16666666666663</ele><time>2026-05-02T12:35:47.88Z</time></trkpt><trkpt lat="45.7110292" lon="9.3789772"><ele>304.3333333333333</ele><time>2026-05-02T12:35:50.874Z</time></trkpt><trkpt lat="45.7110131" lon="9.3788466"><ele>304.5</ele><time>2026-05-02T12:35:53.885Z</time></trkpt><trkpt lat="45.7110037" lon="9.3787534"><ele>304.6666666666667</ele><time>2026-05-02T12:35:55.885Z</time></trkpt><trkpt lat="45.7109886" lon="9.3786253"><ele>304.83333333333337</ele><time>2026-05-02T12:35:58.88Z</time></trkpt><trkpt lat="45.710973" lon="9.378495"><ele>305.0</ele><time>2026-05-02T12:36:01.883Z</time></trkpt><trkpt lat="45.7109662" lon="9.3783604"><ele>305.0</ele><time>2026-05-02T12:36:04.878Z</time></trkpt><trkpt lat="45.7109624" lon="9.3782686"><ele>305.0</ele><time>2026-05-02T12:36:06.886Z</time></trkpt><trkpt lat="45.7109511" lon="9.3781508"><ele>305.0</ele><time>2026-05-02T12:36:09.885Z</time></trkpt><trkpt lat="45.7109378" lon="9.378024"><ele>305.0</ele><time>2026-05-02T12:36:12.887Z</time></trkpt><trkpt lat="45.7109271" lon="9.3779204"><ele>305.0</ele><time>2026-05-02T12:36:15.888Z</time></trkpt><trkpt lat="45.7109231" lon="9.377804"><ele>305.0</ele><time>2026-05-02T12:36:18.876Z</time></trkpt><trkpt lat="45.7109115" lon="9.3776921"><ele>306.5</ele><time>2026-05-02T12:36:21.889Z</time></trkpt><trkpt lat="45.7109004" lon="9.3775901"><ele>308.0</ele><time>2026-05-02T12:36:24.883Z</time></trkpt><trkpt lat="45.710897" lon="9.3774638"><ele>309.5</ele><time>2026-05-02T12:36:27.887Z</time></trkpt><trkpt lat="45.7108893" lon="9.3773506"><ele>311.0</ele><time>2026-05-02T12:36:30.888Z</time></trkpt><trkpt lat="45.71088" lon="9.3772516"><ele>312.5</ele><time>2026-05-02T12:36:33.884Z</time></trkpt><trkpt lat="45.7108682" lon="9.3771482"><ele>314.0</ele><time>2026-05-02T12:36:36.878Z</time></trkpt><trkpt lat="45.7108536" lon="9.3770222"><ele>316.33333333333337</ele><time>2026-05-02T12:36:39.887Z</time></trkpt><trkpt lat="45.7108129" lon="9.3769483"><ele>318.6666666666667</ele><time>2026-05-02T12:36:42.88Z</time></trkpt><trkpt lat="45.7107622" lon="9.376857"><ele>321.0</ele><time>2026-05-02T12:36:45.887Z</time></trkpt><trkpt lat="45.7106903" lon="9.3767881"><ele>323.3333333333333</ele><time>2026-05-02T12:36:49.889Z</time></trkpt><trkpt lat="45.7106064" lon="9.3768086"><ele>325.66666666666663</ele><time>2026-05-02T12:36:52.885Z</time></trkpt><trkpt lat="45.7105282" lon="9.3768889"><ele>328.0</ele><time>2026-05-02T12:36:54.88Z</time></trkpt><trkpt lat="45.7104727" lon="9.3770325"><ele>328.0</ele><time>2026-05-02T12:36:56.886Z</time></trkpt><trkpt lat="45.7104067" lon="9.3771359"><ele>328.0</ele><time>2026-05-02T12:36:58.886Z</time></trkpt><trkpt lat="45.7103255" lon="9.37723"><ele>328.0</ele><time>2026-05-02T12:37:00.888Z</time></trkpt><trkpt lat="45.7102626" lon="9.3773438"><ele>328.0</ele><time>2026-05-02T12:37:02.887Z</time></trkpt><trkpt lat="45.7101817" lon="9.3774122"><ele>328.0</ele><time>2026-05-02T12:37:04.889Z</time></trkpt><trkpt lat="45.7100968" lon="9.377489"><ele>327.5</ele><time>2026-05-02T12:37:06.892Z</time></trkpt><trkpt lat="45.7100384" lon="9.377529"><ele>327.0</ele><time>2026-05-02T12:37:08.878Z</time></trkpt><trkpt lat="45.7099583" lon="9.3775374"><ele>326.5</ele><time>2026-05-02T12:37:10.877Z</time></trkpt><trkpt lat="45.7098747" lon="9.37751"><ele>326.0</ele><time>2026-05-02T12:37:12.876Z</time></trkpt><trkpt lat="45.7098007" lon="9.3774705"><ele>325.5</ele><time>2026-05-02T12:37:14.874Z</time></trkpt><trkpt lat="45.7097065" lon="9.3774249"><ele>325.0</ele><time>2026-05-02T12:37:16.875Z</time></trkpt><trkpt lat="45.7096183" lon="9.3773785"><ele>325.0</ele><time>2026-05-02T12:37:19.874Z</time></trkpt><trkpt lat="45.7095501" lon="9.3773885"><ele>325.0</ele><time>2026-05-02T12:37:21.873Z</time></trkpt><trkpt lat="45.7095314" lon="9.3772927"><ele>325.0</ele><time>2026-05-02T12:37:26.876Z</time></trkpt><trkpt lat="45.7095146" lon="9.3774134"><ele>325.0</ele><time>2026-05-02T12:37:30.882Z</time></trkpt><trkpt lat="45.7095119" lon="9.377519"><ele>325.0</ele><time>2026-05-02T12:37:33.884Z</time></trkpt><trkpt lat="45.7094838" lon="9.3776256"><ele>325.0</ele><time>2026-05-02T12:37:35.881Z</time></trkpt><trkpt lat="45.7094577" lon="9.3777375"><ele>327.16666666666663</ele><time>2026-05-02T12:37:38.875Z</time></trkpt><trkpt lat="45.7093842" lon="9.377813"><ele>329.3333333333333</ele><time>2026-05-02T12:37:40.888Z</time></trkpt><trkpt lat="45.7093083" lon="9.3778682"><ele>331.5</ele><time>2026-05-02T12:37:42.888Z</time></trkpt><trkpt lat="45.7092768" lon="9.3779662"><ele>333.6666666666667</ele><time>2026-05-02T12:37:45.88Z</time></trkpt><trkpt lat="45.7092995" lon="9.3780559"><ele>335.83333333333337</ele><time>2026-05-02T12:37:49.886Z</time></trkpt><trkpt lat="45.7093358" lon="9.3781358"><ele>338.0</ele><time>2026-05-02T12:37:52.883Z</time></trkpt><trkpt lat="45.7093308" lon="9.3782573"><ele>338.83333333333337</ele><time>2026-05-02T12:37:55.881Z</time></trkpt><trkpt lat="45.7093082" lon="9.3783518"><ele>339.6666666666667</ele><time>2026-05-02T12:37:58.878Z</time></trkpt><trkpt lat="45.7092907" lon="9.3784431"><ele>340.5</ele><time>2026-05-02T12:38:01.886Z</time></trkpt><trkpt lat="45.709278" lon="9.3785528"><ele>341.3333333333333</ele><time>2026-05-02T12:38:05.883Z</time></trkpt><trkpt lat="45.7092647" lon="9.3786604"><ele>342.16666666666663</ele><time>2026-05-02T12:38:08.876Z</time></trkpt><trkpt lat="45.7092412" lon="9.3787733"><ele>343.0</ele><time>2026-05-02T12:38:12.884Z</time></trkpt><trkpt lat="45.7092171" lon="9.3788796"><ele>344.2857142857143</ele><time>2026-05-02T12:38:15.894Z</time></trkpt><trkpt lat="45.7092467" lon="9.3789688"><ele>345.57142857142856</ele><time>2026-05-02T12:38:19.892Z</time></trkpt><trkpt lat="45.7092867" lon="9.3790539"><ele>346.8571428571429</ele><time>2026-05-02T12:38:23.891Z</time></trkpt><trkpt lat="45.7093325" lon="9.3791445"><ele>348.1428571428571</ele><time>2026-05-02T12:38:26.884Z</time></trkpt><trkpt lat="45.709362" lon="9.3792704"><ele>349.42857142857144</ele><time>2026-05-02T12:38:29.889Z</time></trkpt><trkpt lat="45.7093768" lon="9.37936"><ele>350.7142857142857</ele><time>2026-05-02T12:38:32.883Z</time></trkpt><trkpt lat="45.7093995" lon="9.3794577"><ele>352.0</ele><time>2026-05-02T12:38:35.893Z</time></trkpt><trkpt lat="45.7093511" lon="9.3793836"><ele>352.0</ele><time>2026-05-02T12:38:36.892Z</time></trkpt><trkpt lat="45.7093667" lon="9.3794748"><ele>352.0</ele><time>2026-05-02T12:38:39.79Z</time></trkpt><trkpt lat="45.7094437" lon="9.3796965"><ele>352.0</ele><time>2026-05-02T12:38:41.883Z</time></trkpt><trkpt lat="45.7094466" lon="9.3798095"><ele>352.0</ele><time>2026-05-02T12:38:43.885Z</time></trkpt><trkpt lat="45.7094328" lon="9.3799179"><ele>352.0</ele><time>2026-05-02T12:38:45.885Z</time></trkpt><trkpt lat="45.7093924" lon="9.380024"><ele>351.66666666666663</ele><time>2026-05-02T12:38:47.885Z</time></trkpt><trkpt lat="45.7093616" lon="9.380123"><ele>351.3333333333333</ele><time>2026-05-02T12:38:49.891Z</time></trkpt><trkpt lat="45.7093056" lon="9.3801926"><ele>351.0</ele><time>2026-05-02T12:38:51.894Z</time></trkpt><trkpt lat="45.7092392" lon="9.3802502"><ele>350.6666666666667</ele><time>2026-05-02T12:38:53.887Z</time></trkpt><trkpt lat="45.7091815" lon="9.3803204"><ele>350.33333333333337</ele><time>2026-05-02T12:38:55.889Z</time></trkpt><trkpt lat="45.7090963" lon="9.3803987"><ele>350.0</ele><time>2026-05-02T12:38:57.895Z</time></trkpt><trkpt lat="45.7090057" lon="9.3804759"><ele>346.2</ele><time>2026-05-02T12:38:59.896Z</time></trkpt><trkpt lat="45.7089436" lon="9.3806259"><ele>342.4</ele><time>2026-05-02T12:39:02.885Z</time></trkpt><trkpt lat="45.7089045" lon="9.3806984"><ele>338.6</ele><time>2026-05-02T12:39:03.888Z</time></trkpt><trkpt lat="45.7088375" lon="9.3808436"><ele>334.8</ele><time>2026-05-02T12:39:05.884Z</time></trkpt><trkpt lat="45.7087788" lon="9.3809996"><ele>331.0</ele><time>2026-05-02T12:39:07.886Z</time></trkpt><trkpt lat="45.708714" lon="9.3811113"><ele>331.0</ele><time>2026-05-02T12:39:09.887Z</time></trkpt><trkpt lat="45.7086248" lon="9.3811738"><ele>331.0</ele><time>2026-05-02T12:39:11.877Z</time></trkpt><trkpt lat="45.7085351" lon="9.3812202"><ele>331.0</ele><time>2026-05-02T12:39:13.891Z</time></trkpt><trkpt lat="45.7084459" lon="9.381262"><ele>331.0</ele><time>2026-05-02T12:39:15.893Z</time></trkpt><trkpt lat="45.7083382" lon="9.3813294"><ele>331.0</ele><time>2026-05-02T12:39:17.889Z</time></trkpt><trkpt lat="45.7082218" lon="9.3813473"><ele>332.4</ele><time>2026-05-02T12:39:19.889Z</time></trkpt><trkpt lat="45.7081049" lon="9.381385"><ele>333.8</ele><time>2026-05-02T12:39:21.882Z</time></trkpt><trkpt lat="45.7080064" lon="9.3814165"><ele>335.2</ele><time>2026-05-02T12:39:23.888Z</time></trkpt><trkpt lat="45.7078866" lon="9.3814195"><ele>336.59999999999997</ele><time>2026-05-02T12:39:25.879Z</time></trkpt><trkpt lat="45.7077978" lon="9.3813775"><ele>338.0</ele><time>2026-05-02T12:39:27.876Z</time></trkpt><trkpt lat="45.7077161" lon="9.3813935"><ele>339.83333333333337</ele><time>2026-05-02T12:39:29.891Z</time></trkpt><trkpt lat="45.7076437" lon="9.3814144"><ele>341.6666666666667</ele><time>2026-05-02T12:39:30.88Z</time></trkpt><trkpt lat="45.7075308" lon="9.3814922"><ele>343.5</ele><time>2026-05-02T12:39:32.887Z</time></trkpt><trkpt lat="45.7074561" lon="9.3815446"><ele>345.3333333333333</ele><time>2026-05-02T12:39:34.884Z</time></trkpt><trkpt lat="45.7073965" lon="9.3816167"><ele>347.16666666666663</ele><time>2026-05-02T12:39:36.878Z</time></trkpt><trkpt lat="45.707337" lon="9.3816833"><ele>349.0</ele><time>2026-05-02T12:39:40.886Z</time></trkpt><trkpt lat="45.7072745" lon="9.3817143"><ele>349.0</ele><time>2026-05-02T12:39:42.891Z</time></trkpt><trkpt lat="45.7071994" lon="9.3817565"><ele>349.0</ele><time>2026-05-02T12:39:44.89Z</time></trkpt><trkpt lat="45.7071283" lon="9.3817671"><ele>349.0</ele><time>2026-05-02T12:39:46.886Z</time></trkpt><trkpt lat="45.7070456" lon="9.3818035"><ele>349.0</ele><time>2026-05-02T12:39:49.888Z</time></trkpt><trkpt lat="45.7069608" lon="9.3818261"><ele>349.0</ele><time>2026-05-02T12:39:51.892Z</time></trkpt><trkpt lat="45.7068675" lon="9.3818394"><ele>349.0</ele><time>2026-05-02T12:39:54.885Z</time></trkpt><trkpt lat="45.7067778" lon="9.3818625"><ele>349.16666666666663</ele><time>2026-05-02T12:39:57.894Z</time></trkpt><trkpt lat="45.7067134" lon="9.3819173"><ele>349.3333333333333</ele><time>2026-05-02T12:40:01.887Z</time></trkpt><trkpt lat="45.706648" lon="9.3819961"><ele>349.5</ele><time>2026-05-02T12:40:06.882Z</time></trkpt><trkpt lat="45.7065845" lon="9.3820473"><ele>349.6666666666667</ele><time>2026-05-02T12:40:09.885Z</time></trkpt><trkpt lat="45.7065215" lon="9.3821216"><ele>349.83333333333337</ele><time>2026-05-02T12:40:13.889Z</time></trkpt><trkpt lat="45.7064838" lon="9.3822083"><ele>350.0</ele><time>2026-05-02T12:40:16.888Z</time></trkpt><trkpt lat="45.7064381" lon="9.3823021"><ele>350.0</ele><time>2026-05-02T12:40:18.885Z</time></trkpt><trkpt lat="45.7064012" lon="9.3823834"><ele>350.0</ele><time>2026-05-02T12:40:21.89Z</time></trkpt><trkpt lat="45.7063651" lon="9.3824726"><ele>350.0</ele><time>2026-05-02T12:40:25.887Z</time></trkpt><trkpt lat="45.7063218" lon="9.3825492"><ele>350.0</ele><time>2026-05-02T12:40:28.886Z</time></trkpt><trkpt lat="45.7062635" lon="9.3825867"><ele>350.0</ele><time>2026-05-02T12:40:31.889Z</time></trkpt><trkpt lat="45.7061997" lon="9.3826875"><ele>350.0</ele><time>2026-05-02T12:40:35.89Z</time></trkpt><trkpt lat="45.7061631" lon="9.3827699"><ele>350.0</ele><time>2026-05-02T12:40:37.891Z</time></trkpt><trkpt lat="45.7061008" lon="9.3828048"><ele>352.0</ele><time>2026-05-02T12:40:40.887Z</time></trkpt><trkpt lat="45.7060437" lon="9.382862"><ele>354.0</ele><time>2026-05-02T12:40:43.885Z</time></trkpt><trkpt lat="45.7059827" lon="9.3829248"><ele>356.0</ele><time>2026-05-02T12:40:47.887Z</time></trkpt><trkpt lat="45.7059077" lon="9.3829628"><ele>358.0</ele><time>2026-05-02T12:40:50.886Z</time></trkpt><trkpt lat="45.7058447" lon="9.3830031"><ele>360.0</ele><time>2026-05-02T12:40:53.887Z</time></trkpt><trkpt lat="45.7057792" lon="9.3830023"><ele>362.0</ele><time>2026-05-02T12:40:56.885Z</time></trkpt><trkpt lat="45.7057071" lon="9.3829775"><ele>364.0</ele><time>2026-05-02T12:40:59.886Z</time></trkpt><trkpt lat="45.7056206" lon="9.3829432"><ele>364.0</ele><time>2026-05-02T12:41:03.886Z</time></trkpt><trkpt lat="45.7055488" lon="9.3829211"><ele>364.0</ele><time>2026-05-02T12:41:07.885Z</time></trkpt><trkpt lat="45.7054806" lon="9.3829159"><ele>364.0</ele><time>2026-05-02T12:41:12.886Z</time></trkpt><trkpt lat="45.7054156" lon="9.3829062"><ele>364.0</ele><time>2026-05-02T12:41:16.886Z</time></trkpt><trkpt lat="45.7053564" lon="9.3828308"><ele>364.0</ele><time>2026-05-02T12:41:21.896Z</time></trkpt><trkpt lat="45.705294" lon="9.3827743"><ele>364.0</ele><time>2026-05-02T12:41:25.879Z</time></trkpt><trkpt lat="45.7052336" lon="9.3827192"><ele>364.0</ele><time>2026-05-02T12:41:30.878Z</time></trkpt><trkpt lat="45.7051946" lon="9.3826295"><ele>364.0</ele><time>2026-05-02T12:41:34.886Z</time></trkpt><trkpt lat="45.7052176" lon="9.382541"><ele>364.0</ele><time>2026-05-02T12:41:39.885Z</time></trkpt><trkpt lat="45.7052393" lon="9.3824315"><ele>364.0</ele><time>2026-05-02T12:41:44.89Z</time></trkpt><trkpt lat="45.7052565" lon="9.3823379"><ele>364.0</ele><time>2026-05-02T12:41:48.88Z</time></trkpt><trkpt lat="45.7052738" lon="9.3822501"><ele>364.0</ele><time>2026-05-02T12:41:52.886Z</time></trkpt><trkpt lat="45.7052944" lon="9.3821607"><ele>364.0</ele><time>2026-05-02T12:41:56.887Z</time></trkpt><trkpt lat="45.705317" lon="9.3820555"><ele>364.0</ele><time>2026-05-02T12:42:01.895Z</time></trkpt><trkpt lat="45.705324" lon="9.3819507"><ele>365.7142857142857</ele><time>2026-05-02T12:42:07.898Z</time></trkpt><trkpt lat="45.7053468" lon="9.3818597"><ele>367.42857142857144</ele><time>2026-05-02T12:42:12.889Z</time></trkpt><trkpt lat="45.7053635" lon="9.3817563"><ele>369.1428571428571</ele><time>2026-05-02T12:42:17.895Z</time></trkpt><trkpt lat="45.7053843" lon="9.3816544"><ele>370.8571428571429</ele><time>2026-05-02T12:42:22.891Z</time></trkpt><trkpt lat="45.7054005" lon="9.3815557"><ele>372.57142857142856</ele><time>2026-05-02T12:42:26.887Z</time></trkpt><trkpt lat="45.7054131" lon="9.3814673"><ele>374.2857142857143</ele><time>2026-05-02T12:42:30.89Z</time></trkpt><trkpt lat="45.7054243" lon="9.3813684"><ele>376.0</ele><time>2026-05-02T12:42:35.893Z</time></trkpt><trkpt lat="45.7054284" lon="9.3812757"><ele>378.2857142857143</ele><time>2026-05-02T12:42:39.89Z</time></trkpt><trkpt lat="45.7054698" lon="9.3811807"><ele>380.57142857142856</ele><time>2026-05-02T12:42:43.885Z</time></trkpt><trkpt lat="45.7055047" lon="9.3810884"><ele>382.8571428571429</ele><time>2026-05-02T12:42:47.887Z</time></trkpt><trkpt lat="45.7055241" lon="9.3809907"><ele>385.1428571428571</ele><time>2026-05-02T12:42:51.893Z</time></trkpt><trkpt lat="45.7055404" lon="9.380894"><ele>387.42857142857144</ele><time>2026-05-02T12:42:55.888Z</time></trkpt><trkpt lat="45.7055566" lon="9.3808046"><ele>389.7142857142857</ele><time>2026-05-02T12:42:59.886Z</time></trkpt><trkpt lat="45.7055781" lon="9.3807125"><ele>392.0</ele><time>2026-05-02T12:43:03.889Z</time></trkpt><trkpt lat="45.7056026" lon="9.3806154"><ele>392.0</ele><time>2026-05-02T12:43:07.887Z</time></trkpt><trkpt lat="45.705614" lon="9.3805164"><ele>392.0</ele><time>2026-05-02T12:43:11.891Z</time></trkpt><trkpt lat="45.705641" lon="9.3804285"><ele>392.0</ele><time>2026-05-02T12:43:15.89Z</time></trkpt><trkpt lat="45.7056703" lon="9.3803481"><ele>392.0</ele><time>2026-05-02T12:43:19.885Z</time></trkpt><trkpt lat="45.7057092" lon="9.3802715"><ele>392.0</ele><time>2026-05-02T12:43:23.89Z</time></trkpt><trkpt lat="45.70575" lon="9.3801999"><ele>392.0</ele><time>2026-05-02T12:43:27.886Z</time></trkpt><trkpt lat="45.7057983" lon="9.380138"><ele>392.0</ele><time>2026-05-02T12:43:31.89Z</time></trkpt><trkpt lat="45.7058548" lon="9.3800818"><ele>391.85714285714283</ele><time>2026-05-02T12:43:35.887Z</time></trkpt><trkpt lat="45.705913" lon="9.380026"><ele>391.7142857142857</ele><time>2026-05-02T12:43:39.891Z</time></trkpt><trkpt lat="45.7059701" lon="9.3799817"><ele>391.57142857142856</ele><time>2026-05-02T12:43:42.89Z</time></trkpt><trkpt lat="45.7060353" lon="9.379923"><ele>391.42857142857144</ele><time>2026-05-02T12:43:45.89Z</time></trkpt><trkpt lat="45.7060998" lon="9.3798722"><ele>391.2857142857143</ele><time>2026-05-02T12:43:48.884Z</time></trkpt><trkpt lat="45.7061622" lon="9.3798028"><ele>391.1428571428571</ele><time>2026-05-02T12:43:51.894Z</time></trkpt><trkpt lat="45.7062299" lon="9.3797513"><ele>391.0</ele><time>2026-05-02T12:43:54.882Z</time></trkpt><trkpt lat="45.7062896" lon="9.3796857"><ele>395.00000000000006</ele><time>2026-05-02T12:43:57.894Z</time></trkpt><trkpt lat="45.7063536" lon="9.3796253"><ele>399.0</ele><time>2026-05-02T12:44:00.89Z</time></trkpt><trkpt lat="45.706416" lon="9.379557"><ele>403.0</ele><time>2026-05-02T12:44:03.888Z</time></trkpt><trkpt lat="45.7064894" lon="9.3794851"><ele>407.0</ele><time>2026-05-02T12:44:06.89Z</time></trkpt><trkpt lat="45.706546" lon="9.3794146"><ele>411.00000000000006</ele><time>2026-05-02T12:44:09.891Z</time></trkpt><trkpt lat="45.7065936" lon="9.3793507"><ele>415.0</ele><time>2026-05-02T12:44:12.881Z</time></trkpt><trkpt lat="45.7066647" lon="9.3792872"><ele>415.0</ele><time>2026-05-02T12:44:16.88Z</time></trkpt><trkpt lat="45.7067287" lon="9.3792388"><ele>415.0</ele><time>2026-05-02T12:44:20.884Z</time></trkpt><trkpt lat="45.7068023" lon="9.3791907"><ele>415.0</ele><time>2026-05-02T12:44:24.888Z</time></trkpt><trkpt lat="45.7068646" lon="9.3791423"><ele>415.0</ele><time>2026-05-02T12:44:27.885Z</time></trkpt><trkpt lat="45.7069252" lon="9.3791042"><ele>415.0</ele><time>2026-05-02T12:44:30.887Z</time></trkpt><trkpt lat="45.7069859" lon="9.3790773"><ele>415.0</ele><time>2026-05-02T12:44:33.889Z</time></trkpt><trkpt lat="45.7070526" lon="9.3790569"><ele>415.0</ele><time>2026-05-02T12:44:36.888Z</time></trkpt><trkpt lat="45.7071186" lon="9.3790279"><ele>413.8571428571429</ele><time>2026-05-02T12:44:39.887Z</time></trkpt><trkpt lat="45.70718" lon="9.378965"><ele>412.7142857142857</ele><time>2026-05-02T12:44:42.891Z</time></trkpt><trkpt lat="45.7072303" lon="9.3788913"><ele>411.57142857142856</ele><time>2026-05-02T12:44:45.883Z</time></trkpt><trkpt lat="45.7072725" lon="9.378808"><ele>410.42857142857144</ele><time>2026-05-02T12:44:48.888Z</time></trkpt><trkpt lat="45.7072845" lon="9.3787064"><ele>409.2857142857143</ele><time>2026-05-02T12:44:51.889Z</time></trkpt><trkpt lat="45.7072817" lon="9.3786117"><ele>408.14285714285717</ele><time>2026-05-02T12:44:54.885Z</time></trkpt><trkpt lat="45.7072643" lon="9.378525"><ele>407.0</ele><time>2026-05-02T12:44:57.888Z</time></trkpt><trkpt lat="45.7072277" lon="9.3784275"><ele>406.99999999999994</ele><time>2026-05-02T12:45:01.89Z</time></trkpt><trkpt lat="45.7071843" lon="9.378358"><ele>407.0</ele><time>2026-05-02T12:45:05.884Z</time></trkpt><trkpt lat="45.7071336" lon="9.3782835"><ele>407.0</ele><time>2026-05-02T12:45:09.879Z</time></trkpt><trkpt lat="45.7070821" lon="9.3782062"><ele>407.0</ele><time>2026-05-02T12:45:13.878Z</time></trkpt><trkpt lat="45.7070369" lon="9.3781096"><ele>406.99999999999994</ele><time>2026-05-02T12:45:17.887Z</time></trkpt><trkpt lat="45.7069978" lon="9.378013"><ele>407.0</ele><time>2026-05-02T12:45:21.881Z</time></trkpt><trkpt lat="45.7069634" lon="9.3779076"><ele>406.5714285714286</ele><time>2026-05-02T12:45:25.883Z</time></trkpt><trkpt lat="45.7069318" lon="9.3778201"><ele>406.14285714285717</ele><time>2026-05-02T12:45:28.888Z</time></trkpt><trkpt lat="45.7069055" lon="9.3777283"><ele>405.7142857142857</ele><time>2026-05-02T12:45:31.893Z</time></trkpt><trkpt lat="45.7068854" lon="9.3776342"><ele>405.28571428571433</ele><time>2026-05-02T12:45:34.882Z</time></trkpt><trkpt lat="45.7068664" lon="9.3775401"><ele>404.85714285714283</ele><time>2026-05-02T12:45:37.895Z</time></trkpt><trkpt lat="45.7068331" lon="9.377436"><ele>404.42857142857144</ele><time>2026-05-02T12:45:41.894Z</time></trkpt><trkpt lat="45.7067922" lon="9.3773379"><ele>404.0</ele><time>2026-05-02T12:45:45.89Z</time></trkpt><trkpt lat="45.7067464" lon="9.3772404"><ele>407.42857142857144</ele><time>2026-05-02T12:45:49.885Z</time></trkpt><trkpt lat="45.7066962" lon="9.3771849"><ele>410.85714285714283</ele><time>2026-05-02T12:45:52.885Z</time></trkpt><trkpt lat="45.7066393" lon="9.3771275"><ele>414.28571428571433</ele><time>2026-05-02T12:45:55.884Z</time></trkpt><trkpt lat="45.7065845" lon="9.3770789"><ele>417.7142857142857</ele><time>2026-05-02T12:45:58.879Z</time></trkpt><trkpt lat="45.706531" lon="9.3770261"><ele>421.14285714285717</ele><time>2026-05-02T12:46:01.885Z</time></trkpt><trkpt lat="45.706475" lon="9.3769785"><ele>424.5714285714286</ele><time>2026-05-02T12:46:04.89Z</time></trkpt><trkpt lat="45.7064179" lon="9.3769344"><ele>428.0</ele><time>2026-05-02T12:46:07.886Z</time></trkpt><trkpt lat="45.7063769" lon="9.3768627"><ele>428.00000000000006</ele><time>2026-05-02T12:46:10.885Z</time></trkpt><trkpt lat="45.7063239" lon="9.3767836"><ele>428.0</ele><time>2026-05-02T12:46:14.889Z</time></trkpt><trkpt lat="45.7062733" lon="9.3767053"><ele>428.0</ele><time>2026-05-02T12:46:18.88Z</time></trkpt><trkpt lat="45.7062332" lon="9.3766294"><ele>428.0</ele><time>2026-05-02T12:46:22.898Z</time></trkpt><trkpt lat="45.7061786" lon="9.3765616"><ele>428.0</ele><time>2026-05-02T12:46:27.899Z</time></trkpt><trkpt lat="45.7061368" lon="9.37649"><ele>428.00000000000006</ele><time>2026-05-02T12:46:31.894Z</time></trkpt><trkpt lat="45.7060672" lon="9.3764637"><ele>428.0</ele><time>2026-05-02T12:46:36.884Z</time></trkpt><trkpt lat="45.7060102" lon="9.3764046"><ele>431.16666666666663</ele><time>2026-05-02T12:46:42.883Z</time></trkpt><trkpt lat="45.7059646" lon="9.3763354"><ele>434.3333333333333</ele><time>2026-05-02T12:46:48.889Z</time></trkpt><trkpt lat="45.7059134" lon="9.3762479"><ele>437.5</ele><time>2026-05-02T12:46:53.882Z</time></trkpt><trkpt lat="45.7058887" lon="9.376151"><ele>440.66666666666663</ele><time>2026-05-02T12:46:56.892Z</time></trkpt><trkpt lat="45.7058516" lon="9.3760627"><ele>443.8333333333333</ele><time>2026-05-02T12:46:59.881Z</time></trkpt><trkpt lat="45.7058091" lon="9.3759906"><ele>447.0</ele><time>2026-05-02T12:47:02.878Z</time></trkpt><trkpt lat="45.7057367" lon="9.375902"><ele>447.0</ele><time>2026-05-02T12:47:07.88Z</time></trkpt><trkpt lat="45.7056876" lon="9.3758451"><ele>447.0</ele><time>2026-05-02T12:47:09.887Z</time></trkpt><trkpt lat="45.7056919" lon="9.3756417"><ele>447.0</ele><time>2026-05-02T12:47:16.888Z</time></trkpt><trkpt lat="45.7057212" lon="9.3755368"><ele>447.0</ele><time>2026-05-02T12:47:52.88Z</time></trkpt><trkpt lat="45.7057641" lon="9.375455"><ele>447.0</ele><time>2026-05-02T12:47:56.88Z</time></trkpt><trkpt lat="45.7057857" lon="9.3753622"><ele>447.0</ele><time>2026-05-02T12:48:02.886Z</time></trkpt><trkpt lat="45.7058007" lon="9.3752502"><ele>446.99999999999994</ele><time>2026-05-02T12:48:08.888Z</time></trkpt><trkpt lat="45.7058216" lon="9.3751342"><ele>447.0</ele><time>2026-05-02T12:48:12.879Z</time></trkpt><trkpt lat="45.7058619" lon="9.3750542"><ele>447.0</ele><time>2026-05-02T12:48:15.882Z</time></trkpt><trkpt lat="45.7058998" lon="9.3749712"><ele>447.0</ele><time>2026-05-02T12:48:18.883Z</time></trkpt><trkpt lat="45.7059475" lon="9.3748939"><ele>447.0</ele><time>2026-05-02T12:48:21.874Z</time></trkpt><trkpt lat="45.7059992" lon="9.3748219"><ele>446.99999999999994</ele><time>2026-05-02T12:48:24.887Z</time></trkpt><trkpt lat="45.7060464" lon="9.3747613"><ele>447.0</ele><time>2026-05-02T12:48:27.88Z</time></trkpt><trkpt lat="45.7060916" lon="9.3746678"><ele>448.0</ele><time>2026-05-02T12:48:31.893Z</time></trkpt><trkpt lat="45.7061143" lon="9.3745643"><ele>449.0</ele><time>2026-05-02T12:48:35.893Z</time></trkpt><trkpt lat="45.7061454" lon="9.3744859"><ele>450.0</ele><time>2026-05-02T12:48:38.884Z</time></trkpt><trkpt lat="45.7061812" lon="9.3744041"><ele>451.0</ele><time>2026-05-02T12:48:41.89Z</time></trkpt><trkpt lat="45.7062015" lon="9.3743073"><ele>452.00000000000006</ele><time>2026-05-02T12:48:44.897Z</time></trkpt><trkpt lat="45.7062322" lon="9.3742216"><ele>453.0</ele><time>2026-05-02T12:48:47.89Z</time></trkpt><trkpt lat="45.7062384" lon="9.3741273"><ele>454.0</ele><time>2026-05-02T12:48:49.89Z</time></trkpt><trkpt lat="45.7062691" lon="9.3740259"><ele>454.00000000000006</ele><time>2026-05-02T12:48:53.885Z</time></trkpt><trkpt lat="45.7063106" lon="9.3739256"><ele>454.0</ele><time>2026-05-02T12:48:57.887Z</time></trkpt><trkpt lat="45.7063436" lon="9.3738214"><ele>454.0</ele><time>2026-05-02T12:49:01.89Z</time></trkpt><trkpt lat="45.7063823" lon="9.3737184"><ele>454.0</ele><time>2026-05-02T12:49:05.889Z</time></trkpt><trkpt lat="45.7064083" lon="9.3736327"><ele>454.00000000000006</ele><time>2026-05-02T12:49:08.885Z</time></trkpt><trkpt lat="45.7064277" lon="9.373518"><ele>454.0</ele><time>2026-05-02T12:49:11.883Z</time></trkpt><trkpt lat="45.7064558" lon="9.3734267"><ele>455.0</ele><time>2026-05-02T12:49:14.883Z</time></trkpt><trkpt lat="45.7064913" lon="9.3733385"><ele>456.00000000000006</ele><time>2026-05-02T12:49:17.885Z</time></trkpt><trkpt lat="45.706517" lon="9.3732434"><ele>457.0</ele><time>2026-05-02T12:49:20.89Z</time></trkpt><trkpt lat="45.706538" lon="9.3731459"><ele>458.0</ele><time>2026-05-02T12:49:23.889Z</time></trkpt><trkpt lat="45.7065721" lon="9.3730595"><ele>459.00000000000006</ele><time>2026-05-02T12:49:26.879Z</time></trkpt><trkpt lat="45.7066201" lon="9.3729873"><ele>460.0</ele><time>2026-05-02T12:49:29.894Z</time></trkpt><trkpt lat="45.7066879" lon="9.3729351"><ele>461.0</ele><time>2026-05-02T12:49:32.886Z</time></trkpt><trkpt lat="45.7067726" lon="9.3729113"><ele>461.3333333333333</ele><time>2026-05-02T12:49:35.885Z</time></trkpt><trkpt lat="45.7068598" lon="9.372888"><ele>461.66666666666663</ele><time>2026-05-02T12:49:38.887Z</time></trkpt><trkpt lat="45.7069247" lon="9.3728655"><ele>462.0</ele><time>2026-05-02T12:49:40.876Z</time></trkpt><trkpt lat="45.7070175" lon="9.3728194"><ele>462.33333333333337</ele><time>2026-05-02T12:49:43.887Z</time></trkpt><trkpt lat="45.7071044" lon="9.3727618"><ele>462.6666666666667</ele><time>2026-05-02T12:49:46.886Z</time></trkpt><trkpt lat="45.7071884" lon="9.372739"><ele>463.0</ele><time>2026-05-02T12:49:49.884Z</time></trkpt><trkpt lat="45.7072604" lon="9.372721"><ele>461.25</ele><time>2026-05-02T12:49:52.894Z</time></trkpt><trkpt lat="45.707324" lon="9.3726934"><ele>459.5</ele><time>2026-05-02T12:49:55.887Z</time></trkpt><trkpt lat="45.7073902" lon="9.3726141"><ele>457.75</ele><time>2026-05-02T12:49:58.894Z</time></trkpt><trkpt lat="45.7075319" lon="9.3723651"><ele>456.0</ele><time>2026-05-02T12:50:00.886Z</time></trkpt><trkpt lat="45.7075474" lon="9.3722612"><ele>456.20000000000005</ele><time>2026-05-02T12:50:02.878Z</time></trkpt><trkpt lat="45.707553" lon="9.3721572"><ele>456.40000000000003</ele><time>2026-05-02T12:50:04.888Z</time></trkpt><trkpt lat="45.7075648" lon="9.3720354"><ele>456.6</ele><time>2026-05-02T12:50:06.885Z</time></trkpt><trkpt lat="45.7075763" lon="9.3718918"><ele>456.8</ele><time>2026-05-02T12:50:08.884Z</time></trkpt><trkpt lat="45.7075779" lon="9.3717395"><ele>457.0</ele><time>2026-05-02T12:50:10.887Z</time></trkpt><trkpt lat="45.7075564" lon="9.371579"><ele>457.0</ele><time>2026-05-02T12:50:12.88Z</time></trkpt><trkpt lat="45.7075448" lon="9.3714209"><ele>457.0</ele><time>2026-05-02T12:50:14.882Z</time></trkpt><trkpt lat="45.7075325" lon="9.3712543"><ele>457.0</ele><time>2026-05-02T12:50:16.886Z</time></trkpt><trkpt lat="45.7075469" lon="9.3710849"><ele>457.0</ele><time>2026-05-02T12:50:18.885Z</time></trkpt><trkpt lat="45.707575" lon="9.3709288"><ele>456.25</ele><time>2026-05-02T12:50:20.882Z</time></trkpt><trkpt lat="45.7076231" lon="9.3707697"><ele>455.5</ele><time>2026-05-02T12:50:22.886Z</time></trkpt><trkpt lat="45.7076751" lon="9.3706206"><ele>454.75</ele><time>2026-05-02T12:50:24.885Z</time></trkpt><trkpt lat="45.707742" lon="9.3704801"><ele>454.0</ele><time>2026-05-02T12:50:26.888Z</time></trkpt><trkpt lat="45.7077994" lon="9.370364"><ele>454.0</ele><time>2026-05-02T12:50:28.887Z</time></trkpt><trkpt lat="45.7078537" lon="9.3702361"><ele>454.0</ele><time>2026-05-02T12:50:30.888Z</time></trkpt><trkpt lat="45.7079101" lon="9.370112"><ele>454.0</ele><time>2026-05-02T12:50:32.884Z</time></trkpt><trkpt lat="45.7079636" lon="9.3699932"><ele>454.0</ele><time>2026-05-02T12:50:34.882Z</time></trkpt><trkpt lat="45.7079951" lon="9.3699096"><ele>454.0</ele><time>2026-05-02T12:50:36.886Z</time></trkpt><trkpt lat="45.7080514" lon="9.3698188"><ele>454.00000000000006</ele><time>2026-05-02T12:50:39.915Z</time></trkpt><trkpt lat="45.7080951" lon="9.3697238"><ele>454.0</ele><time>2026-05-02T12:50:42.88Z</time></trkpt><trkpt lat="45.7081415" lon="9.3696353"><ele>454.0</ele><time>2026-05-02T12:50:45.884Z</time></trkpt><trkpt lat="45.708182" lon="9.3695406"><ele>454.0</ele><time>2026-05-02T12:50:48.888Z</time></trkpt><trkpt lat="45.7082317" lon="9.3694375"><ele>454.00000000000006</ele><time>2026-05-02T12:50:51.88Z</time></trkpt><trkpt lat="45.7082666" lon="9.3693607"><ele>454.0</ele><time>2026-05-02T12:50:54.882Z</time></trkpt><trkpt lat="45.708302" lon="9.3692547"><ele>455.50000000000006</ele><time>2026-05-02T12:50:57.878Z</time></trkpt><trkpt lat="45.708348" lon="9.369154"><ele>457.0</ele><time>2026-05-02T12:51:00.878Z</time></trkpt><trkpt lat="45.7083933" lon="9.3690645"><ele>458.5</ele><time>2026-05-02T12:51:03.882Z</time></trkpt><trkpt lat="45.7084431" lon="9.3689673"><ele>460.0</ele><time>2026-05-02T12:51:07.884Z</time></trkpt><trkpt lat="45.708491" lon="9.3688835"><ele>461.50000000000006</ele><time>2026-05-02T12:51:10.884Z</time></trkpt><trkpt lat="45.708533" lon="9.3687808"><ele>463.0</ele><time>2026-05-02T12:51:14.883Z</time></trkpt><trkpt lat="45.7085675" lon="9.3686788"><ele>464.2857142857143</ele><time>2026-05-02T12:51:18.88Z</time></trkpt><trkpt lat="45.7085834" lon="9.3685849"><ele>465.57142857142856</ele><time>2026-05-02T12:51:22.88Z</time></trkpt><trkpt lat="45.708593" lon="9.36848"><ele>466.85714285714283</ele><time>2026-05-02T12:51:26.884Z</time></trkpt><trkpt lat="45.7086085" lon="9.3683908"><ele>468.1428571428571</ele><time>2026-05-02T12:51:29.879Z</time></trkpt><trkpt lat="45.7086222" lon="9.3682813"><ele>469.42857142857144</ele><time>2026-05-02T12:51:36.882Z</time></trkpt><trkpt lat="45.708649" lon="9.3681798"><ele>470.71428571428567</ele><time>2026-05-02T12:51:40.878Z</time></trkpt><trkpt lat="45.7086816" lon="9.3680688"><ele>472.0</ele><time>2026-05-02T12:51:44.891Z</time></trkpt><trkpt lat="45.7087178" lon="9.3679743"><ele>472.33333333333337</ele><time>2026-05-02T12:51:47.888Z</time></trkpt><trkpt lat="45.7087531" lon="9.367887"><ele>472.6666666666667</ele><time>2026-05-02T12:51:49.887Z</time></trkpt><trkpt lat="45.7087858" lon="9.3678045"><ele>473.0</ele><time>2026-05-02T12:51:51.885Z</time></trkpt><trkpt lat="45.7088371" lon="9.367702"><ele>473.33333333333337</ele><time>2026-05-02T12:51:53.876Z</time></trkpt><trkpt lat="45.7088796" lon="9.3675981"><ele>473.6666666666667</ele><time>2026-05-02T12:51:56.887Z</time></trkpt><trkpt lat="45.7089302" lon="9.3674847"><ele>474.0</ele><time>2026-05-02T12:51:59.882Z</time></trkpt><trkpt lat="45.7089654" lon="9.3673827"><ele>474.0</ele><time>2026-05-02T12:52:02.887Z</time></trkpt><trkpt lat="45.7090015" lon="9.3672751"><ele>474.0</ele><time>2026-05-02T12:52:05.878Z</time></trkpt><trkpt lat="45.7090362" lon="9.3671749"><ele>474.0</ele><time>2026-05-02T12:52:07.879Z</time></trkpt><trkpt lat="45.7090702" lon="9.3670566"><ele>474.0</ele><time>2026-05-02T12:52:09.891Z</time></trkpt><trkpt lat="45.7090959" lon="9.3669434"><ele>474.0</ele><time>2026-05-02T12:52:11.883Z</time></trkpt><trkpt lat="45.7086816" lon="9.3680688"><ele>474.0</ele><time>2026-05-02T12:51:44.891Z</time></trkpt><trkpt lat="45.7087178" lon="9.3679743"><ele>474.0</ele><time>2026-05-02T12:51:47.888Z</time></trkpt><trkpt lat="45.7087531" lon="9.367887"><ele>474.0</ele><time>2026-05-02T12:51:49.887Z</time></trkpt><trkpt lat="45.7087858" lon="9.3678045"><ele>474.0</ele><time>2026-05-02T12:51:51.885Z</time></trkpt><trkpt lat="45.7088371" lon="9.367702"><ele>474.0</ele><time>2026-05-02T12:51:53.876Z</time></trkpt><trkpt lat="45.7088796" lon="9.3675981"><ele>474.0</ele><time>2026-05-02T12:51:56.887Z</time></trkpt><trkpt lat="45.7089302" lon="9.3674847"><ele>474.0</ele><time>2026-05-02T12:51:59.882Z</time></trkpt><trkpt lat="45.7089654" lon="9.3673827"><ele>474.0</ele><time>2026-05-02T12:52:02.887Z</time></trkpt><trkpt lat="45.7090015" lon="9.3672751"><ele>474.0</ele><time>2026-05-02T12:52:05.878Z</time></trkpt><trkpt lat="45.7090362" lon="9.3671749"><ele>474.0</ele><time>2026-05-02T12:52:07.879Z</time></trkpt><trkpt lat="45.7090702" lon="9.3670566"><ele>474.0</ele><time>2026-05-02T12:52:09.891Z</time></trkpt><trkpt lat="45.7090959" lon="9.3669434"><ele>474.0</ele><time>2026-05-02T12:52:11.883Z</time></trkpt><trkpt lat="45.7091227" lon="9.3668338"><ele>473.6666666666667</ele><time>2026-05-02T12:52:13.883Z</time></trkpt><trkpt lat="45.709156" lon="9.3667099"><ele>473.33333333333337</ele><time>2026-05-02T12:52:15.881Z</time></trkpt><trkpt lat="45.709179" lon="9.3665964"><ele>473.0</ele><time>2026-05-02T12:52:17.876Z</time></trkpt><trkpt lat="45.7092046" lon="9.3664904"><ele>472.6666666666667</ele><time>2026-05-02T12:52:19.877Z</time></trkpt><trkpt lat="45.7092449" lon="9.3663848"><ele>472.33333333333337</ele><time>2026-05-02T12:52:21.882Z</time></trkpt><trkpt lat="45.7092855" lon="9.3662913"><ele>472.0</ele><time>2026-05-02T12:52:23.881Z</time></trkpt><trkpt lat="45.7093252" lon="9.3662041"><ele>472.8</ele><time>2026-05-02T12:52:25.892Z</time></trkpt><trkpt lat="45.7093813" lon="9.366089"><ele>473.6</ele><time>2026-05-02T12:52:27.884Z</time></trkpt><trkpt lat="45.7094287" lon="9.3659893"><ele>474.40000000000003</ele><time>2026-05-02T12:52:29.878Z</time></trkpt><trkpt lat="45.7094783" lon="9.3658812"><ele>475.20000000000005</ele><time>2026-05-02T12:52:31.885Z</time></trkpt><trkpt lat="45.7095269" lon="9.3657661"><ele>476.0</ele><time>2026-05-02T12:52:33.883Z</time></trkpt><trkpt lat="45.7095604" lon="9.3656471"><ele>474.6</ele><time>2026-05-02T12:52:35.881Z</time></trkpt><trkpt lat="45.709587" lon="9.365531"><ele>473.20000000000005</ele><time>2026-05-02T12:52:37.88Z</time></trkpt><trkpt lat="45.7095995" lon="9.3653817"><ele>471.79999999999995</ele><time>2026-05-02T12:52:39.883Z</time></trkpt><trkpt lat="45.7096079" lon="9.3652315"><ele>470.4</ele><time>2026-05-02T12:52:41.882Z</time></trkpt><trkpt lat="45.7096143" lon="9.3650956"><ele>469.0</ele><time>2026-05-02T12:52:43.879Z</time></trkpt><trkpt lat="45.7096397" lon="9.3649722"><ele>469.00000000000006</ele><time>2026-05-02T12:52:45.887Z</time></trkpt><trkpt lat="45.7096724" lon="9.3648591"><ele>469.0</ele><time>2026-05-02T12:52:47.886Z</time></trkpt><trkpt lat="45.7097063" lon="9.3647539"><ele>469.0</ele><time>2026-05-02T12:52:49.891Z</time></trkpt><trkpt lat="45.7097376" lon="9.3646521"><ele>469.0</ele><time>2026-05-02T12:52:51.888Z</time></trkpt><trkpt lat="45.7097766" lon="9.3645497"><ele>469.00000000000006</ele><time>2026-05-02T12:52:53.886Z</time></trkpt><trkpt lat="45.7098149" lon="9.3644493"><ele>469.0</ele><time>2026-05-02T12:52:55.892Z</time></trkpt><trkpt lat="45.7098519" lon="9.3643458"><ele>469.6666666666667</ele><time>2026-05-02T12:52:57.879Z</time></trkpt><trkpt lat="45.7098764" lon="9.3642317"><ele>470.33333333333337</ele><time>2026-05-02T12:52:59.885Z</time></trkpt><trkpt lat="45.7098874" lon="9.3641095"><ele>471.0</ele><time>2026-05-02T12:53:01.876Z</time></trkpt><trkpt lat="45.7099021" lon="9.3639985"><ele>471.66666666666663</ele><time>2026-05-02T12:53:03.891Z</time></trkpt><trkpt lat="45.7099264" lon="9.3638893"><ele>472.3333333333333</ele><time>2026-05-02T12:53:05.886Z</time></trkpt><trkpt lat="45.7099562" lon="9.3637743"><ele>473.0</ele><time>2026-05-02T12:53:07.885Z</time></trkpt><trkpt lat="45.7099788" lon="9.3636579"><ele>473.2</ele><time>2026-05-02T12:53:11.888Z</time></trkpt><trkpt lat="45.7100105" lon="9.3635123"><ele>473.4</ele><time>2026-05-02T12:53:13.885Z</time></trkpt><trkpt lat="45.7100768" lon="9.3632892"><ele>473.59999999999997</ele><time>2026-05-02T12:53:14.888Z</time></trkpt><trkpt lat="45.7101231" lon="9.3632184"><ele>473.79999999999995</ele><time>2026-05-02T12:53:16.877Z</time></trkpt><trkpt lat="45.7101739" lon="9.3631327"><ele>474.0</ele><time>2026-05-02T12:53:18.897Z</time></trkpt><trkpt lat="45.710223" lon="9.3630532"><ele>474.71428571428567</ele><time>2026-05-02T12:53:20.879Z</time></trkpt><trkpt lat="45.710265" lon="9.3629761"><ele>475.42857142857144</ele><time>2026-05-02T12:53:22.871Z</time></trkpt><trkpt lat="45.7103078" lon="9.3629005"><ele>476.1428571428571</ele><time>2026-05-02T12:53:24.882Z</time></trkpt><trkpt lat="45.7103609" lon="9.3628296"><ele>476.85714285714283</ele><time>2026-05-02T12:53:26.885Z</time></trkpt><trkpt lat="45.71042" lon="9.3627684"><ele>477.57142857142856</ele><time>2026-05-02T12:53:28.881Z</time></trkpt><trkpt lat="45.7104841" lon="9.3627107"><ele>478.2857142857143</ele><time>2026-05-02T12:53:30.881Z</time></trkpt><trkpt lat="45.7105514" lon="9.3626657"><ele>479.0</ele><time>2026-05-02T12:53:32.882Z</time></trkpt><trkpt lat="45.7106184" lon="9.36262"><ele>478.99999999999994</ele><time>2026-05-02T12:53:34.878Z</time></trkpt><trkpt lat="45.710686" lon="9.3625747"><ele>479.0</ele><time>2026-05-02T12:53:36.883Z</time></trkpt><trkpt lat="45.7107513" lon="9.362524"><ele>479.0</ele><time>2026-05-02T12:53:38.886Z</time></trkpt><trkpt lat="45.7108122" lon="9.3624671"><ele>479.0</ele><time>2026-05-02T12:53:40.872Z</time></trkpt><trkpt lat="45.7108693" lon="9.362401"><ele>478.99999999999994</ele><time>2026-05-02T12:53:42.887Z</time></trkpt><trkpt lat="45.7109287" lon="9.3623418"><ele>479.0</ele><time>2026-05-02T12:53:44.882Z</time></trkpt><trkpt lat="45.7109944" lon="9.3622656"><ele>479.0</ele><time>2026-05-02T12:53:46.872Z</time></trkpt><trkpt lat="45.7110564" lon="9.3621998"><ele>479.0</ele><time>2026-05-02T12:53:48.885Z</time></trkpt><trkpt lat="45.7111209" lon="9.3621411"><ele>479.0</ele><time>2026-05-02T12:53:50.897Z</time></trkpt><trkpt lat="45.7111886" lon="9.3620871"><ele>479.0</ele><time>2026-05-02T12:53:52.883Z</time></trkpt><trkpt lat="45.7112534" lon="9.3620373"><ele>479.0</ele><time>2026-05-02T12:53:54.888Z</time></trkpt><trkpt lat="45.7113113" lon="9.3619907"><ele>479.0</ele><time>2026-05-02T12:53:56.889Z</time></trkpt><trkpt lat="45.7113666" lon="9.3619437"><ele>479.0</ele><time>2026-05-02T12:53:58.888Z</time></trkpt><trkpt lat="45.7114227" lon="9.3618964"><ele>480.8333333333333</ele><time>2026-05-02T12:54:00.884Z</time></trkpt><trkpt lat="45.7114812" lon="9.3618425"><ele>482.66666666666663</ele><time>2026-05-02T12:54:02.88Z</time></trkpt><trkpt lat="45.7115387" lon="9.3617862"><ele>484.5</ele><time>2026-05-02T12:54:04.878Z</time></trkpt><trkpt lat="45.7116062" lon="9.3617274"><ele>486.33333333333337</ele><time>2026-05-02T12:54:06.88Z</time></trkpt><trkpt lat="45.711673" lon="9.3616757"><ele>488.1666666666667</ele><time>2026-05-02T12:54:08.887Z</time></trkpt><trkpt lat="45.7117357" lon="9.3616206"><ele>490.0</ele><time>2026-05-02T12:54:10.876Z</time></trkpt><trkpt lat="45.7118082" lon="9.3615625"><ele>490.0</ele><time>2026-05-02T12:54:12.888Z</time></trkpt><trkpt lat="45.7118765" lon="9.3614988"><ele>490.0</ele><time>2026-05-02T12:54:14.875Z</time></trkpt><trkpt lat="45.7119535" lon="9.3614282"><ele>490.0</ele><time>2026-05-02T12:54:16.886Z</time></trkpt><trkpt lat="45.7120278" lon="9.3613447"><ele>490.0</ele><time>2026-05-02T12:54:18.883Z</time></trkpt><trkpt lat="45.7121123" lon="9.3612545"><ele>490.0</ele><time>2026-05-02T12:54:20.875Z</time></trkpt><trkpt lat="45.71219" lon="9.3611569"><ele>490.2</ele><time>2026-05-02T12:54:22.884Z</time></trkpt><trkpt lat="45.7122525" lon="9.3610779"><ele>490.4</ele><time>2026-05-02T12:54:24.881Z</time></trkpt><trkpt lat="45.7123093" lon="9.3609792"><ele>490.6</ele><time>2026-05-02T12:54:26.88Z</time></trkpt><trkpt lat="45.7123589" lon="9.3608626"><ele>490.8</ele><time>2026-05-02T12:54:28.878Z</time></trkpt><trkpt lat="45.7123863" lon="9.360738"><ele>491.0</ele><time>2026-05-02T12:54:30.881Z</time></trkpt><trkpt lat="45.7124152" lon="9.3605972"><ele>490.4</ele><time>2026-05-02T12:54:32.886Z</time></trkpt><trkpt lat="45.712443" lon="9.3604494"><ele>489.8</ele><time>2026-05-02T12:54:34.891Z</time></trkpt><trkpt lat="45.7124678" lon="9.3602962"><ele>489.19999999999993</ele><time>2026-05-02T12:54:36.888Z</time></trkpt><trkpt lat="45.7124835" lon="9.3601261"><ele>488.59999999999997</ele><time>2026-05-02T12:54:38.89Z</time></trkpt><trkpt lat="45.7124945" lon="9.3600306"><ele>488.0</ele><time>2026-05-02T12:54:39.885Z</time></trkpt><trkpt lat="45.7125079" lon="9.35993"><ele>487.99999999999994</ele><time>2026-05-02T12:54:40.884Z</time></trkpt><trkpt lat="45.7125213" lon="9.3598269"><ele>488.0</ele><time>2026-05-02T12:54:41.883Z</time></trkpt><trkpt lat="45.712535" lon="9.3597186"><ele>488.0</ele><time>2026-05-02T12:54:42.881Z</time></trkpt><trkpt lat="45.7125591" lon="9.3595714"><ele>488.0</ele><time>2026-05-02T12:54:43.881Z</time></trkpt><trkpt lat="45.7125754" lon="9.3594565"><ele>487.99999999999994</ele><time>2026-05-02T12:54:44.88Z</time></trkpt><trkpt lat="45.7125793" lon="9.359349"><ele>488.0</ele><time>2026-05-02T12:54:45.884Z</time></trkpt><trkpt lat="45.7125892" lon="9.3592354"><ele>487.71428571428567</ele><time>2026-05-02T12:54:46.886Z</time></trkpt><trkpt lat="45.7126004" lon="9.3591296"><ele>487.42857142857144</ele><time>2026-05-02T12:54:47.886Z</time></trkpt><trkpt lat="45.7126133" lon="9.3590265"><ele>487.1428571428571</ele><time>2026-05-02T12:54:48.872Z</time></trkpt><trkpt lat="45.7126304" lon="9.3589356"><ele>486.85714285714283</ele><time>2026-05-02T12:54:49.888Z</time></trkpt><trkpt lat="45.7126404" lon="9.3588413"><ele>486.57142857142856</ele><time>2026-05-02T12:54:50.878Z</time></trkpt><trkpt lat="45.7126485" lon="9.3587477"><ele>486.2857142857143</ele><time>2026-05-02T12:54:51.885Z</time></trkpt><trkpt lat="45.7126619" lon="9.3586565"><ele>486.0</ele><time>2026-05-02T12:54:52.89Z</time></trkpt><trkpt lat="45.7126892" lon="9.3584958"><ele>486.0</ele><time>2026-05-02T12:54:54.89Z</time></trkpt><trkpt lat="45.7127143" lon="9.3583454"><ele>486.0</ele><time>2026-05-02T12:54:57.348Z</time></trkpt><trkpt lat="45.7127365" lon="9.3581946"><ele>486.0</ele><time>2026-05-02T12:54:58.86Z</time></trkpt><trkpt lat="45.7127584" lon="9.3580365"><ele>486.0</ele><time>2026-05-02T12:55:00.849Z</time></trkpt><trkpt lat="45.7127769" lon="9.3578752"><ele>486.0</ele><time>2026-05-02T12:55:02.852Z</time></trkpt><trkpt lat="45.7127874" lon="9.3577043"><ele>485.20000000000005</ele><time>2026-05-02T12:55:04.852Z</time></trkpt><trkpt lat="45.7128071" lon="9.3575466"><ele>484.40000000000003</ele><time>2026-05-02T12:55:06.851Z</time></trkpt><trkpt lat="45.7128214" lon="9.357458"><ele>483.6</ele><time>2026-05-02T12:55:07.851Z</time></trkpt><trkpt lat="45.7128506" lon="9.3573182"><ele>482.8</ele><time>2026-05-02T12:55:09.851Z</time></trkpt><trkpt lat="45.7128656" lon="9.3571777"><ele>482.0</ele><time>2026-05-02T12:55:11.852Z</time></trkpt><trkpt lat="45.7128829" lon="9.3570254"><ele>482.0</ele><time>2026-05-02T12:55:13.852Z</time></trkpt><trkpt lat="45.7128977" lon="9.3568717"><ele>482.00000000000006</ele><time>2026-05-02T12:55:15.851Z</time></trkpt><trkpt lat="45.7129052" lon="9.3567333"><ele>482.00000000000006</ele><time>2026-05-02T12:55:17.852Z</time></trkpt><trkpt lat="45.7129115" lon="9.3565995"><ele>482.0</ele><time>2026-05-02T12:55:19.851Z</time></trkpt><trkpt lat="45.712915" lon="9.3564635"><ele>482.0</ele><time>2026-05-02T12:55:21.852Z</time></trkpt><trkpt lat="45.7129216" lon="9.3563346"><ele>483.20000000000005</ele><time>2026-05-02T12:55:23.852Z</time></trkpt><trkpt lat="45.7129365" lon="9.3561941"><ele>484.40000000000003</ele><time>2026-05-02T12:55:25.851Z</time></trkpt><trkpt lat="45.7129593" lon="9.3560598"><ele>485.59999999999997</ele><time>2026-05-02T12:55:27.852Z</time></trkpt><trkpt lat="45.7129973" lon="9.3559368"><ele>486.79999999999995</ele><time>2026-05-02T12:55:29.851Z</time></trkpt><trkpt lat="45.7130375" lon="9.3558092"><ele>488.0</ele><time>2026-05-02T12:55:31.852Z</time></trkpt><trkpt lat="45.7130917" lon="9.3556778"><ele>488.0</ele><time>2026-05-02T12:55:33.852Z</time></trkpt><trkpt lat="45.713153" lon="9.3555477"><ele>487.99999999999994</ele><time>2026-05-02T12:55:35.852Z</time></trkpt><trkpt lat="45.7132241" lon="9.3554416"><ele>487.99999999999994</ele><time>2026-05-02T12:55:37.851Z</time></trkpt><trkpt lat="45.7132956" lon="9.3553236"><ele>488.0</ele><time>2026-05-02T12:55:39.851Z</time></trkpt><trkpt lat="45.7133551" lon="9.355227"><ele>488.0</ele><time>2026-05-02T12:55:41.852Z</time></trkpt><trkpt lat="45.71341" lon="9.3551197"><ele>488.2</ele><time>2026-05-02T12:55:43.852Z</time></trkpt><trkpt lat="45.7134604" lon="9.3550291"><ele>488.4</ele><time>2026-05-02T12:55:45.851Z</time></trkpt><trkpt lat="45.7135112" lon="9.3549378"><ele>488.59999999999997</ele><time>2026-05-02T12:55:47.851Z</time></trkpt><trkpt lat="45.713552" lon="9.3547953"><ele>488.79999999999995</ele><time>2026-05-02T12:55:49.851Z</time></trkpt><trkpt lat="45.7135988" lon="9.3546536"><ele>489.0</ele><time>2026-05-02T12:55:51.852Z</time></trkpt><trkpt lat="45.7136219" lon="9.354491"><ele>490.0</ele><time>2026-05-02T12:55:53.852Z</time></trkpt><trkpt lat="45.7136272" lon="9.3543454"><ele>491.0</ele><time>2026-05-02T12:55:55.851Z</time></trkpt><trkpt lat="45.713644" lon="9.3542345"><ele>492.0</ele><time>2026-05-02T12:55:57.851Z</time></trkpt><trkpt lat="45.713683" lon="9.3541286"><ele>493.0</ele><time>2026-05-02T12:55:59.851Z</time></trkpt><trkpt lat="45.7137407" lon="9.3540016"><ele>494.0</ele><time>2026-05-02T12:56:01.852Z</time></trkpt><trkpt lat="45.713832" lon="9.353922"><ele>494.0</ele><time>2026-05-02T12:56:03.851Z</time></trkpt><trkpt lat="45.7139401" lon="9.3538924"><ele>494.0</ele><time>2026-05-02T12:56:05.852Z</time></trkpt><trkpt lat="45.7140323" lon="9.3539316"><ele>494.0</ele><time>2026-05-02T12:56:07.852Z</time></trkpt><trkpt lat="45.7141235" lon="9.3540076"><ele>494.0</ele><time>2026-05-02T12:56:09.852Z</time></trkpt><trkpt lat="45.7142108" lon="9.3540851"><ele>494.0</ele><time>2026-05-02T12:56:11.852Z</time></trkpt><trkpt lat="45.7143031" lon="9.3541215"><ele>493.99999999999994</ele><time>2026-05-02T12:56:13.852Z</time></trkpt><trkpt lat="45.7143785" lon="9.3541805"><ele>494.0</ele><time>2026-05-02T12:56:14.852Z</time></trkpt><trkpt lat="45.7144362" lon="9.354235"><ele>494.0</ele><time>2026-05-02T12:56:15.851Z</time></trkpt><trkpt lat="45.7145035" lon="9.354287"><ele>494.0</ele><time>2026-05-02T12:56:16.851Z</time></trkpt><trkpt lat="45.7145991" lon="9.354362"><ele>493.99999999999994</ele><time>2026-05-02T12:56:18.851Z</time></trkpt><trkpt lat="45.7146856" lon="9.3544161"><ele>494.0</ele><time>2026-05-02T12:56:19.852Z</time></trkpt><trkpt lat="45.7147599" lon="9.3544695"><ele>491.6</ele><time>2026-05-02T12:56:20.851Z</time></trkpt><trkpt lat="45.7148833" lon="9.3545516"><ele>489.2</ele><time>2026-05-02T12:56:22.852Z</time></trkpt><trkpt lat="45.7149511" lon="9.3545862"><ele>486.80000000000007</ele><time>2026-05-02T12:56:23.851Z</time></trkpt><trkpt lat="45.7150181" lon="9.354599"><ele>484.40000000000003</ele><time>2026-05-02T12:56:24.852Z</time></trkpt><trkpt lat="45.7150853" lon="9.3546443"><ele>482.0</ele><time>2026-05-02T12:56:25.852Z</time></trkpt><trkpt lat="45.715196" lon="9.3546943"><ele>481.28571428571433</ele><time>2026-05-02T12:56:27.852Z</time></trkpt><trkpt lat="45.715249" lon="9.354759"><ele>480.5714285714286</ele><time>2026-05-02T12:56:28.852Z</time></trkpt><trkpt lat="45.7153254" lon="9.3547969"><ele>479.8571428571429</ele><time>2026-05-02T12:56:29.852Z</time></trkpt><trkpt lat="45.715395" lon="9.3548372"><ele>479.1428571428571</ele><time>2026-05-02T12:56:30.851Z</time></trkpt><trkpt lat="45.7154496" lon="9.3549054"><ele>478.4285714285714</ele><time>2026-05-02T12:56:31.852Z</time></trkpt><trkpt lat="45.7154952" lon="9.3549772"><ele>477.71428571428567</ele><time>2026-05-02T12:56:32.852Z</time></trkpt><trkpt lat="45.7155648" lon="9.3550432"><ele>477.0</ele><time>2026-05-02T12:56:33.852Z</time></trkpt><trkpt lat="45.7156583" lon="9.355131"><ele>477.0</ele><time>2026-05-02T12:56:35.851Z</time></trkpt><trkpt lat="45.7157349" lon="9.3551861"><ele>477.00000000000006</ele><time>2026-05-02T12:56:37.851Z</time></trkpt><trkpt lat="45.7158066" lon="9.3552266"><ele>477.00000000000006</ele><time>2026-05-02T12:56:40.852Z</time></trkpt><trkpt lat="45.7159862" lon="9.3552973"><ele>477.0</ele><time>2026-05-02T12:56:43.851Z</time></trkpt><trkpt lat="45.7160834" lon="9.3553158"><ele>477.0</ele><time>2026-05-02T12:56:45.852Z</time></trkpt><trkpt lat="45.7161926" lon="9.3553439"><ele>474.75</ele><time>2026-05-02T12:56:47.852Z</time></trkpt><trkpt lat="45.7163058" lon="9.3553648"><ele>472.5</ele><time>2026-05-02T12:56:49.852Z</time></trkpt><trkpt lat="45.7164153" lon="9.3553818"><ele>470.25</ele><time>2026-05-02T12:56:51.852Z</time></trkpt><trkpt lat="45.716534" lon="9.3553828"><ele>468.0</ele><time>2026-05-02T12:56:53.851Z</time></trkpt><trkpt lat="45.7166541" lon="9.3554053"><ele>468.0</ele><time>2026-05-02T12:56:55.852Z</time></trkpt><trkpt lat="45.7167202" lon="9.3554214"><ele>467.99999999999994</ele><time>2026-05-02T12:56:56.852Z</time></trkpt><trkpt lat="45.7167801" lon="9.3554586"><ele>467.99999999999994</ele><time>2026-05-02T12:56:57.851Z</time></trkpt><trkpt lat="45.7168544" lon="9.355475"><ele>468.0</ele><time>2026-05-02T12:56:58.851Z</time></trkpt><trkpt lat="45.7169744" lon="9.3555465"><ele>468.0</ele><time>2026-05-02T12:57:00.851Z</time></trkpt><trkpt lat="45.7171094" lon="9.3555096"><ele>469.66666666666663</ele><time>2026-05-02T12:57:02.851Z</time></trkpt><trkpt lat="45.7173469" lon="9.3553282"><ele>471.3333333333333</ele><time>2026-05-02T12:57:08.851Z</time></trkpt><trkpt lat="45.7174558" lon="9.3552019"><ele>473.0</ele><time>2026-05-02T12:57:10.852Z</time></trkpt><trkpt lat="45.7175248" lon="9.3551596"><ele>473.0</ele><time>2026-05-02T12:57:11.851Z</time></trkpt><trkpt lat="45.7176075" lon="9.355053"><ele>472.99999999999994</ele><time>2026-05-02T12:57:12.852Z</time></trkpt><trkpt lat="45.7176681" lon="9.3549984"><ele>472.99999999999994</ele><time>2026-05-02T12:57:13.851Z</time></trkpt><trkpt lat="45.7177999" lon="9.3549677"><ele>473.0</ele><time>2026-05-02T12:57:15.852Z</time></trkpt><trkpt lat="45.7178739" lon="9.3549311"><ele>473.0</ele><time>2026-05-02T12:57:16.852Z</time></trkpt><trkpt lat="45.7179432" lon="9.354925"><ele>470.59999999999997</ele><time>2026-05-02T12:57:17.852Z</time></trkpt><trkpt lat="45.7180055" lon="9.354898"><ele>468.19999999999993</ele><time>2026-05-02T12:57:18.852Z</time></trkpt><trkpt lat="45.7180714" lon="9.354871"><ele>465.8</ele><time>2026-05-02T12:57:19.851Z</time></trkpt><trkpt lat="45.718149" lon="9.3548635"><ele>463.4</ele><time>2026-05-02T12:57:20.852Z</time></trkpt><trkpt lat="45.7182829" lon="9.3548053"><ele>461.0</ele><time>2026-05-02T12:57:22.851Z</time></trkpt><trkpt lat="45.718463" lon="9.3547503"><ele>461.0</ele><time>2026-05-02T12:57:24.852Z</time></trkpt><trkpt lat="45.7185514" lon="9.3547054"><ele>461.0</ele><time>2026-05-02T12:57:26.852Z</time></trkpt><trkpt lat="45.7186297" lon="9.3545842"><ele>461.0</ele><time>2026-05-02T12:57:28.851Z</time></trkpt><trkpt lat="45.7186688" lon="9.3545114"><ele>461.0</ele><time>2026-05-02T12:57:29.852Z</time></trkpt><trkpt lat="45.7187703" lon="9.3543978"><ele>461.0</ele><time>2026-05-02T12:57:31.851Z</time></trkpt><trkpt lat="45.7188334" lon="9.3543261"><ele>461.42857142857144</ele><time>2026-05-02T12:57:32.851Z</time></trkpt><trkpt lat="45.71889" lon="9.3542446"><ele>461.8571428571429</ele><time>2026-05-02T12:57:33.851Z</time></trkpt><trkpt lat="45.7189539" lon="9.3541984"><ele>462.28571428571433</ele><time>2026-05-02T12:57:34.852Z</time></trkpt><trkpt lat="45.7190095" lon="9.3541527"><ele>462.7142857142858</ele><time>2026-05-02T12:57:35.852Z</time></trkpt><trkpt lat="45.7190698" lon="9.3540983"><ele>463.14285714285717</ele><time>2026-05-02T12:57:36.851Z</time></trkpt><trkpt lat="45.7191392" lon="9.3540507"><ele>463.57142857142867</ele><time>2026-05-02T12:57:37.851Z</time></trkpt><trkpt lat="45.7191968" lon="9.3540123"><ele>464.00000000000006</ele><time>2026-05-02T12:57:38.851Z</time></trkpt><trkpt lat="45.7192713" lon="9.3540062"><ele>464.0</ele><time>2026-05-02T12:57:39.852Z</time></trkpt><trkpt lat="45.719374" lon="9.3539771"><ele>464.0</ele><time>2026-05-02T12:57:41.851Z</time></trkpt><trkpt lat="45.7195031" lon="9.3539196"><ele>464.0</ele><time>2026-05-02T12:57:43.852Z</time></trkpt><trkpt lat="45.7195665" lon="9.3539123"><ele>464.0</ele><time>2026-05-02T12:57:44.851Z</time></trkpt><trkpt lat="45.7196763" lon="9.3539344"><ele>464.0</ele><time>2026-05-02T12:57:46.852Z</time></trkpt><trkpt lat="45.7197925" lon="9.3538956"><ele>463.2</ele><time>2026-05-02T12:57:48.852Z</time></trkpt><trkpt lat="45.719877" lon="9.3538909"><ele>462.4</ele><time>2026-05-02T12:57:49.851Z</time></trkpt><trkpt lat="45.7199863" lon="9.3538703"><ele>461.6</ele><time>2026-05-02T12:57:50.851Z</time></trkpt><trkpt lat="45.7200702" lon="9.3538589"><ele>460.8</ele><time>2026-05-02T12:57:51.851Z</time></trkpt><trkpt lat="45.7201739" lon="9.3538533"><ele>460.0</ele><time>2026-05-02T12:57:52.852Z</time></trkpt><trkpt lat="45.7202412" lon="9.3538599"><ele>457.6</ele><time>2026-05-02T12:57:53.852Z</time></trkpt><trkpt lat="45.7203059" lon="9.3538491"><ele>455.2</ele><time>2026-05-02T12:57:54.852Z</time></trkpt><trkpt lat="45.7203672" lon="9.3538231"><ele>452.79999999999995</ele><time>2026-05-02T12:57:55.851Z</time></trkpt><trkpt lat="45.7205043" lon="9.3537746"><ele>450.4</ele><time>2026-05-02T12:57:58.852Z</time></trkpt><trkpt lat="45.7205984" lon="9.3536984"><ele>448.0</ele><time>2026-05-02T12:57:59.852Z</time></trkpt><trkpt lat="45.7206869" lon="9.3536308"><ele>448.0</ele><time>2026-05-02T12:58:00.851Z</time></trkpt><trkpt lat="45.7207743" lon="9.3535643"><ele>447.99999999999994</ele><time>2026-05-02T12:58:02.851Z</time></trkpt><trkpt lat="45.7208433" lon="9.3535024"><ele>447.99999999999994</ele><time>2026-05-02T12:58:03.852Z</time></trkpt><trkpt lat="45.7209086" lon="9.3534247"><ele>448.0</ele><time>2026-05-02T12:58:04.851Z</time></trkpt><trkpt lat="45.7209878" lon="9.3533096"><ele>448.0</ele><time>2026-05-02T12:58:06.851Z</time></trkpt><trkpt lat="45.721028" lon="9.3531989"><ele>445.83333333333337</ele><time>2026-05-02T12:58:07.852Z</time></trkpt><trkpt lat="45.7210813" lon="9.353102"><ele>443.6666666666667</ele><time>2026-05-02T12:58:08.851Z</time></trkpt><trkpt lat="45.7211335" lon="9.3530321"><ele>441.5</ele><time>2026-05-02T12:58:09.852Z</time></trkpt><trkpt lat="45.7212015" lon="9.3529525"><ele>439.33333333333337</ele><time>2026-05-02T12:58:10.851Z</time></trkpt><trkpt lat="45.7212587" lon="9.3528931"><ele>437.1666666666667</ele><time>2026-05-02T12:58:11.852Z</time></trkpt><trkpt lat="45.7213304" lon="9.3528169"><ele>435.0</ele><time>2026-05-02T12:58:12.851Z</time></trkpt><trkpt lat="45.7213936" lon="9.3527696"><ele>435.0</ele><time>2026-05-02T12:58:13.851Z</time></trkpt><trkpt lat="45.7214642" lon="9.3527175"><ele>435.0</ele><time>2026-05-02T12:58:14.852Z</time></trkpt><trkpt lat="45.7215401" lon="9.3526341"><ele>435.0</ele><time>2026-05-02T12:58:15.852Z</time></trkpt><trkpt lat="45.7216241" lon="9.3525708"><ele>435.0</ele><time>2026-05-02T12:58:16.852Z</time></trkpt><trkpt lat="45.7217068" lon="9.3524867"><ele>435.0</ele><time>2026-05-02T12:58:17.852Z</time></trkpt><trkpt lat="45.7217914" lon="9.3523977"><ele>435.0</ele><time>2026-05-02T12:58:18.851Z</time></trkpt><trkpt lat="45.7218803" lon="9.352329"><ele>435.0</ele><time>2026-05-02T12:58:19.852Z</time></trkpt><trkpt lat="45.7219574" lon="9.3523014"><ele>435.0</ele><time>2026-05-02T12:58:20.851Z</time></trkpt><trkpt lat="45.7220497" lon="9.3522734"><ele>435.0</ele><time>2026-05-02T12:58:21.851Z</time></trkpt><trkpt lat="45.7221317" lon="9.3522446"><ele>435.0</ele><time>2026-05-02T12:58:22.852Z</time></trkpt><trkpt lat="45.7222161" lon="9.352228"><ele>435.0</ele><time>2026-05-02T12:58:23.851Z</time></trkpt><trkpt lat="45.722329" lon="9.3521563"><ele>434.3333333333333</ele><time>2026-05-02T12:58:25.852Z</time></trkpt><trkpt lat="45.7224152" lon="9.3520699"><ele>433.66666666666663</ele><time>2026-05-02T12:58:27.852Z</time></trkpt><trkpt lat="45.7224826" lon="9.3519911"><ele>433.0</ele><time>2026-05-02T12:58:29.851Z</time></trkpt><trkpt lat="45.7225429" lon="9.3519194"><ele>432.3333333333333</ele><time>2026-05-02T12:58:31.851Z</time></trkpt><trkpt lat="45.7226124" lon="9.3518669"><ele>431.66666666666663</ele><time>2026-05-02T12:58:33.851Z</time></trkpt><trkpt lat="45.7226658" lon="9.3518075"><ele>431.0</ele><time>2026-05-02T12:58:35.851Z</time></trkpt><trkpt lat="45.722718" lon="9.3517555"><ele>431.4</ele><time>2026-05-02T12:58:37.852Z</time></trkpt><trkpt lat="45.7227915" lon="9.3516708"><ele>431.8</ele><time>2026-05-02T12:58:40.852Z</time></trkpt><trkpt lat="45.722893" lon="9.3515757"><ele>432.19999999999993</ele><time>2026-05-02T12:58:43.851Z</time></trkpt><trkpt lat="45.7229867" lon="9.3515299"><ele>432.59999999999997</ele><time>2026-05-02T12:58:45.852Z</time></trkpt><trkpt lat="45.723058" lon="9.3514466"><ele>433.0</ele><time>2026-05-02T12:58:47.851Z</time></trkpt><trkpt lat="45.7231603" lon="9.3513654"><ele>433.0</ele><time>2026-05-02T12:58:49.852Z</time></trkpt><trkpt lat="45.7232557" lon="9.3513027"><ele>432.99999999999994</ele><time>2026-05-02T12:58:51.851Z</time></trkpt><trkpt lat="45.7233586" lon="9.3512686"><ele>432.99999999999994</ele><time>2026-05-02T12:58:54.851Z</time></trkpt><trkpt lat="45.723455" lon="9.3512386"><ele>433.0</ele><time>2026-05-02T12:58:56.852Z</time></trkpt><trkpt lat="45.7235254" lon="9.3512448"><ele>433.0</ele><time>2026-05-02T12:58:57.851Z</time></trkpt><trkpt lat="45.7236284" lon="9.3512646"><ele>434.79999999999995</ele><time>2026-05-02T12:58:58.851Z</time></trkpt><trkpt lat="45.7237292" lon="9.3512538"><ele>436.59999999999997</ele><time>2026-05-02T12:59:00.852Z</time></trkpt><trkpt lat="45.7238265" lon="9.3512506"><ele>438.40000000000003</ele><time>2026-05-02T12:59:02.851Z</time></trkpt><trkpt lat="45.7239159" lon="9.3512796"><ele>440.20000000000005</ele><time>2026-05-02T12:59:04.852Z</time></trkpt><trkpt lat="45.7239943" lon="9.3513232"><ele>442.0</ele><time>2026-05-02T12:59:06.852Z</time></trkpt><trkpt lat="45.7241269" lon="9.3512916"><ele>442.00000000000006</ele><time>2026-05-02T12:59:08.851Z</time></trkpt><trkpt lat="45.7242537" lon="9.3512979"><ele>442.0</ele><time>2026-05-02T12:59:10.851Z</time></trkpt><trkpt lat="45.7243293" lon="9.3513093"><ele>442.0</ele><time>2026-05-02T12:59:11.852Z</time></trkpt><trkpt lat="45.7244025" lon="9.3512872"><ele>442.0</ele><time>2026-05-02T12:59:12.851Z</time></trkpt><trkpt lat="45.7244781" lon="9.3512828"><ele>442.00000000000006</ele><time>2026-05-02T12:59:13.851Z</time></trkpt><trkpt lat="45.7245572" lon="9.3512573"><ele>442.0</ele><time>2026-05-02T12:59:14.852Z</time></trkpt><trkpt lat="45.724632" lon="9.3512601"><ele>440.28571428571433</ele><time>2026-05-02T12:59:15.852Z</time></trkpt><trkpt lat="45.7247133" lon="9.3512648"><ele>438.57142857142856</ele><time>2026-05-02T12:59:16.852Z</time></trkpt><trkpt lat="45.7247837" lon="9.3512798"><ele>436.8571428571429</ele><time>2026-05-02T12:59:17.851Z</time></trkpt><trkpt lat="45.7248512" lon="9.3513192"><ele>435.14285714285717</ele><time>2026-05-02T12:59:18.851Z</time></trkpt><trkpt lat="45.7249172" lon="9.3513477"><ele>433.42857142857144</ele><time>2026-05-02T12:59:19.851Z</time></trkpt><trkpt lat="45.724987" lon="9.3513921"><ele>431.7142857142857</ele><time>2026-05-02T12:59:20.852Z</time></trkpt><trkpt lat="45.7250506" lon="9.3514213"><ele>430.0</ele><time>2026-05-02T12:59:21.851Z</time></trkpt><trkpt lat="45.7251221" lon="9.3514596"><ele>430.33333333333337</ele><time>2026-05-02T12:59:22.851Z</time></trkpt><trkpt lat="45.7251902" lon="9.3514979"><ele>430.6666666666667</ele><time>2026-05-02T12:59:23.852Z</time></trkpt><trkpt lat="45.7252669" lon="9.3515224"><ele>431.0</ele><time>2026-05-02T12:59:24.851Z</time></trkpt><trkpt lat="45.7253442" lon="9.3515355"><ele>431.33333333333337</ele><time>2026-05-02T12:59:25.851Z</time></trkpt><trkpt lat="45.7254137" lon="9.351559"><ele>431.6666666666667</ele><time>2026-05-02T12:59:26.852Z</time></trkpt><trkpt lat="45.7254994" lon="9.3515964"><ele>432.0</ele><time>2026-05-02T12:59:27.851Z</time></trkpt><trkpt lat="45.7255625" lon="9.3516138"><ele>432.0</ele><time>2026-05-02T12:59:28.852Z</time></trkpt><trkpt lat="45.7256803" lon="9.3516483"><ele>432.00000000000006</ele><time>2026-05-02T12:59:30.852Z</time></trkpt><trkpt lat="45.7257721" lon="9.3516549"><ele>432.00000000000006</ele><time>2026-05-02T12:59:32.852Z</time></trkpt><trkpt lat="45.7258569" lon="9.3516715"><ele>432.0</ele><time>2026-05-02T12:59:34.852Z</time></trkpt><trkpt lat="45.7259455" lon="9.3516275"><ele>432.0</ele><time>2026-05-02T12:59:36.852Z</time></trkpt><trkpt lat="45.726037" lon="9.3515837"><ele>431.7142857142857</ele><time>2026-05-02T12:59:39.852Z</time></trkpt><trkpt lat="45.7260959" lon="9.3514869"><ele>431.42857142857144</ele><time>2026-05-02T12:59:42.851Z</time></trkpt><trkpt lat="45.726153" lon="9.3514432"><ele>431.1428571428571</ele><time>2026-05-02T12:59:44.851Z</time></trkpt><trkpt lat="45.7262177" lon="9.351396"><ele>430.8571428571429</ele><time>2026-05-02T12:59:47.852Z</time></trkpt><trkpt lat="45.7262688" lon="9.3513283"><ele>430.5714285714286</ele><time>2026-05-02T12:59:50.852Z</time></trkpt><trkpt lat="45.7263246" lon="9.3512768"><ele>430.2857142857143</ele><time>2026-05-02T12:59:53.852Z</time></trkpt><trkpt lat="45.7263918" lon="9.3512325"><ele>430.0</ele><time>2026-05-02T12:59:57.852Z</time></trkpt><trkpt lat="45.7264566" lon="9.3512191"><ele>430.0</ele><time>2026-05-02T13:00:00.852Z</time></trkpt><trkpt lat="45.7265284" lon="9.3512393"><ele>430.0</ele><time>2026-05-02T13:00:03.851Z</time></trkpt><trkpt lat="45.726594" lon="9.3512414"><ele>430.0</ele><time>2026-05-02T13:00:06.851Z</time></trkpt><trkpt lat="45.7266666" lon="9.35121"><ele>430.0</ele><time>2026-05-02T13:00:09.852Z</time></trkpt><trkpt lat="45.7268505" lon="9.3511797"><ele>430.0</ele><time>2026-05-02T13:00:16.852Z</time></trkpt><trkpt lat="45.7269265" lon="9.3511869"><ele>430.8</ele><time>2026-05-02T13:00:19.851Z</time></trkpt><trkpt lat="45.7270172" lon="9.3511925"><ele>431.6</ele><time>2026-05-02T13:00:22.852Z</time></trkpt><trkpt lat="45.7270843" lon="9.3511937"><ele>432.4</ele><time>2026-05-02T13:00:24.852Z</time></trkpt><trkpt lat="45.7272307" lon="9.351194"><ele>433.2</ele><time>2026-05-02T13:00:28.851Z</time></trkpt><trkpt lat="45.7273119" lon="9.3511851"><ele>434.0</ele><time>2026-05-02T13:00:30.852Z</time></trkpt><trkpt lat="45.7273998" lon="9.3511685"><ele>433.99999999999994</ele><time>2026-05-02T13:00:32.851Z</time></trkpt><trkpt lat="45.7274808" lon="9.3511486"><ele>434.0</ele><time>2026-05-02T13:00:34.851Z</time></trkpt><trkpt lat="45.7275625" lon="9.3511197"><ele>434.0</ele><time>2026-05-02T13:00:36.851Z</time></trkpt><trkpt lat="45.7276428" lon="9.3510928"><ele>434.0</ele><time>2026-05-02T13:00:38.852Z</time></trkpt><trkpt lat="45.7277124" lon="9.351063"><ele>433.99999999999994</ele><time>2026-05-02T13:00:40.852Z</time></trkpt><trkpt lat="45.7277728" lon="9.3510326"><ele>434.0</ele><time>2026-05-02T13:00:42.851Z</time></trkpt><trkpt lat="45.7278412" lon="9.3510001"><ele>435.2</ele><time>2026-05-02T13:00:44.851Z</time></trkpt><trkpt lat="45.7279376" lon="9.3509718"><ele>436.4</ele><time>2026-05-02T13:00:46.852Z</time></trkpt><trkpt lat="45.7280257" lon="9.3509473"><ele>437.6</ele><time>2026-05-02T13:00:48.851Z</time></trkpt><trkpt lat="45.7281882" lon="9.3509145"><ele>438.8</ele><time>2026-05-02T13:00:54.851Z</time></trkpt><trkpt lat="45.7282598" lon="9.3508966"><ele>440.0</ele><time>2026-05-02T13:00:57.852Z</time></trkpt><trkpt lat="45.7283275" lon="9.350857"><ele>439.99999999999994</ele><time>2026-05-02T13:01:01.851Z</time></trkpt><trkpt lat="45.728391" lon="9.3508409"><ele>440.0</ele><time>2026-05-02T13:01:03.851Z</time></trkpt><trkpt lat="45.728472" lon="9.3508097"><ele>440.0</ele><time>2026-05-02T13:01:06.851Z</time></trkpt><trkpt lat="45.7285343" lon="9.3507847"><ele>440.0</ele><time>2026-05-02T13:01:09.851Z</time></trkpt><trkpt lat="45.7286213" lon="9.3507718"><ele>440.0</ele><time>2026-05-02T13:01:13.852Z</time></trkpt><trkpt lat="45.7286869" lon="9.3507644"><ele>439.99999999999994</ele><time>2026-05-02T13:01:16.852Z</time></trkpt><trkpt lat="45.728761" lon="9.3507551"><ele>440.0</ele><time>2026-05-02T13:01:20.852Z</time></trkpt><trkpt lat="45.728828" lon="9.3507569"><ele>441.57142857142856</ele><time>2026-05-02T13:01:24.852Z</time></trkpt><trkpt lat="45.728893" lon="9.3507792"><ele>443.1428571428571</ele><time>2026-05-02T13:01:28.851Z</time></trkpt><trkpt lat="45.7289586" lon="9.3507752"><ele>444.71428571428567</ele><time>2026-05-02T13:01:32.851Z</time></trkpt><trkpt lat="45.7290365" lon="9.3507643"><ele>446.2857142857143</ele><time>2026-05-02T13:01:36.851Z</time></trkpt><trkpt lat="45.7291147" lon="9.3507408"><ele>447.8571428571429</ele><time>2026-05-02T13:01:41.851Z</time></trkpt><trkpt lat="45.7291817" lon="9.3507071"><ele>449.4285714285714</ele><time>2026-05-02T13:01:44.852Z</time></trkpt><trkpt lat="45.7292636" lon="9.3506889"><ele>451.0</ele><time>2026-05-02T13:01:48.851Z</time></trkpt><trkpt lat="45.7293358" lon="9.3506745"><ele>452.50000000000006</ele><time>2026-05-02T13:01:51.851Z</time></trkpt><trkpt lat="45.7294269" lon="9.3506394"><ele>454.0</ele><time>2026-05-02T13:01:54.852Z</time></trkpt><trkpt lat="45.7295424" lon="9.3506413"><ele>455.5</ele><time>2026-05-02T13:01:59.852Z</time></trkpt><trkpt lat="45.7296101" lon="9.3506479"><ele>457.0</ele><time>2026-05-02T13:02:03.851Z</time></trkpt><trkpt lat="45.7296667" lon="9.3505915"><ele>458.50000000000006</ele><time>2026-05-02T13:02:05.852Z</time></trkpt><trkpt lat="45.7297309" lon="9.3505683"><ele>460.0</ele><time>2026-05-02T13:02:07.851Z</time></trkpt><trkpt lat="45.7298116" lon="9.3505359"><ele>462.1666666666667</ele><time>2026-05-02T13:02:10.852Z</time></trkpt><trkpt lat="45.7298849" lon="9.3505172"><ele>464.33333333333337</ele><time>2026-05-02T13:02:13.852Z</time></trkpt><trkpt lat="45.7299717" lon="9.3504979"><ele>466.5</ele><time>2026-05-02T13:02:17.852Z</time></trkpt><trkpt lat="45.7300541" lon="9.3504724"><ele>468.66666666666663</ele><time>2026-05-02T13:02:20.852Z</time></trkpt><trkpt lat="45.7301155" lon="9.3504444"><ele>470.8333333333333</ele><time>2026-05-02T13:02:23.851Z</time></trkpt><trkpt lat="45.730179" lon="9.350421"><ele>473.0</ele><time>2026-05-02T13:02:26.851Z</time></trkpt><trkpt lat="45.7302661" lon="9.3504071"><ele>477.0</ele><time>2026-05-02T13:02:30.852Z</time></trkpt><trkpt lat="45.7303404" lon="9.3503944"><ele>480.99999999999994</ele><time>2026-05-02T13:02:33.852Z</time></trkpt><trkpt lat="45.7304052" lon="9.3503805"><ele>484.99999999999994</ele><time>2026-05-02T13:02:36.852Z</time></trkpt><trkpt lat="45.7305826" lon="9.3503881"><ele>489.0</ele><time>2026-05-02T13:02:46.852Z</time></trkpt><trkpt lat="45.7306559" lon="9.3504176"><ele>493.0</ele><time>2026-05-02T13:02:50.852Z</time></trkpt><trkpt lat="45.73071" lon="9.3503071"><ele>493.0</ele><time>2026-05-02T13:02:55.851Z</time></trkpt><trkpt lat="45.730647" lon="9.3502721"><ele>493.0</ele><time>2026-05-02T13:02:59.851Z</time></trkpt><trkpt lat="45.7305838" lon="9.3502512"><ele>493.0</ele><time>2026-05-02T13:03:03.852Z</time></trkpt><trkpt lat="45.7305144" lon="9.350227"><ele>493.0</ele><time>2026-05-02T13:03:07.851Z</time></trkpt><trkpt lat="45.7304416" lon="9.350199"><ele>493.0</ele><time>2026-05-02T13:03:11.852Z</time></trkpt><trkpt lat="45.7303695" lon="9.3501635"><ele>493.0</ele><time>2026-05-02T13:03:15.852Z</time></trkpt><trkpt lat="45.730308" lon="9.3501323"><ele>493.0</ele><time>2026-05-02T13:03:19.851Z</time></trkpt><trkpt lat="45.7302535" lon="9.3500583"><ele>493.0</ele><time>2026-05-02T13:03:23.851Z</time></trkpt><trkpt lat="45.7302381" lon="9.3499522"><ele>493.0</ele><time>2026-05-02T13:03:27.852Z</time></trkpt><trkpt lat="45.7302672" lon="9.3498433"><ele>493.0</ele><time>2026-05-02T13:03:31.852Z</time></trkpt><trkpt lat="45.7303046" lon="9.3497644"><ele>493.0</ele><time>2026-05-02T13:03:34.852Z</time></trkpt><trkpt lat="45.7303435" lon="9.3496909"><ele>493.0</ele><time>2026-05-02T13:03:37.852Z</time></trkpt><trkpt lat="45.7303934" lon="9.3496211"><ele>493.0</ele><time>2026-05-02T13:03:41.852Z</time></trkpt><trkpt lat="45.7304478" lon="9.3495372"><ele>493.0</ele><time>2026-05-02T13:03:45.851Z</time></trkpt><trkpt lat="45.7304789" lon="9.3494585"><ele>494.0</ele><time>2026-05-02T13:03:48.852Z</time></trkpt><trkpt lat="45.7305114" lon="9.349362"><ele>495.0</ele><time>2026-05-02T13:03:52.851Z</time></trkpt><trkpt lat="45.7305466" lon="9.349283"><ele>496.0</ele><time>2026-05-02T13:03:55.852Z</time></trkpt><trkpt lat="45.7305887" lon="9.3491786"><ele>497.0</ele><time>2026-05-02T13:03:59.852Z</time></trkpt><trkpt lat="45.7306175" lon="9.3490888"><ele>498.0</ele><time>2026-05-02T13:04:02.852Z</time></trkpt><trkpt lat="45.7306326" lon="9.3489964"><ele>499.0</ele><time>2026-05-02T13:04:05.852Z</time></trkpt><trkpt lat="45.7306361" lon="9.3488968"><ele>500.0</ele><time>2026-05-02T13:04:08.852Z</time></trkpt><trkpt lat="45.730639" lon="9.3487963"><ele>500.57142857142856</ele><time>2026-05-02T13:04:11.852Z</time></trkpt><trkpt lat="45.73064" lon="9.3486933"><ele>501.14285714285717</ele><time>2026-05-02T13:04:14.851Z</time></trkpt><trkpt lat="45.7306404" lon="9.3485889"><ele>501.7142857142857</ele><time>2026-05-02T13:04:17.852Z</time></trkpt><trkpt lat="45.7306297" lon="9.3484703"><ele>502.2857142857143</ele><time>2026-05-02T13:04:21.852Z</time></trkpt><trkpt lat="45.730625" lon="9.3483709"><ele>502.8571428571429</ele><time>2026-05-02T13:04:24.851Z</time></trkpt><trkpt lat="45.7306263" lon="9.3482773"><ele>503.42857142857144</ele><time>2026-05-02T13:04:27.852Z</time></trkpt><trkpt lat="45.7305987" lon="9.3481759"><ele>504.0</ele><time>2026-05-02T13:04:32.852Z</time></trkpt><trkpt lat="45.7305854" lon="9.3480726"><ele>504.0</ele><time>2026-05-02T13:04:36.851Z</time></trkpt><trkpt lat="45.7305712" lon="9.3479722"><ele>504.0</ele><time>2026-05-02T13:04:39.852Z</time></trkpt><trkpt lat="45.7305538" lon="9.3478754"><ele>504.0</ele><time>2026-05-02T13:04:42.851Z</time></trkpt><trkpt lat="45.7305375" lon="9.3477785"><ele>504.0</ele><time>2026-05-02T13:04:46.852Z</time></trkpt><trkpt lat="45.7305392" lon="9.3476614"><ele>504.0</ele><time>2026-05-02T13:04:50.852Z</time></trkpt><trkpt lat="45.7305673" lon="9.3475571"><ele>504.0</ele><time>2026-05-02T13:04:54.852Z</time></trkpt><trkpt lat="45.7306252" lon="9.3475097"><ele>504.0</ele><time>2026-05-02T13:04:58.851Z</time></trkpt><trkpt lat="45.7307068" lon="9.3475153"><ele>504.0</ele><time>2026-05-02T13:05:02.852Z</time></trkpt><trkpt lat="45.7307757" lon="9.3475276"><ele>504.0</ele><time>2026-05-02T13:05:05.852Z</time></trkpt><trkpt lat="45.730839" lon="9.3475475"><ele>504.0</ele><time>2026-05-02T13:05:08.851Z</time></trkpt><trkpt lat="45.7309185" lon="9.3475809"><ele>504.0</ele><time>2026-05-02T13:05:12.852Z</time></trkpt><trkpt lat="45.7309809" lon="9.347607"><ele>504.0</ele><time>2026-05-02T13:05:16.852Z</time></trkpt><trkpt lat="45.7310625" lon="9.3476382"><ele>504.0</ele><time>2026-05-02T13:05:20.852Z</time></trkpt><trkpt lat="45.7311337" lon="9.3476726"><ele>504.0</ele><time>2026-05-02T13:05:23.852Z</time></trkpt><trkpt lat="45.7312167" lon="9.3477065"><ele>504.3333333333333</ele><time>2026-05-02T13:05:26.851Z</time></trkpt><trkpt lat="45.7312939" lon="9.3477477"><ele>504.66666666666663</ele><time>2026-05-02T13:05:29.852Z</time></trkpt><trkpt lat="45.7313506" lon="9.3477899"><ele>505.0</ele><time>2026-05-02T13:05:31.852Z</time></trkpt><trkpt lat="45.7314305" lon="9.3478534"><ele>505.3333333333333</ele><time>2026-05-02T13:05:34.852Z</time></trkpt><trkpt lat="45.7314903" lon="9.3478942"><ele>505.66666666666663</ele><time>2026-05-02T13:05:36.851Z</time></trkpt><trkpt lat="45.731557" lon="9.3479139"><ele>506.0</ele><time>2026-05-02T13:05:38.851Z</time></trkpt><trkpt lat="45.731638" lon="9.347971"><ele>506.0</ele><time>2026-05-02T13:05:40.852Z</time></trkpt><trkpt lat="45.7317366" lon="9.3480046"><ele>506.0</ele><time>2026-05-02T13:05:42.852Z</time></trkpt><trkpt lat="45.7318283" lon="9.3480092"><ele>506.0</ele><time>2026-05-02T13:05:44.852Z</time></trkpt><trkpt lat="45.7319361" lon="9.3480118"><ele>506.0</ele><time>2026-05-02T13:05:47.851Z</time></trkpt><trkpt lat="45.732005" lon="9.348008"><ele>506.0</ele><time>2026-05-02T13:05:49.852Z</time></trkpt><trkpt lat="45.7321507" lon="9.3479862"><ele>506.99999999999994</ele><time>2026-05-02T13:05:54.852Z</time></trkpt><trkpt lat="45.7322148" lon="9.3479454"><ele>508.0</ele><time>2026-05-02T13:05:56.852Z</time></trkpt><trkpt lat="45.7322769" lon="9.3479"><ele>509.0</ele><time>2026-05-02T13:05:58.851Z</time></trkpt><trkpt lat="45.732336" lon="9.3478216"><ele>510.0</ele><time>2026-05-02T13:06:00.852Z</time></trkpt><trkpt lat="45.7323913" lon="9.3477397"><ele>510.99999999999994</ele><time>2026-05-02T13:06:02.852Z</time></trkpt><trkpt lat="45.7324531" lon="9.3476718"><ele>512.0</ele><time>2026-05-02T13:06:04.851Z</time></trkpt><trkpt lat="45.7325116" lon="9.3475832"><ele>512.0</ele><time>2026-05-02T13:06:06.851Z</time></trkpt><trkpt lat="45.7325839" lon="9.3474979"><ele>512.0</ele><time>2026-05-02T13:06:08.851Z</time></trkpt><trkpt lat="45.7326604" lon="9.347407"><ele>512.0</ele><time>2026-05-02T13:06:10.851Z</time></trkpt><trkpt lat="45.7327284" lon="9.3473138"><ele>512.0</ele><time>2026-05-02T13:06:12.852Z</time></trkpt><trkpt lat="45.7327916" lon="9.3472291"><ele>512.0</ele><time>2026-05-02T13:06:14.852Z</time></trkpt><trkpt lat="45.7328522" lon="9.3471561"><ele>512.1666666666666</ele><time>2026-05-02T13:06:16.852Z</time></trkpt><trkpt lat="45.7329194" lon="9.3470907"><ele>512.3333333333333</ele><time>2026-05-02T13:06:18.852Z</time></trkpt><trkpt lat="45.732985" lon="9.3470433"><ele>512.5</ele><time>2026-05-02T13:06:20.852Z</time></trkpt><trkpt lat="45.7330595" lon="9.347005"><ele>512.6666666666666</ele><time>2026-05-02T13:06:22.852Z</time></trkpt><trkpt lat="45.7331272" lon="9.3469708"><ele>512.8333333333334</ele><time>2026-05-02T13:06:24.851Z</time></trkpt><trkpt lat="45.7332025" lon="9.3469402"><ele>513.0</ele><time>2026-05-02T13:06:26.851Z</time></trkpt><trkpt lat="45.7332705" lon="9.346931"><ele>513.0</ele><time>2026-05-02T13:06:28.852Z</time></trkpt><trkpt lat="45.733333" lon="9.3469632"><ele>513.0</ele><time>2026-05-02T13:06:30.851Z</time></trkpt><trkpt lat="45.7333912" lon="9.3470112"><ele>513.0</ele><time>2026-05-02T13:06:32.852Z</time></trkpt><trkpt lat="45.7334769" lon="9.3470721"><ele>513.0</ele><time>2026-05-02T13:06:35.852Z</time></trkpt><trkpt lat="45.7335549" lon="9.3471227"><ele>513.0</ele><time>2026-05-02T13:06:38.851Z</time></trkpt><trkpt lat="45.7336358" lon="9.3471746"><ele>513.0</ele><time>2026-05-02T13:06:41.852Z</time></trkpt><trkpt lat="45.7336936" lon="9.3472207"><ele>512.8</ele><time>2026-05-02T13:06:44.851Z</time></trkpt><trkpt lat="45.7337115" lon="9.3473392"><ele>512.5999999999999</ele><time>2026-05-02T13:06:47.851Z</time></trkpt><trkpt lat="45.7337127" lon="9.3474696"><ele>512.4000000000001</ele><time>2026-05-02T13:06:49.852Z</time></trkpt><trkpt lat="45.7337327" lon="9.3476073"><ele>512.2</ele><time>2026-05-02T13:06:51.852Z</time></trkpt><trkpt lat="45.7337613" lon="9.3477347"><ele>512.0</ele><time>2026-05-02T13:06:53.852Z</time></trkpt><trkpt lat="45.7338071" lon="9.3478703"><ele>512.0</ele><time>2026-05-02T13:06:55.851Z</time></trkpt><trkpt lat="45.7338734" lon="9.3480075"><ele>512.0</ele><time>2026-05-02T13:06:57.852Z</time></trkpt><trkpt lat="45.7339189" lon="9.3480876"><ele>512.0</ele><time>2026-05-02T13:06:58.851Z</time></trkpt><trkpt lat="45.7340087" lon="9.3482594"><ele>512.0</ele><time>2026-05-02T13:07:00.851Z</time></trkpt><trkpt lat="45.7340494" lon="9.348331"><ele>512.0</ele><time>2026-05-02T13:07:01.851Z</time></trkpt><trkpt lat="45.7341002" lon="9.3484575"><ele>512.1666666666666</ele><time>2026-05-02T13:07:03.852Z</time></trkpt><trkpt lat="45.7341407" lon="9.3485555"><ele>512.3333333333333</ele><time>2026-05-02T13:07:04.851Z</time></trkpt><trkpt lat="45.7341935" lon="9.3486332"><ele>512.5</ele><time>2026-05-02T13:07:05.852Z</time></trkpt><trkpt lat="45.7342681" lon="9.3487853"><ele>512.6666666666666</ele><time>2026-05-02T13:07:07.851Z</time></trkpt><trkpt lat="45.7343188" lon="9.3488702"><ele>512.8333333333334</ele><time>2026-05-02T13:07:08.851Z</time></trkpt><trkpt lat="45.7343524" lon="9.348958"><ele>513.0</ele><time>2026-05-02T13:07:09.851Z</time></trkpt><trkpt lat="45.7344143" lon="9.3489885"><ele>513.1999999999999</ele><time>2026-05-02T13:07:11.852Z</time></trkpt><trkpt lat="45.7345113" lon="9.3489715"><ele>513.4</ele><time>2026-05-02T13:07:13.852Z</time></trkpt><trkpt lat="45.7346337" lon="9.3489815"><ele>513.5999999999999</ele><time>2026-05-02T13:07:15.851Z</time></trkpt><trkpt lat="45.7347075" lon="9.3489963"><ele>513.8</ele><time>2026-05-02T13:07:16.852Z</time></trkpt><trkpt lat="45.734826" lon="9.3490114"><ele>514.0</ele><time>2026-05-02T13:07:18.851Z</time></trkpt><trkpt lat="45.7349425" lon="9.3490546"><ele>514.0</ele><time>2026-05-02T13:07:20.852Z</time></trkpt><trkpt lat="45.7350033" lon="9.3490889"><ele>514.0</ele><time>2026-05-02T13:07:21.851Z</time></trkpt><trkpt lat="45.735118" lon="9.3492104"><ele>514.0</ele><time>2026-05-02T13:07:23.852Z</time></trkpt><trkpt lat="45.7351695" lon="9.349294"><ele>514.0</ele><time>2026-05-02T13:07:24.852Z</time></trkpt><trkpt lat="45.7352646" lon="9.3494203"><ele>514.0</ele><time>2026-05-02T13:07:26.852Z</time></trkpt><trkpt lat="45.7353318" lon="9.3495571"><ele>510.6666666666667</ele><time>2026-05-02T13:07:28.852Z</time></trkpt><trkpt lat="45.7353446" lon="9.3497265"><ele>507.33333333333337</ele><time>2026-05-02T13:07:30.852Z</time></trkpt><trkpt lat="45.7353357" lon="9.3498267"><ele>504.0</ele><time>2026-05-02T13:07:31.851Z</time></trkpt><trkpt lat="45.7353426" lon="9.3499386"><ele>500.66666666666663</ele><time>2026-05-02T13:07:32.852Z</time></trkpt><trkpt lat="45.7353321" lon="9.3500357"><ele>497.3333333333333</ele><time>2026-05-02T13:07:33.851Z</time></trkpt><trkpt lat="45.735316" lon="9.3501334"><ele>494.0</ele><time>2026-05-02T13:07:34.851Z</time></trkpt><trkpt lat="45.7353091" lon="9.3502348"><ele>494.0</ele><time>2026-05-02T13:07:35.851Z</time></trkpt><trkpt lat="45.735294" lon="9.3504368"><ele>494.0</ele><time>2026-05-02T13:07:37.852Z</time></trkpt><trkpt lat="45.7352483" lon="9.3505497"><ele>494.0</ele><time>2026-05-02T13:07:38.851Z</time></trkpt><trkpt lat="45.7352041" lon="9.3506435"><ele>494.0</ele><time>2026-05-02T13:07:39.852Z</time></trkpt><trkpt lat="45.7351615" lon="9.3507417"><ele>494.0</ele><time>2026-05-02T13:07:40.852Z</time></trkpt><trkpt lat="45.7351348" lon="9.3508516"><ele>493.66666666666663</ele><time>2026-05-02T13:07:41.851Z</time></trkpt><trkpt lat="45.7351071" lon="9.3509697"><ele>493.3333333333333</ele><time>2026-05-02T13:07:42.851Z</time></trkpt><trkpt lat="45.7350736" lon="9.3511344"><ele>493.0</ele><time>2026-05-02T13:07:44.852Z</time></trkpt><trkpt lat="45.7350588" lon="9.3512366"><ele>492.66666666666663</ele><time>2026-05-02T13:07:45.851Z</time></trkpt><trkpt lat="45.7350418" lon="9.3513433"><ele>492.3333333333333</ele><time>2026-05-02T13:07:46.852Z</time></trkpt><trkpt lat="45.7350551" lon="9.3514689"><ele>492.0</ele><time>2026-05-02T13:07:47.852Z</time></trkpt><trkpt lat="45.7350854" lon="9.3515632"><ele>492.0</ele><time>2026-05-02T13:07:48.851Z</time></trkpt><trkpt lat="45.7351099" lon="9.3516769"><ele>492.0</ele><time>2026-05-02T13:07:49.852Z</time></trkpt><trkpt lat="45.7351163" lon="9.3517775"><ele>492.0</ele><time>2026-05-02T13:07:50.852Z</time></trkpt><trkpt lat="45.7351172" lon="9.3518905"><ele>492.0</ele><time>2026-05-02T13:07:51.852Z</time></trkpt><trkpt lat="45.7351013" lon="9.3519919"><ele>492.0</ele><time>2026-05-02T13:07:52.851Z</time></trkpt><trkpt lat="45.7351128" lon="9.3520857"><ele>492.0</ele><time>2026-05-02T13:07:53.852Z</time></trkpt><trkpt lat="45.7351372" lon="9.3522094"><ele>490.8333333333333</ele><time>2026-05-02T13:07:54.852Z</time></trkpt><trkpt lat="45.7351106" lon="9.3523265"><ele>489.66666666666663</ele><time>2026-05-02T13:07:55.851Z</time></trkpt><trkpt lat="45.7351228" lon="9.3524558"><ele>488.5</ele><time>2026-05-02T13:07:56.852Z</time></trkpt><trkpt lat="45.7351303" lon="9.3525629"><ele>487.3333333333333</ele><time>2026-05-02T13:07:57.851Z</time></trkpt><trkpt lat="45.7351483" lon="9.3526729"><ele>486.16666666666663</ele><time>2026-05-02T13:07:58.851Z</time></trkpt><trkpt lat="45.7351631" lon="9.3528109"><ele>485.0</ele><time>2026-05-02T13:07:59.852Z</time></trkpt><trkpt lat="45.7351548" lon="9.3529504"><ele>483.3333333333333</ele><time>2026-05-02T13:08:00.851Z</time></trkpt><trkpt lat="45.735195" lon="9.353084"><ele>481.66666666666663</ele><time>2026-05-02T13:08:01.851Z</time></trkpt><trkpt lat="45.735211" lon="9.3532059"><ele>480.0</ele><time>2026-05-02T13:08:02.852Z</time></trkpt><trkpt lat="45.735201" lon="9.3533285"><ele>478.33333333333337</ele><time>2026-05-02T13:08:03.852Z</time></trkpt><trkpt lat="45.7351919" lon="9.3534388"><ele>476.6666666666667</ele><time>2026-05-02T13:08:04.851Z</time></trkpt><trkpt lat="45.7351778" lon="9.3535353"><ele>475.0</ele><time>2026-05-02T13:08:05.852Z</time></trkpt><trkpt lat="45.7351785" lon="9.3536412"><ele>475.00000000000006</ele><time>2026-05-02T13:08:06.851Z</time></trkpt><trkpt lat="45.7351572" lon="9.3537306"><ele>475.0</ele><time>2026-05-02T13:08:07.852Z</time></trkpt><trkpt lat="45.7351529" lon="9.3539049"><ele>475.0</ele><time>2026-05-02T13:08:09.852Z</time></trkpt><trkpt lat="45.7351211" lon="9.3539848"><ele>475.0</ele><time>2026-05-02T13:08:10.851Z</time></trkpt><trkpt lat="45.7351319" lon="9.3540906"><ele>475.00000000000006</ele><time>2026-05-02T13:08:11.851Z</time></trkpt><trkpt lat="45.7351179" lon="9.3542018"><ele>475.0</ele><time>2026-05-02T13:08:12.851Z</time></trkpt><trkpt lat="45.7350908" lon="9.3542931"><ele>474.50000000000006</ele><time>2026-05-02T13:08:13.852Z</time></trkpt><trkpt lat="45.7350269" lon="9.354386"><ele>474.0</ele><time>2026-05-02T13:08:15.851Z</time></trkpt><trkpt lat="45.7349419" lon="9.3544771"><ele>473.5</ele><time>2026-05-02T13:08:17.852Z</time></trkpt><trkpt lat="45.7348807" lon="9.3545072"><ele>473.0</ele><time>2026-05-02T13:08:18.852Z</time></trkpt><trkpt lat="45.7348197" lon="9.3545678"><ele>472.50000000000006</ele><time>2026-05-02T13:08:19.851Z</time></trkpt><trkpt lat="45.734748" lon="9.3546028"><ele>472.0</ele><time>2026-05-02T13:08:21.852Z</time></trkpt><trkpt lat="45.7346802" lon="9.3547072"><ele>470.33333333333337</ele><time>2026-05-02T13:08:23.851Z</time></trkpt><trkpt lat="45.7346643" lon="9.3548672"><ele>468.6666666666667</ele><time>2026-05-02T13:08:25.851Z</time></trkpt><trkpt lat="45.7346439" lon="9.3549723"><ele>467.0</ele><time>2026-05-02T13:08:26.852Z</time></trkpt><trkpt lat="45.7346411" lon="9.3550669"><ele>465.33333333333337</ele><time>2026-05-02T13:08:27.851Z</time></trkpt><trkpt lat="45.7346231" lon="9.3551903"><ele>463.6666666666667</ele><time>2026-05-02T13:08:28.851Z</time></trkpt><trkpt lat="45.7346009" lon="9.3552937"><ele>462.0</ele><time>2026-05-02T13:08:29.852Z</time></trkpt><trkpt lat="45.7345831" lon="9.3553887"><ele>462.0</ele><time>2026-05-02T13:08:30.852Z</time></trkpt><trkpt lat="45.7345585" lon="9.3555219"><ele>462.00000000000006</ele><time>2026-05-02T13:08:31.851Z</time></trkpt><trkpt lat="45.7345565" lon="9.3556653"><ele>462.00000000000006</ele><time>2026-05-02T13:08:32.852Z</time></trkpt><trkpt lat="45.7345116" lon="9.3557886"><ele>462.0</ele><time>2026-05-02T13:08:33.852Z</time></trkpt><trkpt lat="45.7344948" lon="9.355913"><ele>462.0</ele><time>2026-05-02T13:08:34.852Z</time></trkpt><trkpt lat="45.7344714" lon="9.356026"><ele>462.3333333333333</ele><time>2026-05-02T13:08:35.852Z</time></trkpt><trkpt lat="45.7344474" lon="9.3561337"><ele>462.66666666666663</ele><time>2026-05-02T13:08:36.852Z</time></trkpt><trkpt lat="45.7344075" lon="9.356208"><ele>463.0</ele><time>2026-05-02T13:08:37.852Z</time></trkpt><trkpt lat="45.7343716" lon="9.35629"><ele>463.3333333333333</ele><time>2026-05-02T13:08:38.852Z</time></trkpt><trkpt lat="45.7342627" lon="9.3563746"><ele>463.66666666666663</ele><time>2026-05-02T13:08:40.851Z</time></trkpt><trkpt lat="45.7341815" lon="9.3564022"><ele>464.0</ele><time>2026-05-02T13:08:41.852Z</time></trkpt><trkpt lat="45.7341068" lon="9.3564427"><ele>462.3333333333333</ele><time>2026-05-02T13:08:42.851Z</time></trkpt><trkpt lat="45.734026" lon="9.3564834"><ele>460.66666666666663</ele><time>2026-05-02T13:08:43.852Z</time></trkpt><trkpt lat="45.7339617" lon="9.3565355"><ele>459.0</ele><time>2026-05-02T13:08:44.851Z</time></trkpt><trkpt lat="45.7338866" lon="9.3565901"><ele>457.33333333333337</ele><time>2026-05-02T13:08:45.851Z</time></trkpt><trkpt lat="45.733817" lon="9.3566348"><ele>455.6666666666667</ele><time>2026-05-02T13:08:46.852Z</time></trkpt><trkpt lat="45.7337486" lon="9.3566819"><ele>454.0</ele><time>2026-05-02T13:08:47.852Z</time></trkpt><trkpt lat="45.7336701" lon="9.3567279"><ele>454.0</ele><time>2026-05-02T13:08:48.852Z</time></trkpt><trkpt lat="45.7335561" lon="9.3567843"><ele>454.0</ele><time>2026-05-02T13:08:50.852Z</time></trkpt><trkpt lat="45.7334649" lon="9.3568384"><ele>454.0</ele><time>2026-05-02T13:08:52.851Z</time></trkpt><trkpt lat="45.7333739" lon="9.3569159"><ele>454.0</ele><time>2026-05-02T13:08:54.852Z</time></trkpt><trkpt lat="45.7333006" lon="9.3570112"><ele>454.0</ele><time>2026-05-02T13:08:56.851Z</time></trkpt><trkpt lat="45.7332709" lon="9.3570949"><ele>453.50000000000006</ele><time>2026-05-02T13:08:57.851Z</time></trkpt><trkpt lat="45.7332012" lon="9.3572433"><ele>453.0</ele><time>2026-05-02T13:08:59.851Z</time></trkpt><trkpt lat="45.7331494" lon="9.3573978"><ele>452.5</ele><time>2026-05-02T13:09:01.852Z</time></trkpt><trkpt lat="45.7331227" lon="9.3574807"><ele>452.0</ele><time>2026-05-02T13:09:02.852Z</time></trkpt><trkpt lat="45.7330971" lon="9.3575677"><ele>451.50000000000006</ele><time>2026-05-02T13:09:03.851Z</time></trkpt><trkpt lat="45.7330657" lon="9.3576505"><ele>451.0</ele><time>2026-05-02T13:09:04.852Z</time></trkpt><trkpt lat="45.7330236" lon="9.3577478"><ele>451.00000000000006</ele><time>2026-05-02T13:09:05.851Z</time></trkpt><trkpt lat="45.732985" lon="9.3578483"><ele>451.0</ele><time>2026-05-02T13:09:06.852Z</time></trkpt><trkpt lat="45.7329497" lon="9.357938"><ele>451.0</ele><time>2026-05-02T13:09:07.851Z</time></trkpt><trkpt lat="45.7329145" lon="9.3580413"><ele>451.0</ele><time>2026-05-02T13:09:08.851Z</time></trkpt><trkpt lat="45.7328639" lon="9.3581414"><ele>451.00000000000006</ele><time>2026-05-02T13:09:09.852Z</time></trkpt><trkpt lat="45.7328249" lon="9.3582475"><ele>451.0</ele><time>2026-05-02T13:09:10.851Z</time></trkpt><trkpt lat="45.7327869" lon="9.3583439"><ele>449.6666666666667</ele><time>2026-05-02T13:09:11.852Z</time></trkpt><trkpt lat="45.7327416" lon="9.3584378"><ele>448.33333333333337</ele><time>2026-05-02T13:09:12.852Z</time></trkpt><trkpt lat="45.7326993" lon="9.358551"><ele>447.0</ele><time>2026-05-02T13:09:13.852Z</time></trkpt><trkpt lat="45.7326625" lon="9.3586695"><ele>445.66666666666663</ele><time>2026-05-02T13:09:14.852Z</time></trkpt><trkpt lat="45.7326271" lon="9.358776"><ele>444.3333333333333</ele><time>2026-05-02T13:09:15.851Z</time></trkpt><trkpt lat="45.7325753" lon="9.3588764"><ele>443.0</ele><time>2026-05-02T13:09:16.852Z</time></trkpt><trkpt lat="45.7325233" lon="9.3589705"><ele>440.59999999999997</ele><time>2026-05-02T13:09:17.851Z</time></trkpt><trkpt lat="45.7324624" lon="9.359068"><ele>438.19999999999993</ele><time>2026-05-02T13:09:18.852Z</time></trkpt><trkpt lat="45.732408" lon="9.3591621"><ele>435.8</ele><time>2026-05-02T13:09:19.852Z</time></trkpt><trkpt lat="45.7323379" lon="9.359266"><ele>433.4</ele><time>2026-05-02T13:09:20.852Z</time></trkpt><trkpt lat="45.7322791" lon="9.3593582"><ele>431.0</ele><time>2026-05-02T13:09:21.852Z</time></trkpt><trkpt lat="45.7322192" lon="9.3594604"><ele>430.99999999999994</ele><time>2026-05-02T13:09:22.851Z</time></trkpt><trkpt lat="45.7321706" lon="9.359568"><ele>431.0</ele><time>2026-05-02T13:09:23.852Z</time></trkpt><trkpt lat="45.7321252" lon="9.3596834"><ele>431.0</ele><time>2026-05-02T13:09:24.851Z</time></trkpt><trkpt lat="45.7320969" lon="9.3597876"><ele>431.0</ele><time>2026-05-02T13:09:25.851Z</time></trkpt><trkpt lat="45.7320663" lon="9.3599008"><ele>430.99999999999994</ele><time>2026-05-02T13:09:26.852Z</time></trkpt><trkpt lat="45.7320622" lon="9.360007"><ele>431.0</ele><time>2026-05-02T13:09:27.852Z</time></trkpt><trkpt lat="45.7320598" lon="9.3601284"><ele>429.8333333333333</ele><time>2026-05-02T13:09:28.852Z</time></trkpt><trkpt lat="45.7320441" lon="9.3602574"><ele>428.66666666666663</ele><time>2026-05-02T13:09:29.851Z</time></trkpt><trkpt lat="45.7320359" lon="9.3603721"><ele>427.5</ele><time>2026-05-02T13:09:30.851Z</time></trkpt><trkpt lat="45.73203" lon="9.360483"><ele>426.33333333333337</ele><time>2026-05-02T13:09:31.852Z</time></trkpt><trkpt lat="45.732003" lon="9.360597"><ele>425.1666666666667</ele><time>2026-05-02T13:09:32.852Z</time></trkpt><trkpt lat="45.7319644" lon="9.3607162"><ele>424.0</ele><time>2026-05-02T13:09:33.851Z</time></trkpt><trkpt lat="45.731919" lon="9.3608168"><ele>423.6666666666667</ele><time>2026-05-02T13:09:34.852Z</time></trkpt><trkpt lat="45.7318767" lon="9.3609077"><ele>423.33333333333337</ele><time>2026-05-02T13:09:35.852Z</time></trkpt><trkpt lat="45.7318195" lon="9.3610098"><ele>423.0</ele><time>2026-05-02T13:09:36.852Z</time></trkpt><trkpt lat="45.7317664" lon="9.3610795"><ele>422.66666666666663</ele><time>2026-05-02T13:09:37.852Z</time></trkpt><trkpt lat="45.7317135" lon="9.3611493"><ele>422.3333333333333</ele><time>2026-05-02T13:09:38.852Z</time></trkpt><trkpt lat="45.731621" lon="9.3611891"><ele>422.0</ele><time>2026-05-02T13:09:39.851Z</time></trkpt><trkpt lat="45.7315458" lon="9.3612343"><ele>421.99999999999994</ele><time>2026-05-02T13:09:40.851Z</time></trkpt><trkpt lat="45.731469" lon="9.3612722"><ele>422.0</ele><time>2026-05-02T13:09:41.851Z</time></trkpt><trkpt lat="45.7313952" lon="9.3613041"><ele>422.0</ele><time>2026-05-02T13:09:42.852Z</time></trkpt><trkpt lat="45.731322" lon="9.3613319"><ele>422.0</ele><time>2026-05-02T13:09:43.851Z</time></trkpt><trkpt lat="45.7312533" lon="9.3613724"><ele>421.99999999999994</ele><time>2026-05-02T13:09:44.852Z</time></trkpt><trkpt lat="45.7311589" lon="9.3614641"><ele>422.0</ele><time>2026-05-02T13:09:46.851Z</time></trkpt><trkpt lat="45.731107" lon="9.3615231"><ele>420.20000000000005</ele><time>2026-05-02T13:09:48.851Z</time></trkpt><trkpt lat="45.7311474" lon="9.3616474"><ele>418.4</ele><time>2026-05-02T13:09:51.851Z</time></trkpt><trkpt lat="45.7312153" lon="9.3617603"><ele>416.6</ele><time>2026-05-02T13:09:53.852Z</time></trkpt><trkpt lat="45.731268" lon="9.3618189"><ele>414.79999999999995</ele><time>2026-05-02T13:09:54.851Z</time></trkpt><trkpt lat="45.7313294" lon="9.3618514"><ele>413.0</ele><time>2026-05-02T13:09:55.852Z</time></trkpt><trkpt lat="45.7314271" lon="9.3620138"><ele>412.99999999999994</ele><time>2026-05-02T13:09:57.851Z</time></trkpt><trkpt lat="45.7314718" lon="9.3620785"><ele>413.0</ele><time>2026-05-02T13:09:58.851Z</time></trkpt><trkpt lat="45.7315099" lon="9.3621679"><ele>413.0</ele><time>2026-05-02T13:09:59.852Z</time></trkpt><trkpt lat="45.7315538" lon="9.362249"><ele>413.0</ele><time>2026-05-02T13:10:00.851Z</time></trkpt><trkpt lat="45.7316046" lon="9.3623286"><ele>412.99999999999994</ele><time>2026-05-02T13:10:01.851Z</time></trkpt><trkpt lat="45.7316401" lon="9.3624242"><ele>413.0</ele><time>2026-05-02T13:10:02.851Z</time></trkpt><trkpt lat="45.7316836" lon="9.3625789"><ele>413.16666666666663</ele><time>2026-05-02T13:10:04.852Z</time></trkpt><trkpt lat="45.7317176" lon="9.3626637"><ele>413.3333333333333</ele><time>2026-05-02T13:10:05.852Z</time></trkpt><trkpt lat="45.7317579" lon="9.3627657"><ele>413.5</ele><time>2026-05-02T13:10:06.852Z</time></trkpt><trkpt lat="45.731793" lon="9.3628836"><ele>413.66666666666663</ele><time>2026-05-02T13:10:07.851Z</time></trkpt><trkpt lat="45.731835" lon="9.3629854"><ele>413.8333333333333</ele><time>2026-05-02T13:10:08.852Z</time></trkpt><trkpt lat="45.7318615" lon="9.3630717"><ele>414.0</ele><time>2026-05-02T13:10:09.852Z</time></trkpt><trkpt lat="45.7319193" lon="9.3632264"><ele>410.75</ele><time>2026-05-02T13:10:11.852Z</time></trkpt><trkpt lat="45.7320106" lon="9.3634318"><ele>407.5</ele><time>2026-05-02T13:10:13.851Z</time></trkpt><trkpt lat="45.732066" lon="9.3635352"><ele>404.25</ele><time>2026-05-02T13:10:14.852Z</time></trkpt><trkpt lat="45.7321256" lon="9.3636619"><ele>401.0</ele><time>2026-05-02T13:10:15.851Z</time></trkpt><trkpt lat="45.7321978" lon="9.3637758"><ele>401.20000000000005</ele><time>2026-05-02T13:10:16.851Z</time></trkpt><trkpt lat="45.7322419" lon="9.3639061"><ele>401.40000000000003</ele><time>2026-05-02T13:10:17.852Z</time></trkpt><trkpt lat="45.7322731" lon="9.3640613"><ele>401.6</ele><time>2026-05-02T13:10:18.852Z</time></trkpt><trkpt lat="45.7323183" lon="9.3641814"><ele>401.8</ele><time>2026-05-02T13:10:19.852Z</time></trkpt><trkpt lat="45.7323589" lon="9.3642938"><ele>402.0</ele><time>2026-05-02T13:10:20.852Z</time></trkpt><trkpt lat="45.7324072" lon="9.3644239"><ele>402.0</ele><time>2026-05-02T13:10:21.852Z</time></trkpt><trkpt lat="45.7324628" lon="9.3645406"><ele>402.0</ele><time>2026-05-02T13:10:22.851Z</time></trkpt><trkpt lat="45.7325002" lon="9.3646356"><ele>402.0</ele><time>2026-05-02T13:10:23.852Z</time></trkpt><trkpt lat="45.7325365" lon="9.3647481"><ele>402.0</ele><time>2026-05-02T13:10:24.852Z</time></trkpt><trkpt lat="45.7325492" lon="9.3648844"><ele>402.0</ele><time>2026-05-02T13:10:25.852Z</time></trkpt><trkpt lat="45.7325615" lon="9.3650313"><ele>402.8</ele><time>2026-05-02T13:10:26.851Z</time></trkpt><trkpt lat="45.732584" lon="9.3651695"><ele>403.6</ele><time>2026-05-02T13:10:27.851Z</time></trkpt><trkpt lat="45.7325881" lon="9.365311"><ele>404.40000000000003</ele><time>2026-05-02T13:10:28.852Z</time></trkpt><trkpt lat="45.7325876" lon="9.3654432"><ele>405.20000000000005</ele><time>2026-05-02T13:10:29.852Z</time></trkpt><trkpt lat="45.732574" lon="9.3655819"><ele>406.0</ele><time>2026-05-02T13:10:30.851Z</time></trkpt><trkpt lat="45.7325511" lon="9.3656996"><ele>406.0</ele><time>2026-05-02T13:10:31.851Z</time></trkpt><trkpt lat="45.7325422" lon="9.365837"><ele>406.0</ele><time>2026-05-02T13:10:32.852Z</time></trkpt><trkpt lat="45.7325279" lon="9.3659699"><ele>406.0</ele><time>2026-05-02T13:10:33.852Z</time></trkpt><trkpt lat="45.7325412" lon="9.3661087"><ele>406.0</ele><time>2026-05-02T13:10:34.851Z</time></trkpt><trkpt lat="45.7325382" lon="9.3662302"><ele>406.0</ele><time>2026-05-02T13:10:35.852Z</time></trkpt><trkpt lat="45.7325417" lon="9.3663665"><ele>404.20000000000005</ele><time>2026-05-02T13:10:36.851Z</time></trkpt><trkpt lat="45.7325575" lon="9.3665159"><ele>402.40000000000003</ele><time>2026-05-02T13:10:37.852Z</time></trkpt><trkpt lat="45.7325346" lon="9.3666384"><ele>400.6</ele><time>2026-05-02T13:10:38.851Z</time></trkpt><trkpt lat="45.7325185" lon="9.3667794"><ele>398.8</ele><time>2026-05-02T13:10:39.851Z</time></trkpt><trkpt lat="45.732501" lon="9.3669029"><ele>397.0</ele><time>2026-05-02T13:10:40.852Z</time></trkpt><trkpt lat="45.7324894" lon="9.3670351"><ele>397.0</ele><time>2026-05-02T13:10:41.852Z</time></trkpt><trkpt lat="45.7324488" lon="9.3671866"><ele>397.0</ele><time>2026-05-02T13:10:42.851Z</time></trkpt><trkpt lat="45.7324479" lon="9.3673669"><ele>397.0</ele><time>2026-05-02T13:10:43.851Z</time></trkpt><trkpt lat="45.7324446" lon="9.3675122"><ele>397.0</ele><time>2026-05-02T13:10:44.852Z</time></trkpt><trkpt lat="45.7324506" lon="9.3676591"><ele>397.0</ele><time>2026-05-02T13:10:45.851Z</time></trkpt><trkpt lat="45.7324395" lon="9.3677914"><ele>395.00000000000006</ele><time>2026-05-02T13:10:46.851Z</time></trkpt><trkpt lat="45.7324115" lon="9.3679003"><ele>393.0</ele><time>2026-05-02T13:10:47.851Z</time></trkpt><trkpt lat="45.7323508" lon="9.3680313"><ele>391.0</ele><time>2026-05-02T13:10:48.852Z</time></trkpt><trkpt lat="45.7322831" lon="9.3681238"><ele>389.0</ele><time>2026-05-02T13:10:49.851Z</time></trkpt><trkpt lat="45.7322131" lon="9.3681986"><ele>387.00000000000006</ele><time>2026-05-02T13:10:50.851Z</time></trkpt><trkpt lat="45.7321695" lon="9.3682662"><ele>385.0</ele><time>2026-05-02T13:10:51.851Z</time></trkpt><trkpt lat="45.7321198" lon="9.3683227"><ele>382.1666666666667</ele><time>2026-05-02T13:10:52.851Z</time></trkpt><trkpt lat="45.7320554" lon="9.3684142"><ele>379.33333333333337</ele><time>2026-05-02T13:10:54.851Z</time></trkpt><trkpt lat="45.7320016" lon="9.368491"><ele>376.5</ele><time>2026-05-02T13:10:56.852Z</time></trkpt><trkpt lat="45.7319534" lon="9.3685625"><ele>373.6666666666667</ele><time>2026-05-02T13:10:58.852Z</time></trkpt><trkpt lat="45.7318934" lon="9.3686337"><ele>370.83333333333337</ele><time>2026-05-02T13:11:00.852Z</time></trkpt><trkpt lat="45.7318289" lon="9.3687001"><ele>368.0</ele><time>2026-05-02T13:11:02.852Z</time></trkpt><trkpt lat="45.7317686" lon="9.3687704"><ele>370.5</ele><time>2026-05-02T13:11:04.852Z</time></trkpt><trkpt lat="45.7317056" lon="9.3688384"><ele>373.0</ele><time>2026-05-02T13:11:06.851Z</time></trkpt><trkpt lat="45.7316581" lon="9.3689031"><ele>375.5</ele><time>2026-05-02T13:11:08.851Z</time></trkpt><trkpt lat="45.7316075" lon="9.368969"><ele>378.0</ele><time>2026-05-02T13:11:10.851Z</time></trkpt><trkpt lat="45.7315495" lon="9.3690398"><ele>380.5</ele><time>2026-05-02T13:11:12.851Z</time></trkpt><trkpt lat="45.73148" lon="9.3691211"><ele>383.0</ele><time>2026-05-02T13:11:15.851Z</time></trkpt><trkpt lat="45.7314177" lon="9.3692124"><ele>383.0</ele><time>2026-05-02T13:11:18.851Z</time></trkpt><trkpt lat="45.7313695" lon="9.3692741"><ele>383.0</ele><time>2026-05-02T13:11:20.852Z</time></trkpt><trkpt lat="45.7313213" lon="9.3693467"><ele>383.0</ele><time>2026-05-02T13:11:22.851Z</time></trkpt><trkpt lat="45.7312617" lon="9.369453"><ele>383.0</ele><time>2026-05-02T13:11:25.851Z</time></trkpt><trkpt lat="45.7311923" lon="9.3695439"><ele>383.0</ele><time>2026-05-02T13:11:28.851Z</time></trkpt><trkpt lat="45.7311193" lon="9.369621"><ele>383.0</ele><time>2026-05-02T13:11:31.851Z</time></trkpt><trkpt lat="45.7310756" lon="9.369688"><ele>384.6666666666667</ele><time>2026-05-02T13:11:33.852Z</time></trkpt><trkpt lat="45.7310077" lon="9.3697771"><ele>386.33333333333337</ele><time>2026-05-02T13:11:36.851Z</time></trkpt><trkpt lat="45.7309538" lon="9.3698424"><ele>388.0</ele><time>2026-05-02T13:11:38.851Z</time></trkpt><trkpt lat="45.7308998" lon="9.3699426"><ele>389.6666666666667</ele><time>2026-05-02T13:11:41.851Z</time></trkpt><trkpt lat="45.7308713" lon="9.3700568"><ele>391.3333333333333</ele><time>2026-05-02T13:11:43.852Z</time></trkpt><trkpt lat="45.7308363" lon="9.37014"><ele>393.0</ele><time>2026-05-02T13:11:44.851Z</time></trkpt><trkpt lat="45.7307701" lon="9.3702877"><ele>393.0</ele><time>2026-05-02T13:11:46.852Z</time></trkpt><trkpt lat="45.7306979" lon="9.3704143"><ele>393.0</ele><time>2026-05-02T13:11:48.852Z</time></trkpt><trkpt lat="45.7306055" lon="9.3705597"><ele>393.0</ele><time>2026-05-02T13:11:50.851Z</time></trkpt><trkpt lat="45.7305535" lon="9.3706443"><ele>393.0</ele><time>2026-05-02T13:11:51.852Z</time></trkpt><trkpt lat="45.7304893" lon="9.3707268"><ele>393.0</ele><time>2026-05-02T13:11:52.852Z</time></trkpt><trkpt lat="45.7304437" lon="9.3708026"><ele>393.79999999999995</ele><time>2026-05-02T13:11:53.851Z</time></trkpt><trkpt lat="45.7303987" lon="9.3708672"><ele>394.6</ele><time>2026-05-02T13:11:54.852Z</time></trkpt><trkpt lat="45.7303324" lon="9.3709385"><ele>395.4</ele><time>2026-05-02T13:11:55.851Z</time></trkpt><trkpt lat="45.7302532" lon="9.3711011"><ele>396.20000000000005</ele><time>2026-05-02T13:11:57.852Z</time></trkpt><trkpt lat="45.7302025" lon="9.3711748"><ele>397.0</ele><time>2026-05-02T13:11:58.851Z</time></trkpt><trkpt lat="45.7301485" lon="9.3713423"><ele>396.40000000000003</ele><time>2026-05-02T13:12:00.851Z</time></trkpt><trkpt lat="45.7301381" lon="9.3714337"><ele>395.8</ele><time>2026-05-02T13:12:01.851Z</time></trkpt><trkpt lat="45.7301596" lon="9.3715968"><ele>395.2</ele><time>2026-05-02T13:12:03.852Z</time></trkpt><trkpt lat="45.7301694" lon="9.3717581"><ele>394.6</ele><time>2026-05-02T13:12:05.852Z</time></trkpt><trkpt lat="45.7301729" lon="9.3719294"><ele>394.0</ele><time>2026-05-02T13:12:07.851Z</time></trkpt><trkpt lat="45.7301761" lon="9.3720223"><ele>394.0</ele><time>2026-05-02T13:12:08.852Z</time></trkpt><trkpt lat="45.7301662" lon="9.3721168"><ele>394.0</ele><time>2026-05-02T13:12:09.852Z</time></trkpt><trkpt lat="45.7301471" lon="9.3722127"><ele>394.0</ele><time>2026-05-02T13:12:10.852Z</time></trkpt><trkpt lat="45.7301199" lon="9.3723035"><ele>394.0</ele><time>2026-05-02T13:12:11.851Z</time></trkpt><trkpt lat="45.7300898" lon="9.3723949"><ele>394.0</ele><time>2026-05-02T13:12:12.851Z</time></trkpt><trkpt lat="45.7300388" lon="9.3724629"><ele>394.0</ele><time>2026-05-02T13:12:13.851Z</time></trkpt><trkpt lat="45.7299807" lon="9.3725237"><ele>394.0</ele><time>2026-05-02T13:12:14.852Z</time></trkpt><trkpt lat="45.7299127" lon="9.3725801"><ele>392.6666666666667</ele><time>2026-05-02T13:12:15.852Z</time></trkpt><trkpt lat="45.7298291" lon="9.3726296"><ele>391.33333333333337</ele><time>2026-05-02T13:12:16.851Z</time></trkpt><trkpt lat="45.7297524" lon="9.3726672"><ele>390.0</ele><time>2026-05-02T13:12:17.852Z</time></trkpt><trkpt lat="45.7296843" lon="9.3727184"><ele>388.66666666666663</ele><time>2026-05-02T13:12:18.852Z</time></trkpt><trkpt lat="45.7296097" lon="9.3727685"><ele>387.3333333333333</ele><time>2026-05-02T13:12:19.852Z</time></trkpt><trkpt lat="45.7295279" lon="9.3728157"><ele>386.0</ele><time>2026-05-02T13:12:20.851Z</time></trkpt><trkpt lat="45.7294498" lon="9.3728564"><ele>387.5714285714286</ele><time>2026-05-02T13:12:21.852Z</time></trkpt><trkpt lat="45.7293751" lon="9.3728936"><ele>389.14285714285717</ele><time>2026-05-02T13:12:22.851Z</time></trkpt><trkpt lat="45.7293121" lon="9.3729218"><ele>390.7142857142857</ele><time>2026-05-02T13:12:23.852Z</time></trkpt><trkpt lat="45.7292336" lon="9.3729422"><ele>392.28571428571433</ele><time>2026-05-02T13:12:24.852Z</time></trkpt><trkpt lat="45.729161" lon="9.3729375"><ele>393.85714285714283</ele><time>2026-05-02T13:12:25.851Z</time></trkpt><trkpt lat="45.7290825" lon="9.3729316"><ele>395.42857142857144</ele><time>2026-05-02T13:12:26.851Z</time></trkpt><trkpt lat="45.7290195" lon="9.3729154"><ele>397.0</ele><time>2026-05-02T13:12:27.852Z</time></trkpt><trkpt lat="45.7289579" lon="9.3728875"><ele>397.0</ele><time>2026-05-02T13:12:28.852Z</time></trkpt><trkpt lat="45.728896" lon="9.3728469"><ele>397.0</ele><time>2026-05-02T13:12:29.852Z</time></trkpt><trkpt lat="45.7287779" lon="9.3727729"><ele>397.0</ele><time>2026-05-02T13:12:31.852Z</time></trkpt><trkpt lat="45.7287153" lon="9.372733"><ele>397.0</ele><time>2026-05-02T13:12:32.851Z</time></trkpt><trkpt lat="45.7286077" lon="9.3726539"><ele>397.0</ele><time>2026-05-02T13:12:34.852Z</time></trkpt><trkpt lat="45.728503" lon="9.3725683"><ele>395.33333333333337</ele><time>2026-05-02T13:12:36.852Z</time></trkpt><trkpt lat="45.7283872" lon="9.3724951"><ele>393.6666666666667</ele><time>2026-05-02T13:12:38.852Z</time></trkpt><trkpt lat="45.7283262" lon="9.3724627"><ele>392.0</ele><time>2026-05-02T13:12:39.852Z</time></trkpt><trkpt lat="45.7282665" lon="9.3724304"><ele>390.33333333333337</ele><time>2026-05-02T13:12:40.852Z</time></trkpt><trkpt lat="45.7281988" lon="9.3724132"><ele>388.6666666666667</ele><time>2026-05-02T13:12:41.852Z</time></trkpt><trkpt lat="45.72813" lon="9.3724009"><ele>387.0</ele><time>2026-05-02T13:12:42.852Z</time></trkpt><trkpt lat="45.7280565" lon="9.3724012"><ele>387.0</ele><time>2026-05-02T13:12:43.851Z</time></trkpt><trkpt lat="45.7279814" lon="9.3724248"><ele>387.0</ele><time>2026-05-02T13:12:44.852Z</time></trkpt><trkpt lat="45.7279052" lon="9.3724701"><ele>387.0</ele><time>2026-05-02T13:12:45.851Z</time></trkpt><trkpt lat="45.7278315" lon="9.3725194"><ele>387.0</ele><time>2026-05-02T13:12:46.852Z</time></trkpt><trkpt lat="45.7277543" lon="9.3725647"><ele>387.0</ele><time>2026-05-02T13:12:47.852Z</time></trkpt><trkpt lat="45.7276778" lon="9.3726127"><ele>387.0</ele><time>2026-05-02T13:12:48.852Z</time></trkpt><trkpt lat="45.7276021" lon="9.3726562"><ele>386.5</ele><time>2026-05-02T13:12:49.852Z</time></trkpt><trkpt lat="45.7275185" lon="9.3727041"><ele>386.0</ele><time>2026-05-02T13:12:50.852Z</time></trkpt><trkpt lat="45.7274396" lon="9.3727414"><ele>385.5</ele><time>2026-05-02T13:12:51.851Z</time></trkpt><trkpt lat="45.7273548" lon="9.3727739"><ele>385.0</ele><time>2026-05-02T13:12:52.852Z</time></trkpt><trkpt lat="45.7272863" lon="9.3727957"><ele>384.5</ele><time>2026-05-02T13:12:53.852Z</time></trkpt><trkpt lat="45.7272004" lon="9.3728225"><ele>384.0</ele><time>2026-05-02T13:12:54.851Z</time></trkpt><trkpt lat="45.7271166" lon="9.3728436"><ele>383.99999999999994</ele><time>2026-05-02T13:12:55.851Z</time></trkpt><trkpt lat="45.727045" lon="9.3728649"><ele>384.0</ele><time>2026-05-02T13:12:56.851Z</time></trkpt><trkpt lat="45.7269776" lon="9.372901"><ele>384.0</ele><time>2026-05-02T13:12:57.852Z</time></trkpt><trkpt lat="45.7269048" lon="9.3729271"><ele>384.0</ele><time>2026-05-02T13:12:58.852Z</time></trkpt><trkpt lat="45.7268444" lon="9.3729537"><ele>384.0</ele><time>2026-05-02T13:12:59.852Z</time></trkpt><trkpt lat="45.726783" lon="9.3729879"><ele>383.99999999999994</ele><time>2026-05-02T13:13:00.851Z</time></trkpt><trkpt lat="45.7267143" lon="9.3730225"><ele>384.0</ele><time>2026-05-02T13:13:01.852Z</time></trkpt><trkpt lat="45.7266487" lon="9.3730516"><ele>383.85714285714283</ele><time>2026-05-02T13:13:02.851Z</time></trkpt><trkpt lat="45.7265938" lon="9.3731073"><ele>383.7142857142857</ele><time>2026-05-02T13:13:03.851Z</time></trkpt><trkpt lat="45.7265309" lon="9.3731576"><ele>383.57142857142856</ele><time>2026-05-02T13:13:04.852Z</time></trkpt><trkpt lat="45.7264754" lon="9.3732045"><ele>383.42857142857144</ele><time>2026-05-02T13:13:05.852Z</time></trkpt><trkpt lat="45.7263965" lon="9.3733105"><ele>383.2857142857143</ele><time>2026-05-02T13:13:07.851Z</time></trkpt><trkpt lat="45.7263559" lon="9.3733951"><ele>383.1428571428571</ele><time>2026-05-02T13:13:08.852Z</time></trkpt><trkpt lat="45.7263302" lon="9.3734787"><ele>383.0</ele><time>2026-05-02T13:13:09.851Z</time></trkpt><trkpt lat="45.7262717" lon="9.3736399"><ele>383.0</ele><time>2026-05-02T13:13:11.851Z</time></trkpt><trkpt lat="45.7262521" lon="9.3737421"><ele>383.0</ele><time>2026-05-02T13:13:12.851Z</time></trkpt><trkpt lat="45.7262119" lon="9.373845"><ele>383.0</ele><time>2026-05-02T13:13:13.851Z</time></trkpt><trkpt lat="45.7261724" lon="9.3739313"><ele>383.0</ele><time>2026-05-02T13:13:14.852Z</time></trkpt><trkpt lat="45.7261353" lon="9.3740303"><ele>383.0</ele><time>2026-05-02T13:13:15.852Z</time></trkpt><trkpt lat="45.7261182" lon="9.3741239"><ele>383.0</ele><time>2026-05-02T13:13:16.851Z</time></trkpt><trkpt lat="45.7261059" lon="9.3742198"><ele>383.0</ele><time>2026-05-02T13:13:17.851Z</time></trkpt><trkpt lat="45.7260788" lon="9.3743308"><ele>383.33333333333337</ele><time>2026-05-02T13:13:18.851Z</time></trkpt><trkpt lat="45.726064" lon="9.3744345"><ele>383.6666666666667</ele><time>2026-05-02T13:13:19.852Z</time></trkpt><trkpt lat="45.7260447" lon="9.3745438"><ele>384.0</ele><time>2026-05-02T13:13:20.852Z</time></trkpt><trkpt lat="45.7260343" lon="9.3746474"><ele>384.33333333333337</ele><time>2026-05-02T13:13:21.852Z</time></trkpt><trkpt lat="45.7260178" lon="9.3747488"><ele>384.6666666666667</ele><time>2026-05-02T13:13:22.852Z</time></trkpt><trkpt lat="45.7259921" lon="9.3748371"><ele>385.0</ele><time>2026-05-02T13:13:23.851Z</time></trkpt><trkpt lat="45.7259632" lon="9.37501"><ele>384.0</ele><time>2026-05-02T13:13:25.851Z</time></trkpt><trkpt lat="45.7259105" lon="9.3751317"><ele>383.0</ele><time>2026-05-02T13:13:27.851Z</time></trkpt><trkpt lat="45.7258053" lon="9.3752218"><ele>382.0</ele><time>2026-05-02T13:13:29.852Z</time></trkpt><trkpt lat="45.7257" lon="9.3753026"><ele>381.0</ele><time>2026-05-02T13:13:31.851Z</time></trkpt><trkpt lat="45.7256377" lon="9.3753456"><ele>380.0</ele><time>2026-05-02T13:13:32.852Z</time></trkpt><trkpt lat="45.7255243" lon="9.3754194"><ele>380.0</ele><time>2026-05-02T13:13:34.852Z</time></trkpt><trkpt lat="45.7254579" lon="9.3754354"><ele>380.0</ele><time>2026-05-02T13:13:35.852Z</time></trkpt><trkpt lat="45.7253906" lon="9.3754063"><ele>380.0</ele><time>2026-05-02T13:13:36.852Z</time></trkpt><trkpt lat="45.7253126" lon="9.3753872"><ele>380.0</ele><time>2026-05-02T13:13:37.851Z</time></trkpt><trkpt lat="45.7252388" lon="9.3753642"><ele>380.0</ele><time>2026-05-02T13:13:38.851Z</time></trkpt><trkpt lat="45.7251549" lon="9.3753437"><ele>380.0</ele><time>2026-05-02T13:13:39.851Z</time></trkpt><trkpt lat="45.725079" lon="9.3753114"><ele>379.42857142857144</ele><time>2026-05-02T13:13:40.852Z</time></trkpt><trkpt lat="45.7250144" lon="9.3752892"><ele>378.8571428571429</ele><time>2026-05-02T13:13:41.852Z</time></trkpt><trkpt lat="45.7249492" lon="9.3752692"><ele>378.2857142857143</ele><time>2026-05-02T13:13:42.852Z</time></trkpt><trkpt lat="45.7248729" lon="9.3752433"><ele>377.7142857142857</ele><time>2026-05-02T13:13:43.851Z</time></trkpt><trkpt lat="45.7247934" lon="9.3752163"><ele>377.1428571428571</ele><time>2026-05-02T13:13:44.852Z</time></trkpt><trkpt lat="45.7247179" lon="9.3751961"><ele>376.57142857142856</ele><time>2026-05-02T13:13:45.852Z</time></trkpt><trkpt lat="45.7246478" lon="9.3751771"><ele>376.0</ele><time>2026-05-02T13:13:46.852Z</time></trkpt><trkpt lat="45.7245829" lon="9.375181"><ele>376.0</ele><time>2026-05-02T13:13:47.852Z</time></trkpt><trkpt lat="45.7244763" lon="9.375192"><ele>376.0</ele><time>2026-05-02T13:13:49.852Z</time></trkpt><trkpt lat="45.7243822" lon="9.3752166"><ele>376.0</ele><time>2026-05-02T13:13:51.852Z</time></trkpt><trkpt lat="45.7242897" lon="9.3752299"><ele>376.0</ele><time>2026-05-02T13:13:53.852Z</time></trkpt><trkpt lat="45.7241825" lon="9.3752524"><ele>376.0</ele><time>2026-05-02T13:13:55.852Z</time></trkpt><trkpt lat="45.7241176" lon="9.3752677"><ele>376.5</ele><time>2026-05-02T13:13:56.851Z</time></trkpt><trkpt lat="45.7240533" lon="9.3752581"><ele>377.0</ele><time>2026-05-02T13:13:57.852Z</time></trkpt><trkpt lat="45.7239503" lon="9.3752462"><ele>377.5</ele><time>2026-05-02T13:13:59.851Z</time></trkpt><trkpt lat="45.7238631" lon="9.3752599"><ele>378.0</ele><time>2026-05-02T13:14:01.851Z</time></trkpt><trkpt lat="45.7238022" lon="9.3752851"><ele>378.5</ele><time>2026-05-02T13:14:07.852Z</time></trkpt><trkpt lat="45.7237405" lon="9.3753362"><ele>379.0</ele><time>2026-05-02T13:14:22.852Z</time></trkpt><trkpt lat="45.7236604" lon="9.3753529"><ele>379.0</ele><time>2026-05-02T13:14:25.852Z</time></trkpt><trkpt lat="45.7235878" lon="9.3753782"><ele>379.0</ele><time>2026-05-02T13:14:28.852Z</time></trkpt><trkpt lat="45.7234883" lon="9.3753989"><ele>379.0</ele><time>2026-05-02T13:14:32.852Z</time></trkpt><trkpt lat="45.7234245" lon="9.375388"><ele>379.0</ele><time>2026-05-02T13:14:35.852Z</time></trkpt><trkpt lat="45.723357" lon="9.3753581"><ele>379.0</ele><time>2026-05-02T13:14:38.851Z</time></trkpt><trkpt lat="45.7232901" lon="9.3753402"><ele>379.0</ele><time>2026-05-02T13:14:41.851Z</time></trkpt><trkpt lat="45.7232118" lon="9.3753063"><ele>378.2</ele><time>2026-05-02T13:14:44.851Z</time></trkpt><trkpt lat="45.7231989" lon="9.3751839"><ele>377.4</ele><time>2026-05-02T13:14:46.852Z</time></trkpt><trkpt lat="45.7232195" lon="9.3750604"><ele>376.6</ele><time>2026-05-02T13:14:48.852Z</time></trkpt><trkpt lat="45.7232258" lon="9.3749254"><ele>375.8</ele><time>2026-05-02T13:14:50.852Z</time></trkpt><trkpt lat="45.723208" lon="9.3747833"><ele>375.0</ele><time>2026-05-02T13:14:52.852Z</time></trkpt><trkpt lat="45.7231927" lon="9.3746197"><ele>373.75</ele><time>2026-05-02T13:14:54.851Z</time></trkpt><trkpt lat="45.723215" lon="9.3744195"><ele>372.5</ele><time>2026-05-02T13:14:55.852Z</time></trkpt><trkpt lat="45.7232518" lon="9.3742643"><ele>371.25</ele><time>2026-05-02T13:14:57.851Z</time></trkpt><trkpt lat="45.7232712" lon="9.3741334"><ele>370.0</ele><time>2026-05-02T13:14:59.851Z</time></trkpt><trkpt lat="45.7232841" lon="9.373979"><ele>369.0</ele><time>2026-05-02T13:15:01.851Z</time></trkpt><trkpt lat="45.7233004" lon="9.3738194"><ele>368.0</ele><time>2026-05-02T13:15:03.851Z</time></trkpt><trkpt lat="45.723331" lon="9.3736565"><ele>367.0</ele><time>2026-05-02T13:15:05.851Z</time></trkpt><trkpt lat="45.7233541" lon="9.3735169"><ele>366.0</ele><time>2026-05-02T13:15:07.852Z</time></trkpt><trkpt lat="45.7233632" lon="9.3733554"><ele>365.0</ele><time>2026-05-02T13:15:09.851Z</time></trkpt><trkpt lat="45.7233512" lon="9.3732015"><ele>365.0</ele><time>2026-05-02T13:15:11.852Z</time></trkpt><trkpt lat="45.7233329" lon="9.3730698"><ele>365.0</ele><time>2026-05-02T13:15:13.851Z</time></trkpt><trkpt lat="45.7233208" lon="9.3729367"><ele>365.0</ele><time>2026-05-02T13:15:15.851Z</time></trkpt><trkpt lat="45.7233027" lon="9.3728015"><ele>365.0</ele><time>2026-05-02T13:15:17.852Z</time></trkpt><trkpt lat="45.7232834" lon="9.3727156"><ele>365.0</ele><time>2026-05-02T13:15:18.851Z</time></trkpt><trkpt lat="45.7232648" lon="9.3726243"><ele>365.0</ele><time>2026-05-02T13:15:19.852Z</time></trkpt><trkpt lat="45.7232102" lon="9.3724753"><ele>364.8</ele><time>2026-05-02T13:15:21.851Z</time></trkpt><trkpt lat="45.7231547" lon="9.3723087"><ele>364.6</ele><time>2026-05-02T13:15:23.852Z</time></trkpt><trkpt lat="45.723117" lon="9.3722262"><ele>364.4</ele><time>2026-05-02T13:15:24.852Z</time></trkpt><trkpt lat="45.7230795" lon="9.3721378"><ele>364.2</ele><time>2026-05-02T13:15:25.852Z</time></trkpt><trkpt lat="45.7230429" lon="9.3720476"><ele>364.0</ele><time>2026-05-02T13:15:26.851Z</time></trkpt><trkpt lat="45.7229689" lon="9.3718922"><ele>361.25</ele><time>2026-05-02T13:15:28.852Z</time></trkpt><trkpt lat="45.722871" lon="9.3717746"><ele>358.5</ele><time>2026-05-02T13:15:30.851Z</time></trkpt><trkpt lat="45.7227783" lon="9.3716651"><ele>355.75</ele><time>2026-05-02T13:15:32.851Z</time></trkpt><trkpt lat="45.7226832" lon="9.3715829"><ele>353.0</ele><time>2026-05-02T13:15:34.852Z</time></trkpt><trkpt lat="45.722572" lon="9.3715313"><ele>352.4</ele><time>2026-05-02T13:15:36.851Z</time></trkpt><trkpt lat="45.7225121" lon="9.3714964"><ele>351.79999999999995</ele><time>2026-05-02T13:15:37.852Z</time></trkpt><trkpt lat="45.7224047" lon="9.3714959"><ele>351.2</ele><time>2026-05-02T13:15:39.852Z</time></trkpt><trkpt lat="45.7222951" lon="9.3715327"><ele>350.6</ele><time>2026-05-02T13:15:41.852Z</time></trkpt><trkpt lat="45.7222115" lon="9.3715999"><ele>350.0</ele><time>2026-05-02T13:15:43.852Z</time></trkpt><trkpt lat="45.7221629" lon="9.3717199"><ele>350.0</ele><time>2026-05-02T13:15:45.852Z</time></trkpt><trkpt lat="45.722155" lon="9.3718895"><ele>350.0</ele><time>2026-05-02T13:15:47.851Z</time></trkpt><trkpt lat="45.7221673" lon="9.3719847"><ele>350.0</ele><time>2026-05-02T13:15:48.851Z</time></trkpt><trkpt lat="45.722213" lon="9.372152"><ele>350.0</ele><time>2026-05-02T13:15:50.852Z</time></trkpt><trkpt lat="45.7222383" lon="9.3722371"><ele>350.0</ele><time>2026-05-02T13:15:51.851Z</time></trkpt><trkpt lat="45.7222687" lon="9.3723334"><ele>349.33333333333337</ele><time>2026-05-02T13:15:52.851Z</time></trkpt><trkpt lat="45.7223003" lon="9.3724348"><ele>348.6666666666667</ele><time>2026-05-02T13:15:53.852Z</time></trkpt><trkpt lat="45.7223314" lon="9.3725201"><ele>348.0</ele><time>2026-05-02T13:15:54.852Z</time></trkpt><trkpt lat="45.7223589" lon="9.3726072"><ele>347.3333333333333</ele><time>2026-05-02T13:15:55.851Z</time></trkpt><trkpt lat="45.7223974" lon="9.372693"><ele>346.66666666666663</ele><time>2026-05-02T13:15:56.851Z</time></trkpt><trkpt lat="45.722458" lon="9.372862"><ele>346.0</ele><time>2026-05-02T13:15:58.852Z</time></trkpt><trkpt lat="45.7224955" lon="9.3729541"><ele>345.20000000000005</ele><time>2026-05-02T13:15:59.852Z</time></trkpt><trkpt lat="45.7225299" lon="9.3730434"><ele>344.40000000000003</ele><time>2026-05-02T13:16:00.852Z</time></trkpt><trkpt lat="45.7225868" lon="9.3732049"><ele>343.6</ele><time>2026-05-02T13:16:02.852Z</time></trkpt><trkpt lat="45.7226137" lon="9.3733564"><ele>342.8</ele><time>2026-05-02T13:16:04.851Z</time></trkpt><trkpt lat="45.7226151" lon="9.3734911"><ele>342.0</ele><time>2026-05-02T13:16:06.851Z</time></trkpt><trkpt lat="45.7225935" lon="9.3736414"><ele>342.0</ele><time>2026-05-02T13:16:08.852Z</time></trkpt><trkpt lat="45.7225369" lon="9.3737662"><ele>342.0</ele><time>2026-05-02T13:16:10.851Z</time></trkpt><trkpt lat="45.7224656" lon="9.3738652"><ele>342.0</ele><time>2026-05-02T13:16:12.851Z</time></trkpt><trkpt lat="45.7223732" lon="9.3739142"><ele>342.0</ele><time>2026-05-02T13:16:14.852Z</time></trkpt><trkpt lat="45.7222803" lon="9.3739606"><ele>342.0</ele><time>2026-05-02T13:16:16.851Z</time></trkpt><trkpt lat="45.7222007" lon="9.3739866"><ele>343.1666666666667</ele><time>2026-05-02T13:16:18.851Z</time></trkpt><trkpt lat="45.7221276" lon="9.3739754"><ele>344.3333333333333</ele><time>2026-05-02T13:16:20.852Z</time></trkpt><trkpt lat="45.7220356" lon="9.3739747"><ele>345.5</ele><time>2026-05-02T13:16:23.851Z</time></trkpt><trkpt lat="45.7219601" lon="9.3739602"><ele>346.66666666666663</ele><time>2026-05-02T13:16:25.851Z</time></trkpt><trkpt lat="45.7218893" lon="9.3739816"><ele>347.8333333333333</ele><time>2026-05-02T13:16:27.852Z</time></trkpt><trkpt lat="45.7218282" lon="9.3740287"><ele>349.0</ele><time>2026-05-02T13:16:29.852Z</time></trkpt><trkpt lat="45.7217585" lon="9.3741164"><ele>349.0</ele><time>2026-05-02T13:16:31.852Z</time></trkpt><trkpt lat="45.7217024" lon="9.3741879"><ele>349.0</ele><time>2026-05-02T13:16:32.851Z</time></trkpt><trkpt lat="45.7216458" lon="9.3742798"><ele>349.0</ele><time>2026-05-02T13:16:34.851Z</time></trkpt><trkpt lat="45.7215965" lon="9.3743588"><ele>349.0</ele><time>2026-05-02T13:16:36.852Z</time></trkpt><trkpt lat="45.7215439" lon="9.3744313"><ele>349.0</ele><time>2026-05-02T13:16:38.851Z</time></trkpt><trkpt lat="45.7214721" lon="9.374514"><ele>349.0</ele><time>2026-05-02T13:16:40.851Z</time></trkpt><trkpt lat="45.7213972" lon="9.3745835"><ele>349.0</ele><time>2026-05-02T13:16:42.852Z</time></trkpt><trkpt lat="45.721317" lon="9.374632"><ele>349.0</ele><time>2026-05-02T13:16:44.851Z</time></trkpt><trkpt lat="45.7212242" lon="9.3747073"><ele>349.0</ele><time>2026-05-02T13:16:46.851Z</time></trkpt><trkpt lat="45.7211396" lon="9.37481"><ele>349.0</ele><time>2026-05-02T13:16:48.851Z</time></trkpt><trkpt lat="45.7210757" lon="9.3748645"><ele>349.0</ele><time>2026-05-02T13:16:50.851Z</time></trkpt><trkpt lat="45.7210264" lon="9.3749372"><ele>348.4</ele><time>2026-05-02T13:16:51.852Z</time></trkpt><trkpt lat="45.7209178" lon="9.3749481"><ele>347.79999999999995</ele><time>2026-05-02T13:16:53.851Z</time></trkpt><trkpt lat="45.7208397" lon="9.3749059"><ele>347.20000000000005</ele><time>2026-05-02T13:16:54.851Z</time></trkpt><trkpt lat="45.7207181" lon="9.374855"><ele>346.6</ele><time>2026-05-02T13:16:56.851Z</time></trkpt><trkpt lat="45.7206535" lon="9.3748359"><ele>346.0</ele><time>2026-05-02T13:16:57.851Z</time></trkpt><trkpt lat="45.7205487" lon="9.3748203"><ele>346.0</ele><time>2026-05-02T13:16:59.851Z</time></trkpt><trkpt lat="45.7204313" lon="9.374817"><ele>346.0</ele><time>2026-05-02T13:17:01.852Z</time></trkpt><trkpt lat="45.7203065" lon="9.3747988"><ele>346.0</ele><time>2026-05-02T13:17:03.851Z</time></trkpt><trkpt lat="45.7202158" lon="9.3747772"><ele>346.0</ele><time>2026-05-02T13:17:04.852Z</time></trkpt><trkpt lat="45.7201512" lon="9.3747898"><ele>346.0</ele><time>2026-05-02T13:17:05.851Z</time></trkpt><trkpt lat="45.7200387" lon="9.3747983"><ele>345.0</ele><time>2026-05-02T13:17:07.852Z</time></trkpt><trkpt lat="45.7199765" lon="9.3748253"><ele>344.0</ele><time>2026-05-02T13:17:08.852Z</time></trkpt><trkpt lat="45.71989" lon="9.3748429"><ele>343.0</ele><time>2026-05-02T13:17:09.852Z</time></trkpt><trkpt lat="45.7198133" lon="9.3748699"><ele>342.0</ele><time>2026-05-02T13:17:10.851Z</time></trkpt><trkpt lat="45.7197394" lon="9.3748965"><ele>341.0</ele><time>2026-05-02T13:17:11.851Z</time></trkpt><trkpt lat="45.7196511" lon="9.3749065"><ele>340.0</ele><time>2026-05-02T13:17:12.851Z</time></trkpt><trkpt lat="45.7195659" lon="9.3749064"><ele>340.0</ele><time>2026-05-02T13:17:13.852Z</time></trkpt><trkpt lat="45.7195043" lon="9.3748627"><ele>340.0</ele><time>2026-05-02T13:17:14.851Z</time></trkpt><trkpt lat="45.7194251" lon="9.3748478"><ele>340.0</ele><time>2026-05-02T13:17:15.851Z</time></trkpt><trkpt lat="45.7193148" lon="9.3748026"><ele>340.0</ele><time>2026-05-02T13:17:16.851Z</time></trkpt><trkpt lat="45.719235" lon="9.3747801"><ele>340.0</ele><time>2026-05-02T13:17:17.851Z</time></trkpt><trkpt lat="45.7191522" lon="9.3747334"><ele>340.0</ele><time>2026-05-02T13:17:18.851Z</time></trkpt><trkpt lat="45.7190745" lon="9.3746929"><ele>339.0</ele><time>2026-05-02T13:17:19.852Z</time></trkpt><trkpt lat="45.7190014" lon="9.3746506"><ele>338.0</ele><time>2026-05-02T13:17:20.851Z</time></trkpt><trkpt lat="45.7189214" lon="9.3746171"><ele>337.0</ele><time>2026-05-02T13:17:21.852Z</time></trkpt><trkpt lat="45.7188425" lon="9.3745841"><ele>336.0</ele><time>2026-05-02T13:17:22.851Z</time></trkpt><trkpt lat="45.7187482" lon="9.374539"><ele>335.0</ele><time>2026-05-02T13:17:23.852Z</time></trkpt><trkpt lat="45.718658" lon="9.374499"><ele>334.0</ele><time>2026-05-02T13:17:24.851Z</time></trkpt><trkpt lat="45.7185676" lon="9.3744858"><ele>331.0</ele><time>2026-05-02T13:17:25.851Z</time></trkpt><trkpt lat="45.718487" lon="9.3744552"><ele>328.0</ele><time>2026-05-02T13:17:26.851Z</time></trkpt><trkpt lat="45.7184238" lon="9.374441"><ele>325.0</ele><time>2026-05-02T13:17:27.851Z</time></trkpt><trkpt lat="45.7183569" lon="9.3744111"><ele>322.0</ele><time>2026-05-02T13:17:28.851Z</time></trkpt><trkpt lat="45.7183069" lon="9.374356"><ele>319.0</ele><time>2026-05-02T13:17:29.852Z</time></trkpt><trkpt lat="45.7183044" lon="9.3741652"><ele>316.0</ele><time>2026-05-02T13:17:31.851Z</time></trkpt><trkpt lat="45.718315" lon="9.3740682"><ele>316.0</ele><time>2026-05-02T13:17:32.852Z</time></trkpt><trkpt lat="45.7182841" lon="9.3739179"><ele>316.0</ele><time>2026-05-02T13:17:34.852Z</time></trkpt><trkpt lat="45.7181571" lon="9.3738232"><ele>316.0</ele><time>2026-05-02T13:17:36.851Z</time></trkpt><trkpt lat="45.7180821" lon="9.3737764"><ele>316.0</ele><time>2026-05-02T13:17:37.851Z</time></trkpt><trkpt lat="45.718009" lon="9.373729"><ele>316.0</ele><time>2026-05-02T13:17:38.852Z</time></trkpt><trkpt lat="45.7179359" lon="9.3736785"><ele>315.66666666666663</ele><time>2026-05-02T13:17:39.852Z</time></trkpt><trkpt lat="45.7178515" lon="9.3736466"><ele>315.3333333333333</ele><time>2026-05-02T13:17:40.851Z</time></trkpt><trkpt lat="45.7177767" lon="9.3736007"><ele>315.0</ele><time>2026-05-02T13:17:41.851Z</time></trkpt><trkpt lat="45.7176967" lon="9.3735538"><ele>314.6666666666667</ele><time>2026-05-02T13:17:42.852Z</time></trkpt><trkpt lat="45.7176156" lon="9.3735104"><ele>314.33333333333337</ele><time>2026-05-02T13:17:43.852Z</time></trkpt><trkpt lat="45.7175315" lon="9.3734607"><ele>314.0</ele><time>2026-05-02T13:17:44.852Z</time></trkpt><trkpt lat="45.7174493" lon="9.3734201"><ele>312.1666666666667</ele><time>2026-05-02T13:17:45.852Z</time></trkpt><trkpt lat="45.7173631" lon="9.3733618"><ele>310.33333333333337</ele><time>2026-05-02T13:17:46.852Z</time></trkpt><trkpt lat="45.7172888" lon="9.3732883"><ele>308.5</ele><time>2026-05-02T13:17:47.851Z</time></trkpt><trkpt lat="45.7172114" lon="9.3732328"><ele>306.6666666666667</ele><time>2026-05-02T13:17:48.851Z</time></trkpt><trkpt lat="45.7171489" lon="9.3731878"><ele>304.8333333333333</ele><time>2026-05-02T13:17:49.851Z</time></trkpt><trkpt lat="45.7170842" lon="9.3731478"><ele>303.0</ele><time>2026-05-02T13:17:50.852Z</time></trkpt><trkpt lat="45.7169722" lon="9.373141"><ele>303.0</ele><time>2026-05-02T13:17:52.852Z</time></trkpt><trkpt lat="45.7169171" lon="9.3731963"><ele>303.0</ele><time>2026-05-02T13:17:53.852Z</time></trkpt><trkpt lat="45.7168527" lon="9.3733509"><ele>303.0</ele><time>2026-05-02T13:17:55.851Z</time></trkpt><trkpt lat="45.7168212" lon="9.3734383"><ele>303.0</ele><time>2026-05-02T13:17:56.851Z</time></trkpt><trkpt lat="45.7167845" lon="9.3735226"><ele>303.0</ele><time>2026-05-02T13:17:57.851Z</time></trkpt><trkpt lat="45.7167469" lon="9.3736039"><ele>303.0</ele><time>2026-05-02T13:17:58.851Z</time></trkpt><trkpt lat="45.7166999" lon="9.3736882"><ele>301.0</ele><time>2026-05-02T13:17:59.852Z</time></trkpt><trkpt lat="45.7166436" lon="9.3737581"><ele>299.0</ele><time>2026-05-02T13:18:00.851Z</time></trkpt><trkpt lat="45.7165861" lon="9.3738112"><ele>297.0</ele><time>2026-05-02T13:18:01.852Z</time></trkpt><trkpt lat="45.7183044" lon="9.3741652"><ele>300.4</ele><time>2026-05-02T13:17:31.851Z</time></trkpt><trkpt lat="45.718315" lon="9.3740682"><ele>303.79999999999995</ele><time>2026-05-02T13:17:32.852Z</time></trkpt><trkpt lat="45.7182841" lon="9.3739179"><ele>307.2</ele><time>2026-05-02T13:17:34.852Z</time></trkpt><trkpt lat="45.7181571" lon="9.3738232"><ele>310.59999999999997</ele><time>2026-05-02T13:17:36.851Z</time></trkpt><trkpt lat="45.7180821" lon="9.3737764"><ele>314.0</ele><time>2026-05-02T13:17:37.851Z</time></trkpt><trkpt lat="45.718009" lon="9.373729"><ele>314.0</ele><time>2026-05-02T13:17:38.852Z</time></trkpt><trkpt lat="45.7179359" lon="9.3736785"><ele>314.0</ele><time>2026-05-02T13:17:39.852Z</time></trkpt><trkpt lat="45.7178515" lon="9.3736466"><ele>314.0</ele><time>2026-05-02T13:17:40.851Z</time></trkpt><trkpt lat="45.7177767" lon="9.3736007"><ele>314.0</ele><time>2026-05-02T13:17:41.851Z</time></trkpt><trkpt lat="45.7176967" lon="9.3735538"><ele>314.0</ele><time>2026-05-02T13:17:42.852Z</time></trkpt><trkpt lat="45.7176156" lon="9.3735104"><ele>314.0</ele><time>2026-05-02T13:17:43.852Z</time></trkpt><trkpt lat="45.7175315" lon="9.3734607"><ele>312.1666666666667</ele><time>2026-05-02T13:17:44.852Z</time></trkpt><trkpt lat="45.7174493" lon="9.3734201"><ele>310.33333333333337</ele><time>2026-05-02T13:17:45.852Z</time></trkpt><trkpt lat="45.7173631" lon="9.3733618"><ele>308.5</ele><time>2026-05-02T13:17:46.852Z</time></trkpt><trkpt lat="45.7172888" lon="9.3732883"><ele>306.6666666666667</ele><time>2026-05-02T13:17:47.851Z</time></trkpt><trkpt lat="45.7172114" lon="9.3732328"><ele>304.8333333333333</ele><time>2026-05-02T13:17:48.851Z</time></trkpt><trkpt lat="45.7171489" lon="9.3731878"><ele>303.0</ele><time>2026-05-02T13:17:49.851Z</time></trkpt><trkpt lat="45.7170842" lon="9.3731478"><ele>303.0</ele><time>2026-05-02T13:17:50.852Z</time></trkpt><trkpt lat="45.7169722" lon="9.373141"><ele>303.0</ele><time>2026-05-02T13:17:52.852Z</time></trkpt><trkpt lat="45.7169171" lon="9.3731963"><ele>303.0</ele><time>2026-05-02T13:17:53.852Z</time></trkpt><trkpt lat="45.7168527" lon="9.3733509"><ele>303.0</ele><time>2026-05-02T13:17:55.851Z</time></trkpt><trkpt lat="45.7168212" lon="9.3734383"><ele>303.0</ele><time>2026-05-02T13:17:56.851Z</time></trkpt><trkpt lat="45.7167845" lon="9.3735226"><ele>303.0</ele><time>2026-05-02T13:17:57.851Z</time></trkpt><trkpt lat="45.7167469" lon="9.3736039"><ele>302.14285714285717</ele><time>2026-05-02T13:17:58.851Z</time></trkpt><trkpt lat="45.7166999" lon="9.3736882"><ele>301.2857142857143</ele><time>2026-05-02T13:17:59.852Z</time></trkpt><trkpt lat="45.7166436" lon="9.3737581"><ele>300.42857142857144</ele><time>2026-05-02T13:18:00.851Z</time></trkpt><trkpt lat="45.7165861" lon="9.3738112"><ele>299.57142857142856</ele><time>2026-05-02T13:18:01.852Z</time></trkpt><trkpt lat="45.7165254" lon="9.3738562"><ele>298.7142857142857</ele><time>2026-05-02T13:18:02.851Z</time></trkpt><trkpt lat="45.7164632" lon="9.3739001"><ele>297.8571428571429</ele><time>2026-05-02T13:18:03.852Z</time></trkpt><trkpt lat="45.7164008" lon="9.3739373"><ele>297.0</ele><time>2026-05-02T13:18:04.851Z</time></trkpt><trkpt lat="45.7163373" lon="9.3739692"><ele>297.0</ele><time>2026-05-02T13:18:05.852Z</time></trkpt><trkpt lat="45.7162697" lon="9.3739988"><ele>297.0</ele><time>2026-05-02T13:18:06.851Z</time></trkpt><trkpt lat="45.7162023" lon="9.3740298"><ele>297.0</ele><time>2026-05-02T13:18:07.851Z</time></trkpt><trkpt lat="45.7161376" lon="9.3740652"><ele>297.0</ele><time>2026-05-02T13:18:08.851Z</time></trkpt><trkpt lat="45.7160766" lon="9.3741013"><ele>297.0</ele><time>2026-05-02T13:18:09.851Z</time></trkpt><trkpt lat="45.7160096" lon="9.3741378"><ele>297.0</ele><time>2026-05-02T13:18:10.851Z</time></trkpt><trkpt lat="45.7159526" lon="9.3741833"><ele>297.0</ele><time>2026-05-02T13:18:11.852Z</time></trkpt><trkpt lat="45.7158967" lon="9.3742354"><ele>296.7142857142857</ele><time>2026-05-02T13:18:12.851Z</time></trkpt><trkpt lat="45.7158358" lon="9.3742874"><ele>296.42857142857144</ele><time>2026-05-02T13:18:13.852Z</time></trkpt><trkpt lat="45.7157748" lon="9.3743495"><ele>296.14285714285717</ele><time>2026-05-02T13:18:14.851Z</time></trkpt><trkpt lat="45.7157257" lon="9.3744188"><ele>295.8571428571429</ele><time>2026-05-02T13:18:15.851Z</time></trkpt><trkpt lat="45.7156805" lon="9.3744915"><ele>295.57142857142856</ele><time>2026-05-02T13:18:16.851Z</time></trkpt><trkpt lat="45.7156397" lon="9.3745728"><ele>295.28571428571433</ele><time>2026-05-02T13:18:17.851Z</time></trkpt><trkpt lat="45.71561" lon="9.3746626"><ele>295.0</ele><time>2026-05-02T13:18:18.852Z</time></trkpt><trkpt lat="45.7155825" lon="9.374755"><ele>295.00000000000006</ele><time>2026-05-02T13:18:19.852Z</time></trkpt><trkpt lat="45.7155545" lon="9.3748544"><ele>295.0</ele><time>2026-05-02T13:18:20.852Z</time></trkpt><trkpt lat="45.715532" lon="9.3749501"><ele>295.0</ele><time>2026-05-02T13:18:21.851Z</time></trkpt><trkpt lat="45.7155116" lon="9.3750504"><ele>295.0</ele><time>2026-05-02T13:18:22.852Z</time></trkpt><trkpt lat="45.7154877" lon="9.3751508"><ele>295.0</ele><time>2026-05-02T13:18:23.851Z</time></trkpt><trkpt lat="45.7154625" lon="9.3752493"><ele>295.00000000000006</ele><time>2026-05-02T13:18:24.851Z</time></trkpt><trkpt lat="45.715437" lon="9.3753496"><ele>295.0</ele><time>2026-05-02T13:18:25.851Z</time></trkpt><trkpt lat="45.7153809" lon="9.3755248"><ele>294.7142857142857</ele><time>2026-05-02T13:18:27.851Z</time></trkpt><trkpt lat="45.7153449" lon="9.3756207"><ele>294.42857142857144</ele><time>2026-05-02T13:18:28.851Z</time></trkpt><trkpt lat="45.7153095" lon="9.3757178"><ele>294.1428571428571</ele><time>2026-05-02T13:18:29.851Z</time></trkpt><trkpt lat="45.7152878" lon="9.3758043"><ele>293.8571428571429</ele><time>2026-05-02T13:18:30.851Z</time></trkpt><trkpt lat="45.7152532" lon="9.3758879"><ele>293.57142857142856</ele><time>2026-05-02T13:18:31.852Z</time></trkpt><trkpt lat="45.7152265" lon="9.3759765"><ele>293.2857142857143</ele><time>2026-05-02T13:18:32.851Z</time></trkpt><trkpt lat="45.7151972" lon="9.3760803"><ele>293.0</ele><time>2026-05-02T13:18:33.851Z</time></trkpt><trkpt lat="45.7151697" lon="9.3761796"><ele>292.99999999999994</ele><time>2026-05-02T13:18:34.851Z</time></trkpt><trkpt lat="45.7151382" lon="9.376274"><ele>293.0</ele><time>2026-05-02T13:18:35.852Z</time></trkpt><trkpt lat="45.715112" lon="9.3763739"><ele>293.0</ele><time>2026-05-02T13:18:36.852Z</time></trkpt><trkpt lat="45.7150776" lon="9.3764707"><ele>293.0</ele><time>2026-05-02T13:18:37.852Z</time></trkpt><trkpt lat="45.7150463" lon="9.3765699"><ele>293.0</ele><time>2026-05-02T13:18:38.852Z</time></trkpt><trkpt lat="45.715016" lon="9.3766569"><ele>292.99999999999994</ele><time>2026-05-02T13:18:39.851Z</time></trkpt><trkpt lat="45.7149814" lon="9.3767591"><ele>293.0</ele><time>2026-05-02T13:18:40.851Z</time></trkpt><trkpt lat="45.714949" lon="9.3768546"><ele>292.6666666666667</ele><time>2026-05-02T13:18:41.852Z</time></trkpt><trkpt lat="45.7149218" lon="9.3769561"><ele>292.33333333333337</ele><time>2026-05-02T13:18:42.852Z</time></trkpt><trkpt lat="45.7148816" lon="9.3770625"><ele>292.0</ele><time>2026-05-02T13:18:43.851Z</time></trkpt><trkpt lat="45.7148531" lon="9.3771594"><ele>291.6666666666667</ele><time>2026-05-02T13:18:44.852Z</time></trkpt><trkpt lat="45.7148187" lon="9.3772688"><ele>291.3333333333333</ele><time>2026-05-02T13:18:45.852Z</time></trkpt><trkpt lat="45.7147834" lon="9.3773801"><ele>291.0</ele><time>2026-05-02T13:18:46.852Z</time></trkpt><trkpt lat="45.7147503" lon="9.3774848"><ele>291.0</ele><time>2026-05-02T13:18:47.851Z</time></trkpt><trkpt lat="45.7147229" lon="9.3775752"><ele>291.0</ele><time>2026-05-02T13:18:48.852Z</time></trkpt><trkpt lat="45.7146749" lon="9.3777403"><ele>291.0</ele><time>2026-05-02T13:18:50.852Z</time></trkpt><trkpt lat="45.7146445" lon="9.3778197"><ele>291.0</ele><time>2026-05-02T13:18:51.852Z</time></trkpt><trkpt lat="45.7146206" lon="9.3779123"><ele>291.0</ele><time>2026-05-02T13:18:52.851Z</time></trkpt><trkpt lat="45.7145944" lon="9.3780047"><ele>291.0</ele><time>2026-05-02T13:18:53.852Z</time></trkpt><trkpt lat="45.7145395" lon="9.3781555"><ele>291.2</ele><time>2026-05-02T13:18:55.851Z</time></trkpt><trkpt lat="45.7144907" lon="9.3782653"><ele>291.40000000000003</ele><time>2026-05-02T13:18:57.851Z</time></trkpt><trkpt lat="45.7144395" lon="9.3783664"><ele>291.6</ele><time>2026-05-02T13:18:59.852Z</time></trkpt><trkpt lat="45.714414" lon="9.378485"><ele>291.8</ele><time>2026-05-02T13:19:01.851Z</time></trkpt><trkpt lat="45.7143612" lon="9.3786328"><ele>292.0</ele><time>2026-05-02T13:19:03.851Z</time></trkpt><trkpt lat="45.7143253" lon="9.3787755"><ele>291.6</ele><time>2026-05-02T13:19:05.851Z</time></trkpt><trkpt lat="45.7143036" lon="9.3788621"><ele>291.2</ele><time>2026-05-02T13:19:06.851Z</time></trkpt><trkpt lat="45.7142751" lon="9.3789509"><ele>290.8</ele><time>2026-05-02T13:19:07.851Z</time></trkpt><trkpt lat="45.7142305" lon="9.3791169"><ele>290.4</ele><time>2026-05-02T13:19:09.851Z</time></trkpt><trkpt lat="45.7141932" lon="9.3792859"><ele>290.0</ele><time>2026-05-02T13:19:11.851Z</time></trkpt><trkpt lat="45.7141451" lon="9.3794589"><ele>290.0</ele><time>2026-05-02T13:19:13.851Z</time></trkpt><trkpt lat="45.7140952" lon="9.3796156"><ele>290.0</ele><time>2026-05-02T13:19:15.852Z</time></trkpt><trkpt lat="45.7140608" lon="9.3796955"><ele>290.0</ele><time>2026-05-02T13:19:16.852Z</time></trkpt><trkpt lat="45.7140296" lon="9.3797743"><ele>290.0</ele><time>2026-05-02T13:19:17.852Z</time></trkpt><trkpt lat="45.7139901" lon="9.3798497"><ele>290.0</ele><time>2026-05-02T13:19:18.852Z</time></trkpt><trkpt lat="45.7139236" lon="9.3799799"><ele>290.0</ele><time>2026-05-02T13:19:20.852Z</time></trkpt><trkpt lat="45.7138617" lon="9.3801173"><ele>290.4</ele><time>2026-05-02T13:19:22.852Z</time></trkpt><trkpt lat="45.713806" lon="9.3802675"><ele>290.8</ele><time>2026-05-02T13:19:24.852Z</time></trkpt><trkpt lat="45.7137612" lon="9.3803807"><ele>291.2</ele><time>2026-05-02T13:19:26.851Z</time></trkpt><trkpt lat="45.7137196" lon="9.3804945"><ele>291.6</ele><time>2026-05-02T13:19:29.851Z</time></trkpt><trkpt lat="45.7136513" lon="9.3805765"><ele>292.0</ele><time>2026-05-02T13:19:32.851Z</time></trkpt><trkpt lat="45.7135783" lon="9.3806635"><ele>292.5</ele><time>2026-05-02T13:19:36.852Z</time></trkpt><trkpt lat="45.7134933" lon="9.3807035"><ele>293.0</ele><time>2026-05-02T13:19:39.852Z</time></trkpt><trkpt lat="45.7134024" lon="9.3807399"><ele>293.5</ele><time>2026-05-02T13:19:42.852Z</time></trkpt><trkpt lat="45.7133302" lon="9.3807615"><ele>294.0</ele><time>2026-05-02T13:19:44.852Z</time></trkpt><trkpt lat="45.7132613" lon="9.3807978"><ele>294.5</ele><time>2026-05-02T13:19:46.851Z</time></trkpt><trkpt lat="45.713197" lon="9.3808222"><ele>295.0</ele><time>2026-05-02T13:19:48.851Z</time></trkpt><trkpt lat="45.7131104" lon="9.3808622"><ele>295.0</ele><time>2026-05-02T13:19:50.852Z</time></trkpt><trkpt lat="45.7130322" lon="9.3809254"><ele>295.0</ele><time>2026-05-02T13:19:52.851Z</time></trkpt><trkpt lat="45.7129472" lon="9.3809623"><ele>295.0</ele><time>2026-05-02T13:19:54.852Z</time></trkpt><trkpt lat="45.712867" lon="9.3809935"><ele>295.0</ele><time>2026-05-02T13:19:56.851Z</time></trkpt><trkpt lat="45.712737" lon="9.3810415"><ele>295.0</ele><time>2026-05-02T13:19:58.851Z</time></trkpt><trkpt lat="45.7126726" lon="9.3810597"><ele>295.0</ele><time>2026-05-02T13:19:59.852Z</time></trkpt><trkpt lat="45.7125529" lon="9.3811029"><ele>295.0</ele><time>2026-05-02T13:20:01.851Z</time></trkpt><trkpt lat="45.7124545" lon="9.3811612"><ele>295.0</ele><time>2026-05-02T13:20:02.852Z</time></trkpt><trkpt lat="45.7123864" lon="9.3812039"><ele>295.0</ele><time>2026-05-02T13:20:03.852Z</time></trkpt><trkpt lat="45.7122907" lon="9.3812358"><ele>295.0</ele><time>2026-05-02T13:20:05.852Z</time></trkpt><trkpt lat="45.7122246" lon="9.3812884"><ele>295.5</ele><time>2026-05-02T13:20:07.852Z</time></trkpt><trkpt lat="45.7121553" lon="9.3813565"><ele>296.0</ele><time>2026-05-02T13:20:09.851Z</time></trkpt><trkpt lat="45.7120986" lon="9.3814323"><ele>296.5</ele><time>2026-05-02T13:20:11.851Z</time></trkpt><trkpt lat="45.7120781" lon="9.3815209"><ele>297.0</ele><time>2026-05-02T13:20:13.852Z</time></trkpt><trkpt lat="45.7120256" lon="9.3816298"><ele>297.5</ele><time>2026-05-02T13:20:15.851Z</time></trkpt><trkpt lat="45.7119807" lon="9.3817583"><ele>298.0</ele><time>2026-05-02T13:20:17.852Z</time></trkpt><trkpt lat="45.711935" lon="9.3818642"><ele>298.0</ele><time>2026-05-02T13:20:19.852Z</time></trkpt><trkpt lat="45.7118586" lon="9.3819373"><ele>298.0</ele><time>2026-05-02T13:20:20.851Z</time></trkpt><trkpt lat="45.7117978" lon="9.3820108"><ele>298.0</ele><time>2026-05-02T13:20:21.852Z</time></trkpt><trkpt lat="45.711773" lon="9.3821097"><ele>298.0</ele><time>2026-05-02T13:20:22.851Z</time></trkpt><trkpt lat="45.7117706" lon="9.3822212"><ele>298.0</ele><time>2026-05-02T13:20:23.852Z</time></trkpt><trkpt lat="45.7117199" lon="9.3823692"><ele>298.0</ele><time>2026-05-02T13:20:25.851Z</time></trkpt><trkpt lat="45.7116882" lon="9.3824709"><ele>298.0</ele><time>2026-05-02T13:20:26.852Z</time></trkpt><trkpt lat="45.7115986" lon="9.3825489"><ele>298.0</ele><time>2026-05-02T13:20:28.852Z</time></trkpt><trkpt lat="45.7115274" lon="9.382638"><ele>298.0</ele><time>2026-05-02T13:20:30.852Z</time></trkpt><trkpt lat="45.7115092" lon="9.3827389"><ele>298.0</ele><time>2026-05-02T13:20:31.852Z</time></trkpt><trkpt lat="45.7114612" lon="9.3828"><ele>298.0</ele><time>2026-05-02T13:20:32.851Z</time></trkpt><trkpt lat="45.7114452" lon="9.3829268"><ele>298.0</ele><time>2026-05-02T13:20:34.851Z</time></trkpt><trkpt lat="45.7113974" lon="9.3830205"><ele>298.0</ele><time>2026-05-02T13:20:35.851Z</time></trkpt><trkpt lat="45.7112811" lon="9.3831249"><ele>298.0</ele><time>2026-05-02T13:20:37.852Z</time></trkpt><trkpt lat="45.7112423" lon="9.3832021"><ele>298.0</ele><time>2026-05-02T13:20:38.852Z</time></trkpt><trkpt lat="45.7111959" lon="9.3832653"><ele>298.0</ele><time>2026-05-02T13:20:39.851Z</time></trkpt><trkpt lat="45.7111198" lon="9.3834048"><ele>298.0</ele><time>2026-05-02T13:20:41.852Z</time></trkpt><trkpt lat="45.7110319" lon="9.3835422"><ele>297.8</ele><time>2026-05-02T13:20:43.851Z</time></trkpt><trkpt lat="45.7109839" lon="9.3836549"><ele>297.6</ele><time>2026-05-02T13:20:45.851Z</time></trkpt><trkpt lat="45.7109077" lon="9.3837622"><ele>297.4</ele><time>2026-05-02T13:20:47.852Z</time></trkpt><trkpt lat="45.7108457" lon="9.3838924"><ele>297.2</ele><time>2026-05-02T13:20:49.851Z</time></trkpt><trkpt lat="45.7107918" lon="9.3839859"><ele>297.0</ele><time>2026-05-02T13:20:51.852Z</time></trkpt><trkpt lat="45.7107948" lon="9.384081"><ele>297.8333333333333</ele><time>2026-05-02T13:20:53.852Z</time></trkpt><trkpt lat="45.7107502" lon="9.3842011"><ele>298.6666666666667</ele><time>2026-05-02T13:20:56.852Z</time></trkpt><trkpt lat="45.7106964" lon="9.3842805"><ele>299.5</ele><time>2026-05-02T13:20:58.851Z</time></trkpt><trkpt lat="45.7106533" lon="9.384379"><ele>300.33333333333337</ele><time>2026-05-02T13:20:59.851Z</time></trkpt><trkpt lat="45.7106121" lon="9.3844993"><ele>301.1666666666667</ele><time>2026-05-02T13:21:01.851Z</time></trkpt><trkpt lat="45.7105515" lon="9.3846083"><ele>302.0</ele><time>2026-05-02T13:21:03.852Z</time></trkpt><trkpt lat="45.7104768" lon="9.3847571"><ele>302.0</ele><time>2026-05-02T13:21:05.851Z</time></trkpt><trkpt lat="45.7104147" lon="9.384847"><ele>302.0</ele><time>2026-05-02T13:21:07.852Z</time></trkpt><trkpt lat="45.7103588" lon="9.3849765"><ele>302.0</ele><time>2026-05-02T13:21:09.851Z</time></trkpt><trkpt lat="45.7103001" lon="9.3851374"><ele>302.0</ele><time>2026-05-02T13:21:11.851Z</time></trkpt><trkpt lat="45.7102434" lon="9.385218"><ele>302.0</ele><time>2026-05-02T13:21:12.851Z</time></trkpt><trkpt lat="45.7101789" lon="9.385381"><ele>301.6666666666667</ele><time>2026-05-02T13:21:14.851Z</time></trkpt><trkpt lat="45.7101418" lon="9.38549"><ele>301.33333333333337</ele><time>2026-05-02T13:21:15.851Z</time></trkpt><trkpt lat="45.7101711" lon="9.3855926"><ele>301.0</ele><time>2026-05-02T13:21:16.851Z</time></trkpt><trkpt lat="45.710184" lon="9.3856939"><ele>300.6666666666667</ele><time>2026-05-02T13:21:17.851Z</time></trkpt><trkpt lat="45.7102064" lon="9.3857983"><ele>300.3333333333333</ele><time>2026-05-02T13:21:18.851Z</time></trkpt><trkpt lat="45.7102541" lon="9.3858913"><ele>300.0</ele><time>2026-05-02T13:21:19.852Z</time></trkpt><trkpt lat="45.7103053" lon="9.3859963"><ele>300.0</ele><time>2026-05-02T13:21:20.852Z</time></trkpt><trkpt lat="45.7103464" lon="9.3860891"><ele>300.0</ele><time>2026-05-02T13:21:21.851Z</time></trkpt><trkpt lat="45.7103858" lon="9.3862133"><ele>300.0</ele><time>2026-05-02T13:21:22.851Z</time></trkpt><trkpt lat="45.7104488" lon="9.3863238"><ele>300.0</ele><time>2026-05-02T13:21:23.852Z</time></trkpt><trkpt lat="45.7104707" lon="9.3864533"><ele>300.0</ele><time>2026-05-02T13:21:24.852Z</time></trkpt><trkpt lat="45.7104927" lon="9.3865863"><ele>299.8</ele><time>2026-05-02T13:21:25.852Z</time></trkpt><trkpt lat="45.7105023" lon="9.3867183"><ele>299.6</ele><time>2026-05-02T13:21:26.852Z</time></trkpt><trkpt lat="45.7105117" lon="9.3868534"><ele>299.4</ele><time>2026-05-02T13:21:27.851Z</time></trkpt><trkpt lat="45.7105191" lon="9.386971"><ele>299.2</ele><time>2026-05-02T13:21:28.852Z</time></trkpt><trkpt lat="45.7105258" lon="9.3871003"><ele>299.0</ele><time>2026-05-02T13:21:29.852Z</time></trkpt><trkpt lat="45.7105027" lon="9.3872775"><ele>299.0</ele><time>2026-05-02T13:21:31.852Z</time></trkpt><trkpt lat="45.7104843" lon="9.3874131"><ele>299.0</ele><time>2026-05-02T13:21:33.851Z</time></trkpt><trkpt lat="45.7104851" lon="9.3875185"><ele>299.0</ele><time>2026-05-02T13:21:34.852Z</time></trkpt><trkpt lat="45.7104902" lon="9.3876183"><ele>299.0</ele><time>2026-05-02T13:21:36.851Z</time></trkpt><trkpt lat="45.7105011" lon="9.3877246"><ele>299.0</ele><time>2026-05-02T13:21:37.852Z</time></trkpt><trkpt lat="45.7105521" lon="9.3878212"><ele>299.0</ele><time>2026-05-02T13:21:39.851Z</time></trkpt><trkpt lat="45.7106154" lon="9.3879381"><ele>300.4</ele><time>2026-05-02T13:21:41.851Z</time></trkpt><trkpt lat="45.7106823" lon="9.3880681"><ele>301.79999999999995</ele><time>2026-05-02T13:21:43.852Z</time></trkpt><trkpt lat="45.71076" lon="9.388169"><ele>303.20000000000005</ele><time>2026-05-02T13:21:45.852Z</time></trkpt><trkpt lat="45.7108166" lon="9.3883176"><ele>304.6</ele><time>2026-05-02T13:21:47.852Z</time></trkpt><trkpt lat="45.7108717" lon="9.3884156"><ele>306.0</ele><time>2026-05-02T13:21:49.851Z</time></trkpt><trkpt lat="45.7109044" lon="9.3884952"><ele>306.0</ele><time>2026-05-02T13:21:51.851Z</time></trkpt><trkpt lat="45.7109115" lon="9.3886153"><ele>306.0</ele><time>2026-05-02T13:21:53.852Z</time></trkpt><trkpt lat="45.7108867" lon="9.3887424"><ele>306.0</ele><time>2026-05-02T13:21:55.852Z</time></trkpt><trkpt lat="45.7108591" lon="9.3888257"><ele>306.0</ele><time>2026-05-02T13:21:58.852Z</time></trkpt><trkpt lat="45.7107575" lon="9.3886891"><ele>306.0</ele><time>2026-05-02T13:22:00.862Z</time></trkpt><trkpt lat="45.7107182" lon="9.3887954"><ele>306.75</ele><time>2026-05-02T13:22:03.851Z</time></trkpt><trkpt lat="45.7106583" lon="9.3888676"><ele>307.5</ele><time>2026-05-02T13:22:07.851Z</time></trkpt><trkpt lat="45.7106549" lon="9.3891864"><ele>308.25</ele><time>2026-05-02T13:22:09.852Z</time></trkpt><trkpt lat="45.7106537" lon="9.3893911"><ele>309.0</ele><time>2026-05-02T13:22:10.851Z</time></trkpt><trkpt lat="45.710645" lon="9.3895553"><ele>309.0</ele><time>2026-05-02T13:22:11.852Z</time></trkpt><trkpt lat="45.710626" lon="9.3896715"><ele>309.0</ele><time>2026-05-02T13:22:12.851Z</time></trkpt><trkpt lat="45.7105988" lon="9.3897686"><ele>309.0</ele><time>2026-05-02T13:22:13.852Z</time></trkpt><trkpt lat="45.7105764" lon="9.3898572"><ele>309.0</ele><time>2026-05-02T13:22:14.851Z</time></trkpt><trkpt lat="45.7105521" lon="9.3899495"><ele>309.0</ele><time>2026-05-02T13:22:15.852Z</time></trkpt><trkpt lat="45.7105223" lon="9.3900371"><ele>309.0</ele><time>2026-05-02T13:22:16.852Z</time></trkpt><trkpt lat="45.7104712" lon="9.3902077"><ele>309.0</ele><time>2026-05-02T13:22:18.852Z</time></trkpt><trkpt lat="45.710471" lon="9.3903424"><ele>309.0</ele><time>2026-05-02T13:22:19.852Z</time></trkpt><trkpt lat="45.7104637" lon="9.3904794"><ele>309.0</ele><time>2026-05-02T13:22:20.852Z</time></trkpt><trkpt lat="45.7104497" lon="9.3906134"><ele>309.0</ele><time>2026-05-02T13:22:21.852Z</time></trkpt><trkpt lat="45.7104244" lon="9.3907262"><ele>309.0</ele><time>2026-05-02T13:22:22.852Z</time></trkpt><trkpt lat="45.7103955" lon="9.3908143"><ele>309.0</ele><time>2026-05-02T13:22:23.852Z</time></trkpt><trkpt lat="45.7103648" lon="9.3909137"><ele>308.3333333333333</ele><time>2026-05-02T13:22:24.852Z</time></trkpt><trkpt lat="45.710326" lon="9.3910203"><ele>307.6666666666667</ele><time>2026-05-02T13:22:25.851Z</time></trkpt><trkpt lat="45.7102862" lon="9.391127"><ele>307.0</ele><time>2026-05-02T13:22:26.851Z</time></trkpt><trkpt lat="45.7102478" lon="9.3912382"><ele>306.33333333333337</ele><time>2026-05-02T13:22:27.852Z</time></trkpt><trkpt lat="45.7101938" lon="9.3913534"><ele>305.6666666666667</ele><time>2026-05-02T13:22:28.852Z</time></trkpt><trkpt lat="45.7101574" lon="9.3914674"><ele>305.0</ele><time>2026-05-02T13:22:29.851Z</time></trkpt><trkpt lat="45.7101194" lon="9.3915811"><ele>303.8</ele><time>2026-05-02T13:22:30.852Z</time></trkpt><trkpt lat="45.7100751" lon="9.3917123"><ele>302.6</ele><time>2026-05-02T13:22:31.851Z</time></trkpt><trkpt lat="45.7100235" lon="9.3918532"><ele>301.4</ele><time>2026-05-02T13:22:32.852Z</time></trkpt><trkpt lat="45.7099752" lon="9.3920084"><ele>300.2</ele><time>2026-05-02T13:22:33.851Z</time></trkpt><trkpt lat="45.7099507" lon="9.3921645"><ele>299.0</ele><time>2026-05-02T13:22:34.852Z</time></trkpt><trkpt lat="45.7099276" lon="9.3923159"><ele>296.4</ele><time>2026-05-02T13:22:35.851Z</time></trkpt><trkpt lat="45.709901" lon="9.3924599"><ele>293.79999999999995</ele><time>2026-05-02T13:22:36.852Z</time></trkpt><trkpt lat="45.7098713" lon="9.3926036"><ele>291.20000000000005</ele><time>2026-05-02T13:22:37.852Z</time></trkpt><trkpt lat="45.7098465" lon="9.3927402"><ele>288.6</ele><time>2026-05-02T13:22:38.852Z</time></trkpt><trkpt lat="45.7098246" lon="9.3928608"><ele>286.0</ele><time>2026-05-02T13:22:39.852Z</time></trkpt><trkpt lat="45.7098101" lon="9.3929692"><ele>285.16666666666663</ele><time>2026-05-02T13:22:40.852Z</time></trkpt><trkpt lat="45.7097975" lon="9.3930712"><ele>284.3333333333333</ele><time>2026-05-02T13:22:41.852Z</time></trkpt><trkpt lat="45.7097916" lon="9.3931793"><ele>283.5</ele><time>2026-05-02T13:22:42.851Z</time></trkpt><trkpt lat="45.7097868" lon="9.3932867"><ele>282.6666666666667</ele><time>2026-05-02T13:22:43.852Z</time></trkpt><trkpt lat="45.7097926" lon="9.393398"><ele>281.83333333333337</ele><time>2026-05-02T13:22:44.852Z</time></trkpt><trkpt lat="45.709809" lon="9.3935243"><ele>281.0</ele><time>2026-05-02T13:22:45.852Z</time></trkpt><trkpt lat="45.7098355" lon="9.3936473"><ele>281.0</ele><time>2026-05-02T13:22:46.852Z</time></trkpt><trkpt lat="45.7098497" lon="9.393763"><ele>281.0</ele><time>2026-05-02T13:22:47.852Z</time></trkpt><trkpt lat="45.7098538" lon="9.3938684"><ele>281.0</ele><time>2026-05-02T13:22:48.851Z</time></trkpt><trkpt lat="45.7098705" lon="9.393988"><ele>281.0</ele><time>2026-05-02T13:22:49.851Z</time></trkpt><trkpt lat="45.7098783" lon="9.3940851"><ele>281.0</ele><time>2026-05-02T13:22:50.852Z</time></trkpt><trkpt lat="45.709895" lon="9.3941893"><ele>281.0</ele><time>2026-05-02T13:22:51.851Z</time></trkpt><trkpt lat="45.7098993" lon="9.3943115"><ele>280.8</ele><time>2026-05-02T13:22:52.851Z</time></trkpt><trkpt lat="45.70992" lon="9.3944058"><ele>280.6</ele><time>2026-05-02T13:22:53.852Z</time></trkpt><trkpt lat="45.7099651" lon="9.3945896"><ele>280.4</ele><time>2026-05-02T13:22:55.851Z</time></trkpt><trkpt lat="45.7099945" lon="9.3946792"><ele>280.2</ele><time>2026-05-02T13:22:56.851Z</time></trkpt><trkpt lat="45.7100452" lon="9.3948367"><ele>280.0</ele><time>2026-05-02T13:22:58.852Z</time></trkpt><trkpt lat="45.7100967" lon="9.3949133"><ele>280.0</ele><time>2026-05-02T13:22:59.852Z</time></trkpt><trkpt lat="45.7101154" lon="9.3950042"><ele>280.0</ele><time>2026-05-02T13:23:00.852Z</time></trkpt><trkpt lat="45.7101401" lon="9.3951044"><ele>280.0</ele><time>2026-05-02T13:23:01.852Z</time></trkpt><trkpt lat="45.7101537" lon="9.3952075"><ele>280.0</ele><time>2026-05-02T13:23:02.852Z</time></trkpt><trkpt lat="45.7101908" lon="9.3953279"><ele>280.0</ele><time>2026-05-02T13:23:03.851Z</time></trkpt><trkpt lat="45.7101954" lon="9.3954311"><ele>280.0</ele><time>2026-05-02T13:23:04.852Z</time></trkpt><trkpt lat="45.7101911" lon="9.3955421"><ele>279.3333333333333</ele><time>2026-05-02T13:23:05.852Z</time></trkpt><trkpt lat="45.7101944" lon="9.3956618"><ele>278.66666666666663</ele><time>2026-05-02T13:23:06.851Z</time></trkpt><trkpt lat="45.7101964" lon="9.3957577"><ele>278.0</ele><time>2026-05-02T13:23:07.852Z</time></trkpt><trkpt lat="45.7102162" lon="9.3958693"><ele>277.3333333333333</ele><time>2026-05-02T13:23:08.852Z</time></trkpt><trkpt lat="45.710246" lon="9.3959838"><ele>276.6666666666667</ele><time>2026-05-02T13:23:09.852Z</time></trkpt><trkpt lat="45.7102856" lon="9.3960812"><ele>276.0</ele><time>2026-05-02T13:23:10.851Z</time></trkpt><trkpt lat="45.7103177" lon="9.3961759"><ele>275.57142857142856</ele><time>2026-05-02T13:23:11.852Z</time></trkpt><trkpt lat="45.7103564" lon="9.3962734"><ele>275.14285714285717</ele><time>2026-05-02T13:23:12.851Z</time></trkpt><trkpt lat="45.710391" lon="9.3963615"><ele>274.7142857142857</ele><time>2026-05-02T13:23:13.852Z</time></trkpt><trkpt lat="45.7104274" lon="9.396453"><ele>274.2857142857143</ele><time>2026-05-02T13:23:14.852Z</time></trkpt><trkpt lat="45.7104477" lon="9.3965404"><ele>273.8571428571429</ele><time>2026-05-02T13:23:15.851Z</time></trkpt><trkpt lat="45.7104666" lon="9.3966507"><ele>273.42857142857144</ele><time>2026-05-02T13:23:16.852Z</time></trkpt><trkpt lat="45.7104814" lon="9.3967579"><ele>273.0</ele><time>2026-05-02T13:23:17.852Z</time></trkpt><trkpt lat="45.7104837" lon="9.3968765"><ele>273.0</ele><time>2026-05-02T13:23:18.852Z</time></trkpt><trkpt lat="45.7104737" lon="9.3969993"><ele>273.0</ele><time>2026-05-02T13:23:19.851Z</time></trkpt><trkpt lat="45.7104562" lon="9.3971036"><ele>273.0</ele><time>2026-05-02T13:23:20.851Z</time></trkpt><trkpt lat="45.7104449" lon="9.3972153"><ele>273.0</ele><time>2026-05-02T13:23:21.851Z</time></trkpt><trkpt lat="45.7104171" lon="9.3973149"><ele>273.0</ele><time>2026-05-02T13:23:22.852Z</time></trkpt><trkpt lat="45.7104305" lon="9.3974223"><ele>273.0</ele><time>2026-05-02T13:23:23.851Z</time></trkpt><trkpt lat="45.710423" lon="9.3975275"><ele>274.0</ele><time>2026-05-02T13:23:24.852Z</time></trkpt><trkpt lat="45.7104352" lon="9.3976187"><ele>275.0</ele><time>2026-05-02T13:23:25.851Z</time></trkpt><trkpt lat="45.7104642" lon="9.3977971"><ele>276.0</ele><time>2026-05-02T13:23:27.852Z</time></trkpt><trkpt lat="45.7104646" lon="9.3978936"><ele>277.0</ele><time>2026-05-02T13:23:28.852Z</time></trkpt><trkpt lat="45.7104227" lon="9.3979957"><ele>278.0</ele><time>2026-05-02T13:23:29.852Z</time></trkpt><trkpt lat="45.710371" lon="9.3981576"><ele>279.4</ele><time>2026-05-02T13:23:31.852Z</time></trkpt><trkpt lat="45.7103351" lon="9.3982788"><ele>280.8</ele><time>2026-05-02T13:23:33.851Z</time></trkpt><trkpt lat="45.710314" lon="9.398364"><ele>282.2</ele><time>2026-05-02T13:23:34.852Z</time></trkpt><trkpt lat="45.7103234" lon="9.3985153"><ele>283.6</ele><time>2026-05-02T13:23:36.851Z</time></trkpt><trkpt lat="45.7103705" lon="9.3986397"><ele>285.0</ele><time>2026-05-02T13:23:38.851Z</time></trkpt><trkpt lat="45.7104349" lon="9.3987593"><ele>286.0</ele><time>2026-05-02T13:23:40.851Z</time></trkpt><trkpt lat="45.7104914" lon="9.3988728"><ele>287.0</ele><time>2026-05-02T13:23:42.852Z</time></trkpt><trkpt lat="45.7105385" lon="9.3990016"><ele>288.0</ele><time>2026-05-02T13:23:44.852Z</time></trkpt><trkpt lat="45.7105261" lon="9.3991544"><ele>289.0</ele><time>2026-05-02T13:23:46.852Z</time></trkpt><trkpt lat="45.7104642" lon="9.3993031"><ele>290.0</ele><time>2026-05-02T13:23:48.851Z</time></trkpt><trkpt lat="45.7103986" lon="9.3994654"><ele>290.0</ele><time>2026-05-02T13:23:50.851Z</time></trkpt><trkpt lat="45.7103623" lon="9.3995507"><ele>290.0</ele><time>2026-05-02T13:23:51.852Z</time></trkpt><trkpt lat="45.7103187" lon="9.3996324"><ele>290.0</ele><time>2026-05-02T13:23:52.852Z</time></trkpt><trkpt lat="45.7102876" lon="9.3997368"><ele>290.0</ele><time>2026-05-02T13:23:53.852Z</time></trkpt><trkpt lat="45.7102386" lon="9.399813"><ele>290.0</ele><time>2026-05-02T13:23:54.852Z</time></trkpt><trkpt lat="45.7101721" lon="9.3998915"><ele>290.0</ele><time>2026-05-02T13:23:55.851Z</time></trkpt><trkpt lat="45.7101248" lon="9.3999692"><ele>289.5</ele><time>2026-05-02T13:23:56.852Z</time></trkpt><trkpt lat="45.7100597" lon="9.4000446"><ele>289.0</ele><time>2026-05-02T13:23:57.852Z</time></trkpt><trkpt lat="45.7100158" lon="9.4001235"><ele>288.5</ele><time>2026-05-02T13:23:58.851Z</time></trkpt><trkpt lat="45.709963" lon="9.4001957"><ele>288.0</ele><time>2026-05-02T13:23:59.852Z</time></trkpt><trkpt lat="45.7099226" lon="9.400287"><ele>287.5</ele><time>2026-05-02T13:24:00.851Z</time></trkpt><trkpt lat="45.7098579" lon="9.4004344"><ele>287.0</ele><time>2026-05-02T13:24:02.851Z</time></trkpt><trkpt lat="45.7098234" lon="9.4005198"><ele>287.0</ele><time>2026-05-02T13:24:03.851Z</time></trkpt><trkpt lat="45.70978" lon="9.4005981"><ele>287.0</ele><time>2026-05-02T13:24:04.851Z</time></trkpt><trkpt lat="45.7097089" lon="9.4007408"><ele>287.0</ele><time>2026-05-02T13:24:06.851Z</time></trkpt><trkpt lat="45.7096366" lon="9.4008411"><ele>287.0</ele><time>2026-05-02T13:24:08.851Z</time></trkpt><trkpt lat="45.7095535" lon="9.4009123"><ele>287.0</ele><time>2026-05-02T13:24:10.852Z</time></trkpt><trkpt lat="45.7094684" lon="9.4009569"><ele>286.83333333333337</ele><time>2026-05-02T13:24:12.852Z</time></trkpt><trkpt lat="45.7094031" lon="9.4009811"><ele>286.6666666666667</ele><time>2026-05-02T13:24:14.851Z</time></trkpt><trkpt lat="45.7093203" lon="9.4010452"><ele>286.5</ele><time>2026-05-02T13:24:16.851Z</time></trkpt><trkpt lat="45.7092337" lon="9.4010509"><ele>286.3333333333333</ele><time>2026-05-02T13:24:18.852Z</time></trkpt><trkpt lat="45.7091767" lon="9.4010948"><ele>286.16666666666663</ele><time>2026-05-02T13:24:20.852Z</time></trkpt><trkpt lat="45.7091069" lon="9.4011758"><ele>286.0</ele><time>2026-05-02T13:24:23.851Z</time></trkpt><trkpt lat="45.7090491" lon="9.4012162"><ele>286.0</ele><time>2026-05-02T13:24:25.852Z</time></trkpt><trkpt lat="45.7089774" lon="9.4013018"><ele>286.0</ele><time>2026-05-02T13:24:28.851Z</time></trkpt><trkpt lat="45.7089284" lon="9.4013783"><ele>286.0</ele><time>2026-05-02T13:24:30.852Z</time></trkpt><trkpt lat="45.7089014" lon="9.4014874"><ele>286.0</ele><time>2026-05-02T13:24:32.852Z</time></trkpt><trkpt lat="45.7088841" lon="9.4015849"><ele>286.0</ele><time>2026-05-02T13:24:35.851Z</time></trkpt><trkpt lat="45.7088904" lon="9.4016805"><ele>286.0</ele><time>2026-05-02T13:24:38.851Z</time></trkpt><trkpt lat="45.7088691" lon="9.4017812"><ele>287.1428571428571</ele><time>2026-05-02T13:24:41.851Z</time></trkpt><trkpt lat="45.70885" lon="9.4018755"><ele>288.2857142857143</ele><time>2026-05-02T13:24:46.851Z</time></trkpt><trkpt lat="45.7088293" lon="9.4019661"><ele>289.42857142857144</ele><time>2026-05-02T13:24:49.852Z</time></trkpt><trkpt lat="45.7088068" lon="9.4020578"><ele>290.57142857142856</ele><time>2026-05-02T13:24:52.771Z</time></trkpt><trkpt lat="45.7087756" lon="9.4021548"><ele>291.7142857142857</ele><time>2026-05-02T13:24:55.829Z</time></trkpt><trkpt lat="45.7087522" lon="9.4022566"><ele>292.85714285714283</ele><time>2026-05-02T13:24:58.834Z</time></trkpt><trkpt lat="45.7087306" lon="9.4023716"><ele>294.0</ele><time>2026-05-02T13:25:01.828Z</time></trkpt><trkpt lat="45.7087113" lon="9.4024796"><ele>295.1666666666667</ele><time>2026-05-02T13:25:04.793Z</time></trkpt><trkpt lat="45.708685" lon="9.4025971"><ele>296.3333333333333</ele><time>2026-05-02T13:25:07.767Z</time></trkpt><trkpt lat="45.7086548" lon="9.4027087"><ele>297.5</ele><time>2026-05-02T13:25:10.687Z</time></trkpt><trkpt lat="45.7086205" lon="9.4028198"><ele>298.66666666666663</ele><time>2026-05-02T13:25:13.617Z</time></trkpt><trkpt lat="45.7085851" lon="9.4029163"><ele>299.8333333333333</ele><time>2026-05-02T13:25:16.468Z</time></trkpt><trkpt lat="45.7085564" lon="9.4030112"><ele>301.0</ele><time>2026-05-02T13:25:19.256Z</time></trkpt><trkpt lat="45.7085249" lon="9.4031089"><ele>302.66666666666663</ele><time>2026-05-02T13:25:22.429Z</time></trkpt><trkpt lat="45.7084939" lon="9.4031899"><ele>304.3333333333333</ele><time>2026-05-02T13:25:25.852Z</time></trkpt><trkpt lat="45.7084431" lon="9.4032991"><ele>306.0</ele><time>2026-05-02T13:25:29.852Z</time></trkpt><trkpt lat="45.7081332" lon="9.4036506"><ele>306.0</ele><time>2026-05-02T13:25:30.851Z</time></trkpt><trkpt lat="45.7080714" lon="9.4037303"><ele>306.0</ele><time>2026-05-02T13:25:32.851Z</time></trkpt><trkpt lat="45.7080219" lon="9.4038038"><ele>306.0</ele><time>2026-05-02T13:25:34.851Z</time></trkpt><trkpt lat="45.7079602" lon="9.4038879"><ele>306.0</ele><time>2026-05-02T13:25:36.851Z</time></trkpt><trkpt lat="45.7078707" lon="9.4039747"><ele>306.0</ele><time>2026-05-02T13:25:38.852Z</time></trkpt><trkpt lat="45.7077893" lon="9.4040665"><ele>306.25</ele><time>2026-05-02T13:25:40.851Z</time></trkpt><trkpt lat="45.7077023" lon="9.4041579"><ele>306.5</ele><time>2026-05-02T13:25:42.852Z</time></trkpt><trkpt lat="45.7076051" lon="9.4042623"><ele>306.75</ele><time>2026-05-02T13:25:44.851Z</time></trkpt><trkpt lat="45.7074236" lon="9.4043919"><ele>307.0</ele><time>2026-05-02T13:25:46.851Z</time></trkpt><trkpt lat="45.7073395" lon="9.4045001"><ele>307.0</ele><time>2026-05-02T13:25:48.852Z</time></trkpt><trkpt lat="45.707238" lon="9.4045983"><ele>307.0</ele><time>2026-05-02T13:25:50.852Z</time></trkpt><trkpt lat="45.7071793" lon="9.4046591"><ele>307.0</ele><time>2026-05-02T13:25:51.852Z</time></trkpt><trkpt lat="45.707096" lon="9.4047808"><ele>307.0</ele><time>2026-05-02T13:25:53.851Z</time></trkpt><trkpt lat="45.7070437" lon="9.4048507"><ele>307.0</ele><time>2026-05-02T13:25:54.852Z</time></trkpt><trkpt lat="45.7069749" lon="9.4049891"><ele>307.6</ele><time>2026-05-02T13:25:56.851Z</time></trkpt><trkpt lat="45.7069215" lon="9.4051324"><ele>308.2</ele><time>2026-05-02T13:25:58.851Z</time></trkpt><trkpt lat="45.7068686" lon="9.4053039"><ele>308.8</ele><time>2026-05-02T13:26:00.851Z</time></trkpt><trkpt lat="45.7068418" lon="9.4053887"><ele>309.4</ele><time>2026-05-02T13:26:01.852Z</time></trkpt><trkpt lat="45.7068074" lon="9.4054673"><ele>310.0</ele><time>2026-05-02T13:26:02.851Z</time></trkpt><trkpt lat="45.7067448" lon="9.4056198"><ele>309.0</ele><time>2026-05-02T13:26:04.851Z</time></trkpt><trkpt lat="45.706705" lon="9.4057109"><ele>308.0</ele><time>2026-05-02T13:26:05.852Z</time></trkpt><trkpt lat="45.7066659" lon="9.4057916"><ele>307.0</ele><time>2026-05-02T13:26:06.852Z</time></trkpt><trkpt lat="45.7066093" lon="9.4059498"><ele>306.0</ele><time>2026-05-02T13:26:08.851Z</time></trkpt><trkpt lat="45.7065776" lon="9.4060319"><ele>305.0</ele><time>2026-05-02T13:26:09.852Z</time></trkpt><trkpt lat="45.7065512" lon="9.4061172"><ele>304.0</ele><time>2026-05-02T13:26:10.851Z</time></trkpt><trkpt lat="45.7064904" lon="9.4062736"><ele>303.8333333333333</ele><time>2026-05-02T13:26:12.852Z</time></trkpt><trkpt lat="45.7064569" lon="9.4063502"><ele>303.66666666666663</ele><time>2026-05-02T13:26:13.851Z</time></trkpt><trkpt lat="45.7063914" lon="9.4064613"><ele>303.5</ele><time>2026-05-02T13:26:15.851Z</time></trkpt><trkpt lat="45.706337" lon="9.4065637"><ele>303.3333333333333</ele><time>2026-05-02T13:26:17.852Z</time></trkpt><trkpt lat="45.7062856" lon="9.4066268"><ele>303.1666666666667</ele><time>2026-05-02T13:26:19.852Z</time></trkpt><trkpt lat="45.7062379" lon="9.4067018"><ele>303.0</ele><time>2026-05-02T13:26:23.851Z</time></trkpt><trkpt lat="45.70623" lon="9.4068069"><ele>303.0</ele><time>2026-05-02T13:26:25.852Z</time></trkpt><trkpt lat="45.7062228" lon="9.4069445"><ele>303.0</ele><time>2026-05-02T13:26:27.852Z</time></trkpt><trkpt lat="45.7062002" lon="9.4070649"><ele>303.0</ele><time>2026-05-02T13:26:28.851Z</time></trkpt><trkpt lat="45.7061975" lon="9.4071577"><ele>303.0</ele><time>2026-05-02T13:26:29.852Z</time></trkpt><trkpt lat="45.7062007" lon="9.4072494"><ele>303.0</ele><time>2026-05-02T13:26:30.851Z</time></trkpt><trkpt lat="45.7062037" lon="9.4074508"><ele>302.6666666666667</ele><time>2026-05-02T13:26:32.852Z</time></trkpt><trkpt lat="45.7062133" lon="9.4075579"><ele>302.3333333333333</ele><time>2026-05-02T13:26:33.851Z</time></trkpt><trkpt lat="45.7062182" lon="9.4076697"><ele>302.0</ele><time>2026-05-02T13:26:34.852Z</time></trkpt><trkpt lat="45.7062154" lon="9.4077811"><ele>301.66666666666663</ele><time>2026-05-02T13:26:35.852Z</time></trkpt><trkpt lat="45.7062224" lon="9.407917"><ele>301.3333333333333</ele><time>2026-05-02T13:26:36.851Z</time></trkpt><trkpt lat="45.7062233" lon="9.4080541"><ele>301.0</ele><time>2026-05-02T13:26:37.851Z</time></trkpt><trkpt lat="45.7062292" lon="9.4081902"><ele>300.2</ele><time>2026-05-02T13:26:38.851Z</time></trkpt><trkpt lat="45.7062284" lon="9.4083301"><ele>299.40000000000003</ele><time>2026-05-02T13:26:39.851Z</time></trkpt><trkpt lat="45.7062284" lon="9.4084811"><ele>298.6</ele><time>2026-05-02T13:26:40.852Z</time></trkpt><trkpt lat="45.7062213" lon="9.4086412"><ele>297.8</ele><time>2026-05-02T13:26:41.851Z</time></trkpt><trkpt lat="45.7062273" lon="9.4087805"><ele>297.0</ele><time>2026-05-02T13:26:42.851Z</time></trkpt><trkpt lat="45.7062341" lon="9.4089109"><ele>296.8333333333333</ele><time>2026-05-02T13:26:43.852Z</time></trkpt><trkpt lat="45.7062741" lon="9.4090429"><ele>296.6666666666667</ele><time>2026-05-02T13:26:44.851Z</time></trkpt><trkpt lat="45.7062744" lon="9.4091547"><ele>296.5</ele><time>2026-05-02T13:26:45.852Z</time></trkpt><trkpt lat="45.7062809" lon="9.4092681"><ele>296.33333333333337</ele><time>2026-05-02T13:26:46.851Z</time></trkpt><trkpt lat="45.7062861" lon="9.4093716"><ele>296.1666666666667</ele><time>2026-05-02T13:26:47.851Z</time></trkpt><trkpt lat="45.7062954" lon="9.4094653"><ele>296.0</ele><time>2026-05-02T13:26:48.851Z</time></trkpt><trkpt lat="45.7063229" lon="9.4096362"><ele>296.5</ele><time>2026-05-02T13:26:50.851Z</time></trkpt><trkpt lat="45.7063544" lon="9.4097662"><ele>297.0</ele><time>2026-05-02T13:26:52.851Z</time></trkpt><trkpt lat="45.7063803" lon="9.4098499"><ele>297.5</ele><time>2026-05-02T13:26:54.851Z</time></trkpt><trkpt lat="45.7063697" lon="9.40998"><ele>298.0</ele><time>2026-05-02T13:26:56.852Z</time></trkpt><trkpt lat="45.7063554" lon="9.410124"><ele>298.5</ele><time>2026-05-02T13:26:58.851Z</time></trkpt><trkpt lat="45.7063337" lon="9.4102221"><ele>299.0</ele><time>2026-05-02T13:26:59.851Z</time></trkpt><trkpt lat="45.7062599" lon="9.4103771"><ele>299.0</ele><time>2026-05-02T13:27:01.851Z</time></trkpt><trkpt lat="45.7061984" lon="9.4105631"><ele>299.0</ele><time>2026-05-02T13:27:03.852Z</time></trkpt><trkpt lat="45.7061789" lon="9.410656"><ele>299.0</ele><time>2026-05-02T13:27:04.852Z</time></trkpt><trkpt lat="45.70616" lon="9.410773"><ele>299.0</ele><time>2026-05-02T13:27:05.852Z</time></trkpt><trkpt lat="45.7061493" lon="9.4108721"><ele>299.0</ele><time>2026-05-02T13:27:06.851Z</time></trkpt><trkpt lat="45.7061275" lon="9.4109667"><ele>299.0</ele><time>2026-05-02T13:27:07.851Z</time></trkpt><trkpt lat="45.706106" lon="9.4110581"><ele>299.0</ele><time>2026-05-02T13:27:08.852Z</time></trkpt><trkpt lat="45.7061017" lon="9.41121"><ele>299.0</ele><time>2026-05-02T13:27:10.851Z</time></trkpt><trkpt lat="45.7061144" lon="9.4113488"><ele>299.0</ele><time>2026-05-02T13:27:12.851Z</time></trkpt><trkpt lat="45.7061162" lon="9.4115055"><ele>299.0</ele><time>2026-05-02T13:27:14.851Z</time></trkpt><trkpt lat="45.7061717" lon="9.4115599"><ele>299.0</ele><time>2026-05-02T13:27:17.852Z</time></trkpt><trkpt lat="45.70626" lon="9.4115455"><ele>299.6666666666667</ele><time>2026-05-02T13:27:19.852Z</time></trkpt><trkpt lat="45.7063391" lon="9.411538"><ele>300.33333333333337</ele><time>2026-05-02T13:27:21.852Z</time></trkpt><trkpt lat="45.7064244" lon="9.4115491"><ele>301.0</ele><time>2026-05-02T13:27:23.852Z</time></trkpt><trkpt lat="45.7064856" lon="9.4115738"><ele>301.6666666666667</ele><time>2026-05-02T13:27:24.852Z</time></trkpt><trkpt lat="45.7065726" lon="9.4115972"><ele>302.3333333333333</ele><time>2026-05-02T13:27:26.851Z</time></trkpt><trkpt lat="45.7066675" lon="9.4116524"><ele>303.0</ele><time>2026-05-02T13:27:28.851Z</time></trkpt><trkpt lat="45.7067425" lon="9.4116937"><ele>303.0</ele><time>2026-05-02T13:27:30.852Z</time></trkpt><trkpt lat="45.7068343" lon="9.4117608"><ele>303.0</ele><time>2026-05-02T13:27:32.851Z</time></trkpt><trkpt lat="45.7069104" lon="9.4118043"><ele>303.0</ele><time>2026-05-02T13:27:34.851Z</time></trkpt><trkpt lat="45.7069976" lon="9.4118591"><ele>303.0</ele><time>2026-05-02T13:27:36.852Z</time></trkpt><trkpt lat="45.7070512" lon="9.4119064"><ele>303.0</ele><time>2026-05-02T13:27:37.852Z</time></trkpt><trkpt lat="45.7071503" lon="9.4119652"><ele>303.2</ele><time>2026-05-02T13:27:39.851Z</time></trkpt><trkpt lat="45.707234" lon="9.4120291"><ele>303.4</ele><time>2026-05-02T13:27:41.852Z</time></trkpt><trkpt lat="45.7073093" lon="9.4120854"><ele>303.59999999999997</ele><time>2026-05-02T13:27:43.852Z</time></trkpt><trkpt lat="45.7074094" lon="9.4121676"><ele>303.8</ele><time>2026-05-02T13:27:45.852Z</time></trkpt><trkpt lat="45.7074925" lon="9.412239"><ele>304.0</ele><time>2026-05-02T13:27:47.851Z</time></trkpt><trkpt lat="45.7075716" lon="9.4123067"><ele>304.66666666666663</ele><time>2026-05-02T13:27:49.852Z</time></trkpt><trkpt lat="45.7076465" lon="9.4123711"><ele>305.3333333333333</ele><time>2026-05-02T13:27:51.852Z</time></trkpt><trkpt lat="45.7077206" lon="9.4124254"><ele>306.0</ele><time>2026-05-02T13:27:53.851Z</time></trkpt><trkpt lat="45.7077989" lon="9.4125187"><ele>306.6666666666667</ele><time>2026-05-02T13:27:55.851Z</time></trkpt><trkpt lat="45.7078792" lon="9.4125762"><ele>307.33333333333337</ele><time>2026-05-02T13:27:57.851Z</time></trkpt><trkpt lat="45.7079463" lon="9.4126378"><ele>308.0</ele><time>2026-05-02T13:27:59.851Z</time></trkpt><trkpt lat="45.7080043" lon="9.4126903"><ele>308.33333333333337</ele><time>2026-05-02T13:28:01.852Z</time></trkpt><trkpt lat="45.7080639" lon="9.4127709"><ele>308.6666666666667</ele><time>2026-05-02T13:28:03.852Z</time></trkpt><trkpt lat="45.7081257" lon="9.41284"><ele>309.0</ele><time>2026-05-02T13:28:05.852Z</time></trkpt><trkpt lat="45.7081876" lon="9.4129234"><ele>309.3333333333333</ele><time>2026-05-02T13:28:07.851Z</time></trkpt><trkpt lat="45.7082454" lon="9.4129984"><ele>309.66666666666663</ele><time>2026-05-02T13:28:09.851Z</time></trkpt><trkpt lat="45.7083084" lon="9.4130804"><ele>310.0</ele><time>2026-05-02T13:28:11.852Z</time></trkpt><trkpt lat="45.7083655" lon="9.4131552"><ele>310.66666666666663</ele><time>2026-05-02T13:28:13.852Z</time></trkpt><trkpt lat="45.7084272" lon="9.4132283"><ele>311.3333333333333</ele><time>2026-05-02T13:28:15.852Z</time></trkpt><trkpt lat="45.7084909" lon="9.4133015"><ele>312.0</ele><time>2026-05-02T13:28:17.852Z</time></trkpt><trkpt lat="45.7085525" lon="9.4133854"><ele>312.6666666666667</ele><time>2026-05-02T13:28:19.852Z</time></trkpt><trkpt lat="45.7086081" lon="9.4134494"><ele>313.33333333333337</ele><time>2026-05-02T13:28:21.851Z</time></trkpt><trkpt lat="45.7086595" lon="9.4135139"><ele>314.0</ele><time>2026-05-02T13:28:23.851Z</time></trkpt><trkpt lat="45.7087066" lon="9.4135742"><ele>314.0</ele><time>2026-05-02T13:28:25.851Z</time></trkpt><trkpt lat="45.7087619" lon="9.4136325"><ele>314.0</ele><time>2026-05-02T13:28:27.851Z</time></trkpt><trkpt lat="45.7088181" lon="9.4137062"><ele>314.0</ele><time>2026-05-02T13:28:29.852Z</time></trkpt><trkpt lat="45.7088736" lon="9.4137886"><ele>314.0</ele><time>2026-05-02T13:28:31.852Z</time></trkpt><trkpt lat="45.7089246" lon="9.4138526"><ele>314.0</ele><time>2026-05-02T13:28:33.851Z</time></trkpt><trkpt lat="45.7089751" lon="9.4139257"><ele>314.0</ele><time>2026-05-02T13:28:35.851Z</time></trkpt><trkpt lat="45.7090529" lon="9.4140107"><ele>314.57142857142856</ele><time>2026-05-02T13:28:38.852Z</time></trkpt><trkpt lat="45.7091008" lon="9.4141053"><ele>315.1428571428571</ele><time>2026-05-02T13:28:40.851Z</time></trkpt><trkpt lat="45.7091574" lon="9.4141922"><ele>315.71428571428567</ele><time>2026-05-02T13:28:42.851Z</time></trkpt><trkpt lat="45.7092118" lon="9.4142595"><ele>316.2857142857143</ele><time>2026-05-02T13:28:44.851Z</time></trkpt><trkpt lat="45.7092608" lon="9.4143276"><ele>316.8571428571429</ele><time>2026-05-02T13:28:46.851Z</time></trkpt><trkpt lat="45.7093049" lon="9.4144016"><ele>317.4285714285714</ele><time>2026-05-02T13:28:48.852Z</time></trkpt><trkpt lat="45.7093532" lon="9.4144759"><ele>318.0</ele><time>2026-05-02T13:28:50.852Z</time></trkpt><trkpt lat="45.7094078" lon="9.4145513"><ele>319.0</ele><time>2026-05-02T13:28:52.852Z</time></trkpt><trkpt lat="45.7094668" lon="9.4146266"><ele>320.0</ele><time>2026-05-02T13:28:54.851Z</time></trkpt><trkpt lat="45.7095189" lon="9.4146931"><ele>321.0</ele><time>2026-05-02T13:28:56.851Z</time></trkpt><trkpt lat="45.709571" lon="9.4147631"><ele>322.0</ele><time>2026-05-02T13:28:58.852Z</time></trkpt><trkpt lat="45.7096182" lon="9.4148393"><ele>323.0</ele><time>2026-05-02T13:29:00.852Z</time></trkpt><trkpt lat="45.7096642" lon="9.4149064"><ele>324.0</ele><time>2026-05-02T13:29:02.852Z</time></trkpt><trkpt lat="45.7097212" lon="9.4149739"><ele>325.0</ele><time>2026-05-02T13:29:04.851Z</time></trkpt><trkpt lat="45.7097699" lon="9.4150482"><ele>325.0</ele><time>2026-05-02T13:29:06.851Z</time></trkpt><trkpt lat="45.7098161" lon="9.4151282"><ele>325.0</ele><time>2026-05-02T13:29:08.852Z</time></trkpt><trkpt lat="45.70987" lon="9.4152143"><ele>325.0</ele><time>2026-05-02T13:29:10.852Z</time></trkpt><trkpt lat="45.7099186" lon="9.4152919"><ele>325.0</ele><time>2026-05-02T13:29:12.851Z</time></trkpt><trkpt lat="45.7099371" lon="9.4154152"><ele>325.0</ele><time>2026-05-02T13:29:14.851Z</time></trkpt><trkpt lat="45.7099194" lon="9.4155385"><ele>325.0</ele><time>2026-05-02T13:29:16.852Z</time></trkpt><trkpt lat="45.7098965" lon="9.415651"><ele>325.0</ele><time>2026-05-02T13:29:18.852Z</time></trkpt><trkpt lat="45.7098802" lon="9.4157605"><ele>325.0</ele><time>2026-05-02T13:29:20.851Z</time></trkpt><trkpt lat="45.7098718" lon="9.4158682"><ele>325.0</ele><time>2026-05-02T13:29:22.852Z</time></trkpt><trkpt lat="45.7098638" lon="9.4159889"><ele>325.0</ele><time>2026-05-02T13:29:24.852Z</time></trkpt><trkpt lat="45.709854" lon="9.4161166"><ele>325.0</ele><time>2026-05-02T13:29:26.852Z</time></trkpt><trkpt lat="45.7098555" lon="9.4162448"><ele>325.0</ele><time>2026-05-02T13:29:28.851Z</time></trkpt><trkpt lat="45.7098485" lon="9.4163823"><ele>324.5</ele><time>2026-05-02T13:29:30.851Z</time></trkpt><trkpt lat="45.7098431" lon="9.4165427"><ele>324.0</ele><time>2026-05-02T13:29:32.851Z</time></trkpt><trkpt lat="45.7098245" lon="9.4167009"><ele>323.5</ele><time>2026-05-02T13:29:34.852Z</time></trkpt><trkpt lat="45.7097081" lon="9.4169699"><ele>323.0</ele><time>2026-05-02T13:29:36.851Z</time></trkpt><trkpt lat="45.7097029" lon="9.4170678"><ele>322.59999999999997</ele><time>2026-05-02T13:29:37.851Z</time></trkpt><trkpt lat="45.7096828" lon="9.4171614"><ele>322.2</ele><time>2026-05-02T13:29:38.852Z</time></trkpt><trkpt lat="45.7096628" lon="9.4173247"><ele>321.8</ele><time>2026-05-02T13:29:40.852Z</time></trkpt><trkpt lat="45.709651" lon="9.4174813"><ele>321.4</ele><time>2026-05-02T13:29:42.851Z</time></trkpt><trkpt lat="45.7096303" lon="9.4176457"><ele>321.0</ele><time>2026-05-02T13:29:44.852Z</time></trkpt><trkpt lat="45.7096151" lon="9.417812"><ele>321.0</ele><time>2026-05-02T13:29:46.851Z</time></trkpt><trkpt lat="45.7096021" lon="9.4179658"><ele>321.0</ele><time>2026-05-02T13:29:48.852Z</time></trkpt><trkpt lat="45.7095887" lon="9.4180606"><ele>321.0</ele><time>2026-05-02T13:29:49.852Z</time></trkpt><trkpt lat="45.7095711" lon="9.418231"><ele>321.0</ele><time>2026-05-02T13:29:51.852Z</time></trkpt><trkpt lat="45.7095498" lon="9.4183228"><ele>321.0</ele><time>2026-05-02T13:29:52.852Z</time></trkpt><trkpt lat="45.7095362" lon="9.4184815"><ele>321.0</ele><time>2026-05-02T13:29:54.852Z</time></trkpt><trkpt lat="45.7095111" lon="9.418581"><ele>321.0</ele><time>2026-05-02T13:29:55.851Z</time></trkpt><trkpt lat="45.7094876" lon="9.4187664"><ele>321.0</ele><time>2026-05-02T13:29:57.851Z</time></trkpt><trkpt lat="45.7094822" lon="9.4189407"><ele>321.0</ele><time>2026-05-02T13:29:59.852Z</time></trkpt><trkpt lat="45.7095027" lon="9.4191073"><ele>321.0</ele><time>2026-05-02T13:30:01.851Z</time></trkpt><trkpt lat="45.7095327" lon="9.4192732"><ele>320.8</ele><time>2026-05-02T13:30:03.852Z</time></trkpt><trkpt lat="45.7095834" lon="9.4194173"><ele>320.6</ele><time>2026-05-02T13:30:05.852Z</time></trkpt><trkpt lat="45.7096329" lon="9.4195412"><ele>320.4</ele><time>2026-05-02T13:30:07.852Z</time></trkpt><trkpt lat="45.7096765" lon="9.4197007"><ele>320.2</ele><time>2026-05-02T13:30:09.852Z</time></trkpt><trkpt lat="45.7097217" lon="9.4198337"><ele>320.0</ele><time>2026-05-02T13:30:11.852Z</time></trkpt><trkpt lat="45.7097203" lon="9.4199349"><ele>319.6</ele><time>2026-05-02T13:30:12.851Z</time></trkpt><trkpt lat="45.7097225" lon="9.4200829"><ele>319.2</ele><time>2026-05-02T13:30:14.852Z</time></trkpt><trkpt lat="45.7096959" lon="9.4201653"><ele>318.8</ele><time>2026-05-02T13:30:15.852Z</time></trkpt><trkpt lat="45.7096676" lon="9.4202735"><ele>318.4</ele><time>2026-05-02T13:30:16.852Z</time></trkpt><trkpt lat="45.7096357" lon="9.4203945"><ele>318.0</ele><time>2026-05-02T13:30:18.852Z</time></trkpt><trkpt lat="45.7095842" lon="9.4205644"><ele>317.8</ele><time>2026-05-02T13:30:20.851Z</time></trkpt><trkpt lat="45.7095584" lon="9.420657"><ele>317.6</ele><time>2026-05-02T13:30:21.851Z</time></trkpt><trkpt lat="45.709531" lon="9.420793"><ele>317.4</ele><time>2026-05-02T13:30:23.852Z</time></trkpt><trkpt lat="45.709518" lon="9.4209639"><ele>317.2</ele><time>2026-05-02T13:30:25.852Z</time></trkpt><trkpt lat="45.7095091" lon="9.421093"><ele>317.0</ele><time>2026-05-02T13:30:27.851Z</time></trkpt><trkpt lat="45.7094973" lon="9.4212198"><ele>317.6</ele><time>2026-05-02T13:30:29.852Z</time></trkpt><trkpt lat="45.7094935" lon="9.4213432"><ele>318.2</ele><time>2026-05-02T13:30:31.852Z</time></trkpt><trkpt lat="45.7094846" lon="9.4214403"><ele>318.8</ele><time>2026-05-02T13:30:33.852Z</time></trkpt><trkpt lat="45.7094447" lon="9.4215698"><ele>319.4</ele><time>2026-05-02T13:30:36.851Z</time></trkpt><trkpt lat="45.7093846" lon="9.4216687"><ele>320.0</ele><time>2026-05-02T13:30:38.852Z</time></trkpt><trkpt lat="45.7093122" lon="9.4217917"><ele>322.0</ele><time>2026-05-02T13:30:40.852Z</time></trkpt><trkpt lat="45.7092188" lon="9.4219068"><ele>324.0</ele><time>2026-05-02T13:30:42.851Z</time></trkpt><trkpt lat="45.7091306" lon="9.4220159"><ele>326.0</ele><time>2026-05-02T13:30:44.851Z</time></trkpt><trkpt lat="45.7090349" lon="9.4221142"><ele>328.0</ele><time>2026-05-02T13:30:46.851Z</time></trkpt><trkpt lat="45.7089392" lon="9.4221791"><ele>328.0</ele><time>2026-05-02T13:30:48.852Z</time></trkpt><trkpt lat="45.7088264" lon="9.422203"><ele>328.0</ele><time>2026-05-02T13:30:50.852Z</time></trkpt><trkpt lat="45.70872" lon="9.4222027"><ele>328.0</ele><time>2026-05-02T13:30:52.851Z</time></trkpt><trkpt lat="45.7085974" lon="9.42219"><ele>328.0</ele><time>2026-05-02T13:30:54.851Z</time></trkpt><trkpt lat="45.7084953" lon="9.4221876"><ele>328.0</ele><time>2026-05-02T13:30:56.851Z</time></trkpt><trkpt lat="45.7083995" lon="9.4222043"><ele>328.8333333333333</ele><time>2026-05-02T13:30:58.852Z</time></trkpt><trkpt lat="45.7083175" lon="9.4222365"><ele>329.66666666666663</ele><time>2026-05-02T13:31:00.852Z</time></trkpt><trkpt lat="45.7082339" lon="9.4222926"><ele>330.5</ele><time>2026-05-02T13:31:02.851Z</time></trkpt><trkpt lat="45.7081791" lon="9.4223646"><ele>331.3333333333333</ele><time>2026-05-02T13:31:04.852Z</time></trkpt><trkpt lat="45.7081141" lon="9.42244"><ele>332.1666666666667</ele><time>2026-05-02T13:31:06.852Z</time></trkpt><trkpt lat="45.7080425" lon="9.4225261"><ele>333.0</ele><time>2026-05-02T13:31:08.851Z</time></trkpt><trkpt lat="45.7079879" lon="9.4225779"><ele>333.0</ele><time>2026-05-02T13:31:10.852Z</time></trkpt><trkpt lat="45.707921" lon="9.422618"><ele>333.0</ele><time>2026-05-02T13:31:12.852Z</time></trkpt><trkpt lat="45.7078425" lon="9.4226593"><ele>333.0</ele><time>2026-05-02T13:31:14.852Z</time></trkpt><trkpt lat="45.7077845" lon="9.42274"><ele>333.0</ele><time>2026-05-02T13:31:16.851Z</time></trkpt><trkpt lat="45.7077483" lon="9.4228388"><ele>333.0</ele><time>2026-05-02T13:31:18.852Z</time></trkpt><trkpt lat="45.7077091" lon="9.4229263"><ele>333.0</ele><time>2026-05-02T13:31:20.851Z</time></trkpt><trkpt lat="45.7076763" lon="9.4230485"><ele>333.4</ele><time>2026-05-02T13:31:22.852Z</time></trkpt><trkpt lat="45.7076037" lon="9.4231664"><ele>333.79999999999995</ele><time>2026-05-02T13:31:24.851Z</time></trkpt><trkpt lat="45.7075569" lon="9.4232916"><ele>334.2</ele><time>2026-05-02T13:31:26.851Z</time></trkpt><trkpt lat="45.7075054" lon="9.4234142"><ele>334.6</ele><time>2026-05-02T13:31:28.852Z</time></trkpt><trkpt lat="45.7074454" lon="9.4235503"><ele>335.0</ele><time>2026-05-02T13:31:30.851Z</time></trkpt><trkpt lat="45.7074251" lon="9.423722"><ele>333.25</ele><time>2026-05-02T13:31:32.852Z</time></trkpt><trkpt lat="45.707405" lon="9.4238194"><ele>331.5</ele><time>2026-05-02T13:31:33.851Z</time></trkpt><trkpt lat="45.7073731" lon="9.423921"><ele>329.75</ele><time>2026-05-02T13:31:34.851Z</time></trkpt><trkpt lat="45.7073202" lon="9.424014"><ele>328.0</ele><time>2026-05-02T13:31:35.851Z</time></trkpt><trkpt lat="45.7070889" lon="9.42424"><ele>328.0</ele><time>2026-05-02T13:31:36.852Z</time></trkpt><trkpt lat="45.7070292" lon="9.4243329"><ele>328.0</ele><time>2026-05-02T13:31:37.852Z</time></trkpt><trkpt lat="45.7069824" lon="9.4244217"><ele>328.0</ele><time>2026-05-02T13:31:38.852Z</time></trkpt><trkpt lat="45.7069505" lon="9.4245167"><ele>328.0</ele><time>2026-05-02T13:31:39.852Z</time></trkpt><trkpt lat="45.7069189" lon="9.4245958"><ele>328.0</ele><time>2026-05-02T13:31:40.852Z</time></trkpt><trkpt lat="45.7069144" lon="9.4247288"><ele>328.0</ele><time>2026-05-02T13:31:42.852Z</time></trkpt><trkpt lat="45.706954" lon="9.4248455"><ele>327.4</ele><time>2026-05-02T13:31:44.852Z</time></trkpt><trkpt lat="45.7070363" lon="9.4249482"><ele>326.79999999999995</ele><time>2026-05-02T13:31:46.852Z</time></trkpt><trkpt lat="45.7071242" lon="9.4250538"><ele>326.2</ele><time>2026-05-02T13:31:48.851Z</time></trkpt><trkpt lat="45.707173" lon="9.4251182"><ele>325.6</ele><time>2026-05-02T13:31:49.852Z</time></trkpt><trkpt lat="45.7072139" lon="9.4251954"><ele>325.0</ele><time>2026-05-02T13:31:50.851Z</time></trkpt><trkpt lat="45.7072495" lon="9.4253561"><ele>325.0</ele><time>2026-05-02T13:31:52.851Z</time></trkpt><trkpt lat="45.7072773" lon="9.4255293"><ele>325.0</ele><time>2026-05-02T13:31:54.852Z</time></trkpt><trkpt lat="45.7073058" lon="9.4256144"><ele>325.0</ele><time>2026-05-02T13:31:55.851Z</time></trkpt><trkpt lat="45.7073332" lon="9.4257007"><ele>325.0</ele><time>2026-05-02T13:31:56.851Z</time></trkpt><trkpt lat="45.7073685" lon="9.4257859"><ele>325.0</ele><time>2026-05-02T13:31:57.851Z</time></trkpt><trkpt lat="45.7074557" lon="9.4258769"><ele>325.0</ele><time>2026-05-02T13:31:59.852Z</time></trkpt><trkpt lat="45.7074857" lon="9.4259589"><ele>325.0</ele><time>2026-05-02T13:32:00.852Z</time></trkpt><trkpt lat="45.7075371" lon="9.4261261"><ele>325.0</ele><time>2026-05-02T13:32:02.851Z</time></trkpt><trkpt lat="45.7075514" lon="9.4262146"><ele>325.0</ele><time>2026-05-02T13:32:03.851Z</time></trkpt><trkpt lat="45.7075058" lon="9.4263824"><ele>325.0</ele><time>2026-05-02T13:32:05.852Z</time></trkpt><trkpt lat="45.7074492" lon="9.4265505"><ele>325.0</ele><time>2026-05-02T13:32:07.852Z</time></trkpt><trkpt lat="45.7074703" lon="9.4267075"><ele>325.0</ele><time>2026-05-02T13:32:09.852Z</time></trkpt><trkpt lat="45.7074807" lon="9.4268724"><ele>325.0</ele><time>2026-05-02T13:32:11.851Z</time></trkpt><trkpt lat="45.7075447" lon="9.4270355"><ele>325.0</ele><time>2026-05-02T13:32:13.851Z</time></trkpt><trkpt lat="45.7075983" lon="9.4271727"><ele>325.0</ele><time>2026-05-02T13:32:15.851Z</time></trkpt><trkpt lat="45.7076277" lon="9.4273512"><ele>325.4</ele><time>2026-05-02T13:32:17.852Z</time></trkpt><trkpt lat="45.7076466" lon="9.4274425"><ele>325.8</ele><time>2026-05-02T13:32:18.852Z</time></trkpt><trkpt lat="45.707589" lon="9.4275753"><ele>326.20000000000005</ele><time>2026-05-02T13:32:20.852Z</time></trkpt><trkpt lat="45.7075299" lon="9.4276874"><ele>326.6</ele><time>2026-05-02T13:32:22.851Z</time></trkpt><trkpt lat="45.707483" lon="9.4278073"><ele>327.0</ele><time>2026-05-02T13:32:24.852Z</time></trkpt><trkpt lat="45.7074125" lon="9.4278826"><ele>327.0</ele><time>2026-05-02T13:32:26.852Z</time></trkpt><trkpt lat="45.7073598" lon="9.427946"><ele>327.0</ele><time>2026-05-02T13:32:27.851Z</time></trkpt><trkpt lat="45.7074085" lon="9.428017"><ele>327.0</ele><time>2026-05-02T13:32:29.851Z</time></trkpt><trkpt lat="45.7074676" lon="9.428067"><ele>327.0</ele><time>2026-05-02T13:32:31.852Z</time></trkpt><trkpt lat="45.7075342" lon="9.4280734"><ele>327.0</ele><time>2026-05-02T13:32:33.851Z</time></trkpt><trkpt lat="45.7076428" lon="9.4281088"><ele>327.0</ele><time>2026-05-02T13:32:35.852Z</time></trkpt><trkpt lat="45.7077483" lon="9.4281682"><ele>327.20000000000005</ele><time>2026-05-02T13:32:37.851Z</time></trkpt><trkpt lat="45.7077832" lon="9.4283448"><ele>327.4</ele><time>2026-05-02T13:32:39.851Z</time></trkpt><trkpt lat="45.7077769" lon="9.4285303"><ele>327.6</ele><time>2026-05-02T13:32:41.851Z</time></trkpt><trkpt lat="45.7077568" lon="9.4286249"><ele>327.79999999999995</ele><time>2026-05-02T13:32:42.852Z</time></trkpt><trkpt lat="45.7077388" lon="9.4287283"><ele>328.0</ele><time>2026-05-02T13:32:43.851Z</time></trkpt><trkpt lat="45.70772" lon="9.4288352"><ele>327.3333333333333</ele><time>2026-05-02T13:32:44.852Z</time></trkpt><trkpt lat="45.7076931" lon="9.4289606"><ele>326.66666666666663</ele><time>2026-05-02T13:32:45.852Z</time></trkpt><trkpt lat="45.7076702" lon="9.4290616"><ele>326.0</ele><time>2026-05-02T13:32:46.851Z</time></trkpt><trkpt lat="45.7076539" lon="9.4292231"><ele>325.3333333333333</ele><time>2026-05-02T13:32:48.851Z</time></trkpt><trkpt lat="45.7076421" lon="9.4293469"><ele>324.6666666666667</ele><time>2026-05-02T13:32:50.851Z</time></trkpt><trkpt lat="45.7076083" lon="9.4294373"><ele>324.0</ele><time>2026-05-02T13:32:52.852Z</time></trkpt><trkpt lat="45.7075319" lon="9.4294838"><ele>324.0</ele><time>2026-05-02T13:32:54.852Z</time></trkpt><trkpt lat="45.7074629" lon="9.4295315"><ele>324.0</ele><time>2026-05-02T13:32:55.851Z</time></trkpt><trkpt lat="45.7073786" lon="9.4296028"><ele>324.0</ele><time>2026-05-02T13:32:57.852Z</time></trkpt><trkpt lat="45.7073143" lon="9.4297088"><ele>324.0</ele><time>2026-05-02T13:32:59.852Z</time></trkpt><trkpt lat="45.7072508" lon="9.4297947"><ele>324.0</ele><time>2026-05-02T13:33:01.852Z</time></trkpt><trkpt lat="45.7071741" lon="9.4298977"><ele>323.3333333333333</ele><time>2026-05-02T13:33:03.851Z</time></trkpt><trkpt lat="45.7071215" lon="9.4299748"><ele>322.6666666666667</ele><time>2026-05-02T13:33:05.851Z</time></trkpt><trkpt lat="45.7070346" lon="9.4300363"><ele>322.0</ele><time>2026-05-02T13:33:07.852Z</time></trkpt><trkpt lat="45.706982" lon="9.4301176"><ele>321.33333333333337</ele><time>2026-05-02T13:33:09.852Z</time></trkpt><trkpt lat="45.7069298" lon="9.4302074"><ele>320.6666666666667</ele><time>2026-05-02T13:33:11.852Z</time></trkpt><trkpt lat="45.7068567" lon="9.4302093"><ele>320.0</ele><time>2026-05-02T13:33:15.852Z</time></trkpt><trkpt lat="45.7067709" lon="9.4302124"><ele>321.33333333333337</ele><time>2026-05-02T13:33:17.851Z</time></trkpt><trkpt lat="45.7066981" lon="9.4302449"><ele>322.6666666666667</ele><time>2026-05-02T13:33:20.851Z</time></trkpt><trkpt lat="45.7066163" lon="9.430238"><ele>324.0</ele><time>2026-05-02T13:33:25.851Z</time></trkpt><trkpt lat="45.7065317" lon="9.4302621"><ele>325.3333333333333</ele><time>2026-05-02T13:33:28.852Z</time></trkpt><trkpt lat="45.706463" lon="9.4302904"><ele>326.66666666666663</ele><time>2026-05-02T13:33:30.852Z</time></trkpt><trkpt lat="45.7064037" lon="9.430324"><ele>328.0</ele><time>2026-05-02T13:33:32.851Z</time></trkpt><trkpt lat="45.7063298" lon="9.4303524"><ele>328.0</ele><time>2026-05-02T13:33:34.851Z</time></trkpt><trkpt lat="45.7062634" lon="9.4303989"><ele>328.0</ele><time>2026-05-02T13:33:36.852Z</time></trkpt><trkpt lat="45.7061822" lon="9.4304579"><ele>328.0</ele><time>2026-05-02T13:33:38.851Z</time></trkpt><trkpt lat="45.7061012" lon="9.430501"><ele>328.0</ele><time>2026-05-02T13:33:40.852Z</time></trkpt><trkpt lat="45.7060354" lon="9.43058"><ele>328.0</ele><time>2026-05-02T13:33:42.851Z</time></trkpt><trkpt lat="45.7059738" lon="9.4306771"><ele>328.0</ele><time>2026-05-02T13:33:44.851Z</time></trkpt><trkpt lat="45.7058631" lon="9.4308272"><ele>327.3333333333333</ele><time>2026-05-02T13:33:46.852Z</time></trkpt><trkpt lat="45.7058016" lon="9.4308956"><ele>326.66666666666663</ele><time>2026-05-02T13:33:47.852Z</time></trkpt><trkpt lat="45.7057741" lon="9.4309799"><ele>326.0</ele><time>2026-05-02T13:33:48.852Z</time></trkpt><trkpt lat="45.7057115" lon="9.4310482"><ele>325.3333333333333</ele><time>2026-05-02T13:33:49.851Z</time></trkpt><trkpt lat="45.7056679" lon="9.4311156"><ele>324.6666666666667</ele><time>2026-05-02T13:33:50.851Z</time></trkpt><trkpt lat="45.7056151" lon="9.4311651"><ele>324.0</ele><time>2026-05-02T13:33:51.852Z</time></trkpt><trkpt lat="45.7055232" lon="9.4312857"><ele>323.6666666666667</ele><time>2026-05-02T13:33:53.852Z</time></trkpt><trkpt lat="45.7054382" lon="9.4313955"><ele>323.3333333333333</ele><time>2026-05-02T13:33:55.852Z</time></trkpt><trkpt lat="45.705375" lon="9.4314777"><ele>323.0</ele><time>2026-05-02T13:33:57.852Z</time></trkpt><trkpt lat="45.7053265" lon="9.4315865"><ele>322.66666666666663</ele><time>2026-05-02T13:33:59.852Z</time></trkpt><trkpt lat="45.7052639" lon="9.4316592"><ele>322.3333333333333</ele><time>2026-05-02T13:34:00.852Z</time></trkpt><trkpt lat="45.705204" lon="9.431722"><ele>322.0</ele><time>2026-05-02T13:34:01.851Z</time></trkpt><trkpt lat="45.7051198" lon="9.4318071"><ele>322.0</ele><time>2026-05-02T13:34:02.852Z</time></trkpt><trkpt lat="45.7050232" lon="9.4319484"><ele>322.0</ele><time>2026-05-02T13:34:04.852Z</time></trkpt><trkpt lat="45.7049475" lon="9.4320241"><ele>322.0</ele><time>2026-05-02T13:34:05.852Z</time></trkpt><trkpt lat="45.704879" lon="9.4320747"><ele>322.0</ele><time>2026-05-02T13:34:06.851Z</time></trkpt><trkpt lat="45.704824" lon="9.4321314"><ele>322.0</ele><time>2026-05-02T13:34:07.851Z</time></trkpt><trkpt lat="45.7047557" lon="9.4321801"><ele>320.5</ele><time>2026-05-02T13:34:08.852Z</time></trkpt><trkpt lat="45.7047063" lon="9.4322388"><ele>319.0</ele><time>2026-05-02T13:34:09.851Z</time></trkpt><trkpt lat="45.7046251" lon="9.4323823"><ele>317.5</ele><time>2026-05-02T13:34:11.851Z</time></trkpt><trkpt lat="45.7045552" lon="9.4324574"><ele>316.0</ele><time>2026-05-02T13:34:12.851Z</time></trkpt><trkpt lat="45.704493" lon="9.4325079"><ele>314.5</ele><time>2026-05-02T13:34:13.851Z</time></trkpt><trkpt lat="45.7044191" lon="9.4325468"><ele>313.0</ele><time>2026-05-02T13:34:14.852Z</time></trkpt><trkpt lat="45.7043318" lon="9.4325744"><ele>312.5</ele><time>2026-05-02T13:34:15.851Z</time></trkpt><trkpt lat="45.7042584" lon="9.4326016"><ele>312.0</ele><time>2026-05-02T13:34:16.851Z</time></trkpt><trkpt lat="45.7041618" lon="9.4326301"><ele>311.5</ele><time>2026-05-02T13:34:18.852Z</time></trkpt><trkpt lat="45.7040998" lon="9.4326545"><ele>311.0</ele><time>2026-05-02T13:34:19.852Z</time></trkpt><trkpt lat="45.7040445" lon="9.4327169"><ele>310.5</ele><time>2026-05-02T13:34:20.852Z</time></trkpt><trkpt lat="45.7039765" lon="9.4327845"><ele>310.0</ele><time>2026-05-02T13:34:21.851Z</time></trkpt><trkpt lat="45.7039091" lon="9.4328301"><ele>310.0</ele><time>2026-05-02T13:34:22.851Z</time></trkpt><trkpt lat="45.7037969" lon="9.4329075"><ele>310.0</ele><time>2026-05-02T13:34:23.852Z</time></trkpt><trkpt lat="45.7037043" lon="9.4329701"><ele>310.0</ele><time>2026-05-02T13:34:24.852Z</time></trkpt><trkpt lat="45.703643" lon="9.4330007"><ele>310.0</ele><time>2026-05-02T13:34:25.852Z</time></trkpt><trkpt lat="45.7035745" lon="9.4330189"><ele>310.0</ele><time>2026-05-02T13:34:26.851Z</time></trkpt><trkpt lat="45.7035028" lon="9.4330277"><ele>310.0</ele><time>2026-05-02T13:34:27.851Z</time></trkpt><trkpt lat="45.7034361" lon="9.4330656"><ele>309.2</ele><time>2026-05-02T13:34:28.851Z</time></trkpt><trkpt lat="45.7033757" lon="9.4331126"><ele>308.4</ele><time>2026-05-02T13:34:29.851Z</time></trkpt><trkpt lat="45.7033104" lon="9.4332555"><ele>307.6</ele><time>2026-05-02T13:34:31.852Z</time></trkpt><trkpt lat="45.7032317" lon="9.4333833"><ele>306.8</ele><time>2026-05-02T13:34:33.852Z</time></trkpt><trkpt lat="45.7031337" lon="9.4334683"><ele>306.0</ele><time>2026-05-02T13:34:35.852Z</time></trkpt><trkpt lat="45.7030698" lon="9.433567"><ele>306.0</ele><time>2026-05-02T13:34:37.852Z</time></trkpt><trkpt lat="45.703009" lon="9.4336819"><ele>306.0</ele><time>2026-05-02T13:34:39.852Z</time></trkpt><trkpt lat="45.7029467" lon="9.4338066"><ele>306.0</ele><time>2026-05-02T13:34:41.851Z</time></trkpt><trkpt lat="45.7028892" lon="9.4339213"><ele>306.0</ele><time>2026-05-02T13:34:43.851Z</time></trkpt><trkpt lat="45.7028089" lon="9.4340347"><ele>306.0</ele><time>2026-05-02T13:34:45.851Z</time></trkpt><trkpt lat="45.7027319" lon="9.4341505"><ele>306.0</ele><time>2026-05-02T13:34:47.852Z</time></trkpt><trkpt lat="45.7026736" lon="9.4342716"><ele>306.0</ele><time>2026-05-02T13:34:49.851Z</time></trkpt><trkpt lat="45.702589" lon="9.4343889"><ele>306.0</ele><time>2026-05-02T13:34:51.851Z</time></trkpt><trkpt lat="45.7025089" lon="9.4344932"><ele>306.0</ele><time>2026-05-02T13:34:53.851Z</time></trkpt><trkpt lat="45.7024237" lon="9.4346117"><ele>306.0</ele><time>2026-05-02T13:34:55.851Z</time></trkpt><trkpt lat="45.7023935" lon="9.4346948"><ele>306.0</ele><time>2026-05-02T13:34:56.852Z</time></trkpt><trkpt lat="45.7023374" lon="9.4348058"><ele>306.0</ele><time>2026-05-02T13:34:58.851Z</time></trkpt><trkpt lat="45.7022636" lon="9.4349231"><ele>306.0</ele><time>2026-05-02T13:35:00.852Z</time></trkpt><trkpt lat="45.7022039" lon="9.4350539"><ele>306.0</ele><time>2026-05-02T13:35:02.852Z</time></trkpt><trkpt lat="45.7021461" lon="9.4351894"><ele>306.0</ele><time>2026-05-02T13:35:04.851Z</time></trkpt><trkpt lat="45.7021007" lon="9.4353354"><ele>306.0</ele><time>2026-05-02T13:35:06.852Z</time></trkpt><trkpt lat="45.7020544" lon="9.4354668"><ele>306.0</ele><time>2026-05-02T13:35:08.852Z</time></trkpt><trkpt lat="45.7020187" lon="9.4356178"><ele>306.0</ele><time>2026-05-02T13:35:10.851Z</time></trkpt><trkpt lat="45.7019693" lon="9.4357556"><ele>306.0</ele><time>2026-05-02T13:35:12.852Z</time></trkpt><trkpt lat="45.7019045" lon="9.4358792"><ele>306.0</ele><time>2026-05-02T13:35:14.851Z</time></trkpt><trkpt lat="45.7018198" lon="9.4359866"><ele>306.2</ele><time>2026-05-02T13:35:16.851Z</time></trkpt><trkpt lat="45.7017442" lon="9.4361255"><ele>306.40000000000003</ele><time>2026-05-02T13:35:18.851Z</time></trkpt><trkpt lat="45.7016788" lon="9.436245"><ele>306.6</ele><time>2026-05-02T13:35:20.851Z</time></trkpt><trkpt lat="45.7016206" lon="9.4363871"><ele>306.8</ele><time>2026-05-02T13:35:22.851Z</time></trkpt><trkpt lat="45.7015879" lon="9.4364661"><ele>307.0</ele><time>2026-05-02T13:35:23.852Z</time></trkpt><trkpt lat="45.7015397" lon="9.4365394"><ele>306.66666666666663</ele><time>2026-05-02T13:35:24.851Z</time></trkpt><trkpt lat="45.7014675" lon="9.4366872"><ele>306.3333333333333</ele><time>2026-05-02T13:35:26.852Z</time></trkpt><trkpt lat="45.7014411" lon="9.4367701"><ele>306.0</ele><time>2026-05-02T13:35:27.851Z</time></trkpt><trkpt lat="45.701388" lon="9.4368606"><ele>305.6666666666667</ele><time>2026-05-02T13:35:28.851Z</time></trkpt><trkpt lat="45.7013639" lon="9.4369598"><ele>305.33333333333337</ele><time>2026-05-02T13:35:29.852Z</time></trkpt><trkpt lat="45.7013441" lon="9.4370468"><ele>305.0</ele><time>2026-05-02T13:35:30.852Z</time></trkpt><trkpt lat="45.7013185" lon="9.4371367"><ele>305.0</ele><time>2026-05-02T13:35:31.851Z</time></trkpt><trkpt lat="45.7012503" lon="9.4372754"><ele>305.0</ele><time>2026-05-02T13:35:33.851Z</time></trkpt><trkpt lat="45.7011779" lon="9.4374146"><ele>305.0</ele><time>2026-05-02T13:35:35.852Z</time></trkpt><trkpt lat="45.7011116" lon="9.4375423"><ele>305.0</ele><time>2026-05-02T13:35:37.851Z</time></trkpt><trkpt lat="45.7010479" lon="9.4376591"><ele>304.8</ele><time>2026-05-02T13:35:39.852Z</time></trkpt><trkpt lat="45.7009506" lon="9.4377262"><ele>304.6</ele><time>2026-05-02T13:35:41.851Z</time></trkpt><trkpt lat="45.7008318" lon="9.4377231"><ele>304.4</ele><time>2026-05-02T13:35:43.851Z</time></trkpt><trkpt lat="45.7007674" lon="9.4377241"><ele>304.2</ele><time>2026-05-02T13:35:44.852Z</time></trkpt><trkpt lat="45.7006903" lon="9.4377535"><ele>304.0</ele><time>2026-05-02T13:35:46.851Z</time></trkpt><trkpt lat="45.7005713" lon="9.4377322"><ele>304.0</ele><time>2026-05-02T13:35:48.852Z</time></trkpt><trkpt lat="45.7004408" lon="9.4377612"><ele>304.0</ele><time>2026-05-02T13:35:50.851Z</time></trkpt><trkpt lat="45.7003247" lon="9.4378067"><ele>304.0</ele><time>2026-05-02T13:35:52.852Z</time></trkpt><trkpt lat="45.7002588" lon="9.4378922"><ele>304.0</ele><time>2026-05-02T13:35:54.852Z</time></trkpt><trkpt lat="45.7001736" lon="9.4379836"><ele>304.0</ele><time>2026-05-02T13:35:56.852Z</time></trkpt><trkpt lat="45.7000813" lon="9.4380417"><ele>304.66666666666663</ele><time>2026-05-02T13:35:58.851Z</time></trkpt><trkpt lat="45.7000219" lon="9.4380796"><ele>305.3333333333333</ele><time>2026-05-02T13:35:59.852Z</time></trkpt><trkpt lat="45.6999571" lon="9.4381201"><ele>306.0</ele><time>2026-05-02T13:36:01.852Z</time></trkpt><trkpt lat="45.6998829" lon="9.4381485"><ele>306.6666666666667</ele><time>2026-05-02T13:36:03.851Z</time></trkpt><trkpt lat="45.6997688" lon="9.4381845"><ele>307.33333333333337</ele><time>2026-05-02T13:36:05.851Z</time></trkpt><trkpt lat="45.6996637" lon="9.4382081"><ele>308.0</ele><time>2026-05-02T13:36:07.852Z</time></trkpt><trkpt lat="45.6995907" lon="9.438243"><ele>308.0</ele><time>2026-05-02T13:36:08.851Z</time></trkpt><trkpt lat="45.699477" lon="9.4383142"><ele>308.0</ele><time>2026-05-02T13:36:10.851Z</time></trkpt><trkpt lat="45.6993777" lon="9.4383985"><ele>308.0</ele><time>2026-05-02T13:36:12.851Z</time></trkpt><trkpt lat="45.6993227" lon="9.4384506"><ele>308.0</ele><time>2026-05-02T13:36:13.852Z</time></trkpt><trkpt lat="45.6992512" lon="9.4385825"><ele>308.0</ele><time>2026-05-02T13:36:15.852Z</time></trkpt><trkpt lat="45.699196" lon="9.4386453"><ele>307.83333333333337</ele><time>2026-05-02T13:36:16.852Z</time></trkpt><trkpt lat="45.6991403" lon="9.4386996"><ele>307.6666666666667</ele><time>2026-05-02T13:36:17.852Z</time></trkpt><trkpt lat="45.6991012" lon="9.438777"><ele>307.5</ele><time>2026-05-02T13:36:18.852Z</time></trkpt><trkpt lat="45.6990716" lon="9.4388673"><ele>307.3333333333333</ele><time>2026-05-02T13:36:19.851Z</time></trkpt><trkpt lat="45.6989997" lon="9.4390301"><ele>307.16666666666663</ele><time>2026-05-02T13:36:21.851Z</time></trkpt><trkpt lat="45.6989647" lon="9.4391172"><ele>307.0</ele><time>2026-05-02T13:36:22.852Z</time></trkpt><trkpt lat="45.6989229" lon="9.4391957"><ele>307.0</ele><time>2026-05-02T13:36:23.852Z</time></trkpt><trkpt lat="45.6988636" lon="9.4393424"><ele>307.0</ele><time>2026-05-02T13:36:25.851Z</time></trkpt><trkpt lat="45.6987943" lon="9.4394918"><ele>307.0</ele><time>2026-05-02T13:36:27.852Z</time></trkpt><trkpt lat="45.6987154" lon="9.4396369"><ele>307.0</ele><time>2026-05-02T13:36:29.852Z</time></trkpt><trkpt lat="45.6986764" lon="9.4397107"><ele>307.0</ele><time>2026-05-02T13:36:30.851Z</time></trkpt><trkpt lat="45.6986372" lon="9.4397861"><ele>306.8333333333333</ele><time>2026-05-02T13:36:31.851Z</time></trkpt><trkpt lat="45.6986023" lon="9.4398815"><ele>306.66666666666663</ele><time>2026-05-02T13:36:32.852Z</time></trkpt><trkpt lat="45.6985169" lon="9.4400083"><ele>306.5</ele><time>2026-05-02T13:36:34.852Z</time></trkpt><trkpt lat="45.6984734" lon="9.4401391"><ele>306.3333333333333</ele><time>2026-05-02T13:36:36.852Z</time></trkpt><trkpt lat="45.698426" lon="9.4402346"><ele>306.1666666666667</ele><time>2026-05-02T13:36:38.851Z</time></trkpt><trkpt lat="45.6983904" lon="9.4403113"><ele>306.0</ele><time>2026-05-02T13:36:42.851Z</time></trkpt><trkpt lat="45.6983022" lon="9.4403392"><ele>306.6</ele><time>2026-05-02T13:36:45.852Z</time></trkpt><trkpt lat="45.6982252" lon="9.440377"><ele>307.20000000000005</ele><time>2026-05-02T13:36:48.852Z</time></trkpt><trkpt lat="45.6981389" lon="9.4404266"><ele>307.79999999999995</ele><time>2026-05-02T13:36:50.851Z</time></trkpt><trkpt lat="45.6980566" lon="9.4404643"><ele>308.4</ele><time>2026-05-02T13:36:52.851Z</time></trkpt><trkpt lat="45.6979244" lon="9.4405213"><ele>309.0</ele><time>2026-05-02T13:36:54.851Z</time></trkpt><trkpt lat="45.6978498" lon="9.4405544"><ele>308.2</ele><time>2026-05-02T13:36:55.852Z</time></trkpt><trkpt lat="45.697725" lon="9.4406064"><ele>307.4</ele><time>2026-05-02T13:36:57.851Z</time></trkpt><trkpt lat="45.6976348" lon="9.4406394"><ele>306.6</ele><time>2026-05-02T13:36:59.852Z</time></trkpt><trkpt lat="45.6975681" lon="9.440654"><ele>305.8</ele><time>2026-05-02T13:37:00.852Z</time></trkpt><trkpt lat="45.6974987" lon="9.4406347"><ele>305.0</ele><time>2026-05-02T13:37:01.851Z</time></trkpt><trkpt lat="45.6974107" lon="9.4406514"><ele>305.0</ele><time>2026-05-02T13:37:02.851Z</time></trkpt><trkpt lat="45.6973227" lon="9.4406095"><ele>305.0</ele><time>2026-05-02T13:37:04.852Z</time></trkpt><trkpt lat="45.6972562" lon="9.440617"><ele>305.0</ele><time>2026-05-02T13:37:07.852Z</time></trkpt><trkpt lat="45.6971682" lon="9.4406871"><ele>305.0</ele><time>2026-05-02T13:37:09.851Z</time></trkpt><trkpt lat="45.697106" lon="9.4407209"><ele>305.0</ele><time>2026-05-02T13:37:10.852Z</time></trkpt><trkpt lat="45.6969733" lon="9.4407548"><ele>303.5</ele><time>2026-05-02T13:37:12.851Z</time></trkpt><trkpt lat="45.6969082" lon="9.4407689"><ele>302.0</ele><time>2026-05-02T13:37:13.851Z</time></trkpt><trkpt lat="45.6968383" lon="9.440766"><ele>300.5</ele><time>2026-05-02T13:37:14.852Z</time></trkpt><trkpt lat="45.6967617" lon="9.4407803"><ele>299.0</ele><time>2026-05-02T13:37:15.852Z</time></trkpt><trkpt lat="45.696687" lon="9.440779"><ele>297.5</ele><time>2026-05-02T13:37:16.852Z</time></trkpt><trkpt lat="45.696599" lon="9.4407923"><ele>296.0</ele><time>2026-05-02T13:37:17.852Z</time></trkpt><trkpt lat="45.6965194" lon="9.440805"><ele>296.0</ele><time>2026-05-02T13:37:18.852Z</time></trkpt><trkpt lat="45.6964356" lon="9.4408046"><ele>296.0</ele><time>2026-05-02T13:37:19.851Z</time></trkpt><trkpt lat="45.6963532" lon="9.4408221"><ele>296.0</ele><time>2026-05-02T13:37:20.852Z</time></trkpt><trkpt lat="45.6962561" lon="9.4408263"><ele>296.0</ele><time>2026-05-02T13:37:21.851Z</time></trkpt><trkpt lat="45.6961571" lon="9.4408363"><ele>296.0</ele><time>2026-05-02T13:37:22.851Z</time></trkpt><trkpt lat="45.6960567" lon="9.4408445"><ele>295.2</ele><time>2026-05-02T13:37:23.852Z</time></trkpt><trkpt lat="45.6959544" lon="9.4408776"><ele>294.40000000000003</ele><time>2026-05-02T13:37:24.851Z</time></trkpt><trkpt lat="45.6958618" lon="9.440885"><ele>293.6</ele><time>2026-05-02T13:37:25.851Z</time></trkpt><trkpt lat="45.6957741" lon="9.4408977"><ele>292.8</ele><time>2026-05-02T13:37:26.852Z</time></trkpt><trkpt lat="45.6956899" lon="9.4408983"><ele>292.0</ele><time>2026-05-02T13:37:27.851Z</time></trkpt><trkpt lat="45.6955989" lon="9.4408812"><ele>292.0</ele><time>2026-05-02T13:37:28.851Z</time></trkpt><trkpt lat="45.6955075" lon="9.4408625"><ele>292.0</ele><time>2026-05-02T13:37:29.851Z</time></trkpt><trkpt lat="45.6954087" lon="9.440841"><ele>292.0</ele><time>2026-05-02T13:37:30.852Z</time></trkpt><trkpt lat="45.6953145" lon="9.4408229"><ele>292.0</ele><time>2026-05-02T13:37:31.851Z</time></trkpt><trkpt lat="45.6952107" lon="9.4408119"><ele>292.0</ele><time>2026-05-02T13:37:32.852Z</time></trkpt><trkpt lat="45.6951131" lon="9.4407907"><ele>290.8</ele><time>2026-05-02T13:37:33.851Z</time></trkpt><trkpt lat="45.6950194" lon="9.4407762"><ele>289.6</ele><time>2026-05-02T13:37:34.851Z</time></trkpt><trkpt lat="45.6949221" lon="9.4407765"><ele>288.40000000000003</ele><time>2026-05-02T13:37:35.852Z</time></trkpt><trkpt lat="45.6948232" lon="9.440793"><ele>287.2</ele><time>2026-05-02T13:37:36.851Z</time></trkpt><trkpt lat="45.6947323" lon="9.4408414"><ele>286.0</ele><time>2026-05-02T13:37:37.852Z</time></trkpt><trkpt lat="45.6946495" lon="9.4408955"><ele>286.0</ele><time>2026-05-02T13:37:38.851Z</time></trkpt><trkpt lat="45.694573" lon="9.4409349"><ele>286.0</ele><time>2026-05-02T13:37:39.852Z</time></trkpt><trkpt lat="45.6944928" lon="9.4410006"><ele>286.0</ele><time>2026-05-02T13:37:40.851Z</time></trkpt><trkpt lat="45.6944176" lon="9.4410585"><ele>286.0</ele><time>2026-05-02T13:37:41.851Z</time></trkpt><trkpt lat="45.6943394" lon="9.4410936"><ele>286.0</ele><time>2026-05-02T13:37:42.851Z</time></trkpt><trkpt lat="45.6942611" lon="9.4411305"><ele>286.0</ele><time>2026-05-02T13:37:43.852Z</time></trkpt><trkpt lat="45.6941815" lon="9.4411767"><ele>285.5</ele><time>2026-05-02T13:37:44.852Z</time></trkpt><trkpt lat="45.6940986" lon="9.441208"><ele>285.0</ele><time>2026-05-02T13:37:45.852Z</time></trkpt><trkpt lat="45.6940161" lon="9.4412481"><ele>284.5</ele><time>2026-05-02T13:37:46.852Z</time></trkpt><trkpt lat="45.6939259" lon="9.4412788"><ele>284.0</ele><time>2026-05-02T13:37:47.851Z</time></trkpt><trkpt lat="45.6938433" lon="9.4413182"><ele>283.5</ele><time>2026-05-02T13:37:48.851Z</time></trkpt><trkpt lat="45.6937611" lon="9.4413507"><ele>283.0</ele><time>2026-05-02T13:37:49.851Z</time></trkpt><trkpt lat="45.6936521" lon="9.4413835"><ele>282.66666666666663</ele><time>2026-05-02T13:37:50.852Z</time></trkpt><trkpt lat="45.6935732" lon="9.4414144"><ele>282.3333333333333</ele><time>2026-05-02T13:37:51.852Z</time></trkpt><trkpt lat="45.6934913" lon="9.4414478"><ele>282.0</ele><time>2026-05-02T13:37:52.852Z</time></trkpt><trkpt lat="45.693422" lon="9.4414598"><ele>281.6666666666667</ele><time>2026-05-02T13:37:53.851Z</time></trkpt><trkpt lat="45.6933497" lon="9.4414803"><ele>281.33333333333337</ele><time>2026-05-02T13:37:54.852Z</time></trkpt><trkpt lat="45.6932668" lon="9.4415179"><ele>281.0</ele><time>2026-05-02T13:37:55.852Z</time></trkpt><trkpt lat="45.6931985" lon="9.4415581"><ele>281.0</ele><time>2026-05-02T13:37:56.852Z</time></trkpt><trkpt lat="45.6931204" lon="9.441589"><ele>281.0</ele><time>2026-05-02T13:37:57.852Z</time></trkpt><trkpt lat="45.693035" lon="9.4416253"><ele>281.0</ele><time>2026-05-02T13:37:58.851Z</time></trkpt><trkpt lat="45.6929456" lon="9.4416659"><ele>281.0</ele><time>2026-05-02T13:37:59.851Z</time></trkpt><trkpt lat="45.6928722" lon="9.4417026"><ele>281.0</ele><time>2026-05-02T13:38:00.852Z</time></trkpt><trkpt lat="45.692786" lon="9.441725"><ele>281.0</ele><time>2026-05-02T13:38:01.852Z</time></trkpt><trkpt lat="45.692706" lon="9.441736"><ele>280.0</ele><time>2026-05-02T13:38:02.852Z</time></trkpt><trkpt lat="45.6926315" lon="9.4417509"><ele>279.0</ele><time>2026-05-02T13:38:03.852Z</time></trkpt><trkpt lat="45.6925542" lon="9.4417698"><ele>278.0</ele><time>2026-05-02T13:38:04.851Z</time></trkpt><trkpt lat="45.6924742" lon="9.4417769"><ele>277.0</ele><time>2026-05-02T13:38:05.851Z</time></trkpt><trkpt lat="45.6923984" lon="9.4417818"><ele>276.0</ele><time>2026-05-02T13:38:06.852Z</time></trkpt><trkpt lat="45.6923174" lon="9.4417812"><ele>275.0</ele><time>2026-05-02T13:38:07.851Z</time></trkpt><trkpt lat="45.6921982" lon="9.441806"><ele>275.0</ele><time>2026-05-02T13:38:09.851Z</time></trkpt><trkpt lat="45.6921116" lon="9.4417889"><ele>275.0</ele><time>2026-05-02T13:38:10.852Z</time></trkpt><trkpt lat="45.6920159" lon="9.4417696"><ele>275.0</ele><time>2026-05-02T13:38:11.852Z</time></trkpt><trkpt lat="45.6919366" lon="9.4417447"><ele>275.0</ele><time>2026-05-02T13:38:12.852Z</time></trkpt><trkpt lat="45.6918576" lon="9.4417334"><ele>275.0</ele><time>2026-05-02T13:38:13.851Z</time></trkpt><trkpt lat="45.691786" lon="9.4417221"><ele>275.0</ele><time>2026-05-02T13:38:14.852Z</time></trkpt><trkpt lat="45.691711" lon="9.4417115"><ele>274.6</ele><time>2026-05-02T13:38:15.852Z</time></trkpt><trkpt lat="45.6916417" lon="9.4417083"><ele>274.2</ele><time>2026-05-02T13:38:16.851Z</time></trkpt><trkpt lat="45.6915365" lon="9.441781"><ele>273.8</ele><time>2026-05-02T13:38:18.852Z</time></trkpt><trkpt lat="45.6914908" lon="9.4419041"><ele>273.4</ele><time>2026-05-02T13:38:20.852Z</time></trkpt><trkpt lat="45.6914032" lon="9.4419897"><ele>273.0</ele><time>2026-05-02T13:38:22.852Z</time></trkpt><trkpt lat="45.6913238" lon="9.4420127"><ele>273.0</ele><time>2026-05-02T13:38:24.852Z</time></trkpt><trkpt lat="45.6912159" lon="9.4420603"><ele>273.0</ele><time>2026-05-02T13:38:26.852Z</time></trkpt><trkpt lat="45.6911097" lon="9.442103"><ele>273.0</ele><time>2026-05-02T13:38:28.852Z</time></trkpt><trkpt lat="45.6910273" lon="9.4420767"><ele>273.0</ele><time>2026-05-02T13:38:30.851Z</time></trkpt><trkpt lat="45.6909103" lon="9.4421497"><ele>273.0</ele><time>2026-05-02T13:38:32.851Z</time></trkpt><trkpt lat="45.6908477" lon="9.4421998"><ele>274.25</ele><time>2026-05-02T13:38:34.852Z</time></trkpt><trkpt lat="45.6906892" lon="9.4422999"><ele>275.5</ele><time>2026-05-02T13:38:36.851Z</time></trkpt><trkpt lat="45.6906273" lon="9.442368"><ele>276.75</ele><time>2026-05-02T13:38:37.852Z</time></trkpt><trkpt lat="45.6905509" lon="9.4424072"><ele>278.0</ele><time>2026-05-02T13:38:38.851Z</time></trkpt><trkpt lat="45.6904342" lon="9.4424607"><ele>278.0</ele><time>2026-05-02T13:38:40.852Z</time></trkpt><trkpt lat="45.6903629" lon="9.4424762"><ele>278.0</ele><time>2026-05-02T13:38:41.852Z</time></trkpt><trkpt lat="45.6903025" lon="9.4425162"><ele>278.0</ele><time>2026-05-02T13:38:42.851Z</time></trkpt><trkpt lat="45.690232" lon="9.4425619"><ele>278.0</ele><time>2026-05-02T13:38:43.851Z</time></trkpt><trkpt lat="45.6901729" lon="9.4426079"><ele>278.0</ele><time>2026-05-02T13:38:44.851Z</time></trkpt><trkpt lat="45.6901243" lon="9.4426777"><ele>278.0</ele><time>2026-05-02T13:38:45.851Z</time></trkpt><trkpt lat="45.6900459" lon="9.4427284"><ele>278.0</ele><time>2026-05-02T13:38:46.852Z</time></trkpt><trkpt lat="45.689945" lon="9.4428271"><ele>277.8</ele><time>2026-05-02T13:38:48.851Z</time></trkpt><trkpt lat="45.6898801" lon="9.4428691"><ele>277.6</ele><time>2026-05-02T13:38:49.852Z</time></trkpt><trkpt lat="45.6898077" lon="9.442902"><ele>277.4</ele><time>2026-05-02T13:38:50.851Z</time></trkpt><trkpt lat="45.6897019" lon="9.4430081"><ele>277.2</ele><time>2026-05-02T13:38:52.851Z</time></trkpt><trkpt lat="45.689656" lon="9.4430755"><ele>277.0</ele><time>2026-05-02T13:38:53.852Z</time></trkpt><trkpt lat="45.6895565" lon="9.4431767"><ele>277.0</ele><time>2026-05-02T13:38:55.852Z</time></trkpt><trkpt lat="45.6894757" lon="9.4432199"><ele>277.0</ele><time>2026-05-02T13:38:56.852Z</time></trkpt><trkpt lat="45.6894175" lon="9.4432722"><ele>277.0</ele><time>2026-05-02T13:38:57.852Z</time></trkpt><trkpt lat="45.6893458" lon="9.4433218"><ele>277.0</ele><time>2026-05-02T13:38:58.851Z</time></trkpt><trkpt lat="45.689281" lon="9.4433839"><ele>277.0</ele><time>2026-05-02T13:38:59.851Z</time></trkpt><trkpt lat="45.689218" lon="9.4434531"><ele>277.0</ele><time>2026-05-02T13:39:00.852Z</time></trkpt><trkpt lat="45.6891557" lon="9.4435134"><ele>277.0</ele><time>2026-05-02T13:39:01.851Z</time></trkpt><trkpt lat="45.6890437" lon="9.4436039"><ele>277.0</ele><time>2026-05-02T13:39:03.851Z</time></trkpt><trkpt lat="45.6889782" lon="9.4436504"><ele>277.0</ele><time>2026-05-02T13:39:04.851Z</time></trkpt><trkpt lat="45.6888734" lon="9.4437461"><ele>277.0</ele><time>2026-05-02T13:39:06.852Z</time></trkpt><trkpt lat="45.6888175" lon="9.4438134"><ele>277.0</ele><time>2026-05-02T13:39:07.852Z</time></trkpt><trkpt lat="45.6887066" lon="9.4438992"><ele>277.0</ele><time>2026-05-02T13:39:09.851Z</time></trkpt><trkpt lat="45.68865" lon="9.4439502"><ele>277.0</ele><time>2026-05-02T13:39:10.852Z</time></trkpt><trkpt lat="45.6885828" lon="9.4440113"><ele>277.0</ele><time>2026-05-02T13:39:11.851Z</time></trkpt><trkpt lat="45.6884709" lon="9.444085"><ele>277.0</ele><time>2026-05-02T13:39:13.851Z</time></trkpt><trkpt lat="45.6884059" lon="9.4441372"><ele>277.0</ele><time>2026-05-02T13:39:14.851Z</time></trkpt><trkpt lat="45.688303" lon="9.4442364"><ele>276.8</ele><time>2026-05-02T13:39:16.851Z</time></trkpt><trkpt lat="45.6882005" lon="9.4443203"><ele>276.6</ele><time>2026-05-02T13:39:18.852Z</time></trkpt><trkpt lat="45.6881333" lon="9.4443946"><ele>276.40000000000003</ele><time>2026-05-02T13:39:19.851Z</time></trkpt><trkpt lat="45.6880176" lon="9.4444854"><ele>276.2</ele><time>2026-05-02T13:39:21.852Z</time></trkpt><trkpt lat="45.6879492" lon="9.4445324"><ele>276.0</ele><time>2026-05-02T13:39:22.852Z</time></trkpt><trkpt lat="45.6878269" lon="9.4446218"><ele>275.8571428571429</ele><time>2026-05-02T13:39:24.851Z</time></trkpt><trkpt lat="45.6877588" lon="9.4446679"><ele>275.7142857142857</ele><time>2026-05-02T13:39:25.852Z</time></trkpt><trkpt lat="45.6877057" lon="9.4447297"><ele>275.57142857142856</ele><time>2026-05-02T13:39:26.851Z</time></trkpt><trkpt lat="45.6876471" lon="9.4447796"><ele>275.42857142857144</ele><time>2026-05-02T13:39:27.851Z</time></trkpt><trkpt lat="45.6875898" lon="9.4448261"><ele>275.2857142857143</ele><time>2026-05-02T13:39:28.852Z</time></trkpt><trkpt lat="45.6875313" lon="9.4448718"><ele>275.14285714285717</ele><time>2026-05-02T13:39:29.851Z</time></trkpt><trkpt lat="45.6874625" lon="9.4449163"><ele>275.0</ele><time>2026-05-02T13:39:30.851Z</time></trkpt><trkpt lat="45.6873831" lon="9.4449781"><ele>275.0</ele><time>2026-05-02T13:39:31.851Z</time></trkpt><trkpt lat="45.6873097" lon="9.4450289"><ele>275.0</ele><time>2026-05-02T13:39:32.851Z</time></trkpt><trkpt lat="45.6872503" lon="9.445069"><ele>275.0</ele><time>2026-05-02T13:39:33.851Z</time></trkpt><trkpt lat="45.6871853" lon="9.4451148"><ele>275.0</ele><time>2026-05-02T13:39:34.851Z</time></trkpt><trkpt lat="45.6871168" lon="9.4451355"><ele>275.0</ele><time>2026-05-02T13:39:35.852Z</time></trkpt><trkpt lat="45.687039" lon="9.4451645"><ele>275.0</ele><time>2026-05-02T13:39:36.852Z</time></trkpt><trkpt lat="45.6869672" lon="9.4451937"><ele>275.0</ele><time>2026-05-02T13:39:37.852Z</time></trkpt><trkpt lat="45.6869023" lon="9.4451988"><ele>274.83333333333337</ele><time>2026-05-02T13:39:38.852Z</time></trkpt><trkpt lat="45.6868266" lon="9.4452342"><ele>274.6666666666667</ele><time>2026-05-02T13:39:39.851Z</time></trkpt><trkpt lat="45.686759" lon="9.4452485"><ele>274.5</ele><time>2026-05-02T13:39:40.852Z</time></trkpt><trkpt lat="45.6866949" lon="9.4452547"><ele>274.3333333333333</ele><time>2026-05-02T13:39:41.852Z</time></trkpt><trkpt lat="45.6866131" lon="9.4452715"><ele>274.16666666666663</ele><time>2026-05-02T13:39:42.852Z</time></trkpt><trkpt lat="45.6865284" lon="9.4452589"><ele>274.0</ele><time>2026-05-02T13:39:43.851Z</time></trkpt><trkpt lat="45.6864463" lon="9.4452555"><ele>274.0</ele><time>2026-05-02T13:39:44.851Z</time></trkpt><trkpt lat="45.6863315" lon="9.4452337"><ele>274.0</ele><time>2026-05-02T13:39:46.851Z</time></trkpt><trkpt lat="45.6862538" lon="9.4452337"><ele>274.0</ele><time>2026-05-02T13:39:47.851Z</time></trkpt><trkpt lat="45.6861845" lon="9.4452352"><ele>274.0</ele><time>2026-05-02T13:39:48.851Z</time></trkpt><trkpt lat="45.6861169" lon="9.4452236"><ele>274.0</ele><time>2026-05-02T13:39:49.851Z</time></trkpt><trkpt lat="45.6860326" lon="9.4452067"><ele>274.0</ele><time>2026-05-02T13:39:50.851Z</time></trkpt><trkpt lat="45.6859658" lon="9.4451928"><ele>273.7142857142857</ele><time>2026-05-02T13:39:51.851Z</time></trkpt><trkpt lat="45.685897" lon="9.4451788"><ele>273.42857142857144</ele><time>2026-05-02T13:39:52.852Z</time></trkpt><trkpt lat="45.6858327" lon="9.4451612"><ele>273.1428571428571</ele><time>2026-05-02T13:39:53.852Z</time></trkpt><trkpt lat="45.6857535" lon="9.4451403"><ele>272.8571428571429</ele><time>2026-05-02T13:39:54.852Z</time></trkpt><trkpt lat="45.6856818" lon="9.4451172"><ele>272.57142857142856</ele><time>2026-05-02T13:39:55.852Z</time></trkpt><trkpt lat="45.6856029" lon="9.4451064"><ele>272.2857142857143</ele><time>2026-05-02T13:39:56.852Z</time></trkpt><trkpt lat="45.6855333" lon="9.4450956"><ele>272.0</ele><time>2026-05-02T13:39:57.852Z</time></trkpt><trkpt lat="45.6854587" lon="9.4450681"><ele>272.0</ele><time>2026-05-02T13:39:58.852Z</time></trkpt><trkpt lat="45.6853971" lon="9.4450491"><ele>272.0</ele><time>2026-05-02T13:39:59.852Z</time></trkpt><trkpt lat="45.6853304" lon="9.4450193"><ele>272.0</ele><time>2026-05-02T13:40:00.851Z</time></trkpt><trkpt lat="45.6852119" lon="9.4449837"><ele>272.0</ele><time>2026-05-02T13:40:02.851Z</time></trkpt><trkpt lat="45.6851382" lon="9.4449665"><ele>272.0</ele><time>2026-05-02T13:40:03.852Z</time></trkpt><trkpt lat="45.6850728" lon="9.4449431"><ele>272.0</ele><time>2026-05-02T13:40:04.852Z</time></trkpt><trkpt lat="45.6850095" lon="9.4449165"><ele>272.2</ele><time>2026-05-02T13:40:05.851Z</time></trkpt><trkpt lat="45.684883" lon="9.4448771"><ele>272.4</ele><time>2026-05-02T13:40:07.852Z</time></trkpt><trkpt lat="45.684782" lon="9.4448079"><ele>272.6</ele><time>2026-05-02T13:40:09.851Z</time></trkpt><trkpt lat="45.6847533" lon="9.4446963"><ele>272.8</ele><time>2026-05-02T13:40:11.851Z</time></trkpt><trkpt lat="45.6847766" lon="9.4445926"><ele>273.0</ele><time>2026-05-02T13:40:13.851Z</time></trkpt><trkpt lat="45.6848183" lon="9.4445085"><ele>273.5</ele><time>2026-05-02T13:40:15.852Z</time></trkpt><trkpt lat="45.6848643" lon="9.4443896"><ele>274.0</ele><time>2026-05-02T13:40:18.852Z</time></trkpt><trkpt lat="45.6849068" lon="9.4443034"><ele>274.5</ele><time>2026-05-02T13:40:20.851Z</time></trkpt><trkpt lat="45.6849474" lon="9.4442098"><ele>275.0</ele><time>2026-05-02T13:40:22.851Z</time></trkpt><trkpt lat="45.6849936" lon="9.4441031"><ele>275.5</ele><time>2026-05-02T13:40:24.852Z</time></trkpt><trkpt lat="45.6850351" lon="9.4440208"><ele>276.0</ele><time>2026-05-02T13:40:26.852Z</time></trkpt><trkpt lat="45.6850866" lon="9.4439054"><ele>276.0</ele><time>2026-05-02T13:40:29.852Z</time></trkpt><trkpt lat="45.6851316" lon="9.4438275"><ele>276.0</ele><time>2026-05-02T13:40:31.852Z</time></trkpt><trkpt lat="45.685194" lon="9.4437287"><ele>276.0</ele><time>2026-05-02T13:40:34.851Z</time></trkpt><trkpt lat="45.6852656" lon="9.4436639"><ele>276.0</ele><time>2026-05-02T13:40:37.851Z</time></trkpt><trkpt lat="45.6853087" lon="9.4435722"><ele>276.0</ele><time>2026-05-02T13:40:39.852Z</time></trkpt><trkpt lat="45.6853557" lon="9.4434597"><ele>276.0</ele><time>2026-05-02T13:40:41.851Z</time></trkpt><trkpt lat="45.6853982" lon="9.4433668"><ele>277.0</ele><time>2026-05-02T13:40:43.852Z</time></trkpt><trkpt lat="45.6854375" lon="9.4432744"><ele>278.0</ele><time>2026-05-02T13:40:45.852Z</time></trkpt><trkpt lat="45.6854706" lon="9.4431681"><ele>279.0</ele><time>2026-05-02T13:40:47.852Z</time></trkpt><trkpt lat="45.6855031" lon="9.4430642"><ele>280.0</ele><time>2026-05-02T13:40:49.852Z</time></trkpt><trkpt lat="45.6855452" lon="9.4429618"><ele>281.0</ele><time>2026-05-02T13:40:51.852Z</time></trkpt><trkpt lat="45.6855785" lon="9.4428388"><ele>282.0</ele><time>2026-05-02T13:40:53.851Z</time></trkpt><trkpt lat="45.6856045" lon="9.4427157"><ele>282.0</ele><time>2026-05-02T13:40:55.852Z</time></trkpt><trkpt lat="45.6856245" lon="9.4425935"><ele>282.0</ele><time>2026-05-02T13:40:57.851Z</time></trkpt><trkpt lat="45.6856516" lon="9.4424639"><ele>282.0</ele><time>2026-05-02T13:40:59.851Z</time></trkpt><trkpt lat="45.6856738" lon="9.4423352"><ele>282.0</ele><time>2026-05-02T13:41:01.852Z</time></trkpt><trkpt lat="45.6856991" lon="9.4421872"><ele>282.0</ele><time>2026-05-02T13:41:03.851Z</time></trkpt><trkpt lat="45.6857216" lon="9.4420402"><ele>282.2</ele><time>2026-05-02T13:41:05.852Z</time></trkpt><trkpt lat="45.6857358" lon="9.441903"><ele>282.4</ele><time>2026-05-02T13:41:07.852Z</time></trkpt><trkpt lat="45.6857951" lon="9.4417795"><ele>282.6</ele><time>2026-05-02T13:41:09.851Z</time></trkpt><trkpt lat="45.6858659" lon="9.4418366"><ele>282.8</ele><time>2026-05-02T13:41:14.851Z</time></trkpt><trkpt lat="45.6859425" lon="9.4418617"><ele>283.0</ele><time>2026-05-02T13:41:15.851Z</time></trkpt><trkpt lat="45.686163" lon="9.4418341"><ele>281.5</ele><time>2026-05-02T13:41:16.852Z</time></trkpt><trkpt lat="45.6862371" lon="9.4418503"><ele>280.0</ele><time>2026-05-02T13:41:17.851Z</time></trkpt><trkpt lat="45.6863071" lon="9.4418695"><ele>278.5</ele><time>2026-05-02T13:41:18.852Z</time></trkpt><trkpt lat="45.6863776" lon="9.4418576"><ele>277.0</ele><time>2026-05-02T13:41:19.851Z</time></trkpt><trkpt lat="45.6864392" lon="9.4418386"><ele>275.5</ele><time>2026-05-02T13:41:20.851Z</time></trkpt><trkpt lat="45.6864924" lon="9.4417818"><ele>274.0</ele><time>2026-05-02T13:41:21.852Z</time></trkpt><trkpt lat="45.6865697" lon="9.4416674"><ele>274.0</ele><time>2026-05-02T13:41:23.851Z</time></trkpt><trkpt lat="45.6865995" lon="9.4415782"><ele>274.0</ele><time>2026-05-02T13:41:24.851Z</time></trkpt><trkpt lat="45.6866119" lon="9.4414511"><ele>274.0</ele><time>2026-05-02T13:41:25.852Z</time></trkpt><trkpt lat="45.68664" lon="9.4413511"><ele>274.0</ele><time>2026-05-02T13:41:26.852Z</time></trkpt><trkpt lat="45.6866736" lon="9.4412408"><ele>274.0</ele><time>2026-05-02T13:41:27.852Z</time></trkpt><trkpt lat="45.6867167" lon="9.4411136"><ele>274.0</ele><time>2026-05-02T13:41:28.851Z</time></trkpt><trkpt lat="45.6867513" lon="9.4409974"><ele>273.0</ele><time>2026-05-02T13:41:29.851Z</time></trkpt><trkpt lat="45.686775" lon="9.4408811"><ele>272.0</ele><time>2026-05-02T13:41:30.852Z</time></trkpt><trkpt lat="45.6868084" lon="9.440755"><ele>271.0</ele><time>2026-05-02T13:41:31.851Z</time></trkpt><trkpt lat="45.6868375" lon="9.4406412"><ele>270.0</ele><time>2026-05-02T13:41:32.851Z</time></trkpt><trkpt lat="45.6868642" lon="9.4405157"><ele>269.0</ele><time>2026-05-02T13:41:33.851Z</time></trkpt><trkpt lat="45.6868884" lon="9.4404074"><ele>268.0</ele><time>2026-05-02T13:41:34.852Z</time></trkpt><trkpt lat="45.6869124" lon="9.4402812"><ele>267.8333333333333</ele><time>2026-05-02T13:41:35.852Z</time></trkpt><trkpt lat="45.6869435" lon="9.4401644"><ele>267.66666666666663</ele><time>2026-05-02T13:41:36.852Z</time></trkpt><trkpt lat="45.6869559" lon="9.4400511"><ele>267.5</ele><time>2026-05-02T13:41:37.852Z</time></trkpt><trkpt lat="45.6869942" lon="9.4399314"><ele>267.3333333333333</ele><time>2026-05-02T13:41:38.852Z</time></trkpt><trkpt lat="45.6870172" lon="9.4398185"><ele>267.1666666666667</ele><time>2026-05-02T13:41:39.852Z</time></trkpt><trkpt lat="45.6870459" lon="9.4397143"><ele>267.0</ele><time>2026-05-02T13:41:40.852Z</time></trkpt><trkpt lat="45.6870774" lon="9.4396063"><ele>266.8333333333333</ele><time>2026-05-02T13:41:41.851Z</time></trkpt><trkpt lat="45.6871004" lon="9.4395038"><ele>266.6666666666667</ele><time>2026-05-02T13:41:42.852Z</time></trkpt><trkpt lat="45.6871131" lon="9.439414"><ele>266.5</ele><time>2026-05-02T13:41:43.852Z</time></trkpt><trkpt lat="45.6871424" lon="9.4392986"><ele>266.33333333333337</ele><time>2026-05-02T13:41:45.851Z</time></trkpt><trkpt lat="45.6871373" lon="9.439181"><ele>266.1666666666667</ele><time>2026-05-02T13:41:50.851Z</time></trkpt><trkpt lat="45.6870772" lon="9.4391225"><ele>266.0</ele><time>2026-05-02T13:41:52.852Z</time></trkpt><trkpt lat="45.6869818" lon="9.4390624"><ele>265.8</ele><time>2026-05-02T13:41:54.851Z</time></trkpt><trkpt lat="45.6868749" lon="9.4390108"><ele>265.6</ele><time>2026-05-02T13:41:56.852Z</time></trkpt><trkpt lat="45.6867653" lon="9.4389569"><ele>265.4</ele><time>2026-05-02T13:41:58.851Z</time></trkpt><trkpt lat="45.6866575" lon="9.4389181"><ele>265.2</ele><time>2026-05-02T13:42:00.852Z</time></trkpt><trkpt lat="45.6865898" lon="9.4388788"><ele>265.0</ele><time>2026-05-02T13:42:01.852Z</time></trkpt><trkpt lat="45.6865245" lon="9.4388218"><ele>265.0</ele><time>2026-05-02T13:42:02.851Z</time></trkpt><trkpt lat="45.6864112" lon="9.4387671"><ele>265.0</ele><time>2026-05-02T13:42:04.852Z</time></trkpt><trkpt lat="45.6863527" lon="9.438733"><ele>265.0</ele><time>2026-05-02T13:42:05.851Z</time></trkpt><trkpt lat="45.6862322" lon="9.4386774"><ele>265.0</ele><time>2026-05-02T13:42:07.852Z</time></trkpt><trkpt lat="45.6861627" lon="9.4386493"><ele>265.0</ele><time>2026-05-02T13:42:08.852Z</time></trkpt><trkpt lat="45.6860952" lon="9.4386241"><ele>265.16666666666663</ele><time>2026-05-02T13:42:09.852Z</time></trkpt><trkpt lat="45.686037" lon="9.4385874"><ele>265.3333333333333</ele><time>2026-05-02T13:42:10.852Z</time></trkpt><trkpt lat="45.6859131" lon="9.4385268"><ele>265.5</ele><time>2026-05-02T13:42:12.852Z</time></trkpt><trkpt lat="45.6858525" lon="9.4384795"><ele>265.6666666666667</ele><time>2026-05-02T13:42:13.852Z</time></trkpt><trkpt lat="45.6857848" lon="9.4384121"><ele>265.83333333333337</ele><time>2026-05-02T13:42:15.851Z</time></trkpt><trkpt lat="45.6856953" lon="9.4384056"><ele>266.0</ele><time>2026-05-02T13:43:13.852Z</time></trkpt><trkpt lat="45.6856206" lon="9.4385351"><ele>266.0</ele><time>2026-05-02T13:43:15.852Z</time></trkpt><trkpt lat="45.6855799" lon="9.4386153"><ele>266.0</ele><time>2026-05-02T13:43:16.851Z</time></trkpt><trkpt lat="45.6855186" lon="9.4387724"><ele>266.0</ele><time>2026-05-02T13:43:18.852Z</time></trkpt><trkpt lat="45.6854817" lon="9.4388605"><ele>266.0</ele><time>2026-05-02T13:43:19.852Z</time></trkpt><trkpt lat="45.6854316" lon="9.4390172"><ele>266.0</ele><time>2026-05-02T13:43:21.852Z</time></trkpt><trkpt lat="45.6854058" lon="9.4391006"><ele>265.83333333333337</ele><time>2026-05-02T13:43:22.851Z</time></trkpt><trkpt lat="45.6853778" lon="9.4391835"><ele>265.6666666666667</ele><time>2026-05-02T13:43:23.851Z</time></trkpt><trkpt lat="45.6853578" lon="9.4392728"><ele>265.5</ele><time>2026-05-02T13:43:24.852Z</time></trkpt><trkpt lat="45.6853128" lon="9.4394164"><ele>265.3333333333333</ele><time>2026-05-02T13:43:26.852Z</time></trkpt><trkpt lat="45.6852552" lon="9.439566"><ele>265.16666666666663</ele><time>2026-05-02T13:43:28.851Z</time></trkpt><trkpt lat="45.685219" lon="9.4396527"><ele>265.0</ele><time>2026-05-02T13:43:29.851Z</time></trkpt><trkpt lat="45.6851738" lon="9.4397935"><ele>265.5</ele><time>2026-05-02T13:43:31.852Z</time></trkpt><trkpt lat="45.6851187" lon="9.439956"><ele>266.0</ele><time>2026-05-02T13:43:33.851Z</time></trkpt><trkpt lat="45.685046" lon="9.4401186"><ele>266.5</ele><time>2026-05-02T13:43:35.851Z</time></trkpt><trkpt lat="45.6849714" lon="9.4402612"><ele>267.0</ele><time>2026-05-02T13:43:37.852Z</time></trkpt><trkpt lat="45.684926" lon="9.4403436"><ele>267.0</ele><time>2026-05-02T13:43:38.851Z</time></trkpt><trkpt lat="45.6848841" lon="9.4404234"><ele>267.0</ele><time>2026-05-02T13:43:39.852Z</time></trkpt><trkpt lat="45.6848443" lon="9.4404998"><ele>267.0</ele><time>2026-05-02T13:43:40.851Z</time></trkpt><trkpt lat="45.6847752" lon="9.4406156"><ele>267.0</ele><time>2026-05-02T13:43:42.851Z</time></trkpt><trkpt lat="45.6846942" lon="9.4407244"><ele>267.0</ele><time>2026-05-02T13:43:44.852Z</time></trkpt><trkpt lat="45.684596" lon="9.4408153"><ele>266.8</ele><time>2026-05-02T13:43:46.851Z</time></trkpt><trkpt lat="45.6844957" lon="9.4408992"><ele>266.6</ele><time>2026-05-02T13:43:48.852Z</time></trkpt><trkpt lat="45.6844482" lon="9.4409662"><ele>266.40000000000003</ele><time>2026-05-02T13:43:49.851Z</time></trkpt><trkpt lat="45.6844018" lon="9.4411193"><ele>266.2</ele><time>2026-05-02T13:43:51.851Z</time></trkpt><trkpt lat="45.6843589" lon="9.4412855"><ele>266.0</ele><time>2026-05-02T13:43:53.851Z</time></trkpt><trkpt lat="45.6843312" lon="9.4413786"><ele>266.6666666666667</ele><time>2026-05-02T13:43:54.852Z</time></trkpt><trkpt lat="45.6843025" lon="9.4414677"><ele>267.33333333333337</ele><time>2026-05-02T13:43:55.852Z</time></trkpt><trkpt lat="45.6842542" lon="9.441626"><ele>268.0</ele><time>2026-05-02T13:43:57.851Z</time></trkpt><trkpt lat="45.6842272" lon="9.4417152"><ele>268.6666666666667</ele><time>2026-05-02T13:43:58.852Z</time></trkpt><trkpt lat="45.6841623" lon="9.4418545"><ele>269.3333333333333</ele><time>2026-05-02T13:44:00.851Z</time></trkpt><trkpt lat="45.6841305" lon="9.4419416"><ele>270.0</ele><time>2026-05-02T13:44:01.851Z</time></trkpt><trkpt lat="45.6840962" lon="9.44204"><ele>270.0</ele><time>2026-05-02T13:44:02.852Z</time></trkpt><trkpt lat="45.6840577" lon="9.4421281"><ele>270.0</ele><time>2026-05-02T13:44:03.851Z</time></trkpt><trkpt lat="45.6840148" lon="9.4422519"><ele>270.0</ele><time>2026-05-02T13:44:05.852Z</time></trkpt><trkpt lat="45.6840026" lon="9.4423495"><ele>270.0</ele><time>2026-05-02T13:44:06.852Z</time></trkpt><trkpt lat="45.683937" lon="9.4424887"><ele>270.0</ele><time>2026-05-02T13:44:08.852Z</time></trkpt><trkpt lat="45.6838943" lon="9.4425643"><ele>270.0</ele><time>2026-05-02T13:44:09.851Z</time></trkpt><trkpt lat="45.6838356" lon="9.4426852"><ele>270.75</ele><time>2026-05-02T13:44:11.852Z</time></trkpt><trkpt lat="45.6837696" lon="9.4428138"><ele>271.5</ele><time>2026-05-02T13:44:13.851Z</time></trkpt><trkpt lat="45.6836998" lon="9.4429519"><ele>272.25</ele><time>2026-05-02T13:44:15.852Z</time></trkpt><trkpt lat="45.6836754" lon="9.4431099"><ele>273.0</ele><time>2026-05-02T13:44:17.851Z</time></trkpt><trkpt lat="45.6835876" lon="9.4432618"><ele>273.0</ele><time>2026-05-02T13:44:19.851Z</time></trkpt><trkpt lat="45.6835288" lon="9.4434035"><ele>273.0</ele><time>2026-05-02T13:44:21.852Z</time></trkpt><trkpt lat="45.6834617" lon="9.4435507"><ele>273.0</ele><time>2026-05-02T13:44:23.851Z</time></trkpt><trkpt lat="45.6834226" lon="9.4436263"><ele>273.0</ele><time>2026-05-02T13:44:24.852Z</time></trkpt><trkpt lat="45.6833755" lon="9.4436937"><ele>273.0</ele><time>2026-05-02T13:44:25.851Z</time></trkpt><trkpt lat="45.6833258" lon="9.4437661"><ele>273.0</ele><time>2026-05-02T13:44:26.852Z</time></trkpt><trkpt lat="45.6832629" lon="9.4438957"><ele>273.2</ele><time>2026-05-02T13:44:28.851Z</time></trkpt><trkpt lat="45.6832265" lon="9.4439973"><ele>273.4</ele><time>2026-05-02T13:44:30.852Z</time></trkpt><trkpt lat="45.683185" lon="9.4440884"><ele>273.59999999999997</ele><time>2026-05-02T13:44:33.852Z</time></trkpt><trkpt lat="45.6831242" lon="9.4443754"><ele>273.8</ele><time>2026-05-02T13:44:43.852Z</time></trkpt><trkpt lat="45.6830759" lon="9.4444581"><ele>274.0</ele><time>2026-05-02T13:44:44.852Z</time></trkpt><trkpt lat="45.6829896" lon="9.4445304"><ele>274.0</ele><time>2026-05-02T13:44:46.852Z</time></trkpt><trkpt lat="45.6829175" lon="9.4445619"><ele>274.0</ele><time>2026-05-02T13:44:47.852Z</time></trkpt><trkpt lat="45.6828548" lon="9.4445894"><ele>274.0</ele><time>2026-05-02T13:44:48.851Z</time></trkpt><trkpt lat="45.6827459" lon="9.4445982"><ele>274.0</ele><time>2026-05-02T13:44:50.852Z</time></trkpt><trkpt lat="45.6826427" lon="9.444599"><ele>274.0</ele><time>2026-05-02T13:44:52.852Z</time></trkpt><trkpt lat="45.6825758" lon="9.444537"><ele>274.0</ele><time>2026-05-02T13:44:53.851Z</time></trkpt><trkpt lat="45.6824713" lon="9.4445617"><ele>273.59999999999997</ele><time>2026-05-02T13:44:55.851Z</time></trkpt><trkpt lat="45.6823972" lon="9.4446079"><ele>273.2</ele><time>2026-05-02T13:44:56.852Z</time></trkpt><trkpt lat="45.6823216" lon="9.444619"><ele>272.79999999999995</ele><time>2026-05-02T13:44:57.851Z</time></trkpt><trkpt lat="45.6822369" lon="9.4446171"><ele>272.4</ele><time>2026-05-02T13:44:58.851Z</time></trkpt><trkpt lat="45.682122" lon="9.4446297"><ele>272.0</ele><time>2026-05-02T13:44:59.851Z</time></trkpt><trkpt lat="45.6819489" lon="9.4446627"><ele>272.0</ele><time>2026-05-02T13:45:02.852Z</time></trkpt><trkpt lat="45.6818777" lon="9.4447418"><ele>272.0</ele><time>2026-05-02T13:45:03.851Z</time></trkpt><trkpt lat="45.6817593" lon="9.4447463"><ele>272.0</ele><time>2026-05-02T13:45:05.852Z</time></trkpt><trkpt lat="45.6816312" lon="9.4447451"><ele>272.0</ele><time>2026-05-02T13:45:08.852Z</time></trkpt><trkpt lat="45.6815371" lon="9.4447264"><ele>272.0</ele><time>2026-05-02T13:45:10.852Z</time></trkpt><trkpt lat="45.6814601" lon="9.4446735"><ele>272.0</ele><time>2026-05-02T13:45:12.851Z</time></trkpt><trkpt lat="45.6813879" lon="9.4446496"><ele>272.0</ele><time>2026-05-02T13:45:14.852Z</time></trkpt><trkpt lat="45.6812561" lon="9.4445992"><ele>272.0</ele><time>2026-05-02T13:45:16.852Z</time></trkpt><trkpt lat="45.6811345" lon="9.4446084"><ele>272.0</ele><time>2026-05-02T13:45:18.852Z</time></trkpt><trkpt lat="45.6810192" lon="9.4446089"><ele>272.0</ele><time>2026-05-02T13:45:20.852Z</time></trkpt><trkpt lat="45.680942" lon="9.4445121"><ele>272.2</ele><time>2026-05-02T13:45:21.851Z</time></trkpt><trkpt lat="45.6808477" lon="9.4445103"><ele>272.4</ele><time>2026-05-02T13:45:22.852Z</time></trkpt><trkpt lat="45.6807127" lon="9.4444982"><ele>272.6</ele><time>2026-05-02T13:45:23.851Z</time></trkpt><trkpt lat="45.6806315" lon="9.4445154"><ele>272.8</ele><time>2026-05-02T13:45:24.851Z</time></trkpt><trkpt lat="45.6805635" lon="9.4444987"><ele>273.0</ele><time>2026-05-02T13:45:25.852Z</time></trkpt><trkpt lat="45.680484" lon="9.4444755"><ele>273.0</ele><time>2026-05-02T13:45:26.852Z</time></trkpt><trkpt lat="45.6804105" lon="9.4444423"><ele>273.0</ele><time>2026-05-02T13:45:27.851Z</time></trkpt><trkpt lat="45.6803391" lon="9.4444354"><ele>273.0</ele><time>2026-05-02T13:45:28.852Z</time></trkpt><trkpt lat="45.6802578" lon="9.4443829"><ele>273.0</ele><time>2026-05-02T13:45:29.852Z</time></trkpt><trkpt lat="45.6801824" lon="9.4444498"><ele>273.0</ele><time>2026-05-02T13:45:31.852Z</time></trkpt><trkpt lat="45.6800971" lon="9.444455"><ele>273.0</ele><time>2026-05-02T13:45:32.852Z</time></trkpt><trkpt lat="45.6800353" lon="9.4443916"><ele>272.4</ele><time>2026-05-02T13:45:33.851Z</time></trkpt><trkpt lat="45.6799043" lon="9.4444319"><ele>271.8</ele><time>2026-05-02T13:45:35.851Z</time></trkpt><trkpt lat="45.6798272" lon="9.4443761"><ele>271.2</ele><time>2026-05-02T13:45:36.852Z</time></trkpt><trkpt lat="45.6797483" lon="9.4443499"><ele>270.6</ele><time>2026-05-02T13:45:37.852Z</time></trkpt><trkpt lat="45.6796762" lon="9.4443336"><ele>270.0</ele><time>2026-05-02T13:45:38.852Z</time></trkpt><trkpt lat="45.6795501" lon="9.4443147"><ele>270.0</ele><time>2026-05-02T13:45:40.851Z</time></trkpt><trkpt lat="45.6794843" lon="9.4442846"><ele>270.0</ele><time>2026-05-02T13:45:41.852Z</time></trkpt><trkpt lat="45.6794187" lon="9.444261"><ele>270.0</ele><time>2026-05-02T13:45:42.852Z</time></trkpt><trkpt lat="45.6793483" lon="9.4442512"><ele>270.0</ele><time>2026-05-02T13:45:43.852Z</time></trkpt><trkpt lat="45.6792721" lon="9.4442367"><ele>270.0</ele><time>2026-05-02T13:45:44.851Z</time></trkpt><trkpt lat="45.6791732" lon="9.4442173"><ele>270.0</ele><time>2026-05-02T13:45:45.852Z</time></trkpt><trkpt lat="45.6791039" lon="9.4441964"><ele>269.5</ele><time>2026-05-02T13:45:46.851Z</time></trkpt><trkpt lat="45.6790283" lon="9.4441876"><ele>269.0</ele><time>2026-05-02T13:45:47.852Z</time></trkpt><trkpt lat="45.6789511" lon="9.4441671"><ele>268.5</ele><time>2026-05-02T13:45:48.852Z</time></trkpt><trkpt lat="45.6788672" lon="9.4441587"><ele>268.0</ele><time>2026-05-02T13:45:49.852Z</time></trkpt><trkpt lat="45.6787883" lon="9.4441561"><ele>267.5</ele><time>2026-05-02T13:45:50.851Z</time></trkpt><trkpt lat="45.6787064" lon="9.4441419"><ele>267.0</ele><time>2026-05-02T13:45:51.851Z</time></trkpt><trkpt lat="45.6785748" lon="9.444105"><ele>267.0</ele><time>2026-05-02T13:45:53.852Z</time></trkpt><trkpt lat="45.6784982" lon="9.4440714"><ele>267.0</ele><time>2026-05-02T13:45:54.851Z</time></trkpt><trkpt lat="45.6784284" lon="9.4440444"><ele>267.0</ele><time>2026-05-02T13:45:55.85Z</time></trkpt><trkpt lat="45.678356" lon="9.4440372"><ele>267.0</ele><time>2026-05-02T13:45:56.851Z</time></trkpt><trkpt lat="45.678284" lon="9.444033"><ele>267.0</ele><time>2026-05-02T13:45:57.851Z</time></trkpt><trkpt lat="45.6782076" lon="9.4440328"><ele>267.0</ele><time>2026-05-02T13:45:58.852Z</time></trkpt><trkpt lat="45.6780995" lon="9.4440552"><ele>267.0</ele><time>2026-05-02T13:46:00.851Z</time></trkpt><trkpt lat="45.6780275" lon="9.4440489"><ele>267.0</ele><time>2026-05-02T13:46:01.851Z</time></trkpt><trkpt lat="45.677926" lon="9.4440263"><ele>267.0</ele><time>2026-05-02T13:46:02.852Z</time></trkpt><trkpt lat="45.6778445" lon="9.4440077"><ele>267.0</ele><time>2026-05-02T13:46:03.852Z</time></trkpt><trkpt lat="45.6777804" lon="9.4440094"><ele>267.0</ele><time>2026-05-02T13:46:04.852Z</time></trkpt><trkpt lat="45.6777025" lon="9.4439952"><ele>267.0</ele><time>2026-05-02T13:46:05.852Z</time></trkpt><trkpt lat="45.6776266" lon="9.4439796"><ele>266.8</ele><time>2026-05-02T13:46:06.852Z</time></trkpt><trkpt lat="45.6775528" lon="9.4439639"><ele>266.6</ele><time>2026-05-02T13:46:07.851Z</time></trkpt><trkpt lat="45.6774693" lon="9.4439494"><ele>266.40000000000003</ele><time>2026-05-02T13:46:08.851Z</time></trkpt><trkpt lat="45.677388" lon="9.4439152"><ele>266.2</ele><time>2026-05-02T13:46:09.851Z</time></trkpt><trkpt lat="45.6773169" lon="9.4439033"><ele>266.0</ele><time>2026-05-02T13:46:10.852Z</time></trkpt><trkpt lat="45.6771854" lon="9.4438624"><ele>266.0</ele><time>2026-05-02T13:46:12.852Z</time></trkpt><trkpt lat="45.6771165" lon="9.4438479"><ele>266.0</ele><time>2026-05-02T13:46:13.852Z</time></trkpt><trkpt lat="45.6770477" lon="9.4438654"><ele>266.0</ele><time>2026-05-02T13:46:14.852Z</time></trkpt><trkpt lat="45.6769083" lon="9.4438231"><ele>266.0</ele><time>2026-05-02T13:46:16.852Z</time></trkpt><trkpt lat="45.6767352" lon="9.4437763"><ele>265.85714285714283</ele><time>2026-05-02T13:46:18.852Z</time></trkpt><trkpt lat="45.6766593" lon="9.4437328"><ele>265.7142857142857</ele><time>2026-05-02T13:46:19.851Z</time></trkpt><trkpt lat="45.6765895" lon="9.4437076"><ele>265.57142857142856</ele><time>2026-05-02T13:46:20.851Z</time></trkpt><trkpt lat="45.6765247" lon="9.4436638"><ele>265.42857142857144</ele><time>2026-05-02T13:46:21.851Z</time></trkpt><trkpt lat="45.6764483" lon="9.4436488"><ele>265.2857142857143</ele><time>2026-05-02T13:46:22.851Z</time></trkpt><trkpt lat="45.6763734" lon="9.4436116"><ele>265.1428571428571</ele><time>2026-05-02T13:46:23.851Z</time></trkpt><trkpt lat="45.6763121" lon="9.443578"><ele>265.0</ele><time>2026-05-02T13:46:24.852Z</time></trkpt><trkpt lat="45.6762262" lon="9.4435663"><ele>265.0</ele><time>2026-05-02T13:46:25.852Z</time></trkpt><trkpt lat="45.6761321" lon="9.4435324"><ele>265.0</ele><time>2026-05-02T13:46:26.852Z</time></trkpt><trkpt lat="45.6760582" lon="9.4435169"><ele>265.0</ele><time>2026-05-02T13:46:27.852Z</time></trkpt><trkpt lat="45.6759932" lon="9.4434855"><ele>265.0</ele><time>2026-05-02T13:46:28.851Z</time></trkpt><trkpt lat="45.6759231" lon="9.4434568"><ele>265.0</ele><time>2026-05-02T13:46:29.851Z</time></trkpt><trkpt lat="45.6758533" lon="9.4434289"><ele>265.0</ele><time>2026-05-02T13:46:30.852Z</time></trkpt><trkpt lat="45.6757191" lon="9.4433775"><ele>264.85714285714283</ele><time>2026-05-02T13:46:32.851Z</time></trkpt><trkpt lat="45.6756536" lon="9.44336"><ele>264.7142857142857</ele><time>2026-05-02T13:46:33.851Z</time></trkpt><trkpt lat="45.6755819" lon="9.4433064"><ele>264.57142857142856</ele><time>2026-05-02T13:46:34.851Z</time></trkpt><trkpt lat="45.675516" lon="9.4433145"><ele>264.42857142857144</ele><time>2026-05-02T13:46:35.851Z</time></trkpt><trkpt lat="45.6754474" lon="9.4432859"><ele>264.2857142857143</ele><time>2026-05-02T13:46:36.851Z</time></trkpt><trkpt lat="45.6753722" lon="9.4432693"><ele>264.1428571428571</ele><time>2026-05-02T13:46:37.851Z</time></trkpt><trkpt lat="45.6752984" lon="9.4432304"><ele>264.0</ele><time>2026-05-02T13:46:38.851Z</time></trkpt><trkpt lat="45.6752268" lon="9.443205"><ele>263.7142857142857</ele><time>2026-05-02T13:46:39.851Z</time></trkpt><trkpt lat="45.6751548" lon="9.4431877"><ele>263.42857142857144</ele><time>2026-05-02T13:46:40.852Z</time></trkpt><trkpt lat="45.6750861" lon="9.4431576"><ele>263.14285714285717</ele><time>2026-05-02T13:46:41.852Z</time></trkpt><trkpt lat="45.6750189" lon="9.4431412"><ele>262.8571428571429</ele><time>2026-05-02T13:46:42.852Z</time></trkpt><trkpt lat="45.6749537" lon="9.443115"><ele>262.5714285714286</ele><time>2026-05-02T13:46:43.852Z</time></trkpt><trkpt lat="45.6748782" lon="9.4431003"><ele>262.2857142857143</ele><time>2026-05-02T13:46:44.851Z</time></trkpt><trkpt lat="45.6748105" lon="9.4430672"><ele>262.0</ele><time>2026-05-02T13:46:45.852Z</time></trkpt><trkpt lat="45.6747382" lon="9.4430371"><ele>262.0</ele><time>2026-05-02T13:46:46.852Z</time></trkpt><trkpt lat="45.6746642" lon="9.4429997"><ele>262.0</ele><time>2026-05-02T13:46:47.852Z</time></trkpt><trkpt lat="45.6745942" lon="9.4429686"><ele>262.0</ele><time>2026-05-02T13:46:48.852Z</time></trkpt><trkpt lat="45.6745205" lon="9.4429364"><ele>262.0</ele><time>2026-05-02T13:46:49.852Z</time></trkpt><trkpt lat="45.6744497" lon="9.442915"><ele>262.0</ele><time>2026-05-02T13:46:50.852Z</time></trkpt><trkpt lat="45.6743814" lon="9.4428984"><ele>262.0</ele><time>2026-05-02T13:46:51.851Z</time></trkpt><trkpt lat="45.6743052" lon="9.4428733"><ele>262.0</ele><time>2026-05-02T13:46:52.852Z</time></trkpt><trkpt lat="45.6742338" lon="9.4428547"><ele>261.8</ele><time>2026-05-02T13:46:53.852Z</time></trkpt><trkpt lat="45.674164" lon="9.4428405"><ele>261.6</ele><time>2026-05-02T13:46:54.852Z</time></trkpt><trkpt lat="45.6740717" lon="9.4428347"><ele>261.40000000000003</ele><time>2026-05-02T13:46:56.851Z</time></trkpt><trkpt lat="45.673996" lon="9.4427631"><ele>261.2</ele><time>2026-05-02T13:46:58.851Z</time></trkpt><trkpt lat="45.6738978" lon="9.4427083"><ele>261.0</ele><time>2026-05-02T13:47:00.852Z</time></trkpt><trkpt lat="45.6737957" lon="9.4426201"><ele>261.0</ele><time>2026-05-02T13:47:02.851Z</time></trkpt><trkpt lat="45.673697" lon="9.4425383"><ele>261.0</ele><time>2026-05-02T13:47:04.852Z</time></trkpt><trkpt lat="45.6736512" lon="9.4424683"><ele>261.0</ele><time>2026-05-02T13:47:05.852Z</time></trkpt><trkpt lat="45.6735981" lon="9.4423966"><ele>261.0</ele><time>2026-05-02T13:47:06.851Z</time></trkpt><trkpt lat="45.6735407" lon="9.4423212"><ele>261.0</ele><time>2026-05-02T13:47:07.851Z</time></trkpt><trkpt lat="45.6734943" lon="9.4422459"><ele>261.0</ele><time>2026-05-02T13:47:08.852Z</time></trkpt><trkpt lat="45.6734548" lon="9.4421712"><ele>260.8333333333333</ele><time>2026-05-02T13:47:09.851Z</time></trkpt><trkpt lat="45.6734105" lon="9.4420813"><ele>260.6666666666667</ele><time>2026-05-02T13:47:10.851Z</time></trkpt><trkpt lat="45.6733548" lon="9.441994"><ele>260.5</ele><time>2026-05-02T13:47:11.851Z</time></trkpt><trkpt lat="45.6732986" lon="9.4419022"><ele>260.33333333333337</ele><time>2026-05-02T13:47:12.851Z</time></trkpt><trkpt lat="45.6732426" lon="9.4418268"><ele>260.1666666666667</ele><time>2026-05-02T13:47:13.851Z</time></trkpt><trkpt lat="45.6731873" lon="9.4417459"><ele>260.0</ele><time>2026-05-02T13:47:14.851Z</time></trkpt><trkpt lat="45.6731231" lon="9.4416557"><ele>260.0</ele><time>2026-05-02T13:47:15.852Z</time></trkpt><trkpt lat="45.6730583" lon="9.4415656"><ele>260.0</ele><time>2026-05-02T13:47:16.851Z</time></trkpt><trkpt lat="45.6730055" lon="9.4414979"><ele>260.0</ele><time>2026-05-02T13:47:17.852Z</time></trkpt><trkpt lat="45.6729536" lon="9.4414093"><ele>260.0</ele><time>2026-05-02T13:47:18.852Z</time></trkpt><trkpt lat="45.6728633" lon="9.4412783"><ele>260.0</ele><time>2026-05-02T13:47:20.852Z</time></trkpt><trkpt lat="45.6727938" lon="9.4411181"><ele>259.4</ele><time>2026-05-02T13:47:22.851Z</time></trkpt><trkpt lat="45.6727048" lon="9.4410371"><ele>258.8</ele><time>2026-05-02T13:47:24.852Z</time></trkpt><trkpt lat="45.6726318" lon="9.4410234"><ele>258.2</ele><time>2026-05-02T13:47:25.851Z</time></trkpt><trkpt lat="45.672512" lon="9.4409028"><ele>257.6</ele><time>2026-05-02T13:47:27.852Z</time></trkpt><trkpt lat="45.6724609" lon="9.440831"><ele>257.0</ele><time>2026-05-02T13:47:28.851Z</time></trkpt><trkpt lat="45.672395" lon="9.4407639"><ele>257.0</ele><time>2026-05-02T13:47:29.851Z</time></trkpt><trkpt lat="45.6723326" lon="9.4406692"><ele>257.0</ele><time>2026-05-02T13:47:30.851Z</time></trkpt><trkpt lat="45.672266" lon="9.4405872"><ele>257.0</ele><time>2026-05-02T13:47:31.851Z</time></trkpt><trkpt lat="45.6722067" lon="9.4405248"><ele>257.0</ele><time>2026-05-02T13:47:32.851Z</time></trkpt><trkpt lat="45.6721387" lon="9.4404787"><ele>257.0</ele><time>2026-05-02T13:47:33.852Z</time></trkpt><trkpt lat="45.6720737" lon="9.4404023"><ele>257.0</ele><time>2026-05-02T13:47:34.851Z</time></trkpt><trkpt lat="45.6720163" lon="9.4403469"><ele>256.6666666666667</ele><time>2026-05-02T13:47:35.851Z</time></trkpt><trkpt lat="45.6719412" lon="9.4402974"><ele>256.33333333333337</ele><time>2026-05-02T13:47:36.851Z</time></trkpt><trkpt lat="45.6718835" lon="9.4402305"><ele>256.0</ele><time>2026-05-02T13:47:37.851Z</time></trkpt><trkpt lat="45.6718188" lon="9.4401575"><ele>255.66666666666669</ele><time>2026-05-02T13:47:38.852Z</time></trkpt><trkpt lat="45.671756" lon="9.4400976"><ele>255.33333333333334</ele><time>2026-05-02T13:47:39.851Z</time></trkpt><trkpt lat="45.671692" lon="9.4400276"><ele>255.0</ele><time>2026-05-02T13:47:40.851Z</time></trkpt><trkpt lat="45.6716238" lon="9.4399679"><ele>255.0</ele><time>2026-05-02T13:47:41.852Z</time></trkpt><trkpt lat="45.6715584" lon="9.4399141"><ele>255.0</ele><time>2026-05-02T13:47:42.851Z</time></trkpt><trkpt lat="45.6714875" lon="9.4398535"><ele>255.0</ele><time>2026-05-02T13:47:43.852Z</time></trkpt><trkpt lat="45.6714194" lon="9.4397931"><ele>255.0</ele><time>2026-05-02T13:47:44.851Z</time></trkpt><trkpt lat="45.6713543" lon="9.4397281"><ele>255.0</ele><time>2026-05-02T13:47:45.851Z</time></trkpt><trkpt lat="45.6712869" lon="9.4396653"><ele>255.0</ele><time>2026-05-02T13:47:46.851Z</time></trkpt><trkpt lat="45.671221" lon="9.4396081"><ele>254.66666666666666</ele><time>2026-05-02T13:47:47.851Z</time></trkpt><trkpt lat="45.6711612" lon="9.4395406"><ele>254.33333333333331</ele><time>2026-05-02T13:47:48.851Z</time></trkpt><trkpt lat="45.6710993" lon="9.4394757"><ele>254.0</ele><time>2026-05-02T13:47:49.851Z</time></trkpt><trkpt lat="45.6710402" lon="9.439419"><ele>253.66666666666666</ele><time>2026-05-02T13:47:50.852Z</time></trkpt><trkpt lat="45.6709658" lon="9.4393542"><ele>253.33333333333331</ele><time>2026-05-02T13:47:51.852Z</time></trkpt><trkpt lat="45.6709023" lon="9.4392936"><ele>253.0</ele><time>2026-05-02T13:47:52.852Z</time></trkpt><trkpt lat="45.6707798" lon="9.4392213"><ele>252.99999999999997</ele><time>2026-05-02T13:47:54.852Z</time></trkpt><trkpt lat="45.6707194" lon="9.4391512"><ele>253.0</ele><time>2026-05-02T13:47:55.851Z</time></trkpt><trkpt lat="45.670656" lon="9.4390888"><ele>253.0</ele><time>2026-05-02T13:47:56.852Z</time></trkpt><trkpt lat="45.670589" lon="9.4390087"><ele>253.0</ele><time>2026-05-02T13:47:57.852Z</time></trkpt><trkpt lat="45.6705199" lon="9.4389437"><ele>252.99999999999997</ele><time>2026-05-02T13:47:58.852Z</time></trkpt><trkpt lat="45.6704553" lon="9.4388932"><ele>253.0</ele><time>2026-05-02T13:47:59.852Z</time></trkpt><trkpt lat="45.6703787" lon="9.4388205"><ele>252.49999999999997</ele><time>2026-05-02T13:48:00.851Z</time></trkpt><trkpt lat="45.6702714" lon="9.4387126"><ele>252.0</ele><time>2026-05-02T13:48:02.852Z</time></trkpt><trkpt lat="45.6702117" lon="9.438645"><ele>251.5</ele><time>2026-05-02T13:48:03.852Z</time></trkpt><trkpt lat="45.6701587" lon="9.4385695"><ele>251.0</ele><time>2026-05-02T13:48:04.851Z</time></trkpt><trkpt lat="45.6701044" lon="9.4385083"><ele>250.49999999999997</ele><time>2026-05-02T13:48:05.851Z</time></trkpt><trkpt lat="45.6700487" lon="9.4384572"><ele>250.0</ele><time>2026-05-02T13:48:06.852Z</time></trkpt><trkpt lat="45.6699397" lon="9.4383429"><ele>249.99999999999997</ele><time>2026-05-02T13:48:08.851Z</time></trkpt><trkpt lat="45.6698838" lon="9.4382804"><ele>250.0</ele><time>2026-05-02T13:48:09.852Z</time></trkpt><trkpt lat="45.6698386" lon="9.4382172"><ele>250.0</ele><time>2026-05-02T13:48:10.851Z</time></trkpt><trkpt lat="45.6697877" lon="9.4380818"><ele>250.0</ele><time>2026-05-02T13:48:12.852Z</time></trkpt><trkpt lat="45.6697677" lon="9.4379903"><ele>249.99999999999997</ele><time>2026-05-02T13:48:13.852Z</time></trkpt><trkpt lat="45.6697134" lon="9.4378736"><ele>250.0</ele><time>2026-05-02T13:48:15.851Z</time></trkpt><trkpt lat="45.6696397" lon="9.4379009"><ele>249.8</ele><time>2026-05-02T13:48:17.852Z</time></trkpt><trkpt lat="45.6695686" lon="9.4379302"><ele>249.6</ele><time>2026-05-02T13:48:19.852Z</time></trkpt><trkpt lat="45.6694775" lon="9.4379196"><ele>249.39999999999998</ele><time>2026-05-02T13:48:21.852Z</time></trkpt><trkpt lat="45.6693673" lon="9.4378361"><ele>249.2</ele><time>2026-05-02T13:48:23.852Z</time></trkpt><trkpt lat="45.6692718" lon="9.4377501"><ele>249.0</ele><time>2026-05-02T13:48:25.852Z</time></trkpt><trkpt lat="45.6691605" lon="9.4376563"><ele>249.0</ele><time>2026-05-02T13:48:27.851Z</time></trkpt><trkpt lat="45.6690617" lon="9.4375571"><ele>248.99999999999997</ele><time>2026-05-02T13:48:29.852Z</time></trkpt><trkpt lat="45.6689609" lon="9.4374628"><ele>248.99999999999997</ele><time>2026-05-02T13:48:31.851Z</time></trkpt><trkpt lat="45.6688961" lon="9.4373976"><ele>249.0</ele><time>2026-05-02T13:48:32.852Z</time></trkpt><trkpt lat="45.6687901" lon="9.4372995"><ele>249.0</ele><time>2026-05-02T13:48:34.852Z</time></trkpt><trkpt lat="45.6687376" lon="9.4372479"><ele>249.0</ele><time>2026-05-02T13:48:35.851Z</time></trkpt><trkpt lat="45.668631" lon="9.4371604"><ele>248.99999999999997</ele><time>2026-05-02T13:48:37.852Z</time></trkpt><trkpt lat="45.6685155" lon="9.4370845"><ele>248.99999999999997</ele><time>2026-05-02T13:48:39.851Z</time></trkpt><trkpt lat="45.668452" lon="9.437065"><ele>249.0</ele><time>2026-05-02T13:48:40.852Z</time></trkpt><trkpt lat="45.6683819" lon="9.4370385"><ele>249.0</ele><time>2026-05-02T13:48:41.852Z</time></trkpt><trkpt lat="45.6683139" lon="9.4370022"><ele>249.16666666666666</ele><time>2026-05-02T13:48:42.852Z</time></trkpt><trkpt lat="45.6682484" lon="9.4369525"><ele>249.33333333333331</ele><time>2026-05-02T13:48:43.851Z</time></trkpt><trkpt lat="45.6681362" lon="9.4368673"><ele>249.5</ele><time>2026-05-02T13:48:45.852Z</time></trkpt><trkpt lat="45.668081" lon="9.4368143"><ele>249.66666666666666</ele><time>2026-05-02T13:48:46.851Z</time></trkpt><trkpt lat="45.6679856" lon="9.4367188"><ele>249.83333333333331</ele><time>2026-05-02T13:48:48.851Z</time></trkpt><trkpt lat="45.6679349" lon="9.4366633"><ele>250.0</ele><time>2026-05-02T13:48:49.851Z</time></trkpt><trkpt lat="45.6678785" lon="9.4366023"><ele>250.0</ele><time>2026-05-02T13:48:50.852Z</time></trkpt><trkpt lat="45.6678224" lon="9.4365463"><ele>250.0</ele><time>2026-05-02T13:48:51.852Z</time></trkpt><trkpt lat="45.6677706" lon="9.4364871"><ele>250.0</ele><time>2026-05-02T13:48:52.852Z</time></trkpt><trkpt lat="45.6677152" lon="9.4364352"><ele>250.0</ele><time>2026-05-02T13:48:53.852Z</time></trkpt><trkpt lat="45.6676594" lon="9.436384"><ele>250.0</ele><time>2026-05-02T13:48:54.851Z</time></trkpt><trkpt lat="45.6675994" lon="9.4363163"><ele>250.0</ele><time>2026-05-02T13:48:55.852Z</time></trkpt><trkpt lat="45.6675416" lon="9.4362693"><ele>250.0</ele><time>2026-05-02T13:48:56.852Z</time></trkpt><trkpt lat="45.6674861" lon="9.4362243"><ele>249.33333333333331</ele><time>2026-05-02T13:48:57.852Z</time></trkpt><trkpt lat="45.6674301" lon="9.4361758"><ele>248.66666666666666</ele><time>2026-05-02T13:48:58.851Z</time></trkpt><trkpt lat="45.6673538" lon="9.4361115"><ele>248.0</ele><time>2026-05-02T13:48:59.852Z</time></trkpt><trkpt lat="45.6672427" lon="9.4359874"><ele>247.33333333333331</ele><time>2026-05-02T13:49:01.852Z</time></trkpt><trkpt lat="45.6671915" lon="9.4359279"><ele>246.66666666666666</ele><time>2026-05-02T13:49:02.852Z</time></trkpt><trkpt lat="45.6671409" lon="9.4358732"><ele>246.0</ele><time>2026-05-02T13:49:03.851Z</time></trkpt><trkpt lat="45.6670844" lon="9.4358184"><ele>246.0</ele><time>2026-05-02T13:49:04.852Z</time></trkpt><trkpt lat="45.6670297" lon="9.4357699"><ele>246.00000000000003</ele><time>2026-05-02T13:49:05.852Z</time></trkpt><trkpt lat="45.6669802" lon="9.4357108"><ele>246.00000000000003</ele><time>2026-05-02T13:49:06.852Z</time></trkpt><trkpt lat="45.666895" lon="9.4356043"><ele>246.0</ele><time>2026-05-02T13:49:08.851Z</time></trkpt><trkpt lat="45.6668091" lon="9.4355081"><ele>246.0</ele><time>2026-05-02T13:49:10.852Z</time></trkpt><trkpt lat="45.6667335" lon="9.4353951"><ele>245.60000000000002</ele><time>2026-05-02T13:49:12.852Z</time></trkpt><trkpt lat="45.6666743" lon="9.4352683"><ele>245.20000000000002</ele><time>2026-05-02T13:49:14.852Z</time></trkpt><trkpt lat="45.6666325" lon="9.4351865"><ele>244.79999999999998</ele><time>2026-05-02T13:49:15.852Z</time></trkpt><trkpt lat="45.6665759" lon="9.4351307"><ele>244.39999999999998</ele><time>2026-05-02T13:49:16.851Z</time></trkpt><trkpt lat="45.6664762" lon="9.4350395"><ele>244.0</ele><time>2026-05-02T13:49:18.851Z</time></trkpt><trkpt lat="45.6663899" lon="9.4349534"><ele>244.0</ele><time>2026-05-02T13:49:20.852Z</time></trkpt><trkpt lat="45.6663126" lon="9.4348578"><ele>244.0</ele><time>2026-05-02T13:49:23.054Z</time></trkpt><trkpt lat="45.6662623" lon="9.4346251"><ele>244.0</ele><time>2026-05-02T13:49:25.846Z</time></trkpt><trkpt lat="45.6662997" lon="9.434476"><ele>244.0</ele><time>2026-05-02T13:49:27.845Z</time></trkpt><trkpt lat="45.6663508" lon="9.4343101"><ele>243.6</ele><time>2026-05-02T13:49:29.844Z</time></trkpt><trkpt lat="45.6663969" lon="9.4341658"><ele>243.2</ele><time>2026-05-02T13:49:31.844Z</time></trkpt><trkpt lat="45.6664595" lon="9.4340006"><ele>242.79999999999998</ele><time>2026-05-02T13:49:33.844Z</time></trkpt><trkpt lat="45.6664889" lon="9.4339192"><ele>242.39999999999998</ele><time>2026-05-02T13:49:34.844Z</time></trkpt><trkpt lat="45.6665281" lon="9.4338234"><ele>242.0</ele><time>2026-05-02T13:49:35.843Z</time></trkpt><trkpt lat="45.6665878" lon="9.4336649"><ele>242.00000000000003</ele><time>2026-05-02T13:49:37.843Z</time></trkpt><trkpt lat="45.6666213" lon="9.4335783"><ele>242.0</ele><time>2026-05-02T13:49:38.843Z</time></trkpt><trkpt lat="45.6666457" lon="9.4334838"><ele>242.0</ele><time>2026-05-02T13:49:39.844Z</time></trkpt><trkpt lat="45.6666787" lon="9.4334018"><ele>242.0</ele><time>2026-05-02T13:49:40.843Z</time></trkpt><trkpt lat="45.6667353" lon="9.4332463"><ele>242.00000000000003</ele><time>2026-05-02T13:49:42.844Z</time></trkpt><trkpt lat="45.6667694" lon="9.4331601"><ele>242.0</ele><time>2026-05-02T13:49:43.844Z</time></trkpt><trkpt lat="45.6668008" lon="9.4330682"><ele>242.2</ele><time>2026-05-02T13:49:44.844Z</time></trkpt><trkpt lat="45.666863" lon="9.4329114"><ele>242.39999999999998</ele><time>2026-05-02T13:49:46.843Z</time></trkpt><trkpt lat="45.6668869" lon="9.4328258"><ele>242.60000000000002</ele><time>2026-05-02T13:49:47.844Z</time></trkpt><trkpt lat="45.6669245" lon="9.432675"><ele>242.8</ele><time>2026-05-02T13:49:49.844Z</time></trkpt><trkpt lat="45.6669228" lon="9.4325292"><ele>243.0</ele><time>2026-05-02T13:49:51.844Z</time></trkpt><trkpt lat="45.6669209" lon="9.4323889"><ele>243.0</ele><time>2026-05-02T13:49:53.843Z</time></trkpt><trkpt lat="45.6668682" lon="9.4322648"><ele>243.0</ele><time>2026-05-02T13:49:55.844Z</time></trkpt><trkpt lat="45.6667884" lon="9.4321569"><ele>243.0</ele><time>2026-05-02T13:49:57.843Z</time></trkpt><trkpt lat="45.6666991" lon="9.4320831"><ele>243.0</ele><time>2026-05-02T13:49:59.844Z</time></trkpt><trkpt lat="45.6666023" lon="9.4319948"><ele>243.0</ele><time>2026-05-02T13:50:01.843Z</time></trkpt><trkpt lat="45.6665275" lon="9.4318807"><ele>242.8</ele><time>2026-05-02T13:50:03.843Z</time></trkpt><trkpt lat="45.6664626" lon="9.4317873"><ele>242.60000000000002</ele><time>2026-05-02T13:50:05.843Z</time></trkpt><trkpt lat="45.6664062" lon="9.4317013"><ele>242.39999999999998</ele><time>2026-05-02T13:50:06.844Z</time></trkpt><trkpt lat="45.6662908" lon="9.4315927"><ele>242.2</ele><time>2026-05-02T13:50:08.844Z</time></trkpt><trkpt lat="45.6662062" lon="9.4314389"><ele>242.0</ele><time>2026-05-02T13:50:10.844Z</time></trkpt><trkpt lat="45.666107" lon="9.4313033"><ele>242.00000000000003</ele><time>2026-05-02T13:50:12.843Z</time></trkpt><trkpt lat="45.6659722" lon="9.4312546"><ele>242.0</ele><time>2026-05-02T13:50:14.844Z</time></trkpt><trkpt lat="45.6659054" lon="9.4312207"><ele>242.0</ele><time>2026-05-02T13:50:15.844Z</time></trkpt><trkpt lat="45.6658463" lon="9.4311559"><ele>242.0</ele><time>2026-05-02T13:50:16.844Z</time></trkpt><trkpt lat="45.6657752" lon="9.4311074"><ele>242.00000000000003</ele><time>2026-05-02T13:50:17.843Z</time></trkpt><trkpt lat="45.6657163" lon="9.4310457"><ele>242.0</ele><time>2026-05-02T13:50:18.844Z</time></trkpt><trkpt lat="45.6656628" lon="9.4309967"><ele>242.00000000000003</ele><time>2026-05-02T13:50:19.844Z</time></trkpt><trkpt lat="45.6656047" lon="9.4309296"><ele>242.0</ele><time>2026-05-02T13:50:20.843Z</time></trkpt><trkpt lat="45.6655397" lon="9.43087"><ele>242.0</ele><time>2026-05-02T13:50:21.843Z</time></trkpt><trkpt lat="45.665479" lon="9.4308196"><ele>242.0</ele><time>2026-05-02T13:50:22.844Z</time></trkpt><trkpt lat="45.6654194" lon="9.4307525"><ele>242.00000000000003</ele><time>2026-05-02T13:50:23.843Z</time></trkpt><trkpt lat="45.6653604" lon="9.4306954"><ele>242.0</ele><time>2026-05-02T13:50:24.844Z</time></trkpt><trkpt lat="45.6652953" lon="9.4306272"><ele>242.00000000000003</ele><time>2026-05-02T13:50:25.843Z</time></trkpt><trkpt lat="45.6652277" lon="9.4305627"><ele>242.0</ele><time>2026-05-02T13:50:26.844Z</time></trkpt><trkpt lat="45.6651662" lon="9.4304988"><ele>242.0</ele><time>2026-05-02T13:50:27.843Z</time></trkpt><trkpt lat="45.6650532" lon="9.4303873"><ele>242.0</ele><time>2026-05-02T13:50:29.843Z</time></trkpt><trkpt lat="45.665002" lon="9.4303322"><ele>242.00000000000003</ele><time>2026-05-02T13:50:30.844Z</time></trkpt><trkpt lat="45.6649472" lon="9.4302751"><ele>242.0</ele><time>2026-05-02T13:50:31.844Z</time></trkpt><trkpt lat="45.6648864" lon="9.430214"><ele>241.85714285714283</ele><time>2026-05-02T13:50:32.843Z</time></trkpt><trkpt lat="45.6648194" lon="9.4301575"><ele>241.7142857142857</ele><time>2026-05-02T13:50:33.843Z</time></trkpt><trkpt lat="45.6647606" lon="9.4300939"><ele>241.57142857142856</ele><time>2026-05-02T13:50:34.844Z</time></trkpt><trkpt lat="45.6647037" lon="9.4300403"><ele>241.42857142857144</ele><time>2026-05-02T13:50:35.843Z</time></trkpt><trkpt lat="45.6646452" lon="9.4299897"><ele>241.2857142857143</ele><time>2026-05-02T13:50:36.844Z</time></trkpt><trkpt lat="45.6645823" lon="9.42993"><ele>241.14285714285717</ele><time>2026-05-02T13:50:37.844Z</time></trkpt><trkpt lat="45.6645241" lon="9.4298663"><ele>241.0</ele><time>2026-05-02T13:50:38.844Z</time></trkpt><trkpt lat="45.6644628" lon="9.4298135"><ele>240.99999999999997</ele><time>2026-05-02T13:50:39.844Z</time></trkpt><trkpt lat="45.6643973" lon="9.4297415"><ele>241.0</ele><time>2026-05-02T13:50:40.843Z</time></trkpt><trkpt lat="45.6643376" lon="9.42968"><ele>241.0</ele><time>2026-05-02T13:50:41.844Z</time></trkpt><trkpt lat="45.6642734" lon="9.4296163"><ele>241.0</ele><time>2026-05-02T13:50:42.844Z</time></trkpt><trkpt lat="45.6642096" lon="9.4295409"><ele>240.99999999999997</ele><time>2026-05-02T13:50:43.843Z</time></trkpt><trkpt lat="45.6641482" lon="9.429485"><ele>241.0</ele><time>2026-05-02T13:50:44.843Z</time></trkpt><trkpt lat="45.6640833" lon="9.4294132"><ele>240.49999999999997</ele><time>2026-05-02T13:50:45.843Z</time></trkpt><trkpt lat="45.6640236" lon="9.4293568"><ele>240.0</ele><time>2026-05-02T13:50:46.844Z</time></trkpt><trkpt lat="45.663964" lon="9.4292921"><ele>239.5</ele><time>2026-05-02T13:50:47.844Z</time></trkpt><trkpt lat="45.663904" lon="9.4292316"><ele>239.0</ele><time>2026-05-02T13:50:48.844Z</time></trkpt><trkpt lat="45.6638457" lon="9.429178"><ele>238.49999999999997</ele><time>2026-05-02T13:50:49.843Z</time></trkpt><trkpt lat="45.6637821" lon="9.4291243"><ele>238.0</ele><time>2026-05-02T13:50:50.843Z</time></trkpt><trkpt lat="45.6637134" lon="9.4290443"><ele>237.99999999999997</ele><time>2026-05-02T13:50:51.843Z</time></trkpt><trkpt lat="45.6636573" lon="9.4289707"><ele>238.0</ele><time>2026-05-02T13:50:52.844Z</time></trkpt><trkpt lat="45.6635921" lon="9.4288841"><ele>238.0</ele><time>2026-05-02T13:50:53.843Z</time></trkpt><trkpt lat="45.6635267" lon="9.4288494"><ele>238.0</ele><time>2026-05-02T13:50:54.843Z</time></trkpt><trkpt lat="45.6634726" lon="9.4287979"><ele>237.99999999999997</ele><time>2026-05-02T13:50:55.844Z</time></trkpt><trkpt lat="45.6634181" lon="9.4287485"><ele>238.0</ele><time>2026-05-02T13:50:56.844Z</time></trkpt><trkpt lat="45.6633109" lon="9.4286599"><ele>238.2</ele><time>2026-05-02T13:50:58.844Z</time></trkpt><trkpt lat="45.663201" lon="9.4285823"><ele>238.4</ele><time>2026-05-02T13:51:00.844Z</time></trkpt><trkpt lat="45.6631255" lon="9.4284628"><ele>238.59999999999997</ele><time>2026-05-02T13:51:02.843Z</time></trkpt><trkpt lat="45.6630903" lon="9.4282937"><ele>238.79999999999998</ele><time>2026-05-02T13:51:04.844Z</time></trkpt><trkpt lat="45.6630882" lon="9.428191"><ele>239.0</ele><time>2026-05-02T13:51:05.844Z</time></trkpt><trkpt lat="45.6630938" lon="9.4280984"><ele>239.00000000000003</ele><time>2026-05-02T13:51:06.843Z</time></trkpt><trkpt lat="45.6630974" lon="9.4280063"><ele>239.0</ele><time>2026-05-02T13:51:07.844Z</time></trkpt><trkpt lat="45.6630987" lon="9.4279102"><ele>239.0</ele><time>2026-05-02T13:51:08.844Z</time></trkpt><trkpt lat="45.6631059" lon="9.4278136"><ele>239.0</ele><time>2026-05-02T13:51:09.844Z</time></trkpt><trkpt lat="45.6631129" lon="9.4277101"><ele>239.00000000000003</ele><time>2026-05-02T13:51:10.844Z</time></trkpt><trkpt lat="45.6631229" lon="9.4275185"><ele>239.0</ele><time>2026-05-02T13:51:12.843Z</time></trkpt><trkpt lat="45.6631258" lon="9.4274264"><ele>239.2</ele><time>2026-05-02T13:51:13.844Z</time></trkpt><trkpt lat="45.6631276" lon="9.427254"><ele>239.39999999999998</ele><time>2026-05-02T13:51:15.844Z</time></trkpt><trkpt lat="45.6631337" lon="9.4271317"><ele>239.6</ele><time>2026-05-02T13:51:17.843Z</time></trkpt><trkpt lat="45.6631253" lon="9.4270092"><ele>239.8</ele><time>2026-05-02T13:51:19.843Z</time></trkpt><trkpt lat="45.6630433" lon="9.4269273"><ele>240.0</ele><time>2026-05-02T13:51:21.844Z</time></trkpt><trkpt lat="45.6629938" lon="9.4268627"><ele>240.4</ele><time>2026-05-02T13:51:22.843Z</time></trkpt><trkpt lat="45.6629067" lon="9.4267618"><ele>240.8</ele><time>2026-05-02T13:51:24.843Z</time></trkpt><trkpt lat="45.6628094" lon="9.426651"><ele>241.2</ele><time>2026-05-02T13:51:26.844Z</time></trkpt><trkpt lat="45.6626994" lon="9.4265523"><ele>241.6</ele><time>2026-05-02T13:51:28.844Z</time></trkpt><trkpt lat="45.6626422" lon="9.4265081"><ele>242.0</ele><time>2026-05-02T13:51:29.844Z</time></trkpt><trkpt lat="45.6625855" lon="9.4264496"><ele>241.16666666666669</ele><time>2026-05-02T13:51:30.844Z</time></trkpt><trkpt lat="45.6624761" lon="9.4263723"><ele>240.33333333333334</ele><time>2026-05-02T13:51:32.844Z</time></trkpt><trkpt lat="45.6624171" lon="9.4263192"><ele>239.5</ele><time>2026-05-02T13:51:33.843Z</time></trkpt><trkpt lat="45.6623589" lon="9.4262683"><ele>238.66666666666669</ele><time>2026-05-02T13:51:34.844Z</time></trkpt><trkpt lat="45.6622927" lon="9.4262069"><ele>237.83333333333334</ele><time>2026-05-02T13:51:35.844Z</time></trkpt><trkpt lat="45.6622334" lon="9.4261529"><ele>237.0</ele><time>2026-05-02T13:51:36.843Z</time></trkpt><trkpt lat="45.6621773" lon="9.4261062"><ele>237.0</ele><time>2026-05-02T13:51:37.844Z</time></trkpt><trkpt lat="45.6620575" lon="9.4260226"><ele>237.0</ele><time>2026-05-02T13:51:39.843Z</time></trkpt><trkpt lat="45.6620123" lon="9.4259581"><ele>237.0</ele><time>2026-05-02T13:51:40.843Z</time></trkpt><trkpt lat="45.6619572" lon="9.4259032"><ele>237.0</ele><time>2026-05-02T13:51:41.844Z</time></trkpt><trkpt lat="45.6618859" lon="9.4258334"><ele>237.0</ele><time>2026-05-02T13:51:42.843Z</time></trkpt><trkpt lat="45.6618195" lon="9.4257799"><ele>237.0</ele><time>2026-05-02T13:51:43.843Z</time></trkpt><trkpt lat="45.6617646" lon="9.4257226"><ele>237.5</ele><time>2026-05-02T13:51:44.843Z</time></trkpt><trkpt lat="45.6617117" lon="9.4256682"><ele>238.0</ele><time>2026-05-02T13:51:45.844Z</time></trkpt><trkpt lat="45.661605" lon="9.4255852"><ele>238.5</ele><time>2026-05-02T13:51:47.844Z</time></trkpt><trkpt lat="45.6615487" lon="9.4255293"><ele>239.0</ele><time>2026-05-02T13:51:48.843Z</time></trkpt><trkpt lat="45.6614938" lon="9.4254723"><ele>239.5</ele><time>2026-05-02T13:51:49.844Z</time></trkpt><trkpt lat="45.6614381" lon="9.4254156"><ele>240.0</ele><time>2026-05-02T13:51:50.843Z</time></trkpt><trkpt lat="45.6613754" lon="9.425365"><ele>240.0</ele><time>2026-05-02T13:51:51.843Z</time></trkpt><trkpt lat="45.6613155" lon="9.4253133"><ele>240.0</ele><time>2026-05-02T13:51:52.844Z</time></trkpt><trkpt lat="45.6612576" lon="9.4252616"><ele>240.0</ele><time>2026-05-02T13:51:53.843Z</time></trkpt><trkpt lat="45.6612014" lon="9.4252082"><ele>240.0</ele><time>2026-05-02T13:51:54.844Z</time></trkpt><trkpt lat="45.6611316" lon="9.4251389"><ele>240.0</ele><time>2026-05-02T13:51:55.843Z</time></trkpt><trkpt lat="45.661069" lon="9.4250802"><ele>240.0</ele><time>2026-05-02T13:51:56.844Z</time></trkpt><trkpt lat="45.6610082" lon="9.4250263"><ele>240.0</ele><time>2026-05-02T13:51:57.844Z</time></trkpt><trkpt lat="45.6609496" lon="9.4249653"><ele>240.14285714285717</ele><time>2026-05-02T13:51:58.843Z</time></trkpt><trkpt lat="45.6608911" lon="9.4249097"><ele>240.28571428571428</ele><time>2026-05-02T13:51:59.843Z</time></trkpt><trkpt lat="45.6608299" lon="9.4248577"><ele>240.42857142857144</ele><time>2026-05-02T13:52:00.844Z</time></trkpt><trkpt lat="45.6607746" lon="9.4248033"><ele>240.57142857142858</ele><time>2026-05-02T13:52:01.843Z</time></trkpt><trkpt lat="45.6607249" lon="9.4247459"><ele>240.71428571428572</ele><time>2026-05-02T13:52:02.844Z</time></trkpt><trkpt lat="45.6606633" lon="9.424699"><ele>240.85714285714286</ele><time>2026-05-02T13:52:03.843Z</time></trkpt><trkpt lat="45.6606098" lon="9.4246287"><ele>241.0</ele><time>2026-05-02T13:52:04.843Z</time></trkpt><trkpt lat="45.6605502" lon="9.4245757"><ele>241.0</ele><time>2026-05-02T13:52:05.844Z</time></trkpt><trkpt lat="45.6604942" lon="9.4245138"><ele>241.00000000000003</ele><time>2026-05-02T13:52:06.844Z</time></trkpt><trkpt lat="45.6604394" lon="9.4244651"><ele>241.0</ele><time>2026-05-02T13:52:07.843Z</time></trkpt><trkpt lat="45.6603845" lon="9.4244139"><ele>241.0</ele><time>2026-05-02T13:52:08.844Z</time></trkpt><trkpt lat="45.6603292" lon="9.4243584"><ele>241.00000000000003</ele><time>2026-05-02T13:52:09.843Z</time></trkpt><trkpt lat="45.660269" lon="9.4243032"><ele>241.0</ele><time>2026-05-02T13:52:10.843Z</time></trkpt><trkpt lat="45.6602139" lon="9.4242515"><ele>241.0</ele><time>2026-05-02T13:52:11.843Z</time></trkpt><trkpt lat="45.660154" lon="9.4241936"><ele>240.57142857142858</ele><time>2026-05-02T13:52:12.843Z</time></trkpt><trkpt lat="45.6600908" lon="9.4241361"><ele>240.14285714285717</ele><time>2026-05-02T13:52:13.844Z</time></trkpt><trkpt lat="45.6600346" lon="9.4240816"><ele>239.71428571428572</ele><time>2026-05-02T13:52:14.843Z</time></trkpt><trkpt lat="45.659979" lon="9.4240269"><ele>239.28571428571428</ele><time>2026-05-02T13:52:15.843Z</time></trkpt><trkpt lat="45.6599221" lon="9.423981"><ele>238.85714285714286</ele><time>2026-05-02T13:52:16.844Z</time></trkpt><trkpt lat="45.6598661" lon="9.4239212"><ele>238.42857142857144</ele><time>2026-05-02T13:52:17.844Z</time></trkpt><trkpt lat="45.6598063" lon="9.4238688"><ele>238.0</ele><time>2026-05-02T13:52:18.844Z</time></trkpt><trkpt lat="45.6597465" lon="9.4238252"><ele>238.0</ele><time>2026-05-02T13:52:19.843Z</time></trkpt><trkpt lat="45.6596841" lon="9.4237924"><ele>238.0</ele><time>2026-05-02T13:52:20.844Z</time></trkpt><trkpt lat="45.6595673" lon="9.4237818"><ele>238.0</ele><time>2026-05-02T13:52:22.844Z</time></trkpt><trkpt lat="45.6594631" lon="9.4238518"><ele>238.0</ele><time>2026-05-02T13:52:24.843Z</time></trkpt><trkpt lat="45.6593597" lon="9.423958"><ele>238.0</ele><time>2026-05-02T13:52:26.843Z</time></trkpt><trkpt lat="45.6592651" lon="9.4240594"><ele>237.25</ele><time>2026-05-02T13:52:28.843Z</time></trkpt><trkpt lat="45.6591682" lon="9.4240817"><ele>236.5</ele><time>2026-05-02T13:52:30.844Z</time></trkpt><trkpt lat="45.659077" lon="9.4239862"><ele>235.75</ele><time>2026-05-02T13:52:32.843Z</time></trkpt><trkpt lat="45.658983" lon="9.4238696"><ele>235.0</ele><time>2026-05-02T13:52:34.844Z</time></trkpt><trkpt lat="45.6588801" lon="9.4237664"><ele>235.0</ele><time>2026-05-02T13:52:36.843Z</time></trkpt><trkpt lat="45.6588204" lon="9.4237208"><ele>234.99999999999997</ele><time>2026-05-02T13:52:37.843Z</time></trkpt><trkpt lat="45.6587627" lon="9.4236793"><ele>235.0</ele><time>2026-05-02T13:52:38.844Z</time></trkpt><trkpt lat="45.6587067" lon="9.4236309"><ele>235.0</ele><time>2026-05-02T13:52:39.843Z</time></trkpt><trkpt lat="45.6586498" lon="9.4235817"><ele>234.99999999999997</ele><time>2026-05-02T13:52:40.843Z</time></trkpt><trkpt lat="45.6585899" lon="9.4235248"><ele>235.0</ele><time>2026-05-02T13:52:41.844Z</time></trkpt><trkpt lat="45.6585338" lon="9.4234715"><ele>235.0</ele><time>2026-05-02T13:52:42.843Z</time></trkpt><trkpt lat="45.6584771" lon="9.4234239"><ele>235.0</ele><time>2026-05-02T13:52:43.843Z</time></trkpt><trkpt lat="45.658419" lon="9.4233767"><ele>234.99999999999997</ele><time>2026-05-02T13:52:44.844Z</time></trkpt><trkpt lat="45.6583613" lon="9.4233285"><ele>235.0</ele><time>2026-05-02T13:52:45.843Z</time></trkpt><trkpt lat="45.6583038" lon="9.4232737"><ele>235.0</ele><time>2026-05-02T13:52:46.844Z</time></trkpt><trkpt lat="45.6582437" lon="9.4232361"><ele>234.99999999999997</ele><time>2026-05-02T13:52:47.844Z</time></trkpt><trkpt lat="45.6581841" lon="9.4231939"><ele>235.0</ele><time>2026-05-02T13:52:48.843Z</time></trkpt><trkpt lat="45.6581259" lon="9.4231546"><ele>235.0</ele><time>2026-05-02T13:52:49.844Z</time></trkpt><trkpt lat="45.6580077" lon="9.4230804"><ele>235.0</ele><time>2026-05-02T13:52:51.843Z</time></trkpt><trkpt lat="45.6579025" lon="9.423024"><ele>235.0</ele><time>2026-05-02T13:52:53.844Z</time></trkpt><trkpt lat="45.6578387" lon="9.4230122"><ele>235.0</ele><time>2026-05-02T13:52:54.843Z</time></trkpt><trkpt lat="45.6577755" lon="9.4230001"><ele>235.0</ele><time>2026-05-02T13:52:55.843Z</time></trkpt><trkpt lat="45.6576612" lon="9.4229981"><ele>235.0</ele><time>2026-05-02T13:52:57.844Z</time></trkpt><trkpt lat="45.6575524" lon="9.4229783"><ele>235.4</ele><time>2026-05-02T13:52:59.843Z</time></trkpt><trkpt lat="45.6574518" lon="9.4229493"><ele>235.8</ele><time>2026-05-02T13:53:01.844Z</time></trkpt><trkpt lat="45.6573918" lon="9.4229109"><ele>236.2</ele><time>2026-05-02T13:53:02.843Z</time></trkpt><trkpt lat="45.6572918" lon="9.4228638"><ele>236.6</ele><time>2026-05-02T13:53:04.844Z</time></trkpt><trkpt lat="45.6571622" lon="9.4228418"><ele>237.0</ele><time>2026-05-02T13:53:06.843Z</time></trkpt><trkpt lat="45.6570943" lon="9.4228229"><ele>237.0</ele><time>2026-05-02T13:53:07.843Z</time></trkpt><trkpt lat="45.6570292" lon="9.4228069"><ele>237.0</ele><time>2026-05-02T13:53:08.843Z</time></trkpt><trkpt lat="45.6569661" lon="9.4227912"><ele>237.0</ele><time>2026-05-02T13:53:09.843Z</time></trkpt><trkpt lat="45.656861" lon="9.422724"><ele>237.0</ele><time>2026-05-02T13:53:11.844Z</time></trkpt><trkpt lat="45.656733" lon="9.4226652"><ele>237.0</ele><time>2026-05-02T13:53:13.844Z</time></trkpt><trkpt lat="45.6566536" lon="9.4226442"><ele>236.83333333333334</ele><time>2026-05-02T13:53:14.843Z</time></trkpt><trkpt lat="45.6565872" lon="9.4226137"><ele>236.66666666666669</ele><time>2026-05-02T13:53:15.843Z</time></trkpt><trkpt lat="45.6565226" lon="9.4225834"><ele>236.5</ele><time>2026-05-02T13:53:16.844Z</time></trkpt><trkpt lat="45.6564593" lon="9.4225488"><ele>236.33333333333334</ele><time>2026-05-02T13:53:17.844Z</time></trkpt><trkpt lat="45.6563896" lon="9.4225176"><ele>236.16666666666669</ele><time>2026-05-02T13:53:18.843Z</time></trkpt><trkpt lat="45.6563197" lon="9.4224838"><ele>236.0</ele><time>2026-05-02T13:53:19.844Z</time></trkpt><trkpt lat="45.6561868" lon="9.4224352"><ele>235.8</ele><time>2026-05-02T13:53:21.844Z</time></trkpt><trkpt lat="45.6560969" lon="9.4224194"><ele>235.60000000000002</ele><time>2026-05-02T13:53:22.843Z</time></trkpt><trkpt lat="45.6559776" lon="9.4223967"><ele>235.4</ele><time>2026-05-02T13:53:23.844Z</time></trkpt><trkpt lat="45.655887" lon="9.4223138"><ele>235.2</ele><time>2026-05-02T13:53:25.843Z</time></trkpt><trkpt lat="45.6557923" lon="9.4222725"><ele>235.0</ele><time>2026-05-02T13:53:27.844Z</time></trkpt><trkpt lat="45.6556872" lon="9.4221938"><ele>235.16666666666666</ele><time>2026-05-02T13:53:29.843Z</time></trkpt><trkpt lat="45.6555885" lon="9.4221186"><ele>235.33333333333331</ele><time>2026-05-02T13:53:31.844Z</time></trkpt><trkpt lat="45.6555312" lon="9.4220706"><ele>235.5</ele><time>2026-05-02T13:53:32.843Z</time></trkpt><trkpt lat="45.6554722" lon="9.4220247"><ele>235.66666666666669</ele><time>2026-05-02T13:53:33.843Z</time></trkpt><trkpt lat="45.6554048" lon="9.4219769"><ele>235.83333333333334</ele><time>2026-05-02T13:53:34.844Z</time></trkpt><trkpt lat="45.6553232" lon="9.4218951"><ele>236.0</ele><time>2026-05-02T13:53:36.843Z</time></trkpt><trkpt lat="45.655228" lon="9.4218081"><ele>236.0</ele><time>2026-05-02T13:53:38.843Z</time></trkpt><trkpt lat="45.6550951" lon="9.4217714"><ele>236.00000000000003</ele><time>2026-05-02T13:53:40.844Z</time></trkpt><trkpt lat="45.6550129" lon="9.4217559"><ele>236.00000000000003</ele><time>2026-05-02T13:53:41.843Z</time></trkpt><trkpt lat="45.6549226" lon="9.4217423"><ele>236.0</ele><time>2026-05-02T13:53:42.844Z</time></trkpt><trkpt lat="45.6548577" lon="9.4217491"><ele>236.0</ele><time>2026-05-02T13:53:43.843Z</time></trkpt><trkpt lat="45.6547407" lon="9.4217358"><ele>236.00000000000003</ele><time>2026-05-02T13:53:45.844Z</time></trkpt><trkpt lat="45.6546771" lon="9.4217315"><ele>236.0</ele><time>2026-05-02T13:53:46.844Z</time></trkpt><trkpt lat="45.6546096" lon="9.4217251"><ele>236.0</ele><time>2026-05-02T13:53:47.843Z</time></trkpt><trkpt lat="45.6545089" lon="9.4217361"><ele>236.0</ele><time>2026-05-02T13:53:49.844Z</time></trkpt><trkpt lat="45.654448" lon="9.4217596"><ele>236.00000000000003</ele><time>2026-05-02T13:53:50.843Z</time></trkpt><trkpt lat="45.6543289" lon="9.4217585"><ele>236.0</ele><time>2026-05-02T13:53:52.843Z</time></trkpt><trkpt lat="45.6542439" lon="9.4217461"><ele>235.83333333333334</ele><time>2026-05-02T13:53:54.844Z</time></trkpt><trkpt lat="45.6541568" lon="9.4217648"><ele>235.66666666666669</ele><time>2026-05-02T13:53:55.843Z</time></trkpt><trkpt lat="45.6540925" lon="9.4218454"><ele>235.5</ele><time>2026-05-02T13:53:56.843Z</time></trkpt><trkpt lat="45.6540274" lon="9.4218893"><ele>235.33333333333331</ele><time>2026-05-02T13:53:57.843Z</time></trkpt><trkpt lat="45.6539571" lon="9.4219006"><ele>235.16666666666666</ele><time>2026-05-02T13:53:58.843Z</time></trkpt><trkpt lat="45.6538918" lon="9.4218954"><ele>235.0</ele><time>2026-05-02T13:53:59.844Z</time></trkpt><trkpt lat="45.6537842" lon="9.4218896"><ele>235.0</ele><time>2026-05-02T13:54:01.844Z</time></trkpt><trkpt lat="45.6536686" lon="9.4219295"><ele>235.0</ele><time>2026-05-02T13:54:03.843Z</time></trkpt><trkpt lat="45.6535956" lon="9.4219014"><ele>235.0</ele><time>2026-05-02T13:54:04.843Z</time></trkpt><trkpt lat="45.6534957" lon="9.4219281"><ele>235.0</ele><time>2026-05-02T13:54:05.843Z</time></trkpt><trkpt lat="45.6534111" lon="9.4219"><ele>235.0</ele><time>2026-05-02T13:54:06.843Z</time></trkpt><trkpt lat="45.6533236" lon="9.4219193"><ele>235.4</ele><time>2026-05-02T13:54:08.843Z</time></trkpt><trkpt lat="45.6532025" lon="9.4219132"><ele>235.8</ele><time>2026-05-02T13:54:10.843Z</time></trkpt><trkpt lat="45.6530881" lon="9.421932"><ele>236.2</ele><time>2026-05-02T13:54:12.843Z</time></trkpt><trkpt lat="45.653011" lon="9.4219148"><ele>236.6</ele><time>2026-05-02T13:54:13.843Z</time></trkpt><trkpt lat="45.6529359" lon="9.4218936"><ele>237.0</ele><time>2026-05-02T13:54:14.843Z</time></trkpt><trkpt lat="45.6528642" lon="9.4218923"><ele>237.2</ele><time>2026-05-02T13:54:15.844Z</time></trkpt><trkpt lat="45.6527472" lon="9.4218876"><ele>237.39999999999998</ele><time>2026-05-02T13:54:17.843Z</time></trkpt><trkpt lat="45.6526729" lon="9.4218794"><ele>237.60000000000002</ele><time>2026-05-02T13:54:18.843Z</time></trkpt><trkpt lat="45.6525605" lon="9.4218596"><ele>237.8</ele><time>2026-05-02T13:54:20.843Z</time></trkpt><trkpt lat="45.6524968" lon="9.4218331"><ele>238.0</ele><time>2026-05-02T13:54:21.844Z</time></trkpt><trkpt lat="45.6523955" lon="9.4217707"><ele>237.99999999999997</ele><time>2026-05-02T13:54:22.844Z</time></trkpt><trkpt lat="45.6523137" lon="9.4217456"><ele>238.0</ele><time>2026-05-02T13:54:23.844Z</time></trkpt><trkpt lat="45.6521865" lon="9.4217089"><ele>238.0</ele><time>2026-05-02T13:54:25.844Z</time></trkpt><trkpt lat="45.6521088" lon="9.4217035"><ele>238.0</ele><time>2026-05-02T13:54:26.844Z</time></trkpt><trkpt lat="45.6520344" lon="9.4216697"><ele>237.99999999999997</ele><time>2026-05-02T13:54:27.844Z</time></trkpt><trkpt lat="45.651963" lon="9.4216408"><ele>238.0</ele><time>2026-05-02T13:54:28.844Z</time></trkpt><trkpt lat="45.6518431" lon="9.4216103"><ele>237.60000000000002</ele><time>2026-05-02T13:54:30.844Z</time></trkpt><trkpt lat="45.6517477" lon="9.4215973"><ele>237.20000000000002</ele><time>2026-05-02T13:54:32.844Z</time></trkpt><trkpt lat="45.6516711" lon="9.4216312"><ele>236.8</ele><time>2026-05-02T13:54:35.843Z</time></trkpt><trkpt lat="45.6516265" lon="9.4217875"><ele>236.4</ele><time>2026-05-02T13:54:38.844Z</time></trkpt><trkpt lat="45.6515844" lon="9.4219656"><ele>236.0</ele><time>2026-05-02T13:54:40.843Z</time></trkpt><trkpt lat="45.6515341" lon="9.4221151"><ele>235.33333333333334</ele><time>2026-05-02T13:54:42.843Z</time></trkpt><trkpt lat="45.6515205" lon="9.4222214"><ele>234.66666666666669</ele><time>2026-05-02T13:54:44.843Z</time></trkpt><trkpt lat="45.6514956" lon="9.4223062"><ele>234.0</ele><time>2026-05-02T13:54:46.844Z</time></trkpt><trkpt lat="45.6514699" lon="9.4224664"><ele>233.33333333333331</ele><time>2026-05-02T13:54:48.844Z</time></trkpt><trkpt lat="45.651428" lon="9.4225352"><ele>232.66666666666666</ele><time>2026-05-02T13:54:50.844Z</time></trkpt><trkpt lat="45.6513547" lon="9.422528"><ele>232.0</ele><time>2026-05-02T13:54:52.843Z</time></trkpt><trkpt lat="45.6512708" lon="9.422521"><ele>232.0</ele><time>2026-05-02T13:54:53.844Z</time></trkpt><trkpt lat="45.6511983" lon="9.4225438"><ele>232.0</ele><time>2026-05-02T13:54:55.844Z</time></trkpt><trkpt lat="45.6511341" lon="9.4225107"><ele>232.0</ele><time>2026-05-02T13:54:57.844Z</time></trkpt><trkpt lat="45.6510177" lon="9.4224773"><ele>232.0</ele><time>2026-05-02T13:54:59.844Z</time></trkpt><trkpt lat="45.650899" lon="9.422439"><ele>232.0</ele><time>2026-05-02T13:55:01.844Z</time></trkpt><trkpt lat="45.6508022" lon="9.4224387"><ele>232.2</ele><time>2026-05-02T13:55:02.844Z</time></trkpt><trkpt lat="45.6507326" lon="9.4224179"><ele>232.39999999999998</ele><time>2026-05-02T13:55:03.844Z</time></trkpt><trkpt lat="45.6505966" lon="9.4223973"><ele>232.60000000000002</ele><time>2026-05-02T13:55:05.844Z</time></trkpt><trkpt lat="45.6505214" lon="9.4223782"><ele>232.8</ele><time>2026-05-02T13:55:06.843Z</time></trkpt><trkpt lat="45.6504557" lon="9.4223697"><ele>233.0</ele><time>2026-05-02T13:55:07.844Z</time></trkpt><trkpt lat="45.6503582" lon="9.4224029"><ele>233.16666666666669</ele><time>2026-05-02T13:55:09.844Z</time></trkpt><trkpt lat="45.6502724" lon="9.4224332"><ele>233.33333333333334</ele><time>2026-05-02T13:55:11.844Z</time></trkpt><trkpt lat="45.6501766" lon="9.4224477"><ele>233.5</ele><time>2026-05-02T13:55:13.843Z</time></trkpt><trkpt lat="45.6500799" lon="9.4224231"><ele>233.66666666666669</ele><time>2026-05-02T13:55:15.843Z</time></trkpt><trkpt lat="45.6499996" lon="9.4224071"><ele>233.83333333333334</ele><time>2026-05-02T13:55:17.844Z</time></trkpt><trkpt lat="45.6499358" lon="9.4223938"><ele>234.0</ele><time>2026-05-02T13:55:18.843Z</time></trkpt><trkpt lat="45.6498236" lon="9.4223773"><ele>234.0</ele><time>2026-05-02T13:55:20.843Z</time></trkpt><trkpt lat="45.6497512" lon="9.4223437"><ele>234.0</ele><time>2026-05-02T13:55:21.843Z</time></trkpt><trkpt lat="45.6496354" lon="9.4223312"><ele>234.0</ele><time>2026-05-02T13:55:23.844Z</time></trkpt><trkpt lat="45.6495681" lon="9.4223139"><ele>234.0</ele><time>2026-05-02T13:55:24.844Z</time></trkpt><trkpt lat="45.6494893" lon="9.4223116"><ele>234.0</ele><time>2026-05-02T13:55:25.843Z</time></trkpt><trkpt lat="45.6493886" lon="9.4223092"><ele>234.0</ele><time>2026-05-02T13:55:26.844Z</time></trkpt><trkpt lat="45.6492989" lon="9.422308"><ele>233.6</ele><time>2026-05-02T13:55:27.843Z</time></trkpt><trkpt lat="45.6491918" lon="9.4222871"><ele>233.2</ele><time>2026-05-02T13:55:29.844Z</time></trkpt><trkpt lat="45.6490767" lon="9.4222712"><ele>232.79999999999998</ele><time>2026-05-02T13:55:31.844Z</time></trkpt><trkpt lat="45.6489627" lon="9.422256"><ele>232.39999999999998</ele><time>2026-05-02T13:55:33.843Z</time></trkpt><trkpt lat="45.6488919" lon="9.4223613"><ele>232.0</ele><time>2026-05-02T13:55:35.843Z</time></trkpt><trkpt lat="45.6488934" lon="9.422474"><ele>231.99999999999997</ele><time>2026-05-02T13:55:37.843Z</time></trkpt><trkpt lat="45.6488975" lon="9.4226027"><ele>232.0</ele><time>2026-05-02T13:55:39.843Z</time></trkpt><trkpt lat="45.6489092" lon="9.4227216"><ele>232.0</ele><time>2026-05-02T13:55:41.843Z</time></trkpt><trkpt lat="45.6489197" lon="9.422846"><ele>232.0</ele><time>2026-05-02T13:55:43.844Z</time></trkpt><trkpt lat="45.6489294" lon="9.4229705"><ele>231.99999999999997</ele><time>2026-05-02T13:55:45.843Z</time></trkpt><trkpt lat="45.6489378" lon="9.4230899"><ele>232.0</ele><time>2026-05-02T13:55:47.844Z</time></trkpt><trkpt lat="45.6489462" lon="9.4232176"><ele>233.0</ele><time>2026-05-02T13:55:49.844Z</time></trkpt><trkpt lat="45.6489368" lon="9.4233323"><ele>234.0</ele><time>2026-05-02T13:55:51.843Z</time></trkpt><trkpt lat="45.6488686" lon="9.4233842"><ele>235.0</ele><time>2026-05-02T13:55:53.843Z</time></trkpt><trkpt lat="45.6487728" lon="9.4233982"><ele>236.0</ele><time>2026-05-02T13:55:55.843Z</time></trkpt><trkpt lat="45.6486671" lon="9.4233949"><ele>237.0</ele><time>2026-05-02T13:55:57.843Z</time></trkpt><trkpt lat="45.648562" lon="9.4233937"><ele>237.0</ele><time>2026-05-02T13:55:59.844Z</time></trkpt><trkpt lat="45.6484511" lon="9.4234054"><ele>237.0</ele><time>2026-05-02T13:56:01.844Z</time></trkpt><trkpt lat="45.6483362" lon="9.4234246"><ele>237.0</ele><time>2026-05-02T13:56:03.844Z</time></trkpt><trkpt lat="45.6482207" lon="9.4234336"><ele>237.0</ele><time>2026-05-02T13:56:05.843Z</time></trkpt><trkpt lat="45.6481109" lon="9.4234326"><ele>237.0</ele><time>2026-05-02T13:56:07.844Z</time></trkpt><trkpt lat="45.6479954" lon="9.423437"><ele>237.0</ele><time>2026-05-02T13:56:09.843Z</time></trkpt><trkpt lat="45.6478833" lon="9.4234554"><ele>237.0</ele><time>2026-05-02T13:56:11.843Z</time></trkpt><trkpt lat="45.6477706" lon="9.4234739"><ele>237.0</ele><time>2026-05-02T13:56:13.843Z</time></trkpt><trkpt lat="45.6476533" lon="9.4234833"><ele>237.2</ele><time>2026-05-02T13:56:15.843Z</time></trkpt><trkpt lat="45.6475811" lon="9.4234843"><ele>237.39999999999998</ele><time>2026-05-02T13:56:16.843Z</time></trkpt><trkpt lat="45.6474699" lon="9.4234978"><ele>237.60000000000002</ele><time>2026-05-02T13:56:18.844Z</time></trkpt><trkpt lat="45.6473624" lon="9.4234983"><ele>237.8</ele><time>2026-05-02T13:56:20.843Z</time></trkpt><trkpt lat="45.647262" lon="9.4234961"><ele>238.0</ele><time>2026-05-02T13:56:22.843Z</time></trkpt><trkpt lat="45.6471553" lon="9.4234672"><ele>238.0</ele><time>2026-05-02T13:56:24.843Z</time></trkpt><trkpt lat="45.6470486" lon="9.423416"><ele>238.0</ele><time>2026-05-02T13:56:26.844Z</time></trkpt><trkpt lat="45.6469529" lon="9.4233419"><ele>238.0</ele><time>2026-05-02T13:56:28.843Z</time></trkpt><trkpt lat="45.6468519" lon="9.4232645"><ele>238.0</ele><time>2026-05-02T13:56:30.844Z</time></trkpt><trkpt lat="45.6467628" lon="9.4231887"><ele>238.0</ele><time>2026-05-02T13:56:32.844Z</time></trkpt><trkpt lat="45.6466654" lon="9.4231103"><ele>238.2</ele><time>2026-05-02T13:56:34.843Z</time></trkpt><trkpt lat="45.6465693" lon="9.4230347"><ele>238.4</ele><time>2026-05-02T13:56:36.844Z</time></trkpt><trkpt lat="45.6464713" lon="9.4229536"><ele>238.59999999999997</ele><time>2026-05-02T13:56:38.843Z</time></trkpt><trkpt lat="45.6463653" lon="9.4228742"><ele>238.79999999999998</ele><time>2026-05-02T13:56:40.843Z</time></trkpt><trkpt lat="45.6462766" lon="9.4228002"><ele>239.0</ele><time>2026-05-02T13:56:42.843Z</time></trkpt><trkpt lat="45.6461805" lon="9.422715"><ele>239.25</ele><time>2026-05-02T13:56:44.844Z</time></trkpt><trkpt lat="45.6460739" lon="9.4226296"><ele>239.5</ele><time>2026-05-02T13:56:46.844Z</time></trkpt><trkpt lat="45.6459806" lon="9.4225416"><ele>239.75</ele><time>2026-05-02T13:56:48.843Z</time></trkpt><trkpt lat="45.6458852" lon="9.4224554"><ele>240.0</ele><time>2026-05-02T13:56:50.843Z</time></trkpt><trkpt lat="45.6457751" lon="9.4223707"><ele>240.0</ele><time>2026-05-02T13:56:52.843Z</time></trkpt><trkpt lat="45.6456768" lon="9.4222813"><ele>240.0</ele><time>2026-05-02T13:56:54.844Z</time></trkpt><trkpt lat="45.6456217" lon="9.4222254"><ele>240.0</ele><time>2026-05-02T13:56:55.844Z</time></trkpt><trkpt lat="45.6455354" lon="9.4221078"><ele>240.0</ele><time>2026-05-02T13:56:57.844Z</time></trkpt><trkpt lat="45.6454568" lon="9.4219664"><ele>240.0</ele><time>2026-05-02T13:56:59.843Z</time></trkpt><trkpt lat="45.6454037" lon="9.421835"><ele>239.71428571428572</ele><time>2026-05-02T13:57:01.844Z</time></trkpt><trkpt lat="45.645376" lon="9.4217524"><ele>239.42857142857142</ele><time>2026-05-02T13:57:02.843Z</time></trkpt><trkpt lat="45.6453401" lon="9.4216765"><ele>239.14285714285714</ele><time>2026-05-02T13:57:03.844Z</time></trkpt><trkpt lat="45.6453119" lon="9.4215957"><ele>238.85714285714286</ele><time>2026-05-02T13:57:04.844Z</time></trkpt><trkpt lat="45.6452825" lon="9.4215041"><ele>238.57142857142856</ele><time>2026-05-02T13:57:05.844Z</time></trkpt><trkpt lat="45.6452528" lon="9.4214207"><ele>238.28571428571428</ele><time>2026-05-02T13:57:06.843Z</time></trkpt><trkpt lat="45.6452224" lon="9.4213358"><ele>238.0</ele><time>2026-05-02T13:57:07.844Z</time></trkpt><trkpt lat="45.6451957" lon="9.4212508"><ele>237.83333333333331</ele><time>2026-05-02T13:57:08.843Z</time></trkpt><trkpt lat="45.6451603" lon="9.421156"><ele>237.66666666666666</ele><time>2026-05-02T13:57:09.844Z</time></trkpt><trkpt lat="45.6451234" lon="9.4210714"><ele>237.5</ele><time>2026-05-02T13:57:10.844Z</time></trkpt><trkpt lat="45.6450849" lon="9.420986"><ele>237.33333333333331</ele><time>2026-05-02T13:57:11.844Z</time></trkpt><trkpt lat="45.6450465" lon="9.4208932"><ele>237.16666666666666</ele><time>2026-05-02T13:57:12.844Z</time></trkpt><trkpt lat="45.6450067" lon="9.4207928"><ele>237.0</ele><time>2026-05-02T13:57:13.844Z</time></trkpt><trkpt lat="45.6449614" lon="9.4206854"><ele>237.0</ele><time>2026-05-02T13:57:14.844Z</time></trkpt><trkpt lat="45.6449249" lon="9.4205781"><ele>237.0</ele><time>2026-05-02T13:57:15.844Z</time></trkpt><trkpt lat="45.6448844" lon="9.4204713"><ele>237.0</ele><time>2026-05-02T13:57:16.844Z</time></trkpt><trkpt lat="45.6448473" lon="9.4203635"><ele>237.0</ele><time>2026-05-02T13:57:17.844Z</time></trkpt><trkpt lat="45.6448079" lon="9.4202645"><ele>237.0</ele><time>2026-05-02T13:57:18.843Z</time></trkpt><trkpt lat="45.64477" lon="9.4201574"><ele>237.0</ele><time>2026-05-02T13:57:19.844Z</time></trkpt><trkpt lat="45.6447287" lon="9.4200475"><ele>236.33333333333334</ele><time>2026-05-02T13:57:20.843Z</time></trkpt><trkpt lat="45.6446924" lon="9.4199202"><ele>235.66666666666669</ele><time>2026-05-02T13:57:21.843Z</time></trkpt><trkpt lat="45.6446486" lon="9.419801"><ele>235.0</ele><time>2026-05-02T13:57:22.844Z</time></trkpt><trkpt lat="45.6446098" lon="9.4197017"><ele>234.33333333333334</ele><time>2026-05-02T13:57:23.844Z</time></trkpt><trkpt lat="45.6445815" lon="9.4195875"><ele>233.66666666666669</ele><time>2026-05-02T13:57:24.843Z</time></trkpt><trkpt lat="45.6445419" lon="9.4194797"><ele>233.0</ele><time>2026-05-02T13:57:25.844Z</time></trkpt><trkpt lat="45.6445099" lon="9.4193843"><ele>232.57142857142858</ele><time>2026-05-02T13:57:26.844Z</time></trkpt><trkpt lat="45.6444745" lon="9.4192839"><ele>232.1428571428571</ele><time>2026-05-02T13:57:27.843Z</time></trkpt><trkpt lat="45.6444358" lon="9.4191901"><ele>231.7142857142857</ele><time>2026-05-02T13:57:28.844Z</time></trkpt><trkpt lat="45.6444044" lon="9.4190919"><ele>231.28571428571428</ele><time>2026-05-02T13:57:29.843Z</time></trkpt><trkpt lat="45.6443734" lon="9.4189945"><ele>230.85714285714283</ele><time>2026-05-02T13:57:30.843Z</time></trkpt><trkpt lat="45.6443453" lon="9.4189061"><ele>230.4285714285714</ele><time>2026-05-02T13:57:31.843Z</time></trkpt><trkpt lat="45.6443135" lon="9.4188165"><ele>229.99999999999997</ele><time>2026-05-02T13:57:32.844Z</time></trkpt><trkpt lat="45.6442822" lon="9.4187279"><ele>229.6</ele><time>2026-05-02T13:57:33.844Z</time></trkpt><trkpt lat="45.644232" lon="9.4185729"><ele>229.2</ele><time>2026-05-02T13:57:35.843Z</time></trkpt><trkpt lat="45.6441789" lon="9.4184147"><ele>228.8</ele><time>2026-05-02T13:57:37.843Z</time></trkpt><trkpt lat="45.6441246" lon="9.418262"><ele>228.4</ele><time>2026-05-02T13:57:39.844Z</time></trkpt><trkpt lat="45.6440845" lon="9.4181891"><ele>228.0</ele><time>2026-05-02T13:57:40.844Z</time></trkpt><trkpt lat="45.6439928" lon="9.4180827"><ele>228.0</ele><time>2026-05-02T13:57:42.844Z</time></trkpt><trkpt lat="45.643939" lon="9.4180349"><ele>228.0</ele><time>2026-05-02T13:57:43.844Z</time></trkpt><trkpt lat="45.643828" lon="9.417954"><ele>228.0</ele><time>2026-05-02T13:57:45.843Z</time></trkpt><trkpt lat="45.6437687" lon="9.417911"><ele>228.0</ele><time>2026-05-02T13:57:46.844Z</time></trkpt><trkpt lat="45.6436507" lon="9.4178449"><ele>228.0</ele><time>2026-05-02T13:57:48.843Z</time></trkpt><trkpt lat="45.6435949" lon="9.4178005"><ele>228.0</ele><time>2026-05-02T13:57:49.843Z</time></trkpt><trkpt lat="45.6434795" lon="9.417723"><ele>228.2</ele><time>2026-05-02T13:57:51.843Z</time></trkpt><trkpt lat="45.64342" lon="9.4176759"><ele>228.4</ele><time>2026-05-02T13:57:52.844Z</time></trkpt><trkpt lat="45.6433007" lon="9.4176088"><ele>228.59999999999997</ele><time>2026-05-02T13:57:54.843Z</time></trkpt><trkpt lat="45.6431913" lon="9.4175269"><ele>228.79999999999998</ele><time>2026-05-02T13:57:56.843Z</time></trkpt><trkpt lat="45.6431188" lon="9.4174826"><ele>229.0</ele><time>2026-05-02T13:57:57.843Z</time></trkpt><trkpt lat="45.6430536" lon="9.4174599"><ele>229.0</ele><time>2026-05-02T13:57:58.844Z</time></trkpt><trkpt lat="45.6429906" lon="9.417417"><ele>229.0</ele><time>2026-05-02T13:57:59.844Z</time></trkpt><trkpt lat="45.6429233" lon="9.4173774"><ele>229.0</ele><time>2026-05-02T13:58:00.844Z</time></trkpt><trkpt lat="45.6428631" lon="9.4173316"><ele>229.0</ele><time>2026-05-02T13:58:01.844Z</time></trkpt><trkpt lat="45.6428041" lon="9.4172818"><ele>229.0</ele><time>2026-05-02T13:58:02.843Z</time></trkpt><trkpt lat="45.6427413" lon="9.4172374"><ele>229.0</ele><time>2026-05-02T13:58:03.843Z</time></trkpt><trkpt lat="45.6426709" lon="9.4171812"><ele>229.0</ele><time>2026-05-02T13:58:04.843Z</time></trkpt><trkpt lat="45.6426114" lon="9.417124"><ele>228.99999999999997</ele><time>2026-05-02T13:58:05.844Z</time></trkpt><trkpt lat="45.6425482" lon="9.4170848"><ele>229.0</ele><time>2026-05-02T13:58:06.844Z</time></trkpt><trkpt lat="45.6424642" lon="9.4170444"><ele>229.0</ele><time>2026-05-02T13:58:07.843Z</time></trkpt><trkpt lat="45.6423516" lon="9.4169636"><ele>229.0</ele><time>2026-05-02T13:58:09.843Z</time></trkpt><trkpt lat="45.6422872" lon="9.4169175"><ele>228.99999999999997</ele><time>2026-05-02T13:58:10.843Z</time></trkpt><trkpt lat="45.64223" lon="9.4168744"><ele>229.0</ele><time>2026-05-02T13:58:11.843Z</time></trkpt><trkpt lat="45.6421648" lon="9.4168252"><ele>228.99999999999997</ele><time>2026-05-02T13:58:12.843Z</time></trkpt><trkpt lat="45.6420507" lon="9.4167584"><ele>229.0</ele><time>2026-05-02T13:58:14.843Z</time></trkpt><trkpt lat="45.6419908" lon="9.4167268"><ele>229.0</ele><time>2026-05-02T13:58:15.844Z</time></trkpt><trkpt lat="45.6419177" lon="9.4166678"><ele>229.0</ele><time>2026-05-02T13:58:16.843Z</time></trkpt><trkpt lat="45.6418523" lon="9.4166163"><ele>228.99999999999997</ele><time>2026-05-02T13:58:17.844Z</time></trkpt><trkpt lat="45.6417918" lon="9.4165724"><ele>229.0</ele><time>2026-05-02T13:58:18.843Z</time></trkpt><trkpt lat="45.6417305" lon="9.4165345"><ele>228.99999999999997</ele><time>2026-05-02T13:58:19.844Z</time></trkpt><trkpt lat="45.6416694" lon="9.4164805"><ele>229.0</ele><time>2026-05-02T13:58:20.844Z</time></trkpt><trkpt lat="45.6416097" lon="9.4164368"><ele>229.0</ele><time>2026-05-02T13:58:21.843Z</time></trkpt><trkpt lat="45.6415499" lon="9.4164025"><ele>229.0</ele><time>2026-05-02T13:58:22.843Z</time></trkpt><trkpt lat="45.6414908" lon="9.4163697"><ele>228.99999999999997</ele><time>2026-05-02T13:58:23.843Z</time></trkpt><trkpt lat="45.6413797" lon="9.416308"><ele>229.0</ele><time>2026-05-02T13:58:25.844Z</time></trkpt><trkpt lat="45.6412692" lon="9.4163596"><ele>229.0</ele><time>2026-05-02T13:58:27.843Z</time></trkpt><trkpt lat="45.6412341" lon="9.4164684"><ele>228.99999999999997</ele><time>2026-05-02T13:58:29.844Z</time></trkpt><trkpt lat="45.6411767" lon="9.4166118"><ele>228.99999999999997</ele><time>2026-05-02T13:58:31.843Z</time></trkpt><trkpt lat="45.6411187" lon="9.4167691"><ele>229.0</ele><time>2026-05-02T13:58:33.844Z</time></trkpt><trkpt lat="45.6410711" lon="9.4169188"><ele>229.0</ele><time>2026-05-02T13:58:35.844Z</time></trkpt><trkpt lat="45.641041" lon="9.4169986"><ele>229.0</ele><time>2026-05-02T13:58:36.844Z</time></trkpt><trkpt lat="45.6410131" lon="9.4170812"><ele>228.99999999999997</ele><time>2026-05-02T13:58:37.843Z</time></trkpt><trkpt lat="45.6409673" lon="9.4172295"><ele>228.99999999999997</ele><time>2026-05-02T13:58:39.844Z</time></trkpt><trkpt lat="45.6409162" lon="9.4173762"><ele>229.0</ele><time>2026-05-02T13:58:41.843Z</time></trkpt><trkpt lat="45.6408619" lon="9.4175359"><ele>229.0</ele><time>2026-05-02T13:58:43.843Z</time></trkpt><trkpt lat="45.6408278" lon="9.4176426"><ele>228.99999999999997</ele><time>2026-05-02T13:58:44.843Z</time></trkpt><trkpt lat="45.6407682" lon="9.417799"><ele>229.0</ele><time>2026-05-02T13:58:46.843Z</time></trkpt><trkpt lat="45.6407249" lon="9.4178697"><ele>229.0</ele><time>2026-05-02T13:58:47.844Z</time></trkpt><trkpt lat="45.6406283" lon="9.4179814"><ele>229.0</ele><time>2026-05-02T13:58:49.843Z</time></trkpt><trkpt lat="45.6405807" lon="9.4180434"><ele>228.99999999999997</ele><time>2026-05-02T13:58:50.843Z</time></trkpt><trkpt lat="45.6405235" lon="9.4180967"><ele>229.0</ele><time>2026-05-02T13:58:51.843Z</time></trkpt><trkpt lat="45.6404185" lon="9.4181865"><ele>229.0</ele><time>2026-05-02T13:58:53.844Z</time></trkpt><trkpt lat="45.6403502" lon="9.4181951"><ele>229.0</ele><time>2026-05-02T13:58:54.843Z</time></trkpt><trkpt lat="45.6402869" lon="9.4181999"><ele>229.0</ele><time>2026-05-02T13:58:55.844Z</time></trkpt><trkpt lat="45.6402205" lon="9.4182043"><ele>229.0</ele><time>2026-05-02T13:58:56.843Z</time></trkpt><trkpt lat="45.640158" lon="9.4182183"><ele>229.0</ele><time>2026-05-02T13:58:57.844Z</time></trkpt><trkpt lat="45.6400853" lon="9.4182191"><ele>229.0</ele><time>2026-05-02T13:58:58.844Z</time></trkpt><trkpt lat="45.6400103" lon="9.4182115"><ele>229.0</ele><time>2026-05-02T13:58:59.844Z</time></trkpt><trkpt lat="45.6399214" lon="9.4182061"><ele>228.99999999999997</ele><time>2026-05-02T13:59:00.843Z</time></trkpt><trkpt lat="45.6398491" lon="9.4181886"><ele>229.0</ele><time>2026-05-02T13:59:01.843Z</time></trkpt><trkpt lat="45.6397742" lon="9.4181706"><ele>229.0</ele><time>2026-05-02T13:59:02.843Z</time></trkpt><trkpt lat="45.639694" lon="9.4181521"><ele>229.0</ele><time>2026-05-02T13:59:03.843Z</time></trkpt><trkpt lat="45.639606" lon="9.4181316"><ele>228.99999999999997</ele><time>2026-05-02T13:59:04.843Z</time></trkpt><trkpt lat="45.6395379" lon="9.4181182"><ele>229.0</ele><time>2026-05-02T13:59:05.843Z</time></trkpt><trkpt lat="45.6394449" lon="9.4181028"><ele>228.66666666666666</ele><time>2026-05-02T13:59:06.844Z</time></trkpt><trkpt lat="45.6393682" lon="9.4180842"><ele>228.33333333333331</ele><time>2026-05-02T13:59:07.844Z</time></trkpt><trkpt lat="45.6392926" lon="9.4180787"><ele>228.0</ele><time>2026-05-02T13:59:08.844Z</time></trkpt><trkpt lat="45.6392162" lon="9.4180698"><ele>227.66666666666669</ele><time>2026-05-02T13:59:09.843Z</time></trkpt><trkpt lat="45.6391395" lon="9.4180479"><ele>227.33333333333334</ele><time>2026-05-02T13:59:10.843Z</time></trkpt><trkpt lat="45.6390703" lon="9.418033"><ele>227.0</ele><time>2026-05-02T13:59:11.844Z</time></trkpt><trkpt lat="45.638997" lon="9.418015"><ele>227.00000000000003</ele><time>2026-05-02T13:59:12.844Z</time></trkpt><trkpt lat="45.6389241" lon="9.4180123"><ele>227.0</ele><time>2026-05-02T13:59:13.843Z</time></trkpt><trkpt lat="45.638859" lon="9.4180011"><ele>227.0</ele><time>2026-05-02T13:59:14.843Z</time></trkpt><trkpt lat="45.638737" lon="9.4179915"><ele>227.0</ele><time>2026-05-02T13:59:16.843Z</time></trkpt><trkpt lat="45.638673" lon="9.4179629"><ele>227.00000000000003</ele><time>2026-05-02T13:59:17.844Z</time></trkpt><trkpt lat="45.6385761" lon="9.4179305"><ele>227.0</ele><time>2026-05-02T13:59:19.843Z</time></trkpt><trkpt lat="45.6385033" lon="9.4179422"><ele>226.0</ele><time>2026-05-02T13:59:20.844Z</time></trkpt><trkpt lat="45.6384353" lon="9.4180037"><ele>225.0</ele><time>2026-05-02T13:59:22.843Z</time></trkpt><trkpt lat="45.6383225" lon="9.4180414"><ele>224.0</ele><time>2026-05-02T13:59:24.843Z</time></trkpt><trkpt lat="45.6382046" lon="9.4180927"><ele>223.0</ele><time>2026-05-02T13:59:26.843Z</time></trkpt><trkpt lat="45.6380741" lon="9.4180952"><ele>222.99999999999997</ele><time>2026-05-02T13:59:28.844Z</time></trkpt><trkpt lat="45.6380068" lon="9.4180891"><ele>223.0</ele><time>2026-05-02T13:59:29.843Z</time></trkpt><trkpt lat="45.6379421" lon="9.4180724"><ele>223.0</ele><time>2026-05-02T13:59:30.843Z</time></trkpt><trkpt lat="45.6378804" lon="9.4180533"><ele>223.0</ele><time>2026-05-02T13:59:31.843Z</time></trkpt><trkpt lat="45.6378043" lon="9.4180352"><ele>222.99999999999997</ele><time>2026-05-02T13:59:32.843Z</time></trkpt><trkpt lat="45.6377387" lon="9.4180136"><ele>223.0</ele><time>2026-05-02T13:59:33.844Z</time></trkpt><trkpt lat="45.637619" lon="9.4179613"><ele>223.2</ele><time>2026-05-02T13:59:35.844Z</time></trkpt><trkpt lat="45.6375565" lon="9.4179397"><ele>223.4</ele><time>2026-05-02T13:59:36.844Z</time></trkpt><trkpt lat="45.6374958" lon="9.4179134"><ele>223.59999999999997</ele><time>2026-05-02T13:59:37.844Z</time></trkpt><trkpt lat="45.6373657" lon="9.4178345"><ele>223.79999999999998</ele><time>2026-05-02T13:59:39.844Z</time></trkpt><trkpt lat="45.6372693" lon="9.4177703"><ele>224.0</ele><time>2026-05-02T13:59:41.844Z</time></trkpt><trkpt lat="45.6371745" lon="9.4178284"><ele>224.0</ele><time>2026-05-02T13:59:43.844Z</time></trkpt><trkpt lat="45.6370803" lon="9.4178526"><ele>223.99999999999997</ele><time>2026-05-02T13:59:45.844Z</time></trkpt><trkpt lat="45.6370176" lon="9.417829"><ele>223.99999999999997</ele><time>2026-05-02T13:59:47.843Z</time></trkpt><trkpt lat="45.6369201" lon="9.4178118"><ele>224.0</ele><time>2026-05-02T13:59:49.843Z</time></trkpt><trkpt lat="45.636819" lon="9.4177701"><ele>224.0</ele><time>2026-05-02T13:59:51.844Z</time></trkpt><trkpt lat="45.6367102" lon="9.4177004"><ele>223.79999999999998</ele><time>2026-05-02T13:59:53.844Z</time></trkpt><trkpt lat="45.6366092" lon="9.417648"><ele>223.59999999999997</ele><time>2026-05-02T13:59:55.843Z</time></trkpt><trkpt lat="45.6364892" lon="9.4175824"><ele>223.4</ele><time>2026-05-02T13:59:57.843Z</time></trkpt><trkpt lat="45.636381" lon="9.4175444"><ele>223.2</ele><time>2026-05-02T13:59:59.843Z</time></trkpt><trkpt lat="45.6362936" lon="9.4175671"><ele>223.0</ele><time>2026-05-02T14:00:01.844Z</time></trkpt><trkpt lat="45.636245" lon="9.4176661"><ele>223.0</ele><time>2026-05-02T14:00:03.843Z</time></trkpt><trkpt lat="45.6361901" lon="9.4177873"><ele>223.0</ele><time>2026-05-02T14:00:05.844Z</time></trkpt><trkpt lat="45.6361435" lon="9.4179156"><ele>223.0</ele><time>2026-05-02T14:00:07.844Z</time></trkpt><trkpt lat="45.6360936" lon="9.418059"><ele>223.0</ele><time>2026-05-02T14:00:09.844Z</time></trkpt><trkpt lat="45.6360293" lon="9.4181974"><ele>223.0</ele><time>2026-05-02T14:00:11.843Z</time></trkpt><trkpt lat="45.6359914" lon="9.4182713"><ele>223.33333333333331</ele><time>2026-05-02T14:00:12.844Z</time></trkpt><trkpt lat="45.6359573" lon="9.4183502"><ele>223.66666666666666</ele><time>2026-05-02T14:00:13.844Z</time></trkpt><trkpt lat="45.6359195" lon="9.418435"><ele>224.0</ele><time>2026-05-02T14:00:14.843Z</time></trkpt><trkpt lat="45.6358643" lon="9.418562"><ele>224.33333333333331</ele><time>2026-05-02T14:00:16.844Z</time></trkpt><trkpt lat="45.6357897" lon="9.4186411"><ele>224.66666666666666</ele><time>2026-05-02T14:00:18.844Z</time></trkpt><trkpt lat="45.6357541" lon="9.4187281"><ele>225.0</ele><time>2026-05-02T14:00:20.844Z</time></trkpt><trkpt lat="45.635731" lon="9.418835"><ele>225.33333333333334</ele><time>2026-05-02T14:00:23.844Z</time></trkpt><trkpt lat="45.6357091" lon="9.4189244"><ele>225.66666666666669</ele><time>2026-05-02T14:00:26.844Z</time></trkpt><trkpt lat="45.6357102" lon="9.4190237"><ele>226.0</ele><time>2026-05-02T14:00:36.844Z</time></trkpt><trkpt lat="45.6357166" lon="9.4191208"><ele>226.33333333333334</ele><time>2026-05-02T14:00:40.843Z</time></trkpt><trkpt lat="45.6356883" lon="9.4192375"><ele>226.66666666666669</ele><time>2026-05-02T14:00:43.843Z</time></trkpt><trkpt lat="45.6356406" lon="9.4193592"><ele>227.0</ele><time>2026-05-02T14:00:46.844Z</time></trkpt><trkpt lat="45.6355924" lon="9.4194407"><ele>227.0</ele><time>2026-05-02T14:00:49.844Z</time></trkpt><trkpt lat="45.6355082" lon="9.4194192"><ele>227.0</ele><time>2026-05-02T14:00:51.844Z</time></trkpt><trkpt lat="45.6353725" lon="9.4193718"><ele>227.0</ele><time>2026-05-02T14:00:53.844Z</time></trkpt><trkpt lat="45.6352793" lon="9.4193033"><ele>227.0</ele><time>2026-05-02T14:00:55.844Z</time></trkpt><trkpt lat="45.635205" lon="9.4192753"><ele>227.0</ele><time>2026-05-02T14:00:56.844Z</time></trkpt><trkpt lat="45.6351098" lon="9.4192072"><ele>227.39999999999998</ele><time>2026-05-02T14:00:58.844Z</time></trkpt><trkpt lat="45.6349973" lon="9.4191403"><ele>227.79999999999998</ele><time>2026-05-02T14:01:00.844Z</time></trkpt><trkpt lat="45.6349385" lon="9.4191066"><ele>228.2</ele><time>2026-05-02T14:01:01.844Z</time></trkpt><trkpt lat="45.6348281" lon="9.41905"><ele>228.6</ele><time>2026-05-02T14:01:03.844Z</time></trkpt><trkpt lat="45.6347036" lon="9.418994"><ele>229.0</ele><time>2026-05-02T14:01:05.843Z</time></trkpt><trkpt lat="45.634589" lon="9.4189371"><ele>229.0</ele><time>2026-05-02T14:01:07.843Z</time></trkpt><trkpt lat="45.6345259" lon="9.4189031"><ele>228.99999999999997</ele><time>2026-05-02T14:01:08.843Z</time></trkpt><trkpt lat="45.6344022" lon="9.4188472"><ele>228.99999999999997</ele><time>2026-05-02T14:01:10.844Z</time></trkpt><trkpt lat="45.6342843" lon="9.4188064"><ele>229.0</ele><time>2026-05-02T14:01:12.843Z</time></trkpt><trkpt lat="45.6342152" lon="9.4187749"><ele>229.0</ele><time>2026-05-02T14:01:13.843Z</time></trkpt><trkpt lat="45.6340904" lon="9.4187276"><ele>228.16666666666666</ele><time>2026-05-02T14:01:15.843Z</time></trkpt><trkpt lat="45.6340258" lon="9.4187229"><ele>227.33333333333331</ele><time>2026-05-02T14:01:16.844Z</time></trkpt><trkpt lat="45.6339654" lon="9.4186965"><ele>226.5</ele><time>2026-05-02T14:01:17.843Z</time></trkpt><trkpt lat="45.6338514" lon="9.4186837"><ele>225.66666666666669</ele><time>2026-05-02T14:01:19.843Z</time></trkpt><trkpt lat="45.6337863" lon="9.4186618"><ele>224.83333333333334</ele><time>2026-05-02T14:01:20.844Z</time></trkpt><trkpt lat="45.6336637" lon="9.4186309"><ele>224.0</ele><time>2026-05-02T14:01:22.843Z</time></trkpt><trkpt lat="45.6336016" lon="9.4186084"><ele>223.79999999999998</ele><time>2026-05-02T14:01:23.843Z</time></trkpt><trkpt lat="45.6334855" lon="9.4185644"><ele>223.59999999999997</ele><time>2026-05-02T14:01:25.844Z</time></trkpt><trkpt lat="45.6334243" lon="9.4185419"><ele>223.4</ele><time>2026-05-02T14:01:26.843Z</time></trkpt><trkpt lat="45.6333048" lon="9.418517"><ele>223.2</ele><time>2026-05-02T14:01:28.843Z</time></trkpt><trkpt lat="45.6331792" lon="9.4185128"><ele>223.0</ele><time>2026-05-02T14:01:30.843Z</time></trkpt><trkpt lat="45.6331079" lon="9.418507"><ele>223.0</ele><time>2026-05-02T14:01:31.844Z</time></trkpt><trkpt lat="45.6330408" lon="9.4185071"><ele>223.0</ele><time>2026-05-02T14:01:32.844Z</time></trkpt><trkpt lat="45.632915" lon="9.4184783"><ele>223.0</ele><time>2026-05-02T14:01:34.843Z</time></trkpt><trkpt lat="45.6327948" lon="9.4184412"><ele>223.0</ele><time>2026-05-02T14:01:36.843Z</time></trkpt><trkpt lat="45.6327185" lon="9.4184238"><ele>223.0</ele><time>2026-05-02T14:01:37.843Z</time></trkpt><trkpt lat="45.6325987" lon="9.4183877"><ele>223.2</ele><time>2026-05-02T14:01:39.844Z</time></trkpt><trkpt lat="45.6325178" lon="9.418369"><ele>223.4</ele><time>2026-05-02T14:01:40.843Z</time></trkpt><trkpt lat="45.6324431" lon="9.4183698"><ele>223.59999999999997</ele><time>2026-05-02T14:01:41.843Z</time></trkpt><trkpt lat="45.6323069" lon="9.4183234"><ele>223.79999999999998</ele><time>2026-05-02T14:01:43.843Z</time></trkpt><trkpt lat="45.6322314" lon="9.4183079"><ele>224.0</ele><time>2026-05-02T14:01:44.844Z</time></trkpt><trkpt lat="45.6321485" lon="9.4183031"><ele>224.00000000000003</ele><time>2026-05-02T14:01:45.843Z</time></trkpt><trkpt lat="45.6320765" lon="9.4182867"><ele>224.0</ele><time>2026-05-02T14:01:46.843Z</time></trkpt><trkpt lat="45.6319914" lon="9.4182687"><ele>224.0</ele><time>2026-05-02T14:01:47.843Z</time></trkpt><trkpt lat="45.6319094" lon="9.4182566"><ele>224.0</ele><time>2026-05-02T14:01:48.844Z</time></trkpt><trkpt lat="45.6318343" lon="9.4182357"><ele>224.00000000000003</ele><time>2026-05-02T14:01:49.843Z</time></trkpt><trkpt lat="45.6317665" lon="9.4182139"><ele>224.0</ele><time>2026-05-02T14:01:50.843Z</time></trkpt><trkpt lat="45.6316845" lon="9.418193"><ele>223.85714285714286</ele><time>2026-05-02T14:01:51.843Z</time></trkpt><trkpt lat="45.631607" lon="9.4181807"><ele>223.71428571428572</ele><time>2026-05-02T14:01:52.843Z</time></trkpt><trkpt lat="45.6315362" lon="9.4181646"><ele>223.57142857142856</ele><time>2026-05-02T14:01:53.843Z</time></trkpt><trkpt lat="45.6314705" lon="9.4181611"><ele>223.42857142857144</ele><time>2026-05-02T14:01:54.843Z</time></trkpt><trkpt lat="45.6314031" lon="9.4181547"><ele>223.28571428571428</ele><time>2026-05-02T14:01:55.844Z</time></trkpt><trkpt lat="45.6313263" lon="9.4181438"><ele>223.14285714285714</ele><time>2026-05-02T14:01:56.843Z</time></trkpt><trkpt lat="45.6312584" lon="9.4181393"><ele>223.0</ele><time>2026-05-02T14:01:57.844Z</time></trkpt><trkpt lat="45.6311893" lon="9.4181351"><ele>223.33333333333331</ele><time>2026-05-02T14:01:58.843Z</time></trkpt><trkpt lat="45.6311177" lon="9.4181191"><ele>223.66666666666666</ele><time>2026-05-02T14:01:59.844Z</time></trkpt><trkpt lat="45.63104" lon="9.4181011"><ele>224.0</ele><time>2026-05-02T14:02:00.844Z</time></trkpt><trkpt lat="45.6309676" lon="9.4180808"><ele>224.33333333333331</ele><time>2026-05-02T14:02:01.843Z</time></trkpt><trkpt lat="45.6308823" lon="9.4180566"><ele>224.66666666666666</ele><time>2026-05-02T14:02:02.843Z</time></trkpt><trkpt lat="45.6308121" lon="9.4180645"><ele>225.0</ele><time>2026-05-02T14:02:03.843Z</time></trkpt><trkpt lat="45.6307358" lon="9.4180773"><ele>225.0</ele><time>2026-05-02T14:02:04.843Z</time></trkpt><trkpt lat="45.6306097" lon="9.4180888"><ele>225.0</ele><time>2026-05-02T14:02:06.844Z</time></trkpt><trkpt lat="45.6304829" lon="9.4180941"><ele>225.0</ele><time>2026-05-02T14:02:08.843Z</time></trkpt><trkpt lat="45.6304081" lon="9.4180994"><ele>225.0</ele><time>2026-05-02T14:02:09.844Z</time></trkpt><trkpt lat="45.6303366" lon="9.41812"><ele>225.0</ele><time>2026-05-02T14:02:10.843Z</time></trkpt><trkpt lat="45.6302423" lon="9.4181564"><ele>224.33333333333334</ele><time>2026-05-02T14:02:12.843Z</time></trkpt><trkpt lat="45.6301231" lon="9.4182031"><ele>223.66666666666669</ele><time>2026-05-02T14:02:14.844Z</time></trkpt><trkpt lat="45.6300479" lon="9.4181925"><ele>223.0</ele><time>2026-05-02T14:02:15.843Z</time></trkpt><trkpt lat="45.629965" lon="9.418184"><ele>222.33333333333334</ele><time>2026-05-02T14:02:16.843Z</time></trkpt><trkpt lat="45.6298973" lon="9.4181592"><ele>221.66666666666669</ele><time>2026-05-02T14:02:17.844Z</time></trkpt><trkpt lat="45.6298325" lon="9.4181463"><ele>221.0</ele><time>2026-05-02T14:02:18.844Z</time></trkpt><trkpt lat="45.6297638" lon="9.4181752"><ele>221.00000000000003</ele><time>2026-05-02T14:02:19.844Z</time></trkpt><trkpt lat="45.62964" lon="9.4182005"><ele>221.0</ele><time>2026-05-02T14:02:21.844Z</time></trkpt><trkpt lat="45.6295699" lon="9.418221"><ele>221.0</ele><time>2026-05-02T14:02:22.844Z</time></trkpt><trkpt lat="45.6295028" lon="9.41824"><ele>221.0</ele><time>2026-05-02T14:02:23.844Z</time></trkpt><trkpt lat="45.6294393" lon="9.4182605"><ele>221.00000000000003</ele><time>2026-05-02T14:02:24.843Z</time></trkpt><trkpt lat="45.6293619" lon="9.4182714"><ele>221.0</ele><time>2026-05-02T14:02:25.844Z</time></trkpt><trkpt lat="45.6292878" lon="9.418287"><ele>220.66666666666669</ele><time>2026-05-02T14:02:26.843Z</time></trkpt><trkpt lat="45.6291961" lon="9.4182982"><ele>220.33333333333334</ele><time>2026-05-02T14:02:27.843Z</time></trkpt><trkpt lat="45.629122" lon="9.4183068"><ele>220.0</ele><time>2026-05-02T14:02:28.843Z</time></trkpt><trkpt lat="45.6290543" lon="9.4183145"><ele>219.66666666666669</ele><time>2026-05-02T14:02:29.844Z</time></trkpt><trkpt lat="45.628978" lon="9.4183288"><ele>219.33333333333334</ele><time>2026-05-02T14:02:30.843Z</time></trkpt><trkpt lat="45.6288924" lon="9.4183325"><ele>219.0</ele><time>2026-05-02T14:02:31.843Z</time></trkpt><trkpt lat="45.6288059" lon="9.4183486"><ele>219.0</ele><time>2026-05-02T14:02:32.844Z</time></trkpt><trkpt lat="45.628724" lon="9.4183543"><ele>219.0</ele><time>2026-05-02T14:02:33.843Z</time></trkpt><trkpt lat="45.6286451" lon="9.4183599"><ele>219.0</ele><time>2026-05-02T14:02:34.843Z</time></trkpt><trkpt lat="45.628565" lon="9.4183684"><ele>219.0</ele><time>2026-05-02T14:02:35.844Z</time></trkpt><trkpt lat="45.6284946" lon="9.4183675"><ele>219.0</ele><time>2026-05-02T14:02:36.844Z</time></trkpt><trkpt lat="45.6284159" lon="9.4183733"><ele>219.0</ele><time>2026-05-02T14:02:37.844Z</time></trkpt><trkpt lat="45.6283307" lon="9.4183681"><ele>218.33333333333334</ele><time>2026-05-02T14:02:38.844Z</time></trkpt><trkpt lat="45.6282573" lon="9.4183588"><ele>217.66666666666669</ele><time>2026-05-02T14:02:39.844Z</time></trkpt><trkpt lat="45.6281777" lon="9.4183469"><ele>217.0</ele><time>2026-05-02T14:02:40.844Z</time></trkpt><trkpt lat="45.6280902" lon="9.4183391"><ele>216.33333333333334</ele><time>2026-05-02T14:02:41.844Z</time></trkpt><trkpt lat="45.6280018" lon="9.4183358"><ele>215.66666666666669</ele><time>2026-05-02T14:02:42.843Z</time></trkpt><trkpt lat="45.6279278" lon="9.4183367"><ele>215.0</ele><time>2026-05-02T14:02:43.843Z</time></trkpt><trkpt lat="45.6278574" lon="9.4183336"><ele>215.0</ele><time>2026-05-02T14:02:44.843Z</time></trkpt><trkpt lat="45.6277901" lon="9.4183252"><ele>215.0</ele><time>2026-05-02T14:02:45.843Z</time></trkpt><trkpt lat="45.6277164" lon="9.418332"><ele>215.0</ele><time>2026-05-02T14:02:46.843Z</time></trkpt><trkpt lat="45.6276373" lon="9.418323"><ele>215.0</ele><time>2026-05-02T14:02:47.843Z</time></trkpt><trkpt lat="45.6275683" lon="9.4183106"><ele>215.0</ele><time>2026-05-02T14:02:48.843Z</time></trkpt><trkpt lat="45.6274892" lon="9.4183037"><ele>215.0</ele><time>2026-05-02T14:02:49.843Z</time></trkpt><trkpt lat="45.6274232" lon="9.4182935"><ele>215.0</ele><time>2026-05-02T14:02:50.844Z</time></trkpt><trkpt lat="45.6273369" lon="9.4183"><ele>215.00000000000003</ele><time>2026-05-02T14:02:51.843Z</time></trkpt><trkpt lat="45.6272653" lon="9.4182946"><ele>215.0</ele><time>2026-05-02T14:02:52.843Z</time></trkpt><trkpt lat="45.627168" lon="9.4182913"><ele>215.0</ele><time>2026-05-02T14:02:53.844Z</time></trkpt><trkpt lat="45.6270908" lon="9.4182938"><ele>215.0</ele><time>2026-05-02T14:02:54.844Z</time></trkpt><trkpt lat="45.6270075" lon="9.4182902"><ele>215.00000000000003</ele><time>2026-05-02T14:02:55.843Z</time></trkpt><trkpt lat="45.6269334" lon="9.4182927"><ele>215.0</ele><time>2026-05-02T14:02:56.844Z</time></trkpt><trkpt lat="45.6268597" lon="9.418298"><ele>215.16666666666669</ele><time>2026-05-02T14:02:57.843Z</time></trkpt><trkpt lat="45.6267856" lon="9.4182941"><ele>215.33333333333334</ele><time>2026-05-02T14:02:58.844Z</time></trkpt><trkpt lat="45.6267069" lon="9.4182867"><ele>215.5</ele><time>2026-05-02T14:02:59.843Z</time></trkpt><trkpt lat="45.6266255" lon="9.4182811"><ele>215.66666666666669</ele><time>2026-05-02T14:03:00.843Z</time></trkpt><trkpt lat="45.6265476" lon="9.4182709"><ele>215.83333333333334</ele><time>2026-05-02T14:03:01.844Z</time></trkpt><trkpt lat="45.6264478" lon="9.4182615"><ele>216.0</ele><time>2026-05-02T14:03:02.844Z</time></trkpt><trkpt lat="45.626367" lon="9.4182507"><ele>216.0</ele><time>2026-05-02T14:03:03.843Z</time></trkpt><trkpt lat="45.6262821" lon="9.4182405"><ele>216.0</ele><time>2026-05-02T14:03:04.843Z</time></trkpt><trkpt lat="45.6262034" lon="9.4182166"><ele>216.0</ele><time>2026-05-02T14:03:05.844Z</time></trkpt><trkpt lat="45.6261277" lon="9.4182008"><ele>216.0</ele><time>2026-05-02T14:03:06.843Z</time></trkpt><trkpt lat="45.6260464" lon="9.4181881"><ele>216.0</ele><time>2026-05-02T14:03:07.844Z</time></trkpt><trkpt lat="45.6259724" lon="9.4181802"><ele>216.0</ele><time>2026-05-02T14:03:08.843Z</time></trkpt><trkpt lat="45.6258936" lon="9.4181753"><ele>215.71428571428572</ele><time>2026-05-02T14:03:09.844Z</time></trkpt><trkpt lat="45.6258248" lon="9.4181625"><ele>215.42857142857142</ele><time>2026-05-02T14:03:10.843Z</time></trkpt><trkpt lat="45.6257491" lon="9.418158"><ele>215.14285714285717</ele><time>2026-05-02T14:03:11.844Z</time></trkpt><trkpt lat="45.6256715" lon="9.4181492"><ele>214.85714285714286</ele><time>2026-05-02T14:03:12.843Z</time></trkpt><trkpt lat="45.6255965" lon="9.4181469"><ele>214.57142857142858</ele><time>2026-05-02T14:03:13.843Z</time></trkpt><trkpt lat="45.6255258" lon="9.4181476"><ele>214.2857142857143</ele><time>2026-05-02T14:03:14.843Z</time></trkpt><trkpt lat="45.6254622" lon="9.4181466"><ele>214.0</ele><time>2026-05-02T14:03:15.844Z</time></trkpt><trkpt lat="45.6253982" lon="9.4181449"><ele>213.83333333333331</ele><time>2026-05-02T14:03:16.844Z</time></trkpt><trkpt lat="45.6252798" lon="9.4181123"><ele>213.66666666666666</ele><time>2026-05-02T14:03:18.844Z</time></trkpt><trkpt lat="45.6252297" lon="9.4180511"><ele>213.5</ele><time>2026-05-02T14:03:19.844Z</time></trkpt><trkpt lat="45.6251824" lon="9.4179883"><ele>213.33333333333331</ele><time>2026-05-02T14:03:20.844Z</time></trkpt><trkpt lat="45.6251309" lon="9.4179195"><ele>213.16666666666666</ele><time>2026-05-02T14:03:21.843Z</time></trkpt><trkpt lat="45.6250605" lon="9.4178018"><ele>213.0</ele><time>2026-05-02T14:03:23.843Z</time></trkpt><trkpt lat="45.6249883" lon="9.4177586"><ele>213.0</ele><time>2026-05-02T14:03:26.844Z</time></trkpt><trkpt lat="45.6249052" lon="9.4177662"><ele>213.0</ele><time>2026-05-02T14:03:28.843Z</time></trkpt><trkpt lat="45.6248221" lon="9.4178385"><ele>213.0</ele><time>2026-05-02T14:03:30.844Z</time></trkpt><trkpt lat="45.6247466" lon="9.4179434"><ele>213.0</ele><time>2026-05-02T14:03:32.844Z</time></trkpt><trkpt lat="45.6246585" lon="9.4180092"><ele>213.0</ele><time>2026-05-02T14:03:34.844Z</time></trkpt><trkpt lat="45.6245431" lon="9.4179977"><ele>213.60000000000002</ele><time>2026-05-02T14:03:36.843Z</time></trkpt><trkpt lat="45.6244384" lon="9.4179751"><ele>214.20000000000002</ele><time>2026-05-02T14:03:38.844Z</time></trkpt><trkpt lat="45.624337" lon="9.4179619"><ele>214.8</ele><time>2026-05-02T14:03:40.843Z</time></trkpt><trkpt lat="45.6242206" lon="9.4179369"><ele>215.4</ele><time>2026-05-02T14:03:42.844Z</time></trkpt><trkpt lat="45.6240982" lon="9.4179112"><ele>216.0</ele><time>2026-05-02T14:03:44.843Z</time></trkpt><trkpt lat="45.6240345" lon="9.417888"><ele>216.0</ele><time>2026-05-02T14:03:45.844Z</time></trkpt><trkpt lat="45.6239089" lon="9.417869"><ele>216.00000000000003</ele><time>2026-05-02T14:03:47.843Z</time></trkpt><trkpt lat="45.6237812" lon="9.4178529"><ele>216.00000000000003</ele><time>2026-05-02T14:03:49.843Z</time></trkpt><trkpt lat="45.6237143" lon="9.4178471"><ele>216.0</ele><time>2026-05-02T14:03:50.843Z</time></trkpt><trkpt lat="45.6236511" lon="9.4178268"><ele>216.0</ele><time>2026-05-02T14:03:51.844Z</time></trkpt><trkpt lat="45.6235871" lon="9.4178234"><ele>215.85714285714286</ele><time>2026-05-02T14:03:52.843Z</time></trkpt><trkpt lat="45.6235235" lon="9.4178041"><ele>215.71428571428572</ele><time>2026-05-02T14:03:53.844Z</time></trkpt><trkpt lat="45.6234535" lon="9.4177964"><ele>215.57142857142856</ele><time>2026-05-02T14:03:54.844Z</time></trkpt><trkpt lat="45.6233882" lon="9.4177933"><ele>215.42857142857144</ele><time>2026-05-02T14:03:55.844Z</time></trkpt><trkpt lat="45.6233226" lon="9.4177841"><ele>215.2857142857143</ele><time>2026-05-02T14:03:56.844Z</time></trkpt><trkpt lat="45.6232104" lon="9.4177867"><ele>215.14285714285714</ele><time>2026-05-02T14:03:58.843Z</time></trkpt><trkpt lat="45.6231442" lon="9.4177721"><ele>215.0</ele><time>2026-05-02T14:03:59.844Z</time></trkpt><trkpt lat="45.62308" lon="9.4177608"><ele>215.00000000000003</ele><time>2026-05-02T14:04:00.844Z</time></trkpt><trkpt lat="45.6230115" lon="9.417746"><ele>215.0</ele><time>2026-05-02T14:04:01.844Z</time></trkpt><trkpt lat="45.622934" lon="9.4177366"><ele>215.0</ele><time>2026-05-02T14:04:02.844Z</time></trkpt><trkpt lat="45.6228044" lon="9.4177079"><ele>215.0</ele><time>2026-05-02T14:04:04.843Z</time></trkpt><trkpt lat="45.6227308" lon="9.4176921"><ele>215.00000000000003</ele><time>2026-05-02T14:04:05.843Z</time></trkpt><trkpt lat="45.6226668" lon="9.4176771"><ele>215.0</ele><time>2026-05-02T14:04:06.844Z</time></trkpt><trkpt lat="45.6226036" lon="9.4176747"><ele>214.6</ele><time>2026-05-02T14:04:07.844Z</time></trkpt><trkpt lat="45.622538" lon="9.4176657"><ele>214.2</ele><time>2026-05-02T14:04:08.843Z</time></trkpt><trkpt lat="45.6224703" lon="9.4176785"><ele>213.8</ele><time>2026-05-02T14:04:09.843Z</time></trkpt><trkpt lat="45.6223638" lon="9.4177278"><ele>213.4</ele><time>2026-05-02T14:04:11.843Z</time></trkpt><trkpt lat="45.6222936" lon="9.41785"><ele>213.0</ele><time>2026-05-02T14:04:13.843Z</time></trkpt><trkpt lat="45.6222207" lon="9.4179451"><ele>213.0</ele><time>2026-05-02T14:04:15.844Z</time></trkpt><trkpt lat="45.622156" lon="9.4180017"><ele>213.0</ele><time>2026-05-02T14:04:17.843Z</time></trkpt><trkpt lat="45.6220463" lon="9.4180442"><ele>213.0</ele><time>2026-05-02T14:04:19.843Z</time></trkpt><trkpt lat="45.6219523" lon="9.4180534"><ele>213.0</ele><time>2026-05-02T14:04:20.843Z</time></trkpt><trkpt lat="45.621885" lon="9.4180755"><ele>213.0</ele><time>2026-05-02T14:04:21.843Z</time></trkpt><trkpt lat="45.621789" lon="9.4180864"><ele>213.0</ele><time>2026-05-02T14:04:23.843Z</time></trkpt><trkpt lat="45.6217235" lon="9.4180875"><ele>213.0</ele><time>2026-05-02T14:04:24.843Z</time></trkpt><trkpt lat="45.621609" lon="9.4181504"><ele>213.0</ele><time>2026-05-02T14:04:26.844Z</time></trkpt><trkpt lat="45.6215306" lon="9.4181151"><ele>213.0</ele><time>2026-05-02T14:04:27.844Z</time></trkpt><trkpt lat="45.6214434" lon="9.4181099"><ele>213.0</ele><time>2026-05-02T14:04:28.844Z</time></trkpt><trkpt lat="45.6213671" lon="9.4181361"><ele>213.0</ele><time>2026-05-02T14:04:29.843Z</time></trkpt><trkpt lat="45.6212916" lon="9.4181556"><ele>213.0</ele><time>2026-05-02T14:04:30.843Z</time></trkpt><trkpt lat="45.6212188" lon="9.4181919"><ele>212.8</ele><time>2026-05-02T14:04:31.843Z</time></trkpt><trkpt lat="45.6211478" lon="9.4182112"><ele>212.60000000000002</ele><time>2026-05-02T14:04:32.843Z</time></trkpt><trkpt lat="45.6210292" lon="9.4182756"><ele>212.39999999999998</ele><time>2026-05-02T14:04:34.844Z</time></trkpt><trkpt lat="45.6209086" lon="9.418306"><ele>212.2</ele><time>2026-05-02T14:04:36.844Z</time></trkpt><trkpt lat="45.6208371" lon="9.4183241"><ele>212.0</ele><time>2026-05-02T14:04:37.844Z</time></trkpt><trkpt lat="45.6207734" lon="9.4183473"><ele>212.0</ele><time>2026-05-02T14:04:38.843Z</time></trkpt><trkpt lat="45.6207075" lon="9.4183498"><ele>212.0</ele><time>2026-05-02T14:04:39.844Z</time></trkpt><trkpt lat="45.6206461" lon="9.4184412"><ele>212.0</ele><time>2026-05-02T14:04:41.844Z</time></trkpt><trkpt lat="45.6205855" lon="9.418531"><ele>212.0</ele><time>2026-05-02T14:04:42.844Z</time></trkpt><trkpt lat="45.6206324" lon="9.418684"><ele>212.0</ele><time>2026-05-02T14:04:44.843Z</time></trkpt><trkpt lat="45.6206451" lon="9.4188396"><ele>211.6</ele><time>2026-05-02T14:04:46.844Z</time></trkpt><trkpt lat="45.6206564" lon="9.4190061"><ele>211.2</ele><time>2026-05-02T14:04:48.844Z</time></trkpt><trkpt lat="45.6206736" lon="9.4191805"><ele>210.8</ele><time>2026-05-02T14:04:50.844Z</time></trkpt><trkpt lat="45.6206877" lon="9.4193324"><ele>210.4</ele><time>2026-05-02T14:04:52.843Z</time></trkpt><trkpt lat="45.6206998" lon="9.4194749"><ele>210.0</ele><time>2026-05-02T14:04:54.844Z</time></trkpt><trkpt lat="45.6207041" lon="9.4196204"><ele>210.0</ele><time>2026-05-02T14:04:56.843Z</time></trkpt><trkpt lat="45.6207111" lon="9.4197245"><ele>210.0</ele><time>2026-05-02T14:04:58.843Z</time></trkpt><trkpt lat="45.6206332" lon="9.4197623"><ele>210.0</ele><time>2026-05-02T14:05:00.844Z</time></trkpt><trkpt lat="45.6205562" lon="9.4197543"><ele>210.0</ele><time>2026-05-02T14:05:01.844Z</time></trkpt><trkpt lat="45.6204388" lon="9.4197624"><ele>210.0</ele><time>2026-05-02T14:05:03.843Z</time></trkpt><trkpt lat="45.6203746" lon="9.4197642"><ele>210.0</ele><time>2026-05-02T14:05:04.844Z</time></trkpt><trkpt lat="45.6203089" lon="9.4197717"><ele>209.6</ele><time>2026-05-02T14:05:05.844Z</time></trkpt><trkpt lat="45.6202361" lon="9.4197923"><ele>209.2</ele><time>2026-05-02T14:05:06.844Z</time></trkpt><trkpt lat="45.6201196" lon="9.4197987"><ele>208.8</ele><time>2026-05-02T14:05:08.844Z</time></trkpt><trkpt lat="45.6200005" lon="9.4198144"><ele>208.4</ele><time>2026-05-02T14:05:10.843Z</time></trkpt><trkpt lat="45.6198779" lon="9.4198077"><ele>208.0</ele><time>2026-05-02T14:05:12.843Z</time></trkpt><trkpt lat="45.6197495" lon="9.4198496"><ele>208.0</ele><time>2026-05-02T14:05:14.844Z</time></trkpt><trkpt lat="45.6197084" lon="9.4199656"><ele>208.0</ele><time>2026-05-02T14:05:16.844Z</time></trkpt><trkpt lat="45.6197023" lon="9.4201106"><ele>208.0</ele><time>2026-05-02T14:05:18.844Z</time></trkpt><trkpt lat="45.6196807" lon="9.4202621"><ele>208.0</ele><time>2026-05-02T14:05:20.844Z</time></trkpt><trkpt lat="45.6196701" lon="9.4204233"><ele>208.0</ele><time>2026-05-02T14:05:22.844Z</time></trkpt><trkpt lat="45.6196623" lon="9.4205848"><ele>208.16666666666666</ele><time>2026-05-02T14:05:24.844Z</time></trkpt><trkpt lat="45.6196524" lon="9.4207638"><ele>208.33333333333331</ele><time>2026-05-02T14:05:26.843Z</time></trkpt><trkpt lat="45.6196446" lon="9.4208548"><ele>208.5</ele><time>2026-05-02T14:05:27.844Z</time></trkpt><trkpt lat="45.6196341" lon="9.4209513"><ele>208.66666666666669</ele><time>2026-05-02T14:05:28.843Z</time></trkpt><trkpt lat="45.6196233" lon="9.4210414"><ele>208.83333333333334</ele><time>2026-05-02T14:05:29.843Z</time></trkpt><trkpt lat="45.6196217" lon="9.4212145"><ele>209.0</ele><time>2026-05-02T14:05:31.843Z</time></trkpt><trkpt lat="45.6196131" lon="9.4213856"><ele>209.16666666666669</ele><time>2026-05-02T14:05:33.844Z</time></trkpt><trkpt lat="45.6196047" lon="9.4214791"><ele>209.33333333333334</ele><time>2026-05-02T14:05:34.844Z</time></trkpt><trkpt lat="45.6195971" lon="9.4216529"><ele>209.5</ele><time>2026-05-02T14:05:36.843Z</time></trkpt><trkpt lat="45.6195907" lon="9.4217444"><ele>209.66666666666669</ele><time>2026-05-02T14:05:37.843Z</time></trkpt><trkpt lat="45.6195826" lon="9.4218445"><ele>209.83333333333334</ele><time>2026-05-02T14:05:38.843Z</time></trkpt><trkpt lat="45.6195731" lon="9.421944"><ele>210.0</ele><time>2026-05-02T14:05:39.844Z</time></trkpt><trkpt lat="45.6195695" lon="9.4220376"><ele>210.0</ele><time>2026-05-02T14:05:40.843Z</time></trkpt><trkpt lat="45.6195645" lon="9.4222174"><ele>210.0</ele><time>2026-05-02T14:05:42.844Z</time></trkpt><trkpt lat="45.6195577" lon="9.4223098"><ele>210.0</ele><time>2026-05-02T14:05:43.843Z</time></trkpt><trkpt lat="45.6195463" lon="9.4224837"><ele>210.0</ele><time>2026-05-02T14:05:45.843Z</time></trkpt><trkpt lat="45.6195435" lon="9.4226714"><ele>210.0</ele><time>2026-05-02T14:05:47.844Z</time></trkpt><trkpt lat="45.6195431" lon="9.4228213"><ele>210.0</ele><time>2026-05-02T14:05:49.843Z</time></trkpt><trkpt lat="45.6195363" lon="9.4229687"><ele>210.0</ele><time>2026-05-02T14:05:51.843Z</time></trkpt><trkpt lat="45.61953" lon="9.4230762"><ele>210.0</ele><time>2026-05-02T14:05:53.843Z</time></trkpt><trkpt lat="45.6194835" lon="9.4231444"><ele>210.0</ele><time>2026-05-02T14:05:55.843Z</time></trkpt><trkpt lat="45.619425" lon="9.4232239"><ele>210.0</ele><time>2026-05-02T14:05:58.843Z</time></trkpt><trkpt lat="45.6194654" lon="9.4233077"><ele>210.0</ele><time>2026-05-02T14:06:50.843Z</time></trkpt><trkpt lat="45.6195057" lon="9.4233957"><ele>210.0</ele><time>2026-05-02T14:06:52.844Z</time></trkpt><trkpt lat="45.61952" lon="9.4235362"><ele>210.0</ele><time>2026-05-02T14:06:54.844Z</time></trkpt><trkpt lat="45.6195317" lon="9.4236823"><ele>210.0</ele><time>2026-05-02T14:06:56.844Z</time></trkpt><trkpt lat="45.6195393" lon="9.4238351"><ele>210.0</ele><time>2026-05-02T14:06:58.844Z</time></trkpt><trkpt lat="45.6195439" lon="9.4239869"><ele>210.0</ele><time>2026-05-02T14:07:00.844Z</time></trkpt><trkpt lat="45.6195338" lon="9.4241362"><ele>209.75</ele><time>2026-05-02T14:07:02.844Z</time></trkpt><trkpt lat="45.6195217" lon="9.42429"><ele>209.5</ele><time>2026-05-02T14:07:04.844Z</time></trkpt><trkpt lat="45.6195059" lon="9.4244462"><ele>209.25</ele><time>2026-05-02T14:07:06.843Z</time></trkpt><trkpt lat="45.6194943" lon="9.4246094"><ele>209.0</ele><time>2026-05-02T14:07:08.843Z</time></trkpt><trkpt lat="45.6194795" lon="9.4247855"><ele>209.0</ele><time>2026-05-02T14:07:10.844Z</time></trkpt><trkpt lat="45.6194721" lon="9.4248768"><ele>209.0</ele><time>2026-05-02T14:07:11.843Z</time></trkpt><trkpt lat="45.6194721" lon="9.4250468"><ele>209.0</ele><time>2026-05-02T14:07:13.844Z</time></trkpt><trkpt lat="45.6194659" lon="9.425145"><ele>209.0</ele><time>2026-05-02T14:07:14.844Z</time></trkpt><trkpt lat="45.6194652" lon="9.4252393"><ele>209.0</ele><time>2026-05-02T14:07:15.843Z</time></trkpt><trkpt lat="45.619462" lon="9.4253304"><ele>209.0</ele><time>2026-05-02T14:07:16.843Z</time></trkpt><trkpt lat="45.6194557" lon="9.425425"><ele>209.0</ele><time>2026-05-02T14:07:17.843Z</time></trkpt><trkpt lat="45.6194527" lon="9.4255962"><ele>209.0</ele><time>2026-05-02T14:07:19.844Z</time></trkpt><trkpt lat="45.6194401" lon="9.4257561"><ele>209.0</ele><time>2026-05-02T14:07:21.844Z</time></trkpt><trkpt lat="45.6194348" lon="9.4258474"><ele>209.0</ele><time>2026-05-02T14:07:22.844Z</time></trkpt><trkpt lat="45.6194364" lon="9.4260215"><ele>209.0</ele><time>2026-05-02T14:07:24.843Z</time></trkpt><trkpt lat="45.619437" lon="9.426117"><ele>209.0</ele><time>2026-05-02T14:07:25.843Z</time></trkpt><trkpt lat="45.6194476" lon="9.426294"><ele>209.0</ele><time>2026-05-02T14:07:27.843Z</time></trkpt><trkpt lat="45.6194527" lon="9.4264567"><ele>209.0</ele><time>2026-05-02T14:07:29.844Z</time></trkpt><trkpt lat="45.6194489" lon="9.4266063"><ele>209.0</ele><time>2026-05-02T14:07:31.843Z</time></trkpt><trkpt lat="45.6194426" lon="9.4267755"><ele>209.0</ele><time>2026-05-02T14:07:33.844Z</time></trkpt><trkpt lat="45.6194397" lon="9.4268739"><ele>209.0</ele><time>2026-05-02T14:07:34.843Z</time></trkpt><trkpt lat="45.6194747" lon="9.4270447"><ele>209.0</ele><time>2026-05-02T14:07:36.843Z</time></trkpt><trkpt lat="45.6194659" lon="9.4271339"><ele>209.0</ele><time>2026-05-02T14:07:37.843Z</time></trkpt><trkpt lat="45.6194466" lon="9.4272745"><ele>209.0</ele><time>2026-05-02T14:07:39.844Z</time></trkpt><trkpt lat="45.6194398" lon="9.4274122"><ele>209.0</ele><time>2026-05-02T14:07:41.844Z</time></trkpt><trkpt lat="45.6194549" lon="9.4275491"><ele>209.0</ele><time>2026-05-02T14:07:43.843Z</time></trkpt><trkpt lat="45.619509" lon="9.4276592"><ele>208.79999999999998</ele><time>2026-05-02T14:07:45.843Z</time></trkpt><trkpt lat="45.6195692" lon="9.4277456"><ele>208.6</ele><time>2026-05-02T14:07:47.843Z</time></trkpt><trkpt lat="45.6196346" lon="9.4278537"><ele>208.4</ele><time>2026-05-02T14:07:49.844Z</time></trkpt><trkpt lat="45.6196999" lon="9.4279627"><ele>208.2</ele><time>2026-05-02T14:07:51.844Z</time></trkpt><trkpt lat="45.6197478" lon="9.428071"><ele>208.0</ele><time>2026-05-02T14:07:53.843Z</time></trkpt><trkpt lat="45.6198026" lon="9.4281575"><ele>208.0</ele><time>2026-05-02T14:07:55.843Z</time></trkpt><trkpt lat="45.6198621" lon="9.42829"><ele>208.0</ele><time>2026-05-02T14:07:57.843Z</time></trkpt><trkpt lat="45.6198766" lon="9.4283945"><ele>208.0</ele><time>2026-05-02T14:07:58.843Z</time></trkpt><trkpt lat="45.6198963" lon="9.4284815"><ele>208.0</ele><time>2026-05-02T14:07:59.843Z</time></trkpt><trkpt lat="45.6199125" lon="9.4286271"><ele>208.0</ele><time>2026-05-02T14:08:01.843Z</time></trkpt><trkpt lat="45.61989" lon="9.4287849"><ele>208.0</ele><time>2026-05-02T14:08:03.844Z</time></trkpt><trkpt lat="45.61987" lon="9.4289508"><ele>208.0</ele><time>2026-05-02T14:08:05.844Z</time></trkpt><trkpt lat="45.6198396" lon="9.429105"><ele>208.0</ele><time>2026-05-02T14:08:07.843Z</time></trkpt><trkpt lat="45.6198135" lon="9.4292505"><ele>208.0</ele><time>2026-05-02T14:08:09.844Z</time></trkpt><trkpt lat="45.6197915" lon="9.4294288"><ele>208.0</ele><time>2026-05-02T14:08:11.844Z</time></trkpt><trkpt lat="45.6197646" lon="9.4295798"><ele>208.0</ele><time>2026-05-02T14:08:13.843Z</time></trkpt><trkpt lat="45.6197391" lon="9.4296772"><ele>208.0</ele><time>2026-05-02T14:08:14.844Z</time></trkpt><trkpt lat="45.6196857" lon="9.4298419"><ele>208.0</ele><time>2026-05-02T14:08:16.843Z</time></trkpt><trkpt lat="45.6196169" lon="9.4299597"><ele>208.0</ele><time>2026-05-02T14:08:18.844Z</time></trkpt><trkpt lat="45.6195188" lon="9.4300495"><ele>208.0</ele><time>2026-05-02T14:08:20.844Z</time></trkpt><trkpt lat="45.619424" lon="9.4301379"><ele>208.0</ele><time>2026-05-02T14:08:22.844Z</time></trkpt><trkpt lat="45.6193177" lon="9.4302155"><ele>208.0</ele><time>2026-05-02T14:08:24.843Z</time></trkpt><trkpt lat="45.619201" lon="9.4302824"><ele>208.0</ele><time>2026-05-02T14:08:26.844Z</time></trkpt><trkpt lat="45.6191365" lon="9.4303102"><ele>208.0</ele><time>2026-05-02T14:08:27.843Z</time></trkpt><trkpt lat="45.6190732" lon="9.4303427"><ele>208.0</ele><time>2026-05-02T14:08:28.844Z</time></trkpt><trkpt lat="45.6189465" lon="9.4303944"><ele>208.0</ele><time>2026-05-02T14:08:30.843Z</time></trkpt><trkpt lat="45.6188855" lon="9.4304207"><ele>208.0</ele><time>2026-05-02T14:08:31.843Z</time></trkpt><trkpt lat="45.6187684" lon="9.4304651"><ele>208.0</ele><time>2026-05-02T14:08:33.844Z</time></trkpt><trkpt lat="45.6186485" lon="9.4305232"><ele>208.0</ele><time>2026-05-02T14:08:35.843Z</time></trkpt><trkpt lat="45.6185872" lon="9.4305523"><ele>207.99999999999997</ele><time>2026-05-02T14:08:36.844Z</time></trkpt><trkpt lat="45.6185251" lon="9.4305852"><ele>208.0</ele><time>2026-05-02T14:08:37.844Z</time></trkpt><trkpt lat="45.6184555" lon="9.4306136"><ele>208.0</ele><time>2026-05-02T14:08:38.844Z</time></trkpt><trkpt lat="45.6183401" lon="9.4306755"><ele>208.0</ele><time>2026-05-02T14:08:40.844Z</time></trkpt><trkpt lat="45.6182881" lon="9.4307294"><ele>207.99999999999997</ele><time>2026-05-02T14:08:41.843Z</time></trkpt><trkpt lat="45.6182415" lon="9.4307945"><ele>208.0</ele><time>2026-05-02T14:08:42.844Z</time></trkpt><trkpt lat="45.6181897" lon="9.4308627"><ele>208.0</ele><time>2026-05-02T14:08:43.843Z</time></trkpt><trkpt lat="45.6181044" lon="9.4309937"><ele>208.0</ele><time>2026-05-02T14:08:45.844Z</time></trkpt><trkpt lat="45.61804" lon="9.4311445"><ele>208.0</ele><time>2026-05-02T14:08:47.843Z</time></trkpt><trkpt lat="45.6179919" lon="9.4312952"><ele>208.0</ele><time>2026-05-02T14:08:49.843Z</time></trkpt><trkpt lat="45.6179415" lon="9.431457"><ele>207.8</ele><time>2026-05-02T14:08:51.844Z</time></trkpt><trkpt lat="45.6178826" lon="9.4315717"><ele>207.60000000000002</ele><time>2026-05-02T14:08:53.843Z</time></trkpt><trkpt lat="45.6178618" lon="9.4316708"><ele>207.39999999999998</ele><time>2026-05-02T14:08:54.843Z</time></trkpt><trkpt lat="45.6178076" lon="9.4318291"><ele>207.2</ele><time>2026-05-02T14:08:56.844Z</time></trkpt><trkpt lat="45.6177606" lon="9.4319783"><ele>207.0</ele><time>2026-05-02T14:08:58.844Z</time></trkpt><trkpt lat="45.6177048" lon="9.4321304"><ele>206.75</ele><time>2026-05-02T14:09:00.844Z</time></trkpt><trkpt lat="45.6176529" lon="9.4322682"><ele>206.5</ele><time>2026-05-02T14:09:02.843Z</time></trkpt><trkpt lat="45.6176028" lon="9.4324105"><ele>206.25</ele><time>2026-05-02T14:09:04.843Z</time></trkpt><trkpt lat="45.6175491" lon="9.4325558"><ele>206.0</ele><time>2026-05-02T14:09:06.844Z</time></trkpt><trkpt lat="45.617476" lon="9.4327008"><ele>206.0</ele><time>2026-05-02T14:09:08.844Z</time></trkpt><trkpt lat="45.617392" lon="9.4328366"><ele>206.0</ele><time>2026-05-02T14:09:10.844Z</time></trkpt><trkpt lat="45.6173125" lon="9.4329765"><ele>206.0</ele><time>2026-05-02T14:09:12.843Z</time></trkpt><trkpt lat="45.6172713" lon="9.4330451"><ele>206.0</ele><time>2026-05-02T14:09:13.843Z</time></trkpt><trkpt lat="45.6171942" lon="9.4331842"><ele>206.0</ele><time>2026-05-02T14:09:15.844Z</time></trkpt><trkpt lat="45.6171055" lon="9.4333076"><ele>206.00000000000003</ele><time>2026-05-02T14:09:17.843Z</time></trkpt><trkpt lat="45.6170207" lon="9.4334547"><ele>206.0</ele><time>2026-05-02T14:09:19.844Z</time></trkpt><trkpt lat="45.6169788" lon="9.4335235"><ele>206.0</ele><time>2026-05-02T14:09:20.844Z</time></trkpt><trkpt lat="45.6169332" lon="9.4335929"><ele>206.0</ele><time>2026-05-02T14:09:21.844Z</time></trkpt><trkpt lat="45.6168852" lon="9.4336564"><ele>206.00000000000003</ele><time>2026-05-02T14:09:22.843Z</time></trkpt><trkpt lat="45.6168442" lon="9.4337291"><ele>206.0</ele><time>2026-05-02T14:09:23.844Z</time></trkpt><trkpt lat="45.6167505" lon="9.433846"><ele>206.0</ele><time>2026-05-02T14:09:25.843Z</time></trkpt><trkpt lat="45.616654" lon="9.4339066"><ele>206.0</ele><time>2026-05-02T14:09:27.844Z</time></trkpt><trkpt lat="45.6165484" lon="9.4338801"><ele>206.0</ele><time>2026-05-02T14:09:29.844Z</time></trkpt><trkpt lat="45.6164515" lon="9.4337911"><ele>206.0</ele><time>2026-05-02T14:09:31.843Z</time></trkpt><trkpt lat="45.6163721" lon="9.4336586"><ele>205.8</ele><time>2026-05-02T14:09:33.844Z</time></trkpt><trkpt lat="45.6163415" lon="9.4335791"><ele>205.60000000000002</ele><time>2026-05-02T14:09:34.844Z</time></trkpt><trkpt lat="45.6162957" lon="9.4334204"><ele>205.4</ele><time>2026-05-02T14:09:36.844Z</time></trkpt><trkpt lat="45.6162627" lon="9.4332561"><ele>205.2</ele><time>2026-05-02T14:09:38.844Z</time></trkpt><trkpt lat="45.6162357" lon="9.4331011"><ele>205.0</ele><time>2026-05-02T14:09:40.844Z</time></trkpt><trkpt lat="45.6162198" lon="9.4329475"><ele>205.0</ele><time>2026-05-02T14:09:42.843Z</time></trkpt><trkpt lat="45.6162041" lon="9.432791"><ele>205.0</ele><time>2026-05-02T14:09:44.843Z</time></trkpt><trkpt lat="45.6161841" lon="9.4326419"><ele>205.0</ele><time>2026-05-02T14:09:46.844Z</time></trkpt><trkpt lat="45.6161643" lon="9.432481"><ele>205.0</ele><time>2026-05-02T14:09:48.843Z</time></trkpt><trkpt lat="45.6161574" lon="9.4323294"><ele>205.0</ele><time>2026-05-02T14:09:50.844Z</time></trkpt><trkpt lat="45.6161496" lon="9.4321812"><ele>205.0</ele><time>2026-05-02T14:09:52.844Z</time></trkpt><trkpt lat="45.6161341" lon="9.4320615"><ele>205.0</ele><time>2026-05-02T14:09:54.843Z</time></trkpt><trkpt lat="45.6160693" lon="9.4320255"><ele>205.0</ele><time>2026-05-02T14:09:56.843Z</time></trkpt><trkpt lat="45.6160029" lon="9.4320357"><ele>205.0</ele><time>2026-05-02T14:09:58.844Z</time></trkpt><trkpt lat="45.6159663" lon="9.4321137"><ele>205.0</ele><time>2026-05-02T14:10:00.843Z</time></trkpt><trkpt lat="45.6159549" lon="9.4322067"><ele>205.0</ele><time>2026-05-02T14:10:02.844Z</time></trkpt><trkpt lat="45.6159475" lon="9.4323179"><ele>205.0</ele><time>2026-05-02T14:10:04.843Z</time></trkpt><trkpt lat="45.6159363" lon="9.4324356"><ele>204.75</ele><time>2026-05-02T14:10:06.843Z</time></trkpt><trkpt lat="45.6159225" lon="9.432555"><ele>204.5</ele><time>2026-05-02T14:10:08.842Z</time></trkpt><trkpt lat="45.6159078" lon="9.432669"><ele>204.25</ele><time>2026-05-02T14:10:10.843Z</time></trkpt><trkpt lat="45.6158604" lon="9.4327675"><ele>204.0</ele><time>2026-05-02T14:10:12.844Z</time></trkpt><trkpt lat="45.6156933" lon="9.4329568"><ele>204.0</ele><time>2026-05-02T14:10:20.843Z</time></trkpt><trkpt lat="45.6156362" lon="9.4331355"><ele>204.0</ele><time>2026-05-02T14:10:21.852Z</time></trkpt><trkpt lat="45.6156395" lon="9.4333089"><ele>204.0</ele><time>2026-05-02T14:10:23.845Z</time></trkpt><trkpt lat="45.6156208" lon="9.4334225"><ele>204.0</ele><time>2026-05-02T14:10:25.855Z</time></trkpt><trkpt lat="45.6155425" lon="9.4334847"><ele>204.0</ele><time>2026-05-02T14:10:27.854Z</time></trkpt><trkpt lat="45.6154584" lon="9.4334488"><ele>204.0</ele><time>2026-05-02T14:10:29.855Z</time></trkpt><trkpt lat="45.6153547" lon="9.4334058"><ele>204.0</ele><time>2026-05-02T14:10:31.854Z</time></trkpt><trkpt lat="45.6152471" lon="9.433353"><ele>204.0</ele><time>2026-05-02T14:10:33.854Z</time></trkpt><trkpt lat="45.6151396" lon="9.4333104"><ele>204.0</ele><time>2026-05-02T14:10:35.855Z</time></trkpt><trkpt lat="45.6150276" lon="9.4332648"><ele>204.16666666666666</ele><time>2026-05-02T14:10:37.855Z</time></trkpt><trkpt lat="45.6149168" lon="9.4332269"><ele>204.33333333333331</ele><time>2026-05-02T14:10:39.854Z</time></trkpt><trkpt lat="45.6148539" lon="9.4331927"><ele>204.5</ele><time>2026-05-02T14:10:40.855Z</time></trkpt><trkpt lat="45.6147909" lon="9.4331592"><ele>204.66666666666666</ele><time>2026-05-02T14:10:41.855Z</time></trkpt><trkpt lat="45.6147251" lon="9.4331314"><ele>204.83333333333331</ele><time>2026-05-02T14:10:42.855Z</time></trkpt><trkpt lat="45.6146633" lon="9.433102"><ele>205.0</ele><time>2026-05-02T14:10:43.854Z</time></trkpt><trkpt lat="45.6145973" lon="9.4330747"><ele>204.8</ele><time>2026-05-02T14:10:44.855Z</time></trkpt><trkpt lat="45.6144767" lon="9.4330172"><ele>204.6</ele><time>2026-05-02T14:10:46.854Z</time></trkpt><trkpt lat="45.6143615" lon="9.4329597"><ele>204.39999999999998</ele><time>2026-05-02T14:10:48.855Z</time></trkpt><trkpt lat="45.6142956" lon="9.4329441"><ele>204.2</ele><time>2026-05-02T14:10:49.854Z</time></trkpt><trkpt lat="45.6141766" lon="9.4328757"><ele>204.0</ele><time>2026-05-02T14:10:51.855Z</time></trkpt><trkpt lat="45.6141119" lon="9.4328525"><ele>203.79999999999998</ele><time>2026-05-02T14:10:52.855Z</time></trkpt><trkpt lat="45.6140148" lon="9.4328093"><ele>203.6</ele><time>2026-05-02T14:10:54.854Z</time></trkpt><trkpt lat="45.6139224" lon="9.4328266"><ele>203.4</ele><time>2026-05-02T14:10:56.855Z</time></trkpt><trkpt lat="45.6138106" lon="9.4328772"><ele>203.2</ele><time>2026-05-02T14:10:58.854Z</time></trkpt><trkpt lat="45.6137031" lon="9.4328648"><ele>203.0</ele><time>2026-05-02T14:11:00.855Z</time></trkpt><trkpt lat="45.6135849" lon="9.4328079"><ele>203.00000000000003</ele><time>2026-05-02T14:11:02.855Z</time></trkpt><trkpt lat="45.6135249" lon="9.4327723"><ele>203.0</ele><time>2026-05-02T14:11:03.855Z</time></trkpt><trkpt lat="45.6134618" lon="9.4327452"><ele>203.0</ele><time>2026-05-02T14:11:04.855Z</time></trkpt><trkpt lat="45.6133278" lon="9.4326868"><ele>203.0</ele><time>2026-05-02T14:11:06.855Z</time></trkpt><trkpt lat="45.6132587" lon="9.4326574"><ele>203.00000000000003</ele><time>2026-05-02T14:11:07.855Z</time></trkpt><trkpt lat="45.6131933" lon="9.432625"><ele>203.0</ele><time>2026-05-02T14:11:08.855Z</time></trkpt><trkpt lat="45.6130834" lon="9.4325732"><ele>203.0</ele><time>2026-05-02T14:11:10.855Z</time></trkpt><trkpt lat="45.6129645" lon="9.4325217"><ele>203.0</ele><time>2026-05-02T14:11:12.854Z</time></trkpt><trkpt lat="45.6128555" lon="9.4324895"><ele>203.0</ele><time>2026-05-02T14:11:14.854Z</time></trkpt><trkpt lat="45.6127601" lon="9.4324175"><ele>203.0</ele><time>2026-05-02T14:11:16.854Z</time></trkpt><trkpt lat="45.6127298" lon="9.4322805"><ele>203.0</ele><time>2026-05-02T14:11:18.854Z</time></trkpt><trkpt lat="45.6127588" lon="9.432141"><ele>202.8</ele><time>2026-05-02T14:11:20.855Z</time></trkpt><trkpt lat="45.6127757" lon="9.4319896"><ele>202.60000000000002</ele><time>2026-05-02T14:11:22.854Z</time></trkpt><trkpt lat="45.6128041" lon="9.4318122"><ele>202.39999999999998</ele><time>2026-05-02T14:11:24.855Z</time></trkpt><trkpt lat="45.6128153" lon="9.4317217"><ele>202.2</ele><time>2026-05-02T14:11:25.854Z</time></trkpt><trkpt lat="45.6128408" lon="9.4315467"><ele>202.0</ele><time>2026-05-02T14:11:27.854Z</time></trkpt><trkpt lat="45.6128515" lon="9.4314544"><ele>202.2</ele><time>2026-05-02T14:11:28.854Z</time></trkpt><trkpt lat="45.6128673" lon="9.4312878"><ele>202.39999999999998</ele><time>2026-05-02T14:11:30.855Z</time></trkpt><trkpt lat="45.6128807" lon="9.431192"><ele>202.60000000000002</ele><time>2026-05-02T14:11:31.855Z</time></trkpt><trkpt lat="45.6128913" lon="9.431095"><ele>202.8</ele><time>2026-05-02T14:11:32.855Z</time></trkpt><trkpt lat="45.6129101" lon="9.4309158"><ele>203.0</ele><time>2026-05-02T14:11:34.855Z</time></trkpt><trkpt lat="45.6129231" lon="9.4307379"><ele>203.0</ele><time>2026-05-02T14:11:36.854Z</time></trkpt><trkpt lat="45.6129345" lon="9.4305568"><ele>203.0</ele><time>2026-05-02T14:11:38.855Z</time></trkpt><trkpt lat="45.6129459" lon="9.4304622"><ele>203.0</ele><time>2026-05-02T14:11:39.855Z</time></trkpt><trkpt lat="45.612949" lon="9.4303694"><ele>203.0</ele><time>2026-05-02T14:11:40.854Z</time></trkpt><trkpt lat="45.6129662" lon="9.4302677"><ele>203.0</ele><time>2026-05-02T14:11:41.855Z</time></trkpt><trkpt lat="45.6129752" lon="9.4300946"><ele>202.83333333333334</ele><time>2026-05-02T14:11:43.854Z</time></trkpt><trkpt lat="45.6129679" lon="9.4299218"><ele>202.66666666666669</ele><time>2026-05-02T14:11:45.854Z</time></trkpt><trkpt lat="45.6129513" lon="9.4298307"><ele>202.5</ele><time>2026-05-02T14:11:46.854Z</time></trkpt><trkpt lat="45.6129275" lon="9.4297459"><ele>202.33333333333331</ele><time>2026-05-02T14:11:47.855Z</time></trkpt><trkpt lat="45.6128972" lon="9.4296634"><ele>202.16666666666666</ele><time>2026-05-02T14:11:48.854Z</time></trkpt><trkpt lat="45.6128198" lon="9.429528"><ele>202.0</ele><time>2026-05-02T14:11:50.855Z</time></trkpt><trkpt lat="45.6127442" lon="9.4293799"><ele>202.0</ele><time>2026-05-02T14:11:52.854Z</time></trkpt><trkpt lat="45.6127113" lon="9.4292057"><ele>202.0</ele><time>2026-05-02T14:11:54.855Z</time></trkpt><trkpt lat="45.612751" lon="9.429038"><ele>202.0</ele><time>2026-05-02T14:11:56.854Z</time></trkpt><trkpt lat="45.6127833" lon="9.4288653"><ele>202.0</ele><time>2026-05-02T14:11:58.855Z</time></trkpt><trkpt lat="45.6127981" lon="9.4287741"><ele>202.0</ele><time>2026-05-02T14:11:59.854Z</time></trkpt><trkpt lat="45.6128118" lon="9.4286822"><ele>201.99999999999997</ele><time>2026-05-02T14:12:00.855Z</time></trkpt><trkpt lat="45.6128288" lon="9.4285925"><ele>202.0</ele><time>2026-05-02T14:12:01.855Z</time></trkpt><trkpt lat="45.6128462" lon="9.4284975"><ele>202.0</ele><time>2026-05-02T14:12:02.854Z</time></trkpt><trkpt lat="45.6128844" lon="9.4283202"><ele>202.0</ele><time>2026-05-02T14:12:04.855Z</time></trkpt><trkpt lat="45.6129036" lon="9.4282224"><ele>201.99999999999997</ele><time>2026-05-02T14:12:05.854Z</time></trkpt><trkpt lat="45.6129182" lon="9.4281253"><ele>202.0</ele><time>2026-05-02T14:12:06.855Z</time></trkpt><trkpt lat="45.6129469" lon="9.4279427"><ele>201.99999999999997</ele><time>2026-05-02T14:12:08.854Z</time></trkpt><trkpt lat="45.6129662" lon="9.4278499"><ele>202.0</ele><time>2026-05-02T14:12:09.855Z</time></trkpt><trkpt lat="45.6129838" lon="9.4277545"><ele>202.0</ele><time>2026-05-02T14:12:10.854Z</time></trkpt><trkpt lat="45.6129952" lon="9.4276627"><ele>202.0</ele><time>2026-05-02T14:12:11.855Z</time></trkpt><trkpt lat="45.6130126" lon="9.4275714"><ele>201.99999999999997</ele><time>2026-05-02T14:12:12.855Z</time></trkpt><trkpt lat="45.6130265" lon="9.4274814"><ele>202.0</ele><time>2026-05-02T14:12:13.855Z</time></trkpt><trkpt lat="45.613057" lon="9.4273107"><ele>202.0</ele><time>2026-05-02T14:12:15.855Z</time></trkpt><trkpt lat="45.6130793" lon="9.4271348"><ele>202.0</ele><time>2026-05-02T14:12:17.854Z</time></trkpt><trkpt lat="45.6130984" lon="9.4269758"><ele>202.0</ele><time>2026-05-02T14:12:19.854Z</time></trkpt><trkpt lat="45.6130853" lon="9.4268278"><ele>202.0</ele><time>2026-05-02T14:12:21.854Z</time></trkpt><trkpt lat="45.6130295" lon="9.4267094"><ele>202.0</ele><time>2026-05-02T14:12:23.854Z</time></trkpt><trkpt lat="45.612933" lon="9.4266663"><ele>202.0</ele><time>2026-05-02T14:12:25.855Z</time></trkpt><trkpt lat="45.6128227" lon="9.4266508"><ele>202.0</ele><time>2026-05-02T14:12:27.855Z</time></trkpt><trkpt lat="45.6127052" lon="9.4266273"><ele>202.0</ele><time>2026-05-02T14:12:29.855Z</time></trkpt><trkpt lat="45.6125875" lon="9.4265837"><ele>202.0</ele><time>2026-05-02T14:12:31.855Z</time></trkpt><trkpt lat="45.6124843" lon="9.4264858"><ele>202.0</ele><time>2026-05-02T14:12:33.854Z</time></trkpt><trkpt lat="45.6123681" lon="9.4264016"><ele>202.0</ele><time>2026-05-02T14:12:35.854Z</time></trkpt><trkpt lat="45.6122475" lon="9.4263494"><ele>202.0</ele><time>2026-05-02T14:12:37.855Z</time></trkpt><trkpt lat="45.6121895" lon="9.426313"><ele>202.0</ele><time>2026-05-02T14:12:38.854Z</time></trkpt><trkpt lat="45.6120825" lon="9.4262265"><ele>202.0</ele><time>2026-05-02T14:12:40.855Z</time></trkpt><trkpt lat="45.611979" lon="9.4261482"><ele>201.0</ele><time>2026-05-02T14:12:42.854Z</time></trkpt><trkpt lat="45.611872" lon="9.4261077"><ele>200.0</ele><time>2026-05-02T14:12:44.855Z</time></trkpt><trkpt lat="45.6117509" lon="9.4260954"><ele>199.0</ele><time>2026-05-02T14:12:46.855Z</time></trkpt><trkpt lat="45.6116282" lon="9.4260813"><ele>198.0</ele><time>2026-05-02T14:12:48.854Z</time></trkpt><trkpt lat="45.6115197" lon="9.4260824"><ele>198.0</ele><time>2026-05-02T14:12:50.855Z</time></trkpt><trkpt lat="45.6114154" lon="9.426071"><ele>198.0</ele><time>2026-05-02T14:12:52.854Z</time></trkpt><trkpt lat="45.6113085" lon="9.4260461"><ele>198.0</ele><time>2026-05-02T14:12:54.855Z</time></trkpt><trkpt lat="45.6111987" lon="9.4260211"><ele>198.0</ele><time>2026-05-02T14:12:56.855Z</time></trkpt><trkpt lat="45.6110838" lon="9.4259866"><ele>198.0</ele><time>2026-05-02T14:12:58.855Z</time></trkpt><trkpt lat="45.6109798" lon="9.4259339"><ele>198.66666666666666</ele><time>2026-05-02T14:13:00.855Z</time></trkpt><trkpt lat="45.6109226" lon="9.4258913"><ele>199.33333333333331</ele><time>2026-05-02T14:13:02.854Z</time></trkpt><trkpt lat="45.610833" lon="9.4258566"><ele>200.0</ele><time>2026-05-02T14:13:07.855Z</time></trkpt><trkpt lat="45.6107874" lon="9.4257546"><ele>200.66666666666666</ele><time>2026-05-02T14:13:09.855Z</time></trkpt><trkpt lat="45.610747" lon="9.4256279"><ele>201.33333333333331</ele><time>2026-05-02T14:13:11.854Z</time></trkpt><trkpt lat="45.6106962" lon="9.4255411"><ele>202.0</ele><time>2026-05-02T14:13:13.854Z</time></trkpt><trkpt lat="45.6106218" lon="9.4255255"><ele>202.0</ele><time>2026-05-02T14:13:15.854Z</time></trkpt><trkpt lat="45.6105333" lon="9.4255195"><ele>202.0</ele><time>2026-05-02T14:13:17.855Z</time></trkpt><trkpt lat="45.6104398" lon="9.4254838"><ele>202.0</ele><time>2026-05-02T14:13:19.855Z</time></trkpt><trkpt lat="45.6103484" lon="9.4254462"><ele>202.0</ele><time>2026-05-02T14:13:21.855Z</time></trkpt><trkpt lat="45.6102539" lon="9.4254073"><ele>202.0</ele><time>2026-05-02T14:13:23.854Z</time></trkpt><trkpt lat="45.6101536" lon="9.4253604"><ele>201.0</ele><time>2026-05-02T14:13:25.855Z</time></trkpt><trkpt lat="45.6100524" lon="9.425311"><ele>200.0</ele><time>2026-05-02T14:13:27.855Z</time></trkpt><trkpt lat="45.609939" lon="9.4252659"><ele>199.0</ele><time>2026-05-02T14:13:29.855Z</time></trkpt><trkpt lat="45.6098375" lon="9.4252322"><ele>198.0</ele><time>2026-05-02T14:13:31.854Z</time></trkpt><trkpt lat="45.6097467" lon="9.4252104"><ele>197.0</ele><time>2026-05-02T14:13:33.855Z</time></trkpt><trkpt lat="45.6096832" lon="9.4252475"><ele>197.00000000000003</ele><time>2026-05-02T14:13:35.855Z</time></trkpt><trkpt lat="45.6096292" lon="9.4253306"><ele>197.0</ele><time>2026-05-02T14:13:37.855Z</time></trkpt><trkpt lat="45.6095788" lon="9.4254306"><ele>197.0</ele><time>2026-05-02T14:13:39.855Z</time></trkpt><trkpt lat="45.6095632" lon="9.4255428"><ele>197.0</ele><time>2026-05-02T14:13:41.854Z</time></trkpt><trkpt lat="45.6095404" lon="9.4256716"><ele>197.00000000000003</ele><time>2026-05-02T14:13:43.854Z</time></trkpt><trkpt lat="45.6095257" lon="9.4258062"><ele>197.0</ele><time>2026-05-02T14:13:45.855Z</time></trkpt><trkpt lat="45.6095562" lon="9.4259167"><ele>197.83333333333334</ele><time>2026-05-02T14:13:47.854Z</time></trkpt><trkpt lat="45.6096231" lon="9.4259481"><ele>198.66666666666669</ele><time>2026-05-02T14:13:49.854Z</time></trkpt><trkpt lat="45.6096477" lon="9.4260353"><ele>199.5</ele><time>2026-05-02T14:14:25.855Z</time></trkpt><trkpt lat="45.6096647" lon="9.4261239"><ele>200.33333333333331</ele><time>2026-05-02T14:14:27.854Z</time></trkpt><trkpt lat="45.6096706" lon="9.4262417"><ele>201.16666666666666</ele><time>2026-05-02T14:14:29.855Z</time></trkpt><trkpt lat="45.6096709" lon="9.4263623"><ele>202.0</ele><time>2026-05-02T14:14:31.854Z</time></trkpt><trkpt lat="45.6096654" lon="9.4264906"><ele>201.99999999999997</ele><time>2026-05-02T14:14:33.854Z</time></trkpt><trkpt lat="45.6096605" lon="9.4266199"><ele>202.0</ele><time>2026-05-02T14:14:35.854Z</time></trkpt><trkpt lat="45.6096616" lon="9.4267408"><ele>202.0</ele><time>2026-05-02T14:14:37.854Z</time></trkpt><trkpt lat="45.6096693" lon="9.4268443"><ele>202.0</ele><time>2026-05-02T14:14:39.855Z</time></trkpt><trkpt lat="45.6096502" lon="9.4269527"><ele>201.99999999999997</ele><time>2026-05-02T14:14:41.855Z</time></trkpt><trkpt lat="45.6096429" lon="9.4270505"><ele>202.0</ele><time>2026-05-02T14:14:43.854Z</time></trkpt><trkpt lat="45.6096884" lon="9.4271217"><ele>202.0</ele><time>2026-05-02T14:14:46.854Z</time></trkpt><trkpt lat="45.609908" lon="9.4272463"><ele>200.0</ele><time>2026-05-02T14:17:27.448Z</time></trkpt><trkpt lat="45.6099503" lon="9.4271531"><ele>200.0</ele><time>2026-05-02T14:17:53.837Z</time></trkpt><trkpt lat="45.6099959" lon="9.4272204"><ele>200.0</ele><time>2026-05-02T14:18:09.838Z</time></trkpt></trkseg></trk></gpx>